<?xml version="1.0" encoding="UTF-8" standalone="no" ?>
<gpx xmlns="http://www.topografix.com/GPX/1/1" xmlns:xsi="http://www.w3.org/2001/XMLSchema-instance" xsi:schemaLocation="http://www.topografix.com/GPX/1/1 http://www.topografix.com/GPX/1/1/gpx.xsd" version="1.1" creator="VisuGPX - https://www.visugpx.com">
  <metadata>
    <name>2015-12-10 Grotte du Biolet et Roche de Fitta</name>
    <desc><![CDATA[Conditions hivernales pour cette rando engagée. Crampons et piolet obligatoires]]></desc>
  </metadata>
  <trk>
    <name><![CDATA[2015-12-10 Grotte du Biolet - Roche de Fitta]]></name>
    <trkseg>
      <trkpt lat="45.41209" lon="5.88697">
        <ele>1029</ele>
        <time>2015-12-10T07:42:43Z</time>
      </trkpt>
      <trkpt lat="45.4122" lon="5.887">
        <ele>1038.029515573</ele>
        <time>2015-12-10T07:42:49Z</time>
      </trkpt>
      <trkpt lat="45.41218" lon="5.88704">
        <ele>1038.029515573</ele>
        <time>2015-12-10T07:42:53Z</time>
      </trkpt>
      <trkpt lat="45.41209" lon="5.88712">
        <ele>1048.238941387</ele>
        <time>2015-12-10T07:43:03Z</time>
      </trkpt>
      <trkpt lat="45.41201" lon="5.88719">
        <ele>1048.238941387</ele>
        <time>2015-12-10T07:43:10Z</time>
      </trkpt>
      <trkpt lat="45.41191" lon="5.88726">
        <ele>1055.503181376</ele>
        <time>2015-12-10T07:43:19Z</time>
      </trkpt>
      <trkpt lat="45.41188" lon="5.88732">
        <ele>1055.503181376</ele>
        <time>2015-12-10T07:43:24Z</time>
      </trkpt>
      <trkpt lat="45.41188" lon="5.88735">
        <ele>1055.503181376</ele>
        <time>2015-12-10T07:43:35Z</time>
      </trkpt>
      <trkpt lat="45.41188" lon="5.88735">
        <ele>1055.503181376</ele>
        <time>2015-12-10T07:43:39Z</time>
      </trkpt>
      <trkpt lat="45.41188" lon="5.88735">
        <ele>1055.503181376</ele>
        <time>2015-12-10T07:43:49Z</time>
      </trkpt>
      <trkpt lat="45.41188" lon="5.88735">
        <ele>1055.503181376</ele>
        <time>2015-12-10T07:43:55Z</time>
      </trkpt>
      <trkpt lat="45.41188" lon="5.88736">
        <ele>1055.503181376</ele>
        <time>2015-12-10T07:44:04Z</time>
      </trkpt>
      <trkpt lat="45.41188" lon="5.88736">
        <ele>1055.503181376</ele>
        <time>2015-12-10T07:44:09Z</time>
      </trkpt>
      <trkpt lat="45.41188" lon="5.88736">
        <ele>1055.503181376</ele>
        <time>2015-12-10T07:44:19Z</time>
      </trkpt>
      <trkpt lat="45.41188" lon="5.88736">
        <ele>1055.503181376</ele>
        <time>2015-12-10T07:44:24Z</time>
      </trkpt>
      <trkpt lat="45.41188" lon="5.88736">
        <ele>1055.503181376</ele>
        <time>2015-12-10T07:44:34Z</time>
      </trkpt>
      <trkpt lat="45.41188" lon="5.88736">
        <ele>1055.503181376</ele>
        <time>2015-12-10T07:44:39Z</time>
      </trkpt>
      <trkpt lat="45.41182" lon="5.88755">
        <ele>1061.943112023</ele>
        <time>2015-12-10T07:44:55Z</time>
      </trkpt>
      <trkpt lat="45.41182" lon="5.88757">
        <ele>1061.943112023</ele>
        <time>2015-12-10T07:44:59Z</time>
      </trkpt>
      <trkpt lat="45.4118" lon="5.88764">
        <ele>1061.943112023</ele>
        <time>2015-12-10T07:45:10Z</time>
      </trkpt>
      <trkpt lat="45.41176" lon="5.88768">
        <ele>1068.748576298</ele>
        <time>2015-12-10T07:45:14Z</time>
      </trkpt>
      <trkpt lat="45.41173" lon="5.88781">
        <ele>1075.209307177</ele>
        <time>2015-12-10T07:45:24Z</time>
      </trkpt>
      <trkpt lat="45.41171" lon="5.88784">
        <ele>1075.209307177</ele>
        <time>2015-12-10T07:45:29Z</time>
      </trkpt>
      <trkpt lat="45.41171" lon="5.88786">
        <ele>1075.209307177</ele>
        <time>2015-12-10T07:45:40Z</time>
      </trkpt>
      <trkpt lat="45.41167" lon="5.88788">
        <ele>1075.209307177</ele>
        <time>2015-12-10T07:45:44Z</time>
      </trkpt>
      <trkpt lat="45.41158" lon="5.88804">
        <ele>1080.712652696</ele>
        <time>2015-12-10T07:45:55Z</time>
      </trkpt>
      <trkpt lat="45.41157" lon="5.88807">
        <ele>1080.712652696</ele>
        <time>2015-12-10T07:45:58Z</time>
      </trkpt>
      <trkpt lat="45.41151" lon="5.88826">
        <ele>1085.629490121</ele>
        <time>2015-12-10T07:46:14Z</time>
      </trkpt>
      <trkpt lat="45.41148" lon="5.8883">
        <ele>1085.629490121</ele>
        <time>2015-12-10T07:46:29Z</time>
      </trkpt>
      <trkpt lat="45.4114" lon="5.88845">
        <ele>1089.738259784</ele>
        <time>2015-12-10T07:46:45Z</time>
      </trkpt>
      <trkpt lat="45.41136" lon="5.88847">
        <ele>1089.738259784</ele>
        <time>2015-12-10T07:46:50Z</time>
      </trkpt>
      <trkpt lat="45.41131" lon="5.88855">
        <ele>1093.376877746</ele>
        <time>2015-12-10T07:46:59Z</time>
      </trkpt>
      <trkpt lat="45.41128" lon="5.88857">
        <ele>1093.376877746</ele>
        <time>2015-12-10T07:47:05Z</time>
      </trkpt>
      <trkpt lat="45.41124" lon="5.88864">
        <ele>1096.223927646</ele>
        <time>2015-12-10T07:47:14Z</time>
      </trkpt>
      <trkpt lat="45.41124" lon="5.88864">
        <ele>1096.223927646</ele>
        <time>2015-12-10T07:47:19Z</time>
      </trkpt>
      <trkpt lat="45.41123" lon="5.88864">
        <ele>1096.223927646</ele>
        <time>2015-12-10T07:47:29Z</time>
      </trkpt>
      <trkpt lat="45.41122" lon="5.88864">
        <ele>1096.223927646</ele>
        <time>2015-12-10T07:47:34Z</time>
      </trkpt>
      <trkpt lat="45.41108" lon="5.88872">
        <ele>1099.191667867</ele>
        <time>2015-12-10T07:47:45Z</time>
      </trkpt>
      <trkpt lat="45.41106" lon="5.88874">
        <ele>1099.191667867</ele>
        <time>2015-12-10T07:47:49Z</time>
      </trkpt>
      <trkpt lat="45.41104" lon="5.88874">
        <ele>1099.191667867</ele>
        <time>2015-12-10T07:48:00Z</time>
      </trkpt>
      <trkpt lat="45.41103" lon="5.88876">
        <ele>1099.191667867</ele>
        <time>2015-12-10T07:48:04Z</time>
      </trkpt>
      <trkpt lat="45.41098" lon="5.88881">
        <ele>1102.474580369</ele>
        <time>2015-12-10T07:48:15Z</time>
      </trkpt>
      <trkpt lat="45.41097" lon="5.88881">
        <ele>1102.474580369</ele>
        <time>2015-12-10T07:48:19Z</time>
      </trkpt>
      <trkpt lat="45.41083" lon="5.88897">
        <ele>1106.756241818</ele>
        <time>2015-12-10T07:48:35Z</time>
      </trkpt>
      <trkpt lat="45.41081" lon="5.88904">
        <ele>1106.756241818</ele>
        <time>2015-12-10T07:48:39Z</time>
      </trkpt>
      <trkpt lat="45.41075" lon="5.88914">
        <ele>1110.153715791</ele>
        <time>2015-12-10T07:48:50Z</time>
      </trkpt>
      <trkpt lat="45.41074" lon="5.88913">
        <ele>1110.153715791</ele>
        <time>2015-12-10T07:48:54Z</time>
      </trkpt>
      <trkpt lat="45.41073" lon="5.88915">
        <ele>1110.153715791</ele>
        <time>2015-12-10T07:49:04Z</time>
      </trkpt>
      <trkpt lat="45.41072" lon="5.88914">
        <ele>1110.153715791</ele>
        <time>2015-12-10T07:49:10Z</time>
      </trkpt>
      <trkpt lat="45.41067" lon="5.88922">
        <ele>1114.272619234</ele>
        <time>2015-12-10T07:49:20Z</time>
      </trkpt>
      <trkpt lat="45.41066" lon="5.88924">
        <ele>1114.272619234</ele>
        <time>2015-12-10T07:49:24Z</time>
      </trkpt>
      <trkpt lat="45.41065" lon="5.88928">
        <ele>1114.272619234</ele>
        <time>2015-12-10T07:49:28Z</time>
      </trkpt>
      <trkpt lat="45.41062" lon="5.88938">
        <ele>1117.595384685</ele>
        <time>2015-12-10T07:49:34Z</time>
      </trkpt>
      <trkpt lat="45.4106" lon="5.88939">
        <ele>1117.595384685</ele>
        <time>2015-12-10T07:49:38Z</time>
      </trkpt>
      <trkpt lat="45.41053" lon="5.88954">
        <ele>1122.009053327</ele>
        <time>2015-12-10T07:49:54Z</time>
      </trkpt>
      <trkpt lat="45.41052" lon="5.88957">
        <ele>1122.009053327</ele>
        <time>2015-12-10T07:49:58Z</time>
      </trkpt>
      <trkpt lat="45.4105" lon="5.88959">
        <ele>1122.009053327</ele>
        <time>2015-12-10T07:50:10Z</time>
      </trkpt>
      <trkpt lat="45.4105" lon="5.88959">
        <ele>1122.009053327</ele>
        <time>2015-12-10T07:50:14Z</time>
      </trkpt>
      <trkpt lat="45.41053" lon="5.88963">
        <ele>1122.009053327</ele>
        <time>2015-12-10T07:50:24Z</time>
      </trkpt>
      <trkpt lat="45.41054" lon="5.88969">
        <ele>1125.973837495</ele>
        <time>2015-12-10T07:50:29Z</time>
      </trkpt>
      <trkpt lat="45.4106" lon="5.88978">
        <ele>1125.973837495</ele>
        <time>2015-12-10T07:50:40Z</time>
      </trkpt>
      <trkpt lat="45.4106" lon="5.88981">
        <ele>1129.867446858</ele>
        <time>2015-12-10T07:50:44Z</time>
      </trkpt>
      <trkpt lat="45.41067" lon="5.88991">
        <ele>1133.553571033</ele>
        <time>2015-12-10T07:50:55Z</time>
      </trkpt>
      <trkpt lat="45.41066" lon="5.88992">
        <ele>1133.553571033</ele>
        <time>2015-12-10T07:50:59Z</time>
      </trkpt>
      <trkpt lat="45.41067" lon="5.88995">
        <ele>1133.553571033</ele>
        <time>2015-12-10T07:51:09Z</time>
      </trkpt>
      <trkpt lat="45.4107" lon="5.88997">
        <ele>1133.553571033</ele>
        <time>2015-12-10T07:51:15Z</time>
      </trkpt>
      <trkpt lat="45.41077" lon="5.88998">
        <ele>1137.368080078</ele>
        <time>2015-12-10T07:51:25Z</time>
      </trkpt>
      <trkpt lat="45.41079" lon="5.89003">
        <ele>1137.368080078</ele>
        <time>2015-12-10T07:51:28Z</time>
      </trkpt>
      <trkpt lat="45.41082" lon="5.89001">
        <ele>1137.368080078</ele>
        <time>2015-12-10T07:51:34Z</time>
      </trkpt>
      <trkpt lat="45.41086" lon="5.89001">
        <ele>1140.551882854</ele>
        <time>2015-12-10T07:51:45Z</time>
      </trkpt>
      <trkpt lat="45.41085" lon="5.89001">
        <ele>1140.551882854</ele>
        <time>2015-12-10T07:51:49Z</time>
      </trkpt>
      <trkpt lat="45.41085" lon="5.89001">
        <ele>1140.551882854</ele>
        <time>2015-12-10T07:52:00Z</time>
      </trkpt>
      <trkpt lat="45.41085" lon="5.89001">
        <ele>1140.551882854</ele>
        <time>2015-12-10T07:52:04Z</time>
      </trkpt>
      <trkpt lat="45.41088" lon="5.89007">
        <ele>1140.551882854</ele>
        <time>2015-12-10T07:52:14Z</time>
      </trkpt>
      <trkpt lat="45.41091" lon="5.89009">
        <ele>1140.551882854</ele>
        <time>2015-12-10T07:52:20Z</time>
      </trkpt>
      <trkpt lat="45.41094" lon="5.8901">
        <ele>1144.508468744</ele>
        <time>2015-12-10T07:52:29Z</time>
      </trkpt>
      <trkpt lat="45.41094" lon="5.8901">
        <ele>1144.508468744</ele>
        <time>2015-12-10T07:52:35Z</time>
      </trkpt>
      <trkpt lat="45.41094" lon="5.89011">
        <ele>1144.508468744</ele>
        <time>2015-12-10T07:52:44Z</time>
      </trkpt>
      <trkpt lat="45.41094" lon="5.89011">
        <ele>1144.508468744</ele>
        <time>2015-12-10T07:52:49Z</time>
      </trkpt>
      <trkpt lat="45.41096" lon="5.89013">
        <ele>1144.508468744</ele>
        <time>2015-12-10T07:53:00Z</time>
      </trkpt>
      <trkpt lat="45.41097" lon="5.89013">
        <ele>1144.508468744</ele>
        <time>2015-12-10T07:53:04Z</time>
      </trkpt>
      <trkpt lat="45.41099" lon="5.89013">
        <ele>1144.508468744</ele>
        <time>2015-12-10T07:53:13Z</time>
      </trkpt>
      <trkpt lat="45.41104" lon="5.89013">
        <ele>1148.717221072</ele>
        <time>2015-12-10T07:53:18Z</time>
      </trkpt>
      <trkpt lat="45.41121" lon="5.8903">
        <ele>1152.574779665</ele>
        <time>2015-12-10T07:53:29Z</time>
      </trkpt>
      <trkpt lat="45.41125" lon="5.89034">
        <ele>1152.574779665</ele>
        <time>2015-12-10T07:53:34Z</time>
      </trkpt>
      <trkpt lat="45.41124" lon="5.89033">
        <ele>1152.574779665</ele>
        <time>2015-12-10T07:53:45Z</time>
      </trkpt>
      <trkpt lat="45.41125" lon="5.89034">
        <ele>1152.574779665</ele>
        <time>2015-12-10T07:53:51Z</time>
      </trkpt>
      <trkpt lat="45.41125" lon="5.89033">
        <ele>1152.574779665</ele>
        <time>2015-12-10T07:54:00Z</time>
      </trkpt>
      <trkpt lat="45.41125" lon="5.89033">
        <ele>1152.574779665</ele>
        <time>2015-12-10T07:54:04Z</time>
      </trkpt>
      <trkpt lat="45.41125" lon="5.89034">
        <ele>1152.574779665</ele>
        <time>2015-12-10T07:54:09Z</time>
      </trkpt>
      <trkpt lat="45.41138" lon="5.89039">
        <ele>1158.108978305</ele>
        <time>2015-12-10T07:54:19Z</time>
      </trkpt>
      <trkpt lat="45.41141" lon="5.89044">
        <ele>1158.108978305</ele>
        <time>2015-12-10T07:54:23Z</time>
      </trkpt>
      <trkpt lat="45.41138" lon="5.89044">
        <ele>1158.108978305</ele>
        <time>2015-12-10T07:54:33Z</time>
      </trkpt>
      <trkpt lat="45.4114" lon="5.89046">
        <ele>1158.108978305</ele>
        <time>2015-12-10T07:54:40Z</time>
      </trkpt>
      <trkpt lat="45.4114" lon="5.89048">
        <ele>1164.025612431</ele>
        <time>2015-12-10T07:54:50Z</time>
      </trkpt>
      <trkpt lat="45.41149" lon="5.89048">
        <ele>1164.025612431</ele>
        <time>2015-12-10T07:54:55Z</time>
      </trkpt>
      <trkpt lat="45.41153" lon="5.89052">
        <ele>1169.165245609</ele>
        <time>2015-12-10T07:55:04Z</time>
      </trkpt>
      <trkpt lat="45.41154" lon="5.89054">
        <ele>1169.165245609</ele>
        <time>2015-12-10T07:55:09Z</time>
      </trkpt>
      <trkpt lat="45.41156" lon="5.89056">
        <ele>1169.165245609</ele>
        <time>2015-12-10T07:55:19Z</time>
      </trkpt>
      <trkpt lat="45.41156" lon="5.89056">
        <ele>1169.165245609</ele>
        <time>2015-12-10T07:55:24Z</time>
      </trkpt>
      <trkpt lat="45.41156" lon="5.89056">
        <ele>1169.165245609</ele>
        <time>2015-12-10T07:55:35Z</time>
      </trkpt>
      <trkpt lat="45.41156" lon="5.89056">
        <ele>1169.165245609</ele>
        <time>2015-12-10T07:55:39Z</time>
      </trkpt>
      <trkpt lat="45.41156" lon="5.89056">
        <ele>1169.165245609</ele>
        <time>2015-12-10T07:55:54Z</time>
      </trkpt>
      <trkpt lat="45.41156" lon="5.89056">
        <ele>1169.165245609</ele>
        <time>2015-12-10T07:56:00Z</time>
      </trkpt>
      <trkpt lat="45.41157" lon="5.89056">
        <ele>1169.165245609</ele>
        <time>2015-12-10T07:56:09Z</time>
      </trkpt>
      <trkpt lat="45.41157" lon="5.89056">
        <ele>1169.165245609</ele>
        <time>2015-12-10T07:56:14Z</time>
      </trkpt>
      <trkpt lat="45.41157" lon="5.89056">
        <ele>1169.165245609</ele>
        <time>2015-12-10T07:56:24Z</time>
      </trkpt>
      <trkpt lat="45.41157" lon="5.89056">
        <ele>1169.165245609</ele>
        <time>2015-12-10T07:56:29Z</time>
      </trkpt>
      <trkpt lat="45.41159" lon="5.89056">
        <ele>1169.165245609</ele>
        <time>2015-12-10T07:56:39Z</time>
      </trkpt>
      <trkpt lat="45.41158" lon="5.89058">
        <ele>1169.165245609</ele>
        <time>2015-12-10T07:56:45Z</time>
      </trkpt>
      <trkpt lat="45.4116" lon="5.89065">
        <ele>1174.568213316</ele>
        <time>2015-12-10T07:56:54Z</time>
      </trkpt>
      <trkpt lat="45.41162" lon="5.89067">
        <ele>1174.568213316</ele>
        <time>2015-12-10T07:56:59Z</time>
      </trkpt>
      <trkpt lat="45.41163" lon="5.89067">
        <ele>1174.568213316</ele>
        <time>2015-12-10T07:57:09Z</time>
      </trkpt>
      <trkpt lat="45.41163" lon="5.89067">
        <ele>1174.568213316</ele>
        <time>2015-12-10T07:57:15Z</time>
      </trkpt>
      <trkpt lat="45.4117" lon="5.8908">
        <ele>1180.209367319</ele>
        <time>2015-12-10T07:57:24Z</time>
      </trkpt>
      <trkpt lat="45.41172" lon="5.89082">
        <ele>1180.209367319</ele>
        <time>2015-12-10T07:57:29Z</time>
      </trkpt>
      <trkpt lat="45.41173" lon="5.89083">
        <ele>1180.209367319</ele>
        <time>2015-12-10T07:57:39Z</time>
      </trkpt>
      <trkpt lat="45.41182" lon="5.89084">
        <ele>1185.789138586</ele>
        <time>2015-12-10T07:57:44Z</time>
      </trkpt>
      <trkpt lat="45.41184" lon="5.89087">
        <ele>1185.789138586</ele>
        <time>2015-12-10T07:57:55Z</time>
      </trkpt>
      <trkpt lat="45.41187" lon="5.89092">
        <ele>1185.789138586</ele>
        <time>2015-12-10T07:57:59Z</time>
      </trkpt>
      <trkpt lat="45.41192" lon="5.89095">
        <ele>1191.863519955</ele>
        <time>2015-12-10T07:58:14Z</time>
      </trkpt>
      <trkpt lat="45.41198" lon="5.89099">
        <ele>1191.863519955</ele>
        <time>2015-12-10T07:58:19Z</time>
      </trkpt>
      <trkpt lat="45.41202" lon="5.891">
        <ele>1197.421069736</ele>
        <time>2015-12-10T07:58:29Z</time>
      </trkpt>
      <trkpt lat="45.41202" lon="5.89101">
        <ele>1197.421069736</ele>
        <time>2015-12-10T07:58:34Z</time>
      </trkpt>
      <trkpt lat="45.41212" lon="5.89099">
        <ele>1202.770858963</ele>
        <time>2015-12-10T07:58:44Z</time>
      </trkpt>
      <trkpt lat="45.41213" lon="5.89099">
        <ele>1202.770858963</ele>
        <time>2015-12-10T07:58:48Z</time>
      </trkpt>
      <trkpt lat="45.41215" lon="5.89101">
        <ele>1202.770858963</ele>
        <time>2015-12-10T07:58:58Z</time>
      </trkpt>
      <trkpt lat="45.41216" lon="5.89105">
        <ele>1202.770858963</ele>
        <time>2015-12-10T07:59:04Z</time>
      </trkpt>
      <trkpt lat="45.41229" lon="5.89098">
        <ele>1207.642287185</ele>
        <time>2015-12-10T07:59:14Z</time>
      </trkpt>
      <trkpt lat="45.41233" lon="5.89099">
        <ele>1207.642287185</ele>
        <time>2015-12-10T07:59:19Z</time>
      </trkpt>
      <trkpt lat="45.41233" lon="5.89099">
        <ele>1207.642287185</ele>
        <time>2015-12-10T07:59:30Z</time>
      </trkpt>
      <trkpt lat="45.41234" lon="5.891">
        <ele>1207.642287185</ele>
        <time>2015-12-10T07:59:34Z</time>
      </trkpt>
      <trkpt lat="45.41234" lon="5.891">
        <ele>1207.642287185</ele>
        <time>2015-12-10T07:59:44Z</time>
      </trkpt>
      <trkpt lat="45.41237" lon="5.89104">
        <ele>1212.484722202</ele>
        <time>2015-12-10T07:59:50Z</time>
      </trkpt>
      <trkpt lat="45.41241" lon="5.89106">
        <ele>1212.484722202</ele>
        <time>2015-12-10T08:00:00Z</time>
      </trkpt>
      <trkpt lat="45.41241" lon="5.89107">
        <ele>1212.484722202</ele>
        <time>2015-12-10T08:00:04Z</time>
      </trkpt>
      <trkpt lat="45.41247" lon="5.89107">
        <ele>1217.582265085</ele>
        <time>2015-12-10T08:00:14Z</time>
      </trkpt>
      <trkpt lat="45.41252" lon="5.8911">
        <ele>1217.582265085</ele>
        <time>2015-12-10T08:00:19Z</time>
      </trkpt>
      <trkpt lat="45.41266" lon="5.89122">
        <ele>1221.491800809</ele>
        <time>2015-12-10T08:00:30Z</time>
      </trkpt>
      <trkpt lat="45.41266" lon="5.8912">
        <ele>1221.491800809</ele>
        <time>2015-12-10T08:00:34Z</time>
      </trkpt>
      <trkpt lat="45.41265" lon="5.89121">
        <ele>1221.491800809</ele>
        <time>2015-12-10T08:00:45Z</time>
      </trkpt>
      <trkpt lat="45.41266" lon="5.89121">
        <ele>1221.491800809</ele>
        <time>2015-12-10T08:00:49Z</time>
      </trkpt>
      <trkpt lat="45.41265" lon="5.89121">
        <ele>1221.491800809</ele>
        <time>2015-12-10T08:00:59Z</time>
      </trkpt>
      <trkpt lat="45.41265" lon="5.89121">
        <ele>1221.491800809</ele>
        <time>2015-12-10T08:01:04Z</time>
      </trkpt>
      <trkpt lat="45.41265" lon="5.89121">
        <ele>1221.491800809</ele>
        <time>2015-12-10T08:01:14Z</time>
      </trkpt>
      <trkpt lat="45.41266" lon="5.89121">
        <ele>1221.491800809</ele>
        <time>2015-12-10T08:01:19Z</time>
      </trkpt>
      <trkpt lat="45.41275" lon="5.89124">
        <ele>1226.29548471</ele>
        <time>2015-12-10T08:01:34Z</time>
      </trkpt>
      <trkpt lat="45.41278" lon="5.89125">
        <ele>1226.29548471</ele>
        <time>2015-12-10T08:01:38Z</time>
      </trkpt>
      <trkpt lat="45.41282" lon="5.89125">
        <ele>1226.29548471</ele>
        <time>2015-12-10T08:01:45Z</time>
      </trkpt>
      <trkpt lat="45.41284" lon="5.89127">
        <ele>1230.930746313</ele>
        <time>2015-12-10T08:01:49Z</time>
      </trkpt>
      <trkpt lat="45.41285" lon="5.89127">
        <ele>1230.930746313</ele>
        <time>2015-12-10T08:01:54Z</time>
      </trkpt>
      <trkpt lat="45.41285" lon="5.89127">
        <ele>1230.930746313</ele>
        <time>2015-12-10T08:02:04Z</time>
      </trkpt>
      <trkpt lat="45.41289" lon="5.89128">
        <ele>1230.930746313</ele>
        <time>2015-12-10T08:02:10Z</time>
      </trkpt>
      <trkpt lat="45.41291" lon="5.89129">
        <ele>1230.930746313</ele>
        <time>2015-12-10T08:02:18Z</time>
      </trkpt>
      <trkpt lat="45.41291" lon="5.8913">
        <ele>1230.930746313</ele>
        <time>2015-12-10T08:02:25Z</time>
      </trkpt>
      <trkpt lat="45.41302" lon="5.89142">
        <ele>1236.720404287</ele>
        <time>2015-12-10T08:02:34Z</time>
      </trkpt>
      <trkpt lat="45.41305" lon="5.89139">
        <ele>1236.720404287</ele>
        <time>2015-12-10T08:02:38Z</time>
      </trkpt>
      <trkpt lat="45.41309" lon="5.89143">
        <ele>1236.720404287</ele>
        <time>2015-12-10T08:02:49Z</time>
      </trkpt>
      <trkpt lat="45.41309" lon="5.89143">
        <ele>1236.720404287</ele>
        <time>2015-12-10T08:02:54Z</time>
      </trkpt>
      <trkpt lat="45.41317" lon="5.89147">
        <ele>1242.715109905</ele>
        <time>2015-12-10T08:03:09Z</time>
      </trkpt>
      <trkpt lat="45.41318" lon="5.89147">
        <ele>1242.715109905</ele>
        <time>2015-12-10T08:03:13Z</time>
      </trkpt>
      <trkpt lat="45.41319" lon="5.89146">
        <ele>1242.715109905</ele>
        <time>2015-12-10T08:03:19Z</time>
      </trkpt>
      <trkpt lat="45.4132" lon="5.89147">
        <ele>1242.715109905</ele>
        <time>2015-12-10T08:03:23Z</time>
      </trkpt>
      <trkpt lat="45.41324" lon="5.89148">
        <ele>1242.715109905</ele>
        <time>2015-12-10T08:03:35Z</time>
      </trkpt>
      <trkpt lat="45.41326" lon="5.89147">
        <ele>1242.715109905</ele>
        <time>2015-12-10T08:03:38Z</time>
      </trkpt>
      <trkpt lat="45.41328" lon="5.8915">
        <ele>1249.046726519</ele>
        <time>2015-12-10T08:03:44Z</time>
      </trkpt>
      <trkpt lat="45.41328" lon="5.89151">
        <ele>1249.046726519</ele>
        <time>2015-12-10T08:03:54Z</time>
      </trkpt>
      <trkpt lat="45.41332" lon="5.89156">
        <ele>1249.046726519</ele>
        <time>2015-12-10T08:03:59Z</time>
      </trkpt>
      <trkpt lat="45.4134" lon="5.89161">
        <ele>1255.3932212</ele>
        <time>2015-12-10T08:04:10Z</time>
      </trkpt>
      <trkpt lat="45.41344" lon="5.89161">
        <ele>1255.3932212</ele>
        <time>2015-12-10T08:04:14Z</time>
      </trkpt>
      <trkpt lat="45.41346" lon="5.89163">
        <ele>1255.3932212</ele>
        <time>2015-12-10T08:04:25Z</time>
      </trkpt>
      <trkpt lat="45.41346" lon="5.89163">
        <ele>1255.3932212</ele>
        <time>2015-12-10T08:04:29Z</time>
      </trkpt>
      <trkpt lat="45.41354" lon="5.89164">
        <ele>1261.897874966</ele>
        <time>2015-12-10T08:04:39Z</time>
      </trkpt>
      <trkpt lat="45.41356" lon="5.89163">
        <ele>1261.897874966</ele>
        <time>2015-12-10T08:04:44Z</time>
      </trkpt>
      <trkpt lat="45.41358" lon="5.89164">
        <ele>1261.897874966</ele>
        <time>2015-12-10T08:04:55Z</time>
      </trkpt>
      <trkpt lat="45.41358" lon="5.89164">
        <ele>1261.897874966</ele>
        <time>2015-12-10T08:04:59Z</time>
      </trkpt>
      <trkpt lat="45.41358" lon="5.89165">
        <ele>1261.897874966</ele>
        <time>2015-12-10T08:05:09Z</time>
      </trkpt>
      <trkpt lat="45.4136" lon="5.89165">
        <ele>1261.897874966</ele>
        <time>2015-12-10T08:05:14Z</time>
      </trkpt>
      <trkpt lat="45.41361" lon="5.89166">
        <ele>1261.897874966</ele>
        <time>2015-12-10T08:05:24Z</time>
      </trkpt>
      <trkpt lat="45.41364" lon="5.89168">
        <ele>1267.946839447</ele>
        <time>2015-12-10T08:05:29Z</time>
      </trkpt>
      <trkpt lat="45.4137" lon="5.89165">
        <ele>1267.946839447</ele>
        <time>2015-12-10T08:05:39Z</time>
      </trkpt>
      <trkpt lat="45.41377" lon="5.89166">
        <ele>1273.417721845</ele>
        <time>2015-12-10T08:05:45Z</time>
      </trkpt>
      <trkpt lat="45.41381" lon="5.89168">
        <ele>1273.417721845</ele>
        <time>2015-12-10T08:05:55Z</time>
      </trkpt>
      <trkpt lat="45.41381" lon="5.89168">
        <ele>1273.417721845</ele>
        <time>2015-12-10T08:05:59Z</time>
      </trkpt>
      <trkpt lat="45.41382" lon="5.89171">
        <ele>1273.417721845</ele>
        <time>2015-12-10T08:06:16Z</time>
      </trkpt>
      <trkpt lat="45.4139" lon="5.89172">
        <ele>1278.801757525</ele>
        <time>2015-12-10T08:06:18Z</time>
      </trkpt>
      <trkpt lat="45.41401" lon="5.89178">
        <ele>1283.804171527</ele>
        <time>2015-12-10T08:06:29Z</time>
      </trkpt>
      <trkpt lat="45.41403" lon="5.8918">
        <ele>1283.804171527</ele>
        <time>2015-12-10T08:06:34Z</time>
      </trkpt>
      <trkpt lat="45.41403" lon="5.89179">
        <ele>1283.804171527</ele>
        <time>2015-12-10T08:06:44Z</time>
      </trkpt>
      <trkpt lat="45.41409" lon="5.89181">
        <ele>1289.058494931</ele>
        <time>2015-12-10T08:06:49Z</time>
      </trkpt>
      <trkpt lat="45.41411" lon="5.89184">
        <ele>1289.058494931</ele>
        <time>2015-12-10T08:06:59Z</time>
      </trkpt>
      <trkpt lat="45.41411" lon="5.89185">
        <ele>1289.058494931</ele>
        <time>2015-12-10T08:07:04Z</time>
      </trkpt>
      <trkpt lat="45.41422" lon="5.89194">
        <ele>1293.943129262</ele>
        <time>2015-12-10T08:07:14Z</time>
      </trkpt>
      <trkpt lat="45.4143" lon="5.89196">
        <ele>1293.943129262</ele>
        <time>2015-12-10T08:07:19Z</time>
      </trkpt>
      <trkpt lat="45.41435" lon="5.89192">
        <ele>1298.186772924</ele>
        <time>2015-12-10T08:07:29Z</time>
      </trkpt>
      <trkpt lat="45.41438" lon="5.89196">
        <ele>1298.186772924</ele>
        <time>2015-12-10T08:07:34Z</time>
      </trkpt>
      <trkpt lat="45.41442" lon="5.89196">
        <ele>1298.186772924</ele>
        <time>2015-12-10T08:07:49Z</time>
      </trkpt>
      <trkpt lat="45.41442" lon="5.89195">
        <ele>1298.186772924</ele>
        <time>2015-12-10T08:07:53Z</time>
      </trkpt>
      <trkpt lat="45.41447" lon="5.89198">
        <ele>1303.050993277</ele>
        <time>2015-12-10T08:08:03Z</time>
      </trkpt>
      <trkpt lat="45.41451" lon="5.89197">
        <ele>1303.050993277</ele>
        <time>2015-12-10T08:08:08Z</time>
      </trkpt>
      <trkpt lat="45.41452" lon="5.89197">
        <ele>1303.050993277</ele>
        <time>2015-12-10T08:08:19Z</time>
      </trkpt>
      <trkpt lat="45.41453" lon="5.89197">
        <ele>1303.050993277</ele>
        <time>2015-12-10T08:08:25Z</time>
      </trkpt>
      <trkpt lat="45.41453" lon="5.89198">
        <ele>1303.050993277</ele>
        <time>2015-12-10T08:08:34Z</time>
      </trkpt>
      <trkpt lat="45.41453" lon="5.89198">
        <ele>1303.050993277</ele>
        <time>2015-12-10T08:08:39Z</time>
      </trkpt>
      <trkpt lat="45.41453" lon="5.89198">
        <ele>1303.050993277</ele>
        <time>2015-12-10T08:08:49Z</time>
      </trkpt>
      <trkpt lat="45.41453" lon="5.89197">
        <ele>1303.050993277</ele>
        <time>2015-12-10T08:08:54Z</time>
      </trkpt>
      <trkpt lat="45.41451" lon="5.89195">
        <ele>1303.050993277</ele>
        <time>2015-12-10T08:08:58Z</time>
      </trkpt>
      <trkpt lat="45.41452" lon="5.89194">
        <ele>1308.4893369</ele>
        <time>2015-12-10T08:09:03Z</time>
      </trkpt>
      <trkpt lat="45.41452" lon="5.89193">
        <ele>1308.4893369</ele>
        <time>2015-12-10T08:09:08Z</time>
      </trkpt>
      <trkpt lat="45.41452" lon="5.89193">
        <ele>1308.4893369</ele>
        <time>2015-12-10T08:09:14Z</time>
      </trkpt>
      <trkpt lat="45.41452" lon="5.89193">
        <ele>1308.4893369</ele>
        <time>2015-12-10T08:09:24Z</time>
      </trkpt>
      <trkpt lat="45.41452" lon="5.89193">
        <ele>1308.4893369</ele>
        <time>2015-12-10T08:09:29Z</time>
      </trkpt>
      <trkpt lat="45.41455" lon="5.89194">
        <ele>1308.4893369</ele>
        <time>2015-12-10T08:09:44Z</time>
      </trkpt>
      <trkpt lat="45.41457" lon="5.89197">
        <ele>1308.4893369</ele>
        <time>2015-12-10T08:10:00Z</time>
      </trkpt>
      <trkpt lat="45.41457" lon="5.89197">
        <ele>1308.4893369</ele>
        <time>2015-12-10T08:10:05Z</time>
      </trkpt>
      <trkpt lat="45.41461" lon="5.89198">
        <ele>1312.800439898</ele>
        <time>2015-12-10T08:10:15Z</time>
      </trkpt>
      <trkpt lat="45.41467" lon="5.89203">
        <ele>1312.800439898</ele>
        <time>2015-12-10T08:10:19Z</time>
      </trkpt>
      <trkpt lat="45.41469" lon="5.89207">
        <ele>1316.83016597</ele>
        <time>2015-12-10T08:10:30Z</time>
      </trkpt>
      <trkpt lat="45.41471" lon="5.89209">
        <ele>1316.83016597</ele>
        <time>2015-12-10T08:10:34Z</time>
      </trkpt>
      <trkpt lat="45.41472" lon="5.89209">
        <ele>1316.83016597</ele>
        <time>2015-12-10T08:10:44Z</time>
      </trkpt>
      <trkpt lat="45.41472" lon="5.89209">
        <ele>1316.83016597</ele>
        <time>2015-12-10T08:10:49Z</time>
      </trkpt>
      <trkpt lat="45.41479" lon="5.89214">
        <ele>1320.456015615</ele>
        <time>2015-12-10T08:11:00Z</time>
      </trkpt>
      <trkpt lat="45.4148" lon="5.89216">
        <ele>1320.456015615</ele>
        <time>2015-12-10T08:11:05Z</time>
      </trkpt>
      <trkpt lat="45.41482" lon="5.89217">
        <ele>1320.456015615</ele>
        <time>2015-12-10T08:11:09Z</time>
      </trkpt>
      <trkpt lat="45.41492" lon="5.89224">
        <ele>1324.764147007</ele>
        <time>2015-12-10T08:11:20Z</time>
      </trkpt>
      <trkpt lat="45.41494" lon="5.89226">
        <ele>1324.764147007</ele>
        <time>2015-12-10T08:11:24Z</time>
      </trkpt>
      <trkpt lat="45.41501" lon="5.89232">
        <ele>1328.059866726</ele>
        <time>2015-12-10T08:11:35Z</time>
      </trkpt>
      <trkpt lat="45.41507" lon="5.89239">
        <ele>1328.059866726</ele>
        <time>2015-12-10T08:11:40Z</time>
      </trkpt>
      <trkpt lat="45.41509" lon="5.89241">
        <ele>1331.17693847</ele>
        <time>2015-12-10T08:11:49Z</time>
      </trkpt>
      <trkpt lat="45.4151" lon="5.8924">
        <ele>1331.17693847</ele>
        <time>2015-12-10T08:11:53Z</time>
      </trkpt>
      <trkpt lat="45.41511" lon="5.8924">
        <ele>1331.17693847</ele>
        <time>2015-12-10T08:11:59Z</time>
      </trkpt>
      <trkpt lat="45.41514" lon="5.89242">
        <ele>1331.17693847</ele>
        <time>2015-12-10T08:12:14Z</time>
      </trkpt>
      <trkpt lat="45.41517" lon="5.89244">
        <ele>1335.176416036</ele>
        <time>2015-12-10T08:12:28Z</time>
      </trkpt>
      <trkpt lat="45.41518" lon="5.89244">
        <ele>1335.176416036</ele>
        <time>2015-12-10T08:12:33Z</time>
      </trkpt>
      <trkpt lat="45.41523" lon="5.8924">
        <ele>1335.176416036</ele>
        <time>2015-12-10T08:12:43Z</time>
      </trkpt>
      <trkpt lat="45.41524" lon="5.8924">
        <ele>1335.176416036</ele>
        <time>2015-12-10T08:12:49Z</time>
      </trkpt>
      <trkpt lat="45.41529" lon="5.8924">
        <ele>1338.507887802</ele>
        <time>2015-12-10T08:12:59Z</time>
      </trkpt>
      <trkpt lat="45.41529" lon="5.8924">
        <ele>1338.507887802</ele>
        <time>2015-12-10T08:13:05Z</time>
      </trkpt>
      <trkpt lat="45.41529" lon="5.8924">
        <ele>1338.507887802</ele>
        <time>2015-12-10T08:13:14Z</time>
      </trkpt>
      <trkpt lat="45.41529" lon="5.8924">
        <ele>1338.507887802</ele>
        <time>2015-12-10T08:13:20Z</time>
      </trkpt>
      <trkpt lat="45.41529" lon="5.8924">
        <ele>1338.507887802</ele>
        <time>2015-12-10T08:13:30Z</time>
      </trkpt>
      <trkpt lat="45.41532" lon="5.89242">
        <ele>1338.507887802</ele>
        <time>2015-12-10T08:13:45Z</time>
      </trkpt>
      <trkpt lat="45.41536" lon="5.89244">
        <ele>1338.507887802</ele>
        <time>2015-12-10T08:13:49Z</time>
      </trkpt>
      <trkpt lat="45.41546" lon="5.89244">
        <ele>1342.709573131</ele>
        <time>2015-12-10T08:14:00Z</time>
      </trkpt>
      <trkpt lat="45.41549" lon="5.89246">
        <ele>1342.709573131</ele>
        <time>2015-12-10T08:14:05Z</time>
      </trkpt>
      <trkpt lat="45.41553" lon="5.89246">
        <ele>1342.709573131</ele>
        <time>2015-12-10T08:14:15Z</time>
      </trkpt>
      <trkpt lat="45.41558" lon="5.89254">
        <ele>1346.533846197</ele>
        <time>2015-12-10T08:14:19Z</time>
      </trkpt>
      <trkpt lat="45.41565" lon="5.89254">
        <ele>1346.533846197</ele>
        <time>2015-12-10T08:14:29Z</time>
      </trkpt>
      <trkpt lat="45.41567" lon="5.89255">
        <ele>1350.603594359</ele>
        <time>2015-12-10T08:14:34Z</time>
      </trkpt>
      <trkpt lat="45.41568" lon="5.89255">
        <ele>1350.603594359</ele>
        <time>2015-12-10T08:14:44Z</time>
      </trkpt>
      <trkpt lat="45.41568" lon="5.89255">
        <ele>1350.603594359</ele>
        <time>2015-12-10T08:14:50Z</time>
      </trkpt>
      <trkpt lat="45.41576" lon="5.89264">
        <ele>1354.755309783</ele>
        <time>2015-12-10T08:14:59Z</time>
      </trkpt>
      <trkpt lat="45.41578" lon="5.89264">
        <ele>1354.755309783</ele>
        <time>2015-12-10T08:15:04Z</time>
      </trkpt>
      <trkpt lat="45.41581" lon="5.89264">
        <ele>1354.755309783</ele>
        <time>2015-12-10T08:15:17Z</time>
      </trkpt>
      <trkpt lat="45.41581" lon="5.89264">
        <ele>1354.755309783</ele>
        <time>2015-12-10T08:15:18Z</time>
      </trkpt>
      <trkpt lat="45.41581" lon="5.89265">
        <ele>1354.755309783</ele>
        <time>2015-12-10T08:15:29Z</time>
      </trkpt>
      <trkpt lat="45.41584" lon="5.89267">
        <ele>1354.755309783</ele>
        <time>2015-12-10T08:15:34Z</time>
      </trkpt>
      <trkpt lat="45.41601" lon="5.89274">
        <ele>1361.035799788</ele>
        <time>2015-12-10T08:15:49Z</time>
      </trkpt>
      <trkpt lat="45.41602" lon="5.89274">
        <ele>1361.035799788</ele>
        <time>2015-12-10T08:15:53Z</time>
      </trkpt>
      <trkpt lat="45.41604" lon="5.89274">
        <ele>1361.035799788</ele>
        <time>2015-12-10T08:16:03Z</time>
      </trkpt>
      <trkpt lat="45.41604" lon="5.89274">
        <ele>1361.035799788</ele>
        <time>2015-12-10T08:16:08Z</time>
      </trkpt>
      <trkpt lat="45.41604" lon="5.89274">
        <ele>1361.035799788</ele>
        <time>2015-12-10T08:16:20Z</time>
      </trkpt>
      <trkpt lat="45.41604" lon="5.89274">
        <ele>1361.035799788</ele>
        <time>2015-12-10T08:16:24Z</time>
      </trkpt>
      <trkpt lat="45.41612" lon="5.89281">
        <ele>1367.079925132</ele>
        <time>2015-12-10T08:16:34Z</time>
      </trkpt>
      <trkpt lat="45.41616" lon="5.89282">
        <ele>1367.079925132</ele>
        <time>2015-12-10T08:16:40Z</time>
      </trkpt>
      <trkpt lat="45.41622" lon="5.89288">
        <ele>1373.196189659</ele>
        <time>2015-12-10T08:16:49Z</time>
      </trkpt>
      <trkpt lat="45.41624" lon="5.89288">
        <ele>1373.196189659</ele>
        <time>2015-12-10T08:16:54Z</time>
      </trkpt>
      <trkpt lat="45.41624" lon="5.89288">
        <ele>1373.196189659</ele>
        <time>2015-12-10T08:17:04Z</time>
      </trkpt>
      <trkpt lat="45.41624" lon="5.89288">
        <ele>1373.196189659</ele>
        <time>2015-12-10T08:17:10Z</time>
      </trkpt>
      <trkpt lat="45.41624" lon="5.89288">
        <ele>1373.196189659</ele>
        <time>2015-12-10T08:17:19Z</time>
      </trkpt>
      <trkpt lat="45.41624" lon="5.89288">
        <ele>1373.196189659</ele>
        <time>2015-12-10T08:17:24Z</time>
      </trkpt>
      <trkpt lat="45.41628" lon="5.89293">
        <ele>1373.196189659</ele>
        <time>2015-12-10T08:17:39Z</time>
      </trkpt>
      <trkpt lat="45.4163" lon="5.89295">
        <ele>1379.66792935</ele>
        <time>2015-12-10T08:17:44Z</time>
      </trkpt>
      <trkpt lat="45.41635" lon="5.89302">
        <ele>1379.66792935</ele>
        <time>2015-12-10T08:17:54Z</time>
      </trkpt>
      <trkpt lat="45.41637" lon="5.89305">
        <ele>1385.591538595</ele>
        <time>2015-12-10T08:17:59Z</time>
      </trkpt>
      <trkpt lat="45.41646" lon="5.89312">
        <ele>1389.991247477</ele>
        <time>2015-12-10T08:18:10Z</time>
      </trkpt>
      <trkpt lat="45.41649" lon="5.89315">
        <ele>1389.991247477</ele>
        <time>2015-12-10T08:18:14Z</time>
      </trkpt>
      <trkpt lat="45.4165" lon="5.89318">
        <ele>1389.991247477</ele>
        <time>2015-12-10T08:18:25Z</time>
      </trkpt>
      <trkpt lat="45.4165" lon="5.89318">
        <ele>1389.991247477</ele>
        <time>2015-12-10T08:18:29Z</time>
      </trkpt>
      <trkpt lat="45.4165" lon="5.89318">
        <ele>1389.991247477</ele>
        <time>2015-12-10T08:18:39Z</time>
      </trkpt>
      <trkpt lat="45.4165" lon="5.89318">
        <ele>1389.991247477</ele>
        <time>2015-12-10T08:18:44Z</time>
      </trkpt>
      <trkpt lat="45.41658" lon="5.89315">
        <ele>1394.727224677</ele>
        <time>2015-12-10T08:18:54Z</time>
      </trkpt>
      <trkpt lat="45.4166" lon="5.89316">
        <ele>1394.727224677</ele>
        <time>2015-12-10T08:18:59Z</time>
      </trkpt>
      <trkpt lat="45.41662" lon="5.89319">
        <ele>1394.727224677</ele>
        <time>2015-12-10T08:19:09Z</time>
      </trkpt>
      <trkpt lat="45.41662" lon="5.89319">
        <ele>1394.727224677</ele>
        <time>2015-12-10T08:19:14Z</time>
      </trkpt>
      <trkpt lat="45.41663" lon="5.89326">
        <ele>1399.484831184</ele>
        <time>2015-12-10T08:19:24Z</time>
      </trkpt>
      <trkpt lat="45.41663" lon="5.89327">
        <ele>1399.484831184</ele>
        <time>2015-12-10T08:19:29Z</time>
      </trkpt>
      <trkpt lat="45.41669" lon="5.89339">
        <ele>1404.263314893</ele>
        <time>2015-12-10T08:19:40Z</time>
      </trkpt>
      <trkpt lat="45.41672" lon="5.8934">
        <ele>1404.263314893</ele>
        <time>2015-12-10T08:19:44Z</time>
      </trkpt>
      <trkpt lat="45.41676" lon="5.89344">
        <ele>1404.263314893</ele>
        <time>2015-12-10T08:19:49Z</time>
      </trkpt>
      <trkpt lat="45.41682" lon="5.89343">
        <ele>1409.351145206</ele>
        <time>2015-12-10T08:19:59Z</time>
      </trkpt>
      <trkpt lat="45.41685" lon="5.89338">
        <ele>1409.351145206</ele>
        <time>2015-12-10T08:20:05Z</time>
      </trkpt>
      <trkpt lat="45.41683" lon="5.8934">
        <ele>1409.351145206</ele>
        <time>2015-12-10T08:20:13Z</time>
      </trkpt>
      <trkpt lat="45.41682" lon="5.89344">
        <ele>1409.351145206</ele>
        <time>2015-12-10T08:20:19Z</time>
      </trkpt>
      <trkpt lat="45.41682" lon="5.89345">
        <ele>1414.43590863</ele>
        <time>2015-12-10T08:20:29Z</time>
      </trkpt>
      <trkpt lat="45.41682" lon="5.89345">
        <ele>1414.43590863</ele>
        <time>2015-12-10T08:20:33Z</time>
      </trkpt>
      <trkpt lat="45.41682" lon="5.89345">
        <ele>1414.43590863</ele>
        <time>2015-12-10T08:20:44Z</time>
      </trkpt>
      <trkpt lat="45.41682" lon="5.89345">
        <ele>1414.43590863</ele>
        <time>2015-12-10T08:20:48Z</time>
      </trkpt>
      <trkpt lat="45.41683" lon="5.89356">
        <ele>1414.43590863</ele>
        <time>2015-12-10T08:21:00Z</time>
      </trkpt>
      <trkpt lat="45.41683" lon="5.89357">
        <ele>1414.43590863</ele>
        <time>2015-12-10T08:21:04Z</time>
      </trkpt>
      <trkpt lat="45.41683" lon="5.89358">
        <ele>1419.228977681</ele>
        <time>2015-12-10T08:21:14Z</time>
      </trkpt>
      <trkpt lat="45.41685" lon="5.89359">
        <ele>1419.228977681</ele>
        <time>2015-12-10T08:21:19Z</time>
      </trkpt>
      <trkpt lat="45.41693" lon="5.89369">
        <ele>1423.897305465</ele>
        <time>2015-12-10T08:21:29Z</time>
      </trkpt>
      <trkpt lat="45.41693" lon="5.89373">
        <ele>1423.897305465</ele>
        <time>2015-12-10T08:21:34Z</time>
      </trkpt>
      <trkpt lat="45.41692" lon="5.89373">
        <ele>1423.897305465</ele>
        <time>2015-12-10T08:21:39Z</time>
      </trkpt>
      <trkpt lat="45.41695" lon="5.89376">
        <ele>1423.897305465</ele>
        <time>2015-12-10T08:21:49Z</time>
      </trkpt>
      <trkpt lat="45.41695" lon="5.89376">
        <ele>1423.897305465</ele>
        <time>2015-12-10T08:21:54Z</time>
      </trkpt>
      <trkpt lat="45.41695" lon="5.89376">
        <ele>1423.897305465</ele>
        <time>2015-12-10T08:22:05Z</time>
      </trkpt>
      <trkpt lat="45.41695" lon="5.89376">
        <ele>1423.897305465</ele>
        <time>2015-12-10T08:22:10Z</time>
      </trkpt>
      <trkpt lat="45.417" lon="5.89388">
        <ele>1429.894253017</ele>
        <time>2015-12-10T08:22:20Z</time>
      </trkpt>
      <trkpt lat="45.41701" lon="5.89393">
        <ele>1429.894253017</ele>
        <time>2015-12-10T08:22:24Z</time>
      </trkpt>
      <trkpt lat="45.41704" lon="5.89398">
        <ele>1429.894253017</ele>
        <time>2015-12-10T08:22:34Z</time>
      </trkpt>
      <trkpt lat="45.41705" lon="5.89398">
        <ele>1435.964349453</ele>
        <time>2015-12-10T08:22:39Z</time>
      </trkpt>
      <trkpt lat="45.41705" lon="5.89398">
        <ele>1435.964349453</ele>
        <time>2015-12-10T08:22:49Z</time>
      </trkpt>
      <trkpt lat="45.4171" lon="5.89395">
        <ele>1435.964349453</ele>
        <time>2015-12-10T08:22:54Z</time>
      </trkpt>
      <trkpt lat="45.4172" lon="5.89393">
        <ele>1443.109005701</ele>
        <time>2015-12-10T08:23:04Z</time>
      </trkpt>
      <trkpt lat="45.41722" lon="5.89394">
        <ele>1443.109005701</ele>
        <time>2015-12-10T08:23:09Z</time>
      </trkpt>
      <trkpt lat="45.41723" lon="5.89404">
        <ele>1450.089390373</ele>
        <time>2015-12-10T08:23:24Z</time>
      </trkpt>
      <trkpt lat="45.41723" lon="5.89403">
        <ele>1450.089390373</ele>
        <time>2015-12-10T08:23:29Z</time>
      </trkpt>
      <trkpt lat="45.41724" lon="5.89404">
        <ele>1450.089390373</ele>
        <time>2015-12-10T08:23:39Z</time>
      </trkpt>
      <trkpt lat="45.41724" lon="5.89407">
        <ele>1450.089390373</ele>
        <time>2015-12-10T08:23:44Z</time>
      </trkpt>
      <trkpt lat="45.41724" lon="5.89416">
        <ele>1457.056558118</ele>
        <time>2015-12-10T08:23:54Z</time>
      </trkpt>
      <trkpt lat="45.41731" lon="5.89438">
        <ele>1462.996980001</ele>
        <time>2015-12-10T08:24:09Z</time>
      </trkpt>
      <trkpt lat="45.4173" lon="5.89447">
        <ele>1462.996980001</ele>
        <time>2015-12-10T08:24:15Z</time>
      </trkpt>
      <trkpt lat="45.41736" lon="5.89449">
        <ele>1467.983806622</ele>
        <time>2015-12-10T08:24:25Z</time>
      </trkpt>
      <trkpt lat="45.41738" lon="5.8945">
        <ele>1467.983806622</ele>
        <time>2015-12-10T08:24:29Z</time>
      </trkpt>
      <trkpt lat="45.41741" lon="5.89459">
        <ele>1472.519912341</ele>
        <time>2015-12-10T08:24:40Z</time>
      </trkpt>
      <trkpt lat="45.41743" lon="5.89467">
        <ele>1472.519912341</ele>
        <time>2015-12-10T08:24:44Z</time>
      </trkpt>
      <trkpt lat="45.41741" lon="5.89471">
        <ele>1472.519912341</ele>
        <time>2015-12-10T08:24:55Z</time>
      </trkpt>
      <trkpt lat="45.41741" lon="5.89472">
        <ele>1477.072474547</ele>
        <time>2015-12-10T08:24:59Z</time>
      </trkpt>
      <trkpt lat="45.41741" lon="5.89472">
        <ele>1477.072474547</ele>
        <time>2015-12-10T08:25:03Z</time>
      </trkpt>
      <trkpt lat="45.41741" lon="5.89472">
        <ele>1477.072474547</ele>
        <time>2015-12-10T08:25:13Z</time>
      </trkpt>
      <trkpt lat="45.41741" lon="5.89473">
        <ele>1477.072474547</ele>
        <time>2015-12-10T08:25:19Z</time>
      </trkpt>
      <trkpt lat="45.41741" lon="5.89473">
        <ele>1477.072474547</ele>
        <time>2015-12-10T08:25:29Z</time>
      </trkpt>
      <trkpt lat="45.41741" lon="5.89473">
        <ele>1477.072474547</ele>
        <time>2015-12-10T08:25:34Z</time>
      </trkpt>
      <trkpt lat="45.41741" lon="5.89473">
        <ele>1477.072474547</ele>
        <time>2015-12-10T08:25:44Z</time>
      </trkpt>
      <trkpt lat="45.41738" lon="5.89482">
        <ele>1477.072474547</ele>
        <time>2015-12-10T08:25:49Z</time>
      </trkpt>
      <trkpt lat="45.41736" lon="5.89488">
        <ele>1481.209248441</ele>
        <time>2015-12-10T08:25:59Z</time>
      </trkpt>
      <trkpt lat="45.41736" lon="5.89488">
        <ele>1481.209248441</ele>
        <time>2015-12-10T08:26:05Z</time>
      </trkpt>
      <trkpt lat="45.41736" lon="5.89488">
        <ele>1481.209248441</ele>
        <time>2015-12-10T08:26:14Z</time>
      </trkpt>
      <trkpt lat="45.41736" lon="5.89488">
        <ele>1481.209248441</ele>
        <time>2015-12-10T08:26:19Z</time>
      </trkpt>
      <trkpt lat="45.41738" lon="5.89485">
        <ele>1481.209248441</ele>
        <time>2015-12-10T08:26:29Z</time>
      </trkpt>
      <trkpt lat="45.41738" lon="5.89485">
        <ele>1481.209248441</ele>
        <time>2015-12-10T08:26:35Z</time>
      </trkpt>
      <trkpt lat="45.41738" lon="5.89485">
        <ele>1481.209248441</ele>
        <time>2015-12-10T08:26:44Z</time>
      </trkpt>
      <trkpt lat="45.41738" lon="5.89485">
        <ele>1481.209248441</ele>
        <time>2015-12-10T08:26:49Z</time>
      </trkpt>
      <trkpt lat="45.41738" lon="5.89485">
        <ele>1481.209248441</ele>
        <time>2015-12-10T08:27:05Z</time>
      </trkpt>
      <trkpt lat="45.41738" lon="5.89485">
        <ele>1481.209248441</ele>
        <time>2015-12-10T08:27:09Z</time>
      </trkpt>
      <trkpt lat="45.41738" lon="5.89485">
        <ele>1481.209248441</ele>
        <time>2015-12-10T08:27:19Z</time>
      </trkpt>
      <trkpt lat="45.41738" lon="5.89485">
        <ele>1481.209248441</ele>
        <time>2015-12-10T08:27:25Z</time>
      </trkpt>
      <trkpt lat="45.41738" lon="5.89485">
        <ele>1481.209248441</ele>
        <time>2015-12-10T08:27:35Z</time>
      </trkpt>
      <trkpt lat="45.41738" lon="5.89485">
        <ele>1481.209248441</ele>
        <time>2015-12-10T08:27:39Z</time>
      </trkpt>
      <trkpt lat="45.41738" lon="5.89485">
        <ele>1481.209248441</ele>
        <time>2015-12-10T08:27:49Z</time>
      </trkpt>
      <trkpt lat="45.41738" lon="5.89488">
        <ele>1481.209248441</ele>
        <time>2015-12-10T08:27:54Z</time>
      </trkpt>
      <trkpt lat="45.41738" lon="5.89487">
        <ele>1481.209248441</ele>
        <time>2015-12-10T08:28:05Z</time>
      </trkpt>
      <trkpt lat="45.41738" lon="5.89487">
        <ele>1481.209248441</ele>
        <time>2015-12-10T08:28:09Z</time>
      </trkpt>
      <trkpt lat="45.41738" lon="5.89488">
        <ele>1481.209248441</ele>
        <time>2015-12-10T08:28:20Z</time>
      </trkpt>
      <trkpt lat="45.41739" lon="5.89499">
        <ele>1484.963468574</ele>
        <time>2015-12-10T08:28:24Z</time>
      </trkpt>
      <trkpt lat="45.41743" lon="5.89514">
        <ele>1488.51122592</ele>
        <time>2015-12-10T08:28:35Z</time>
      </trkpt>
      <trkpt lat="45.41746" lon="5.89509">
        <ele>1488.51122592</ele>
        <time>2015-12-10T08:28:39Z</time>
      </trkpt>
      <trkpt lat="45.41747" lon="5.89506">
        <ele>1488.51122592</ele>
        <time>2015-12-10T08:28:49Z</time>
      </trkpt>
      <trkpt lat="45.41747" lon="5.89506">
        <ele>1488.51122592</ele>
        <time>2015-12-10T08:28:54Z</time>
      </trkpt>
      <trkpt lat="45.41747" lon="5.89506">
        <ele>1488.51122592</ele>
        <time>2015-12-10T08:29:09Z</time>
      </trkpt>
      <trkpt lat="45.41747" lon="5.89506">
        <ele>1488.51122592</ele>
        <time>2015-12-10T08:29:14Z</time>
      </trkpt>
      <trkpt lat="45.41747" lon="5.89506">
        <ele>1488.51122592</ele>
        <time>2015-12-10T08:29:20Z</time>
      </trkpt>
      <trkpt lat="45.41747" lon="5.89506">
        <ele>1488.51122592</ele>
        <time>2015-12-10T08:29:24Z</time>
      </trkpt>
      <trkpt lat="45.41747" lon="5.89506">
        <ele>1488.51122592</ele>
        <time>2015-12-10T08:29:30Z</time>
      </trkpt>
      <trkpt lat="45.41747" lon="5.89506">
        <ele>1488.51122592</ele>
        <time>2015-12-10T08:29:39Z</time>
      </trkpt>
      <trkpt lat="45.41747" lon="5.89506">
        <ele>1488.51122592</ele>
        <time>2015-12-10T08:29:43Z</time>
      </trkpt>
      <trkpt lat="45.41747" lon="5.89506">
        <ele>1488.51122592</ele>
        <time>2015-12-10T08:29:54Z</time>
      </trkpt>
      <trkpt lat="45.41747" lon="5.89506">
        <ele>1488.51122592</ele>
        <time>2015-12-10T08:30:00Z</time>
      </trkpt>
      <trkpt lat="45.41747" lon="5.89506">
        <ele>1488.51122592</ele>
        <time>2015-12-10T08:30:10Z</time>
      </trkpt>
      <trkpt lat="45.41747" lon="5.89506">
        <ele>1488.51122592</ele>
        <time>2015-12-10T08:30:14Z</time>
      </trkpt>
      <trkpt lat="45.41747" lon="5.89506">
        <ele>1488.51122592</ele>
        <time>2015-12-10T08:30:29Z</time>
      </trkpt>
      <trkpt lat="45.41747" lon="5.89506">
        <ele>1488.51122592</ele>
        <time>2015-12-10T08:30:34Z</time>
      </trkpt>
      <trkpt lat="45.41747" lon="5.89506">
        <ele>1488.51122592</ele>
        <time>2015-12-10T08:30:44Z</time>
      </trkpt>
      <trkpt lat="45.41747" lon="5.89506">
        <ele>1488.51122592</ele>
        <time>2015-12-10T08:30:49Z</time>
      </trkpt>
      <trkpt lat="45.41747" lon="5.89506">
        <ele>1488.51122592</ele>
        <time>2015-12-10T08:30:59Z</time>
      </trkpt>
      <trkpt lat="45.41748" lon="5.89508">
        <ele>1488.51122592</ele>
        <time>2015-12-10T08:31:04Z</time>
      </trkpt>
      <trkpt lat="45.41754" lon="5.89513">
        <ele>1492.016293109</ele>
        <time>2015-12-10T08:31:14Z</time>
      </trkpt>
      <trkpt lat="45.41754" lon="5.8952">
        <ele>1492.016293109</ele>
        <time>2015-12-10T08:31:20Z</time>
      </trkpt>
      <trkpt lat="45.41752" lon="5.8953">
        <ele>1495.342116243</ele>
        <time>2015-12-10T08:31:24Z</time>
      </trkpt>
      <trkpt lat="45.41752" lon="5.89532">
        <ele>1495.342116243</ele>
        <time>2015-12-10T08:31:28Z</time>
      </trkpt>
      <trkpt lat="45.41753" lon="5.89538">
        <ele>1495.342116243</ele>
        <time>2015-12-10T08:31:34Z</time>
      </trkpt>
      <trkpt lat="45.41754" lon="5.8955">
        <ele>1497.929963967</ele>
        <time>2015-12-10T08:31:50Z</time>
      </trkpt>
      <trkpt lat="45.41752" lon="5.89559">
        <ele>1497.929963967</ele>
        <time>2015-12-10T08:32:04Z</time>
      </trkpt>
      <trkpt lat="45.41752" lon="5.89562">
        <ele>1497.929963967</ele>
        <time>2015-12-10T08:32:09Z</time>
      </trkpt>
      <trkpt lat="45.41753" lon="5.89571">
        <ele>1500.850698771</ele>
        <time>2015-12-10T08:32:19Z</time>
      </trkpt>
      <trkpt lat="45.41753" lon="5.89571">
        <ele>1500.850698771</ele>
        <time>2015-12-10T08:32:24Z</time>
      </trkpt>
      <trkpt lat="45.41753" lon="5.8957">
        <ele>1500.850698771</ele>
        <time>2015-12-10T08:32:35Z</time>
      </trkpt>
      <trkpt lat="45.41753" lon="5.8957">
        <ele>1500.850698771</ele>
        <time>2015-12-10T08:32:39Z</time>
      </trkpt>
      <trkpt lat="45.41753" lon="5.8957">
        <ele>1500.850698771</ele>
        <time>2015-12-10T08:32:49Z</time>
      </trkpt>
      <trkpt lat="45.41753" lon="5.8957">
        <ele>1500.850698771</ele>
        <time>2015-12-10T08:32:54Z</time>
      </trkpt>
      <trkpt lat="45.41755" lon="5.89585">
        <ele>1503.076292436</ele>
        <time>2015-12-10T08:33:04Z</time>
      </trkpt>
      <trkpt lat="45.41754" lon="5.89588">
        <ele>1503.076292436</ele>
        <time>2015-12-10T08:33:09Z</time>
      </trkpt>
      <trkpt lat="45.4175" lon="5.89597">
        <ele>1504.954248253</ele>
        <time>2015-12-10T08:33:19Z</time>
      </trkpt>
      <trkpt lat="45.4175" lon="5.89602">
        <ele>1504.954248253</ele>
        <time>2015-12-10T08:33:24Z</time>
      </trkpt>
      <trkpt lat="45.41746" lon="5.89608">
        <ele>1506.951693199</ele>
        <time>2015-12-10T08:33:35Z</time>
      </trkpt>
      <trkpt lat="45.41742" lon="5.89614">
        <ele>1506.951693199</ele>
        <time>2015-12-10T08:33:40Z</time>
      </trkpt>
      <trkpt lat="45.41736" lon="5.89617">
        <ele>1508.779762143</ele>
        <time>2015-12-10T08:33:49Z</time>
      </trkpt>
      <trkpt lat="45.41737" lon="5.89619">
        <ele>1508.779762143</ele>
        <time>2015-12-10T08:33:54Z</time>
      </trkpt>
      <trkpt lat="45.41737" lon="5.89622">
        <ele>1508.779762143</ele>
        <time>2015-12-10T08:34:08Z</time>
      </trkpt>
      <trkpt lat="45.41729" lon="5.89633">
        <ele>1510.892389418</ele>
        <time>2015-12-10T08:34:20Z</time>
      </trkpt>
      <trkpt lat="45.41723" lon="5.89641">
        <ele>1510.892389418</ele>
        <time>2015-12-10T08:34:24Z</time>
      </trkpt>
      <trkpt lat="45.41717" lon="5.89646">
        <ele>1513.132206207</ele>
        <time>2015-12-10T08:34:30Z</time>
      </trkpt>
      <trkpt lat="45.41712" lon="5.89655">
        <ele>1513.132206207</ele>
        <time>2015-12-10T08:34:40Z</time>
      </trkpt>
      <trkpt lat="45.41708" lon="5.89658">
        <ele>1515.208659422</ele>
        <time>2015-12-10T08:34:45Z</time>
      </trkpt>
      <trkpt lat="45.417" lon="5.89675">
        <ele>1517.141339401</ele>
        <time>2015-12-10T08:34:54Z</time>
      </trkpt>
      <trkpt lat="45.417" lon="5.89678">
        <ele>1517.141339401</ele>
        <time>2015-12-10T08:34:59Z</time>
      </trkpt>
      <trkpt lat="45.41691" lon="5.89694">
        <ele>1519.237079894</ele>
        <time>2015-12-10T08:35:10Z</time>
      </trkpt>
      <trkpt lat="45.41687" lon="5.89697">
        <ele>1519.237079894</ele>
        <time>2015-12-10T08:35:14Z</time>
      </trkpt>
      <trkpt lat="45.4168" lon="5.89709">
        <ele>1520.914128511</ele>
        <time>2015-12-10T08:35:25Z</time>
      </trkpt>
      <trkpt lat="45.41677" lon="5.89714">
        <ele>1520.914128511</ele>
        <time>2015-12-10T08:35:29Z</time>
      </trkpt>
      <trkpt lat="45.41672" lon="5.8972">
        <ele>1522.499866436</ele>
        <time>2015-12-10T08:35:40Z</time>
      </trkpt>
      <trkpt lat="45.41664" lon="5.89727">
        <ele>1524.009189089</ele>
        <time>2015-12-10T08:35:44Z</time>
      </trkpt>
      <trkpt lat="45.41662" lon="5.8973">
        <ele>1524.009189089</ele>
        <time>2015-12-10T08:35:59Z</time>
      </trkpt>
      <trkpt lat="45.41661" lon="5.89732">
        <ele>1524.009189089</ele>
        <time>2015-12-10T08:36:04Z</time>
      </trkpt>
      <trkpt lat="45.41662" lon="5.89734">
        <ele>1524.009189089</ele>
        <time>2015-12-10T08:36:10Z</time>
      </trkpt>
      <trkpt lat="45.41662" lon="5.89734">
        <ele>1524.009189089</ele>
        <time>2015-12-10T08:36:15Z</time>
      </trkpt>
      <trkpt lat="45.41661" lon="5.89738">
        <ele>1524.009189089</ele>
        <time>2015-12-10T08:36:20Z</time>
      </trkpt>
      <trkpt lat="45.41661" lon="5.89741">
        <ele>1525.88850394</ele>
        <time>2015-12-10T08:36:30Z</time>
      </trkpt>
      <trkpt lat="45.4166" lon="5.89744">
        <ele>1525.88850394</ele>
        <time>2015-12-10T08:36:34Z</time>
      </trkpt>
      <trkpt lat="45.4166" lon="5.8975">
        <ele>1525.88850394</ele>
        <time>2015-12-10T08:36:45Z</time>
      </trkpt>
      <trkpt lat="45.41658" lon="5.89755">
        <ele>1528.261677668</ele>
        <time>2015-12-10T08:36:50Z</time>
      </trkpt>
      <trkpt lat="45.41656" lon="5.89765">
        <ele>1528.261677668</ele>
        <time>2015-12-10T08:37:00Z</time>
      </trkpt>
      <trkpt lat="45.41656" lon="5.89767">
        <ele>1528.261677668</ele>
        <time>2015-12-10T08:37:04Z</time>
      </trkpt>
      <trkpt lat="45.4166" lon="5.89769">
        <ele>1530.520901466</ele>
        <time>2015-12-10T08:37:14Z</time>
      </trkpt>
      <trkpt lat="45.4166" lon="5.8977">
        <ele>1530.520901466</ele>
        <time>2015-12-10T08:37:18Z</time>
      </trkpt>
      <trkpt lat="45.41665" lon="5.89771">
        <ele>1530.520901466</ele>
        <time>2015-12-10T08:37:29Z</time>
      </trkpt>
      <trkpt lat="45.41666" lon="5.8977">
        <ele>1530.520901466</ele>
        <time>2015-12-10T08:37:35Z</time>
      </trkpt>
      <trkpt lat="45.41665" lon="5.89775">
        <ele>1533.400871251</ele>
        <time>2015-12-10T08:37:44Z</time>
      </trkpt>
      <trkpt lat="45.41665" lon="5.89776">
        <ele>1533.400871251</ele>
        <time>2015-12-10T08:37:50Z</time>
      </trkpt>
      <trkpt lat="45.41663" lon="5.89785">
        <ele>1533.400871251</ele>
        <time>2015-12-10T08:38:00Z</time>
      </trkpt>
      <trkpt lat="45.41661" lon="5.89789">
        <ele>1536.859333397</ele>
        <time>2015-12-10T08:38:04Z</time>
      </trkpt>
      <trkpt lat="45.4166" lon="5.8979">
        <ele>1536.859333397</ele>
        <time>2015-12-10T08:38:09Z</time>
      </trkpt>
      <trkpt lat="45.4166" lon="5.89792">
        <ele>1536.859333397</ele>
        <time>2015-12-10T08:38:15Z</time>
      </trkpt>
      <trkpt lat="45.4166" lon="5.89792">
        <ele>1536.859333397</ele>
        <time>2015-12-10T08:38:19Z</time>
      </trkpt>
      <trkpt lat="45.41659" lon="5.89794">
        <ele>1536.859333397</ele>
        <time>2015-12-10T08:38:35Z</time>
      </trkpt>
      <trkpt lat="45.41659" lon="5.89798">
        <ele>1536.859333397</ele>
        <time>2015-12-10T08:38:39Z</time>
      </trkpt>
      <trkpt lat="45.41655" lon="5.89813">
        <ele>1540.855318384</ele>
        <time>2015-12-10T08:38:50Z</time>
      </trkpt>
      <trkpt lat="45.41655" lon="5.89815">
        <ele>1540.855318384</ele>
        <time>2015-12-10T08:38:54Z</time>
      </trkpt>
      <trkpt lat="45.41655" lon="5.89815">
        <ele>1540.855318384</ele>
        <time>2015-12-10T08:39:04Z</time>
      </trkpt>
      <trkpt lat="45.41655" lon="5.89815">
        <ele>1540.855318384</ele>
        <time>2015-12-10T08:39:09Z</time>
      </trkpt>
      <trkpt lat="45.41655" lon="5.89815">
        <ele>1540.855318384</ele>
        <time>2015-12-10T08:39:20Z</time>
      </trkpt>
      <trkpt lat="45.41655" lon="5.89815">
        <ele>1540.855318384</ele>
        <time>2015-12-10T08:39:25Z</time>
      </trkpt>
      <trkpt lat="45.41655" lon="5.89815">
        <ele>1540.855318384</ele>
        <time>2015-12-10T08:39:34Z</time>
      </trkpt>
      <trkpt lat="45.41655" lon="5.89815">
        <ele>1540.855318384</ele>
        <time>2015-12-10T08:39:39Z</time>
      </trkpt>
      <trkpt lat="45.41655" lon="5.89815">
        <ele>1540.855318384</ele>
        <time>2015-12-10T08:39:50Z</time>
      </trkpt>
      <trkpt lat="45.41655" lon="5.89815">
        <ele>1540.855318384</ele>
        <time>2015-12-10T08:39:54Z</time>
      </trkpt>
      <trkpt lat="45.41655" lon="5.89815">
        <ele>1540.855318384</ele>
        <time>2015-12-10T08:40:04Z</time>
      </trkpt>
      <trkpt lat="45.41655" lon="5.89815">
        <ele>1540.855318384</ele>
        <time>2015-12-10T08:40:10Z</time>
      </trkpt>
      <trkpt lat="45.41655" lon="5.89815">
        <ele>1540.855318384</ele>
        <time>2015-12-10T08:40:24Z</time>
      </trkpt>
      <trkpt lat="45.41655" lon="5.89815">
        <ele>1540.855318384</ele>
        <time>2015-12-10T08:40:34Z</time>
      </trkpt>
      <trkpt lat="45.41655" lon="5.89815">
        <ele>1540.855318384</ele>
        <time>2015-12-10T08:40:39Z</time>
      </trkpt>
      <trkpt lat="45.41655" lon="5.89815">
        <ele>1540.855318384</ele>
        <time>2015-12-10T08:40:43Z</time>
      </trkpt>
      <trkpt lat="45.41655" lon="5.89815">
        <ele>1540.855318384</ele>
        <time>2015-12-10T08:40:49Z</time>
      </trkpt>
      <trkpt lat="45.41655" lon="5.89815">
        <ele>1540.855318384</ele>
        <time>2015-12-10T08:40:54Z</time>
      </trkpt>
      <trkpt lat="45.41656" lon="5.89815">
        <ele>1540.855318384</ele>
        <time>2015-12-10T08:41:08Z</time>
      </trkpt>
      <trkpt lat="45.41656" lon="5.89815">
        <ele>1540.855318384</ele>
        <time>2015-12-10T08:41:14Z</time>
      </trkpt>
      <trkpt lat="45.41656" lon="5.89815">
        <ele>1540.855318384</ele>
        <time>2015-12-10T08:41:25Z</time>
      </trkpt>
      <trkpt lat="45.41656" lon="5.89815">
        <ele>1540.855318384</ele>
        <time>2015-12-10T08:41:29Z</time>
      </trkpt>
      <trkpt lat="45.41656" lon="5.89815">
        <ele>1540.855318384</ele>
        <time>2015-12-10T08:41:38Z</time>
      </trkpt>
      <trkpt lat="45.41656" lon="5.89815">
        <ele>1540.855318384</ele>
        <time>2015-12-10T08:41:43Z</time>
      </trkpt>
      <trkpt lat="45.41656" lon="5.89815">
        <ele>1540.855318384</ele>
        <time>2015-12-10T08:41:53Z</time>
      </trkpt>
      <trkpt lat="45.41656" lon="5.89815">
        <ele>1540.855318384</ele>
        <time>2015-12-10T08:41:58Z</time>
      </trkpt>
      <trkpt lat="45.41658" lon="5.8982">
        <ele>1540.855318384</ele>
        <time>2015-12-10T08:42:08Z</time>
      </trkpt>
      <trkpt lat="45.41658" lon="5.8982">
        <ele>1540.855318384</ele>
        <time>2015-12-10T08:42:13Z</time>
      </trkpt>
      <trkpt lat="45.41658" lon="5.89821">
        <ele>1540.855318384</ele>
        <time>2015-12-10T08:42:28Z</time>
      </trkpt>
      <trkpt lat="45.41667" lon="5.89821">
        <ele>1546.214133884</ele>
        <time>2015-12-10T08:42:45Z</time>
      </trkpt>
      <trkpt lat="45.41671" lon="5.8982">
        <ele>1546.214133884</ele>
        <time>2015-12-10T08:42:49Z</time>
      </trkpt>
      <trkpt lat="45.41675" lon="5.89816">
        <ele>1546.214133884</ele>
        <time>2015-12-10T08:42:59Z</time>
      </trkpt>
      <trkpt lat="45.41678" lon="5.89817">
        <ele>1551.389863296</ele>
        <time>2015-12-10T08:43:04Z</time>
      </trkpt>
      <trkpt lat="45.4168" lon="5.89818">
        <ele>1551.389863296</ele>
        <time>2015-12-10T08:43:14Z</time>
      </trkpt>
      <trkpt lat="45.4168" lon="5.89819">
        <ele>1551.389863296</ele>
        <time>2015-12-10T08:43:19Z</time>
      </trkpt>
      <trkpt lat="45.41679" lon="5.89824">
        <ele>1551.389863296</ele>
        <time>2015-12-10T08:43:30Z</time>
      </trkpt>
      <trkpt lat="45.41678" lon="5.89828">
        <ele>1556.536396012</ele>
        <time>2015-12-10T08:43:34Z</time>
      </trkpt>
      <trkpt lat="45.41673" lon="5.89836">
        <ele>1556.536396012</ele>
        <time>2015-12-10T08:43:44Z</time>
      </trkpt>
      <trkpt lat="45.41669" lon="5.89842">
        <ele>1561.219664046</ele>
        <time>2015-12-10T08:43:49Z</time>
      </trkpt>
      <trkpt lat="45.41667" lon="5.89852">
        <ele>1561.219664046</ele>
        <time>2015-12-10T08:43:59Z</time>
      </trkpt>
      <trkpt lat="45.41673" lon="5.89851">
        <ele>1565.471134609</ele>
        <time>2015-12-10T08:44:04Z</time>
      </trkpt>
      <trkpt lat="45.4168" lon="5.89855">
        <ele>1565.471134609</ele>
        <time>2015-12-10T08:44:14Z</time>
      </trkpt>
      <trkpt lat="45.41683" lon="5.89854">
        <ele>1569.321060064</ele>
        <time>2015-12-10T08:44:19Z</time>
      </trkpt>
      <trkpt lat="45.4169" lon="5.8985">
        <ele>1569.321060064</ele>
        <time>2015-12-10T08:44:29Z</time>
      </trkpt>
      <trkpt lat="45.41694" lon="5.89847">
        <ele>1573.0867552</ele>
        <time>2015-12-10T08:44:34Z</time>
      </trkpt>
      <trkpt lat="45.41697" lon="5.89843">
        <ele>1573.0867552</ele>
        <time>2015-12-10T08:44:45Z</time>
      </trkpt>
      <trkpt lat="45.41696" lon="5.89845">
        <ele>1573.0867552</ele>
        <time>2015-12-10T08:44:49Z</time>
      </trkpt>
      <trkpt lat="45.41694" lon="5.89851">
        <ele>1577.494725319</ele>
        <time>2015-12-10T08:45:00Z</time>
      </trkpt>
      <trkpt lat="45.41692" lon="5.89855">
        <ele>1577.494725319</ele>
        <time>2015-12-10T08:45:04Z</time>
      </trkpt>
      <trkpt lat="45.41692" lon="5.89857">
        <ele>1577.494725319</ele>
        <time>2015-12-10T08:45:20Z</time>
      </trkpt>
      <trkpt lat="45.41692" lon="5.89857">
        <ele>1577.494725319</ele>
        <time>2015-12-10T08:45:24Z</time>
      </trkpt>
      <trkpt lat="45.41694" lon="5.89864">
        <ele>1581.630824766</ele>
        <time>2015-12-10T08:45:33Z</time>
      </trkpt>
      <trkpt lat="45.41693" lon="5.89866">
        <ele>1581.630824766</ele>
        <time>2015-12-10T08:45:45Z</time>
      </trkpt>
      <trkpt lat="45.41693" lon="5.89866">
        <ele>1581.630824766</ele>
        <time>2015-12-10T08:45:49Z</time>
      </trkpt>
      <trkpt lat="45.41693" lon="5.89866">
        <ele>1581.630824766</ele>
        <time>2015-12-10T08:45:54Z</time>
      </trkpt>
      <trkpt lat="45.41693" lon="5.89866">
        <ele>1581.630824766</ele>
        <time>2015-12-10T08:46:05Z</time>
      </trkpt>
      <trkpt lat="45.41693" lon="5.89866">
        <ele>1581.630824766</ele>
        <time>2015-12-10T08:46:09Z</time>
      </trkpt>
      <trkpt lat="45.41693" lon="5.89866">
        <ele>1581.630824766</ele>
        <time>2015-12-10T08:46:19Z</time>
      </trkpt>
      <trkpt lat="45.41693" lon="5.89866">
        <ele>1581.630824766</ele>
        <time>2015-12-10T08:46:25Z</time>
      </trkpt>
      <trkpt lat="45.41696" lon="5.8987">
        <ele>1581.630824766</ele>
        <time>2015-12-10T08:46:35Z</time>
      </trkpt>
      <trkpt lat="45.41699" lon="5.89871">
        <ele>1581.630824766</ele>
        <time>2015-12-10T08:46:39Z</time>
      </trkpt>
      <trkpt lat="45.41699" lon="5.89875">
        <ele>1585.657673744</ele>
        <time>2015-12-10T08:46:50Z</time>
      </trkpt>
      <trkpt lat="45.41702" lon="5.89875">
        <ele>1585.657673744</ele>
        <time>2015-12-10T08:46:54Z</time>
      </trkpt>
      <trkpt lat="45.41703" lon="5.89875">
        <ele>1585.657673744</ele>
        <time>2015-12-10T08:47:05Z</time>
      </trkpt>
      <trkpt lat="45.41703" lon="5.89881">
        <ele>1585.657673744</ele>
        <time>2015-12-10T08:47:09Z</time>
      </trkpt>
      <trkpt lat="45.41704" lon="5.89884">
        <ele>1589.437950539</ele>
        <time>2015-12-10T08:47:13Z</time>
      </trkpt>
      <trkpt lat="45.41709" lon="5.89885">
        <ele>1589.437950539</ele>
        <time>2015-12-10T08:47:25Z</time>
      </trkpt>
      <trkpt lat="45.4171" lon="5.89886">
        <ele>1589.437950539</ele>
        <time>2015-12-10T08:47:29Z</time>
      </trkpt>
      <trkpt lat="45.41711" lon="5.89888">
        <ele>1589.437950539</ele>
        <time>2015-12-10T08:47:39Z</time>
      </trkpt>
      <trkpt lat="45.41711" lon="5.89892">
        <ele>1595.29506069</ele>
        <time>2015-12-10T08:47:45Z</time>
      </trkpt>
      <trkpt lat="45.4171" lon="5.89894">
        <ele>1595.29506069</ele>
        <time>2015-12-10T08:47:55Z</time>
      </trkpt>
      <trkpt lat="45.41711" lon="5.89896">
        <ele>1595.29506069</ele>
        <time>2015-12-10T08:47:59Z</time>
      </trkpt>
      <trkpt lat="45.4171" lon="5.89901">
        <ele>1595.29506069</ele>
        <time>2015-12-10T08:48:09Z</time>
      </trkpt>
      <trkpt lat="45.41709" lon="5.89905">
        <ele>1601.196447573</ele>
        <time>2015-12-10T08:48:14Z</time>
      </trkpt>
      <trkpt lat="45.41708" lon="5.89912">
        <ele>1601.196447573</ele>
        <time>2015-12-10T08:48:25Z</time>
      </trkpt>
      <trkpt lat="45.41707" lon="5.89915">
        <ele>1601.196447573</ele>
        <time>2015-12-10T08:48:29Z</time>
      </trkpt>
      <trkpt lat="45.41709" lon="5.89918">
        <ele>1606.988172722</ele>
        <time>2015-12-10T08:48:33Z</time>
      </trkpt>
      <trkpt lat="45.41711" lon="5.89919">
        <ele>1606.988172722</ele>
        <time>2015-12-10T08:48:44Z</time>
      </trkpt>
      <trkpt lat="45.41712" lon="5.89918">
        <ele>1606.988172722</ele>
        <time>2015-12-10T08:48:49Z</time>
      </trkpt>
      <trkpt lat="45.41712" lon="5.89919">
        <ele>1606.988172722</ele>
        <time>2015-12-10T08:48:59Z</time>
      </trkpt>
      <trkpt lat="45.41717" lon="5.89918">
        <ele>1606.988172722</ele>
        <time>2015-12-10T08:49:04Z</time>
      </trkpt>
      <trkpt lat="45.41722" lon="5.89912">
        <ele>1613.248487713</ele>
        <time>2015-12-10T08:49:14Z</time>
      </trkpt>
      <trkpt lat="45.41728" lon="5.89909">
        <ele>1613.248487713</ele>
        <time>2015-12-10T08:49:19Z</time>
      </trkpt>
      <trkpt lat="45.41733" lon="5.89906">
        <ele>1619.50307464</ele>
        <time>2015-12-10T08:49:29Z</time>
      </trkpt>
      <trkpt lat="45.41736" lon="5.89905">
        <ele>1619.50307464</ele>
        <time>2015-12-10T08:49:34Z</time>
      </trkpt>
      <trkpt lat="45.4174" lon="5.89902">
        <ele>1619.50307464</ele>
        <time>2015-12-10T08:49:44Z</time>
      </trkpt>
      <trkpt lat="45.41741" lon="5.89902">
        <ele>1619.50307464</ele>
        <time>2015-12-10T08:49:49Z</time>
      </trkpt>
      <trkpt lat="45.41743" lon="5.89896">
        <ele>1625.312524116</ele>
        <time>2015-12-10T08:49:59Z</time>
      </trkpt>
      <trkpt lat="45.41744" lon="5.89895">
        <ele>1625.312524116</ele>
        <time>2015-12-10T08:50:05Z</time>
      </trkpt>
      <trkpt lat="45.41743" lon="5.89895">
        <ele>1625.312524116</ele>
        <time>2015-12-10T08:50:14Z</time>
      </trkpt>
      <trkpt lat="45.41743" lon="5.89894">
        <ele>1625.312524116</ele>
        <time>2015-12-10T08:50:19Z</time>
      </trkpt>
      <trkpt lat="45.41743" lon="5.89894">
        <ele>1625.312524116</ele>
        <time>2015-12-10T08:50:29Z</time>
      </trkpt>
      <trkpt lat="45.41743" lon="5.89894">
        <ele>1625.312524116</ele>
        <time>2015-12-10T08:50:34Z</time>
      </trkpt>
      <trkpt lat="45.41743" lon="5.89894">
        <ele>1625.312524116</ele>
        <time>2015-12-10T08:50:44Z</time>
      </trkpt>
      <trkpt lat="45.41743" lon="5.89894">
        <ele>1625.312524116</ele>
        <time>2015-12-10T08:50:49Z</time>
      </trkpt>
      <trkpt lat="45.41743" lon="5.89894">
        <ele>1625.312524116</ele>
        <time>2015-12-10T08:51:04Z</time>
      </trkpt>
      <trkpt lat="45.41743" lon="5.89894">
        <ele>1625.312524116</ele>
        <time>2015-12-10T08:51:09Z</time>
      </trkpt>
      <trkpt lat="45.41743" lon="5.89894">
        <ele>1625.312524116</ele>
        <time>2015-12-10T08:51:20Z</time>
      </trkpt>
      <trkpt lat="45.41743" lon="5.89894">
        <ele>1625.312524116</ele>
        <time>2015-12-10T08:51:24Z</time>
      </trkpt>
      <trkpt lat="45.41743" lon="5.89894">
        <ele>1625.312524116</ele>
        <time>2015-12-10T08:51:34Z</time>
      </trkpt>
      <trkpt lat="45.41743" lon="5.89894">
        <ele>1625.312524116</ele>
        <time>2015-12-10T08:51:39Z</time>
      </trkpt>
      <trkpt lat="45.41743" lon="5.89894">
        <ele>1625.312524116</ele>
        <time>2015-12-10T08:51:49Z</time>
      </trkpt>
      <trkpt lat="45.41743" lon="5.89894">
        <ele>1625.312524116</ele>
        <time>2015-12-10T08:51:54Z</time>
      </trkpt>
      <trkpt lat="45.41743" lon="5.89894">
        <ele>1625.312524116</ele>
        <time>2015-12-10T08:52:04Z</time>
      </trkpt>
      <trkpt lat="45.41743" lon="5.89894">
        <ele>1625.312524116</ele>
        <time>2015-12-10T08:52:09Z</time>
      </trkpt>
      <trkpt lat="45.41743" lon="5.89894">
        <ele>1625.312524116</ele>
        <time>2015-12-10T08:52:20Z</time>
      </trkpt>
      <trkpt lat="45.41743" lon="5.89894">
        <ele>1625.312524116</ele>
        <time>2015-12-10T08:52:24Z</time>
      </trkpt>
      <trkpt lat="45.41743" lon="5.89894">
        <ele>1625.312524116</ele>
        <time>2015-12-10T08:52:39Z</time>
      </trkpt>
      <trkpt lat="45.41743" lon="5.89894">
        <ele>1625.312524116</ele>
        <time>2015-12-10T08:52:44Z</time>
      </trkpt>
      <trkpt lat="45.41743" lon="5.89894">
        <ele>1625.312524116</ele>
        <time>2015-12-10T08:52:54Z</time>
      </trkpt>
      <trkpt lat="45.41743" lon="5.89894">
        <ele>1625.312524116</ele>
        <time>2015-12-10T08:52:59Z</time>
      </trkpt>
      <trkpt lat="45.41743" lon="5.89894">
        <ele>1625.312524116</ele>
        <time>2015-12-10T08:53:08Z</time>
      </trkpt>
      <trkpt lat="45.41743" lon="5.89894">
        <ele>1625.312524116</ele>
        <time>2015-12-10T08:53:14Z</time>
      </trkpt>
      <trkpt lat="45.41743" lon="5.89894">
        <ele>1625.312524116</ele>
        <time>2015-12-10T08:53:24Z</time>
      </trkpt>
      <trkpt lat="45.41743" lon="5.89894">
        <ele>1625.312524116</ele>
        <time>2015-12-10T08:53:30Z</time>
      </trkpt>
      <trkpt lat="45.41743" lon="5.89894">
        <ele>1625.312524116</ele>
        <time>2015-12-10T08:53:39Z</time>
      </trkpt>
      <trkpt lat="45.41743" lon="5.89894">
        <ele>1625.312524116</ele>
        <time>2015-12-10T08:53:44Z</time>
      </trkpt>
      <trkpt lat="45.41743" lon="5.89894">
        <ele>1625.312524116</ele>
        <time>2015-12-10T08:53:55Z</time>
      </trkpt>
      <trkpt lat="45.41743" lon="5.89894">
        <ele>1625.312524116</ele>
        <time>2015-12-10T08:53:59Z</time>
      </trkpt>
      <trkpt lat="45.41743" lon="5.89894">
        <ele>1625.312524116</ele>
        <time>2015-12-10T08:54:15Z</time>
      </trkpt>
      <trkpt lat="45.41743" lon="5.89894">
        <ele>1625.312524116</ele>
        <time>2015-12-10T08:54:19Z</time>
      </trkpt>
      <trkpt lat="45.41743" lon="5.89894">
        <ele>1625.312524116</ele>
        <time>2015-12-10T08:54:29Z</time>
      </trkpt>
      <trkpt lat="45.41743" lon="5.89894">
        <ele>1625.312524116</ele>
        <time>2015-12-10T08:54:34Z</time>
      </trkpt>
      <trkpt lat="45.41751" lon="5.89881">
        <ele>1631.135691358</ele>
        <time>2015-12-10T08:54:44Z</time>
      </trkpt>
      <trkpt lat="45.41758" lon="5.89878">
        <ele>1631.135691358</ele>
        <time>2015-12-10T08:54:49Z</time>
      </trkpt>
      <trkpt lat="45.41765" lon="5.89871">
        <ele>1635.956632097</ele>
        <time>2015-12-10T08:54:59Z</time>
      </trkpt>
      <trkpt lat="45.41768" lon="5.8987">
        <ele>1635.956632097</ele>
        <time>2015-12-10T08:55:04Z</time>
      </trkpt>
      <trkpt lat="45.41774" lon="5.89867">
        <ele>1639.989827397</ele>
        <time>2015-12-10T08:55:14Z</time>
      </trkpt>
      <trkpt lat="45.41777" lon="5.89857">
        <ele>1639.989827397</ele>
        <time>2015-12-10T08:55:19Z</time>
      </trkpt>
      <trkpt lat="45.41783" lon="5.8985">
        <ele>1643.292184823</ele>
        <time>2015-12-10T08:55:29Z</time>
      </trkpt>
      <trkpt lat="45.41782" lon="5.89845">
        <ele>1643.292184823</ele>
        <time>2015-12-10T08:55:34Z</time>
      </trkpt>
      <trkpt lat="45.41783" lon="5.89844">
        <ele>1643.292184823</ele>
        <time>2015-12-10T08:55:44Z</time>
      </trkpt>
      <trkpt lat="45.41783" lon="5.89844">
        <ele>1643.292184823</ele>
        <time>2015-12-10T08:55:49Z</time>
      </trkpt>
      <trkpt lat="45.41783" lon="5.89844">
        <ele>1643.292184823</ele>
        <time>2015-12-10T08:55:59Z</time>
      </trkpt>
      <trkpt lat="45.41783" lon="5.89844">
        <ele>1643.292184823</ele>
        <time>2015-12-10T08:56:04Z</time>
      </trkpt>
      <trkpt lat="45.41783" lon="5.89843">
        <ele>1643.292184823</ele>
        <time>2015-12-10T08:56:19Z</time>
      </trkpt>
      <trkpt lat="45.41783" lon="5.89843">
        <ele>1643.292184823</ele>
        <time>2015-12-10T08:56:24Z</time>
      </trkpt>
      <trkpt lat="45.41783" lon="5.89843">
        <ele>1643.292184823</ele>
        <time>2015-12-10T08:56:35Z</time>
      </trkpt>
      <trkpt lat="45.41783" lon="5.89843">
        <ele>1643.292184823</ele>
        <time>2015-12-10T08:56:49Z</time>
      </trkpt>
      <trkpt lat="45.41783" lon="5.89843">
        <ele>1643.292184823</ele>
        <time>2015-12-10T08:56:55Z</time>
      </trkpt>
      <trkpt lat="45.41783" lon="5.89844">
        <ele>1643.292184823</ele>
        <time>2015-12-10T08:57:04Z</time>
      </trkpt>
      <trkpt lat="45.41783" lon="5.89844">
        <ele>1643.292184823</ele>
        <time>2015-12-10T08:57:10Z</time>
      </trkpt>
      <trkpt lat="45.41783" lon="5.89844">
        <ele>1643.292184823</ele>
        <time>2015-12-10T08:57:18Z</time>
      </trkpt>
      <trkpt lat="45.41783" lon="5.89844">
        <ele>1643.292184823</ele>
        <time>2015-12-10T08:57:23Z</time>
      </trkpt>
      <trkpt lat="45.41783" lon="5.89844">
        <ele>1643.292184823</ele>
        <time>2015-12-10T08:57:33Z</time>
      </trkpt>
      <trkpt lat="45.41783" lon="5.89844">
        <ele>1643.292184823</ele>
        <time>2015-12-10T08:57:39Z</time>
      </trkpt>
      <trkpt lat="45.41783" lon="5.89844">
        <ele>1643.292184823</ele>
        <time>2015-12-10T08:57:54Z</time>
      </trkpt>
      <trkpt lat="45.41783" lon="5.89844">
        <ele>1643.292184823</ele>
        <time>2015-12-10T08:57:59Z</time>
      </trkpt>
      <trkpt lat="45.41783" lon="5.89845">
        <ele>1643.292184823</ele>
        <time>2015-12-10T08:58:10Z</time>
      </trkpt>
      <trkpt lat="45.41783" lon="5.89845">
        <ele>1643.292184823</ele>
        <time>2015-12-10T08:58:13Z</time>
      </trkpt>
      <trkpt lat="45.41783" lon="5.89845">
        <ele>1643.292184823</ele>
        <time>2015-12-10T08:58:24Z</time>
      </trkpt>
      <trkpt lat="45.41783" lon="5.89845">
        <ele>1643.292184823</ele>
        <time>2015-12-10T08:58:30Z</time>
      </trkpt>
      <trkpt lat="45.41783" lon="5.89845">
        <ele>1643.292184823</ele>
        <time>2015-12-10T08:58:39Z</time>
      </trkpt>
      <trkpt lat="45.41783" lon="5.89845">
        <ele>1643.292184823</ele>
        <time>2015-12-10T08:58:44Z</time>
      </trkpt>
      <trkpt lat="45.41794" lon="5.89848">
        <ele>1647.359696782</ele>
        <time>2015-12-10T08:58:55Z</time>
      </trkpt>
      <trkpt lat="45.41798" lon="5.89848">
        <ele>1647.359696782</ele>
        <time>2015-12-10T08:58:59Z</time>
      </trkpt>
      <trkpt lat="45.41802" lon="5.89856">
        <ele>1651.126478266</ele>
        <time>2015-12-10T08:59:10Z</time>
      </trkpt>
      <trkpt lat="45.41808" lon="5.89853">
        <ele>1651.126478266</ele>
        <time>2015-12-10T08:59:14Z</time>
      </trkpt>
      <trkpt lat="45.41811" lon="5.89852">
        <ele>1651.126478266</ele>
        <time>2015-12-10T08:59:25Z</time>
      </trkpt>
      <trkpt lat="45.41811" lon="5.89851">
        <ele>1654.902879126</ele>
        <time>2015-12-10T08:59:29Z</time>
      </trkpt>
      <trkpt lat="45.41811" lon="5.89851">
        <ele>1654.902879126</ele>
        <time>2015-12-10T08:59:40Z</time>
      </trkpt>
      <trkpt lat="45.41811" lon="5.89851">
        <ele>1654.902879126</ele>
        <time>2015-12-10T08:59:44Z</time>
      </trkpt>
      <trkpt lat="45.41822" lon="5.89853">
        <ele>1657.679470255</ele>
        <time>2015-12-10T08:59:54Z</time>
      </trkpt>
      <trkpt lat="45.41828" lon="5.89853">
        <ele>1657.679470255</ele>
        <time>2015-12-10T08:59:59Z</time>
      </trkpt>
      <trkpt lat="45.41832" lon="5.89858">
        <ele>1659.820859628</ele>
        <time>2015-12-10T09:00:10Z</time>
      </trkpt>
      <trkpt lat="45.41837" lon="5.8986">
        <ele>1659.820859628</ele>
        <time>2015-12-10T09:00:14Z</time>
      </trkpt>
      <trkpt lat="45.41837" lon="5.89859">
        <ele>1659.820859628</ele>
        <time>2015-12-10T09:00:19Z</time>
      </trkpt>
      <trkpt lat="45.41839" lon="5.89858">
        <ele>1659.820859628</ele>
        <time>2015-12-10T09:00:29Z</time>
      </trkpt>
      <trkpt lat="45.41839" lon="5.89858">
        <ele>1659.820859628</ele>
        <time>2015-12-10T09:00:33Z</time>
      </trkpt>
      <trkpt lat="45.41839" lon="5.89858">
        <ele>1659.820859628</ele>
        <time>2015-12-10T09:00:43Z</time>
      </trkpt>
      <trkpt lat="45.41839" lon="5.89858">
        <ele>1659.820859628</ele>
        <time>2015-12-10T09:00:48Z</time>
      </trkpt>
      <trkpt lat="45.41851" lon="5.89856">
        <ele>1661.090244079</ele>
        <time>2015-12-10T09:01:01Z</time>
      </trkpt>
      <trkpt lat="45.41857" lon="5.89855">
        <ele>1661.090244079</ele>
        <time>2015-12-10T09:01:05Z</time>
      </trkpt>
      <trkpt lat="45.41857" lon="5.89857">
        <ele>1661.090244079</ele>
        <time>2015-12-10T09:01:14Z</time>
      </trkpt>
      <trkpt lat="45.41856" lon="5.89857">
        <ele>1661.090244079</ele>
        <time>2015-12-10T09:01:20Z</time>
      </trkpt>
      <trkpt lat="45.41858" lon="5.89859">
        <ele>1662.135376456</ele>
        <time>2015-12-10T09:01:29Z</time>
      </trkpt>
      <trkpt lat="45.41866" lon="5.89864">
        <ele>1662.135376456</ele>
        <time>2015-12-10T09:01:34Z</time>
      </trkpt>
      <trkpt lat="45.41877" lon="5.89861">
        <ele>1662.836491025</ele>
        <time>2015-12-10T09:01:49Z</time>
      </trkpt>
      <trkpt lat="45.41881" lon="5.89863">
        <ele>1662.836491025</ele>
        <time>2015-12-10T09:01:55Z</time>
      </trkpt>
      <trkpt lat="45.41889" lon="5.89863">
        <ele>1663.371797132</ele>
        <time>2015-12-10T09:02:04Z</time>
      </trkpt>
      <trkpt lat="45.41895" lon="5.89871">
        <ele>1663.371797132</ele>
        <time>2015-12-10T09:02:09Z</time>
      </trkpt>
      <trkpt lat="45.41912" lon="5.89877">
        <ele>1662.89803134</ele>
        <time>2015-12-10T09:02:20Z</time>
      </trkpt>
      <trkpt lat="45.41912" lon="5.89881">
        <ele>1662.89803134</ele>
        <time>2015-12-10T09:02:24Z</time>
      </trkpt>
      <trkpt lat="45.41918" lon="5.8988">
        <ele>1662.798360208</ele>
        <time>2015-12-10T09:02:35Z</time>
      </trkpt>
      <trkpt lat="45.41923" lon="5.89886">
        <ele>1662.798360208</ele>
        <time>2015-12-10T09:02:39Z</time>
      </trkpt>
      <trkpt lat="45.41929" lon="5.89888">
        <ele>1661.759128013</ele>
        <time>2015-12-10T09:02:49Z</time>
      </trkpt>
      <trkpt lat="45.41935" lon="5.89886">
        <ele>1661.759128013</ele>
        <time>2015-12-10T09:02:54Z</time>
      </trkpt>
      <trkpt lat="45.41939" lon="5.89891">
        <ele>1661.15975951</ele>
        <time>2015-12-10T09:03:05Z</time>
      </trkpt>
      <trkpt lat="45.41939" lon="5.89892">
        <ele>1661.15975951</ele>
        <time>2015-12-10T09:03:09Z</time>
      </trkpt>
      <trkpt lat="45.41939" lon="5.89892">
        <ele>1661.15975951</ele>
        <time>2015-12-10T09:03:19Z</time>
      </trkpt>
      <trkpt lat="45.41939" lon="5.89892">
        <ele>1661.15975951</ele>
        <time>2015-12-10T09:03:24Z</time>
      </trkpt>
      <trkpt lat="45.41939" lon="5.89892">
        <ele>1661.15975951</ele>
        <time>2015-12-10T09:03:35Z</time>
      </trkpt>
      <trkpt lat="45.41939" lon="5.89892">
        <ele>1661.15975951</ele>
        <time>2015-12-10T09:03:39Z</time>
      </trkpt>
      <trkpt lat="45.41939" lon="5.89892">
        <ele>1661.15975951</ele>
        <time>2015-12-10T09:03:44Z</time>
      </trkpt>
      <trkpt lat="45.41941" lon="5.89893">
        <ele>1661.15975951</ele>
        <time>2015-12-10T09:03:54Z</time>
      </trkpt>
      <trkpt lat="45.41941" lon="5.89893">
        <ele>1661.15975951</ele>
        <time>2015-12-10T09:03:58Z</time>
      </trkpt>
      <trkpt lat="45.41941" lon="5.89893">
        <ele>1661.15975951</ele>
        <time>2015-12-10T09:04:09Z</time>
      </trkpt>
      <trkpt lat="45.41941" lon="5.89894">
        <ele>1661.15975951</ele>
        <time>2015-12-10T09:04:13Z</time>
      </trkpt>
      <trkpt lat="45.41941" lon="5.89894">
        <ele>1661.15975951</ele>
        <time>2015-12-10T09:04:23Z</time>
      </trkpt>
      <trkpt lat="45.41941" lon="5.89894">
        <ele>1661.15975951</ele>
        <time>2015-12-10T09:04:29Z</time>
      </trkpt>
      <trkpt lat="45.41941" lon="5.89894">
        <ele>1661.15975951</ele>
        <time>2015-12-10T09:04:39Z</time>
      </trkpt>
      <trkpt lat="45.41941" lon="5.89894">
        <ele>1661.15975951</ele>
        <time>2015-12-10T09:04:44Z</time>
      </trkpt>
      <trkpt lat="45.41941" lon="5.89894">
        <ele>1661.15975951</ele>
        <time>2015-12-10T09:04:54Z</time>
      </trkpt>
      <trkpt lat="45.41941" lon="5.89894">
        <ele>1661.15975951</ele>
        <time>2015-12-10T09:04:59Z</time>
      </trkpt>
      <trkpt lat="45.41941" lon="5.89895">
        <ele>1661.15975951</ele>
        <time>2015-12-10T09:05:09Z</time>
      </trkpt>
      <trkpt lat="45.41941" lon="5.89895">
        <ele>1661.15975951</ele>
        <time>2015-12-10T09:05:14Z</time>
      </trkpt>
      <trkpt lat="45.41941" lon="5.89895">
        <ele>1661.15975951</ele>
        <time>2015-12-10T09:05:24Z</time>
      </trkpt>
      <trkpt lat="45.41941" lon="5.89895">
        <ele>1661.15975951</ele>
        <time>2015-12-10T09:05:30Z</time>
      </trkpt>
      <trkpt lat="45.41941" lon="5.89895">
        <ele>1661.15975951</ele>
        <time>2015-12-10T09:05:40Z</time>
      </trkpt>
      <trkpt lat="45.41941" lon="5.89895">
        <ele>1661.15975951</ele>
        <time>2015-12-10T09:05:44Z</time>
      </trkpt>
      <trkpt lat="45.41941" lon="5.89896">
        <ele>1661.15975951</ele>
        <time>2015-12-10T09:05:55Z</time>
      </trkpt>
      <trkpt lat="45.41941" lon="5.89896">
        <ele>1661.15975951</ele>
        <time>2015-12-10T09:06:00Z</time>
      </trkpt>
      <trkpt lat="45.41941" lon="5.89896">
        <ele>1661.15975951</ele>
        <time>2015-12-10T09:06:14Z</time>
      </trkpt>
      <trkpt lat="45.41941" lon="5.89896">
        <ele>1661.15975951</ele>
        <time>2015-12-10T09:06:19Z</time>
      </trkpt>
      <trkpt lat="45.41941" lon="5.89896">
        <ele>1661.15975951</ele>
        <time>2015-12-10T09:06:30Z</time>
      </trkpt>
      <trkpt lat="45.41941" lon="5.89896">
        <ele>1661.15975951</ele>
        <time>2015-12-10T09:06:34Z</time>
      </trkpt>
      <trkpt lat="45.41941" lon="5.89896">
        <ele>1661.15975951</ele>
        <time>2015-12-10T09:06:40Z</time>
      </trkpt>
      <trkpt lat="45.41941" lon="5.89896">
        <ele>1661.15975951</ele>
        <time>2015-12-10T09:06:45Z</time>
      </trkpt>
      <trkpt lat="45.41941" lon="5.89896">
        <ele>1661.15975951</ele>
        <time>2015-12-10T09:06:49Z</time>
      </trkpt>
      <trkpt lat="45.41941" lon="5.89896">
        <ele>1661.15975951</ele>
        <time>2015-12-10T09:06:59Z</time>
      </trkpt>
      <trkpt lat="45.41941" lon="5.89896">
        <ele>1661.15975951</ele>
        <time>2015-12-10T09:07:04Z</time>
      </trkpt>
      <trkpt lat="45.41941" lon="5.89896">
        <ele>1661.15975951</ele>
        <time>2015-12-10T09:07:14Z</time>
      </trkpt>
      <trkpt lat="45.41941" lon="5.89896">
        <ele>1661.15975951</ele>
        <time>2015-12-10T09:07:19Z</time>
      </trkpt>
      <trkpt lat="45.41941" lon="5.89896">
        <ele>1661.15975951</ele>
        <time>2015-12-10T09:07:29Z</time>
      </trkpt>
      <trkpt lat="45.41941" lon="5.89896">
        <ele>1661.15975951</ele>
        <time>2015-12-10T09:07:35Z</time>
      </trkpt>
      <trkpt lat="45.41941" lon="5.89897">
        <ele>1661.15975951</ele>
        <time>2015-12-10T09:07:44Z</time>
      </trkpt>
      <trkpt lat="45.41941" lon="5.89897">
        <ele>1661.15975951</ele>
        <time>2015-12-10T09:07:48Z</time>
      </trkpt>
      <trkpt lat="45.41941" lon="5.89897">
        <ele>1661.15975951</ele>
        <time>2015-12-10T09:07:58Z</time>
      </trkpt>
      <trkpt lat="45.41941" lon="5.89897">
        <ele>1661.15975951</ele>
        <time>2015-12-10T09:08:16Z</time>
      </trkpt>
      <trkpt lat="45.41941" lon="5.89899">
        <ele>1661.15975951</ele>
        <time>2015-12-10T09:09:00Z</time>
      </trkpt>
      <trkpt lat="45.41941" lon="5.89899">
        <ele>1661.15975951</ele>
        <time>2015-12-10T09:09:02Z</time>
      </trkpt>
      <trkpt lat="45.41941" lon="5.89904">
        <ele>1660.691695734</ele>
        <time>2015-12-10T09:09:17Z</time>
      </trkpt>
      <trkpt lat="45.41941" lon="5.89906">
        <ele>1660.691695734</ele>
        <time>2015-12-10T09:09:19Z</time>
      </trkpt>
      <trkpt lat="45.41941" lon="5.89913">
        <ele>1660.691695734</ele>
        <time>2015-12-10T09:09:29Z</time>
      </trkpt>
      <trkpt lat="45.41941" lon="5.89913">
        <ele>1660.691695734</ele>
        <time>2015-12-10T09:09:35Z</time>
      </trkpt>
      <trkpt lat="45.41941" lon="5.89919">
        <ele>1660.356729749</ele>
        <time>2015-12-10T09:09:50Z</time>
      </trkpt>
      <trkpt lat="45.41949" lon="5.89925">
        <ele>1660.356729749</ele>
        <time>2015-12-10T09:09:54Z</time>
      </trkpt>
      <trkpt lat="45.41962" lon="5.89927">
        <ele>1660.876525371</ele>
        <time>2015-12-10T09:10:04Z</time>
      </trkpt>
      <trkpt lat="45.41962" lon="5.89928">
        <ele>1660.876525371</ele>
        <time>2015-12-10T09:10:20Z</time>
      </trkpt>
      <trkpt lat="45.41959" lon="5.8993">
        <ele>1660.876525371</ele>
        <time>2015-12-10T09:10:24Z</time>
      </trkpt>
      <trkpt lat="45.41955" lon="5.89936">
        <ele>1661.475975621</ele>
        <time>2015-12-10T09:10:35Z</time>
      </trkpt>
      <trkpt lat="45.41954" lon="5.89937">
        <ele>1661.475975621</ele>
        <time>2015-12-10T09:10:39Z</time>
      </trkpt>
      <trkpt lat="45.41954" lon="5.89937">
        <ele>1661.475975621</ele>
        <time>2015-12-10T09:10:49Z</time>
      </trkpt>
      <trkpt lat="45.41953" lon="5.89937">
        <ele>1661.475975621</ele>
        <time>2015-12-10T09:10:54Z</time>
      </trkpt>
      <trkpt lat="45.41949" lon="5.89939">
        <ele>1661.475975621</ele>
        <time>2015-12-10T09:11:04Z</time>
      </trkpt>
      <trkpt lat="45.41949" lon="5.89939">
        <ele>1661.475975621</ele>
        <time>2015-12-10T09:11:09Z</time>
      </trkpt>
      <trkpt lat="45.41949" lon="5.8994">
        <ele>1661.475975621</ele>
        <time>2015-12-10T09:11:24Z</time>
      </trkpt>
      <trkpt lat="45.41954" lon="5.89944">
        <ele>1663.165841251</ele>
        <time>2015-12-10T09:11:34Z</time>
      </trkpt>
      <trkpt lat="45.41955" lon="5.89945">
        <ele>1663.165841251</ele>
        <time>2015-12-10T09:11:38Z</time>
      </trkpt>
      <trkpt lat="45.41956" lon="5.89947">
        <ele>1663.165841251</ele>
        <time>2015-12-10T09:11:55Z</time>
      </trkpt>
      <trkpt lat="45.41957" lon="5.89953">
        <ele>1663.165841251</ele>
        <time>2015-12-10T09:12:09Z</time>
      </trkpt>
      <trkpt lat="45.41957" lon="5.89955">
        <ele>1663.165841251</ele>
        <time>2015-12-10T09:12:14Z</time>
      </trkpt>
      <trkpt lat="45.41958" lon="5.89959">
        <ele>1665.438202317</ele>
        <time>2015-12-10T09:12:24Z</time>
      </trkpt>
      <trkpt lat="45.4196" lon="5.89962">
        <ele>1665.438202317</ele>
        <time>2015-12-10T09:12:29Z</time>
      </trkpt>
      <trkpt lat="45.41963" lon="5.89967">
        <ele>1665.438202317</ele>
        <time>2015-12-10T09:12:39Z</time>
      </trkpt>
      <trkpt lat="45.41964" lon="5.89968">
        <ele>1665.438202317</ele>
        <time>2015-12-10T09:12:44Z</time>
      </trkpt>
      <trkpt lat="45.41964" lon="5.89967">
        <ele>1665.438202317</ele>
        <time>2015-12-10T09:12:55Z</time>
      </trkpt>
      <trkpt lat="45.41961" lon="5.89969">
        <ele>1667.388252946</ele>
        <time>2015-12-10T09:12:59Z</time>
      </trkpt>
      <trkpt lat="45.41959" lon="5.89976">
        <ele>1667.388252946</ele>
        <time>2015-12-10T09:13:09Z</time>
      </trkpt>
      <trkpt lat="45.41959" lon="5.89977">
        <ele>1667.388252946</ele>
        <time>2015-12-10T09:13:14Z</time>
      </trkpt>
      <trkpt lat="45.41963" lon="5.89982">
        <ele>1669.331252366</ele>
        <time>2015-12-10T09:13:25Z</time>
      </trkpt>
      <trkpt lat="45.41964" lon="5.8998">
        <ele>1669.331252366</ele>
        <time>2015-12-10T09:13:29Z</time>
      </trkpt>
      <trkpt lat="45.41964" lon="5.89981">
        <ele>1669.331252366</ele>
        <time>2015-12-10T09:13:40Z</time>
      </trkpt>
      <trkpt lat="45.41964" lon="5.89981">
        <ele>1669.331252366</ele>
        <time>2015-12-10T09:13:44Z</time>
      </trkpt>
      <trkpt lat="45.41964" lon="5.89981">
        <ele>1669.331252366</ele>
        <time>2015-12-10T09:13:55Z</time>
      </trkpt>
      <trkpt lat="45.41964" lon="5.89981">
        <ele>1669.331252366</ele>
        <time>2015-12-10T09:13:59Z</time>
      </trkpt>
      <trkpt lat="45.41962" lon="5.89983">
        <ele>1669.331252366</ele>
        <time>2015-12-10T09:14:04Z</time>
      </trkpt>
      <trkpt lat="45.41962" lon="5.89989">
        <ele>1669.331252366</ele>
        <time>2015-12-10T09:14:15Z</time>
      </trkpt>
      <trkpt lat="45.41959" lon="5.89991">
        <ele>1672.423788331</ele>
        <time>2015-12-10T09:14:20Z</time>
      </trkpt>
      <trkpt lat="45.41959" lon="5.89997">
        <ele>1672.423788331</ele>
        <time>2015-12-10T09:14:30Z</time>
      </trkpt>
      <trkpt lat="45.41957" lon="5.89999">
        <ele>1672.423788331</ele>
        <time>2015-12-10T09:14:34Z</time>
      </trkpt>
      <trkpt lat="45.41955" lon="5.90001">
        <ele>1675.860582988</ele>
        <time>2015-12-10T09:14:44Z</time>
      </trkpt>
      <trkpt lat="45.41954" lon="5.90002">
        <ele>1675.860582988</ele>
        <time>2015-12-10T09:14:48Z</time>
      </trkpt>
      <trkpt lat="45.41955" lon="5.90009">
        <ele>1675.860582988</ele>
        <time>2015-12-10T09:15:05Z</time>
      </trkpt>
      <trkpt lat="45.41953" lon="5.90012">
        <ele>1675.860582988</ele>
        <time>2015-12-10T09:15:20Z</time>
      </trkpt>
      <trkpt lat="45.41953" lon="5.90012">
        <ele>1680.47961124</ele>
        <time>2015-12-10T09:15:24Z</time>
      </trkpt>
      <trkpt lat="45.41953" lon="5.90013">
        <ele>1680.47961124</ele>
        <time>2015-12-10T09:15:34Z</time>
      </trkpt>
      <trkpt lat="45.41954" lon="5.90015">
        <ele>1680.47961124</ele>
        <time>2015-12-10T09:15:40Z</time>
      </trkpt>
      <trkpt lat="45.41952" lon="5.90016">
        <ele>1680.47961124</ele>
        <time>2015-12-10T09:15:49Z</time>
      </trkpt>
      <trkpt lat="45.41954" lon="5.90018">
        <ele>1680.47961124</ele>
        <time>2015-12-10T09:15:54Z</time>
      </trkpt>
      <trkpt lat="45.41953" lon="5.90018">
        <ele>1680.47961124</ele>
        <time>2015-12-10T09:16:04Z</time>
      </trkpt>
      <trkpt lat="45.41953" lon="5.90019">
        <ele>1680.47961124</ele>
        <time>2015-12-10T09:16:09Z</time>
      </trkpt>
      <trkpt lat="45.41953" lon="5.90019">
        <ele>1680.47961124</ele>
        <time>2015-12-10T09:16:19Z</time>
      </trkpt>
      <trkpt lat="45.41953" lon="5.90019">
        <ele>1680.47961124</ele>
        <time>2015-12-10T09:16:25Z</time>
      </trkpt>
      <trkpt lat="45.41951" lon="5.90024">
        <ele>1684.892111949</ele>
        <time>2015-12-10T09:16:34Z</time>
      </trkpt>
      <trkpt lat="45.41951" lon="5.90023">
        <ele>1684.892111949</ele>
        <time>2015-12-10T09:16:39Z</time>
      </trkpt>
      <trkpt lat="45.41948" lon="5.90025">
        <ele>1684.892111949</ele>
        <time>2015-12-10T09:16:48Z</time>
      </trkpt>
      <trkpt lat="45.41947" lon="5.90027">
        <ele>1684.892111949</ele>
        <time>2015-12-10T09:16:54Z</time>
      </trkpt>
      <trkpt lat="45.41951" lon="5.90031">
        <ele>1689.685250025</ele>
        <time>2015-12-10T09:17:10Z</time>
      </trkpt>
      <trkpt lat="45.41952" lon="5.90034">
        <ele>1689.685250025</ele>
        <time>2015-12-10T09:17:14Z</time>
      </trkpt>
      <trkpt lat="45.41954" lon="5.90035">
        <ele>1689.685250025</ele>
        <time>2015-12-10T09:17:24Z</time>
      </trkpt>
      <trkpt lat="45.41958" lon="5.90037">
        <ele>1694.104856192</ele>
        <time>2015-12-10T09:17:29Z</time>
      </trkpt>
      <trkpt lat="45.4196" lon="5.90039">
        <ele>1694.104856192</ele>
        <time>2015-12-10T09:17:40Z</time>
      </trkpt>
      <trkpt lat="45.4196" lon="5.90039">
        <ele>1694.104856192</ele>
        <time>2015-12-10T09:17:44Z</time>
      </trkpt>
      <trkpt lat="45.4196" lon="5.90043">
        <ele>1694.104856192</ele>
        <time>2015-12-10T09:17:54Z</time>
      </trkpt>
      <trkpt lat="45.4196" lon="5.90044">
        <ele>1694.104856192</ele>
        <time>2015-12-10T09:17:59Z</time>
      </trkpt>
      <trkpt lat="45.4196" lon="5.90045">
        <ele>1694.104856192</ele>
        <time>2015-12-10T09:18:14Z</time>
      </trkpt>
      <trkpt lat="45.4196" lon="5.90045">
        <ele>1694.104856192</ele>
        <time>2015-12-10T09:18:19Z</time>
      </trkpt>
      <trkpt lat="45.4196" lon="5.90044">
        <ele>1694.104856192</ele>
        <time>2015-12-10T09:18:29Z</time>
      </trkpt>
      <trkpt lat="45.4196" lon="5.90044">
        <ele>1694.104856192</ele>
        <time>2015-12-10T09:18:33Z</time>
      </trkpt>
      <trkpt lat="45.4196" lon="5.90044">
        <ele>1694.104856192</ele>
        <time>2015-12-10T09:18:49Z</time>
      </trkpt>
      <trkpt lat="45.4196" lon="5.90044">
        <ele>1694.104856192</ele>
        <time>2015-12-10T09:18:59Z</time>
      </trkpt>
      <trkpt lat="45.4196" lon="5.90045">
        <ele>1694.104856192</ele>
        <time>2015-12-10T09:19:04Z</time>
      </trkpt>
      <trkpt lat="45.4196" lon="5.90044">
        <ele>1694.104856192</ele>
        <time>2015-12-10T09:19:09Z</time>
      </trkpt>
      <trkpt lat="45.4196" lon="5.90045">
        <ele>1694.104856192</ele>
        <time>2015-12-10T09:19:15Z</time>
      </trkpt>
      <trkpt lat="45.4196" lon="5.90045">
        <ele>1694.104856192</ele>
        <time>2015-12-10T09:19:19Z</time>
      </trkpt>
      <trkpt lat="45.4196" lon="5.90045">
        <ele>1694.104856192</ele>
        <time>2015-12-10T09:19:24Z</time>
      </trkpt>
      <trkpt lat="45.4196" lon="5.90047">
        <ele>1694.104856192</ele>
        <time>2015-12-10T09:19:35Z</time>
      </trkpt>
      <trkpt lat="45.41959" lon="5.9005">
        <ele>1699.326579757</ele>
        <time>2015-12-10T09:19:39Z</time>
      </trkpt>
      <trkpt lat="45.41962" lon="5.90057">
        <ele>1699.326579757</ele>
        <time>2015-12-10T09:19:49Z</time>
      </trkpt>
      <trkpt lat="45.41963" lon="5.90059">
        <ele>1699.326579757</ele>
        <time>2015-12-10T09:19:54Z</time>
      </trkpt>
      <trkpt lat="45.41963" lon="5.9007">
        <ele>1704.131588798</ele>
        <time>2015-12-10T09:20:04Z</time>
      </trkpt>
      <trkpt lat="45.41963" lon="5.9007">
        <ele>1704.131588798</ele>
        <time>2015-12-10T09:20:09Z</time>
      </trkpt>
      <trkpt lat="45.41962" lon="5.9007">
        <ele>1704.131588798</ele>
        <time>2015-12-10T09:20:19Z</time>
      </trkpt>
      <trkpt lat="45.41962" lon="5.9007">
        <ele>1704.131588798</ele>
        <time>2015-12-10T09:20:24Z</time>
      </trkpt>
      <trkpt lat="45.41959" lon="5.9007">
        <ele>1704.131588798</ele>
        <time>2015-12-10T09:20:35Z</time>
      </trkpt>
      <trkpt lat="45.41959" lon="5.90072">
        <ele>1704.131588798</ele>
        <time>2015-12-10T09:20:39Z</time>
      </trkpt>
      <trkpt lat="45.41959" lon="5.90073">
        <ele>1704.131588798</ele>
        <time>2015-12-10T09:20:49Z</time>
      </trkpt>
      <trkpt lat="45.41957" lon="5.90073">
        <ele>1704.131588798</ele>
        <time>2015-12-10T09:20:54Z</time>
      </trkpt>
      <trkpt lat="45.41947" lon="5.90072">
        <ele>1710.273955481</ele>
        <time>2015-12-10T09:21:04Z</time>
      </trkpt>
      <trkpt lat="45.41946" lon="5.90073">
        <ele>1710.273955481</ele>
        <time>2015-12-10T09:21:09Z</time>
      </trkpt>
      <trkpt lat="45.41941" lon="5.90072">
        <ele>1710.273955481</ele>
        <time>2015-12-10T09:21:19Z</time>
      </trkpt>
      <trkpt lat="45.4194" lon="5.90071">
        <ele>1710.273955481</ele>
        <time>2015-12-10T09:21:24Z</time>
      </trkpt>
      <trkpt lat="45.41931" lon="5.90072">
        <ele>1716.925221822</ele>
        <time>2015-12-10T09:21:35Z</time>
      </trkpt>
      <trkpt lat="45.4193" lon="5.90075">
        <ele>1716.925221822</ele>
        <time>2015-12-10T09:21:39Z</time>
      </trkpt>
      <trkpt lat="45.41924" lon="5.90072">
        <ele>1716.925221822</ele>
        <time>2015-12-10T09:21:49Z</time>
      </trkpt>
      <trkpt lat="45.41923" lon="5.90075">
        <ele>1723.74870937</ele>
        <time>2015-12-10T09:21:53Z</time>
      </trkpt>
      <trkpt lat="45.41919" lon="5.90077">
        <ele>1723.74870937</ele>
        <time>2015-12-10T09:21:58Z</time>
      </trkpt>
      <trkpt lat="45.41918" lon="5.90077">
        <ele>1723.74870937</ele>
        <time>2015-12-10T09:22:04Z</time>
      </trkpt>
      <trkpt lat="45.41917" lon="5.90077">
        <ele>1723.74870937</ele>
        <time>2015-12-10T09:22:10Z</time>
      </trkpt>
      <trkpt lat="45.41917" lon="5.90077">
        <ele>1723.74870937</ele>
        <time>2015-12-10T09:22:18Z</time>
      </trkpt>
      <trkpt lat="45.41917" lon="5.90078">
        <ele>1723.74870937</ele>
        <time>2015-12-10T09:22:23Z</time>
      </trkpt>
      <trkpt lat="45.41917" lon="5.90078">
        <ele>1723.74870937</ele>
        <time>2015-12-10T09:22:28Z</time>
      </trkpt>
      <trkpt lat="45.41915" lon="5.90081">
        <ele>1730.864365735</ele>
        <time>2015-12-10T09:22:38Z</time>
      </trkpt>
      <trkpt lat="45.41915" lon="5.90081">
        <ele>1730.864365735</ele>
        <time>2015-12-10T09:22:43Z</time>
      </trkpt>
      <trkpt lat="45.41915" lon="5.90081">
        <ele>1730.864365735</ele>
        <time>2015-12-10T09:22:53Z</time>
      </trkpt>
      <trkpt lat="45.41915" lon="5.90081">
        <ele>1730.864365735</ele>
        <time>2015-12-10T09:22:58Z</time>
      </trkpt>
      <trkpt lat="45.41915" lon="5.90081">
        <ele>1730.864365735</ele>
        <time>2015-12-10T09:23:05Z</time>
      </trkpt>
      <trkpt lat="45.4191" lon="5.90081">
        <ele>1730.864365735</ele>
        <time>2015-12-10T09:23:15Z</time>
      </trkpt>
      <trkpt lat="45.41908" lon="5.90081">
        <ele>1730.864365735</ele>
        <time>2015-12-10T09:23:19Z</time>
      </trkpt>
      <trkpt lat="45.41905" lon="5.90081">
        <ele>1737.229686044</ele>
        <time>2015-12-10T09:23:29Z</time>
      </trkpt>
      <trkpt lat="45.41903" lon="5.90082">
        <ele>1737.229686044</ele>
        <time>2015-12-10T09:23:34Z</time>
      </trkpt>
      <trkpt lat="45.419" lon="5.90077">
        <ele>1737.229686044</ele>
        <time>2015-12-10T09:23:45Z</time>
      </trkpt>
      <trkpt lat="45.419" lon="5.90078">
        <ele>1737.229686044</ele>
        <time>2015-12-10T09:23:51Z</time>
      </trkpt>
      <trkpt lat="45.41897" lon="5.90077">
        <ele>1743.754402849</ele>
        <time>2015-12-10T09:24:05Z</time>
      </trkpt>
      <trkpt lat="45.41896" lon="5.90076">
        <ele>1743.754402849</ele>
        <time>2015-12-10T09:24:09Z</time>
      </trkpt>
      <trkpt lat="45.41894" lon="5.90076">
        <ele>1743.754402849</ele>
        <time>2015-12-10T09:24:20Z</time>
      </trkpt>
      <trkpt lat="45.41892" lon="5.90072">
        <ele>1743.754402849</ele>
        <time>2015-12-10T09:24:25Z</time>
      </trkpt>
      <trkpt lat="45.4189" lon="5.90074">
        <ele>1743.754402849</ele>
        <time>2015-12-10T09:24:35Z</time>
      </trkpt>
      <trkpt lat="45.41889" lon="5.90073">
        <ele>1749.984093051</ele>
        <time>2015-12-10T09:24:39Z</time>
      </trkpt>
      <trkpt lat="45.41888" lon="5.90076">
        <ele>1749.984093051</ele>
        <time>2015-12-10T09:24:50Z</time>
      </trkpt>
      <trkpt lat="45.41887" lon="5.90076">
        <ele>1749.984093051</ele>
        <time>2015-12-10T09:24:54Z</time>
      </trkpt>
      <trkpt lat="45.41887" lon="5.90076">
        <ele>1749.984093051</ele>
        <time>2015-12-10T09:25:05Z</time>
      </trkpt>
      <trkpt lat="45.41887" lon="5.90076">
        <ele>1749.984093051</ele>
        <time>2015-12-10T09:25:09Z</time>
      </trkpt>
      <trkpt lat="45.41888" lon="5.90076">
        <ele>1749.984093051</ele>
        <time>2015-12-10T09:25:24Z</time>
      </trkpt>
      <trkpt lat="45.41888" lon="5.90076">
        <ele>1749.984093051</ele>
        <time>2015-12-10T09:25:42Z</time>
      </trkpt>
      <trkpt lat="45.41888" lon="5.90077">
        <ele>1749.984093051</ele>
        <time>2015-12-10T09:25:43Z</time>
      </trkpt>
      <trkpt lat="45.41888" lon="5.90077">
        <ele>1749.984093051</ele>
        <time>2015-12-10T09:25:54Z</time>
      </trkpt>
      <trkpt lat="45.41888" lon="5.90077">
        <ele>1749.984093051</ele>
        <time>2015-12-10T09:25:59Z</time>
      </trkpt>
      <trkpt lat="45.41884" lon="5.90075">
        <ele>1749.984093051</ele>
        <time>2015-12-10T09:26:10Z</time>
      </trkpt>
      <trkpt lat="45.41876" lon="5.90072">
        <ele>1755.931022967</ele>
        <time>2015-12-10T09:26:14Z</time>
      </trkpt>
      <trkpt lat="45.41868" lon="5.90067">
        <ele>1755.931022967</ele>
        <time>2015-12-10T09:26:25Z</time>
      </trkpt>
      <trkpt lat="45.41866" lon="5.90063">
        <ele>1761.895736272</ele>
        <time>2015-12-10T09:26:29Z</time>
      </trkpt>
      <trkpt lat="45.41862" lon="5.90048">
        <ele>1768.300937965</ele>
        <time>2015-12-10T09:26:40Z</time>
      </trkpt>
      <trkpt lat="45.41858" lon="5.90044">
        <ele>1768.300937965</ele>
        <time>2015-12-10T09:26:45Z</time>
      </trkpt>
      <trkpt lat="45.41854" lon="5.90038">
        <ele>1774.240234693</ele>
        <time>2015-12-10T09:26:49Z</time>
      </trkpt>
      <trkpt lat="45.41849" lon="5.90026">
        <ele>1780.028214753</ele>
        <time>2015-12-10T09:27:00Z</time>
      </trkpt>
      <trkpt lat="45.41846" lon="5.90021">
        <ele>1780.028214753</ele>
        <time>2015-12-10T09:27:04Z</time>
      </trkpt>
      <trkpt lat="45.41842" lon="5.90012">
        <ele>1784.804099868</ele>
        <time>2015-12-10T09:27:15Z</time>
      </trkpt>
      <trkpt lat="45.4184" lon="5.90007">
        <ele>1784.804099868</ele>
        <time>2015-12-10T09:27:19Z</time>
      </trkpt>
      <trkpt lat="45.41838" lon="5.90006">
        <ele>1784.804099868</ele>
        <time>2015-12-10T09:27:29Z</time>
      </trkpt>
      <trkpt lat="45.41838" lon="5.90006">
        <ele>1784.804099868</ele>
        <time>2015-12-10T09:27:34Z</time>
      </trkpt>
      <trkpt lat="45.41834" lon="5.90005">
        <ele>1788.061615546</ele>
        <time>2015-12-10T09:27:44Z</time>
      </trkpt>
      <trkpt lat="45.41831" lon="5.9001">
        <ele>1788.061615546</ele>
        <time>2015-12-10T09:27:50Z</time>
      </trkpt>
      <trkpt lat="45.41831" lon="5.90008">
        <ele>1788.061615546</ele>
        <time>2015-12-10T09:27:54Z</time>
      </trkpt>
      <trkpt lat="45.41828" lon="5.90008">
        <ele>1788.061615546</ele>
        <time>2015-12-10T09:28:04Z</time>
      </trkpt>
      <trkpt lat="45.41829" lon="5.90007">
        <ele>1790.2008079</ele>
        <time>2015-12-10T09:28:09Z</time>
      </trkpt>
      <trkpt lat="45.41829" lon="5.90007">
        <ele>1790.2008079</ele>
        <time>2015-12-10T09:28:19Z</time>
      </trkpt>
      <trkpt lat="45.41829" lon="5.90007">
        <ele>1790.2008079</ele>
        <time>2015-12-10T09:28:23Z</time>
      </trkpt>
      <trkpt lat="45.41829" lon="5.90007">
        <ele>1790.2008079</ele>
        <time>2015-12-10T09:28:33Z</time>
      </trkpt>
      <trkpt lat="45.41829" lon="5.90007">
        <ele>1790.2008079</ele>
        <time>2015-12-10T09:28:39Z</time>
      </trkpt>
      <trkpt lat="45.41829" lon="5.90007">
        <ele>1790.2008079</ele>
        <time>2015-12-10T09:28:49Z</time>
      </trkpt>
      <trkpt lat="45.41825" lon="5.9001">
        <ele>1790.2008079</ele>
        <time>2015-12-10T09:28:54Z</time>
      </trkpt>
      <trkpt lat="45.41817" lon="5.90021">
        <ele>1792.027996049</ele>
        <time>2015-12-10T09:29:05Z</time>
      </trkpt>
      <trkpt lat="45.41812" lon="5.90021">
        <ele>1792.027996049</ele>
        <time>2015-12-10T09:29:09Z</time>
      </trkpt>
      <trkpt lat="45.41807" lon="5.90032">
        <ele>1792.850197735</ele>
        <time>2015-12-10T09:29:20Z</time>
      </trkpt>
      <trkpt lat="45.41809" lon="5.90037">
        <ele>1792.850197735</ele>
        <time>2015-12-10T09:29:24Z</time>
      </trkpt>
      <trkpt lat="45.41799" lon="5.90042">
        <ele>1792.748850296</ele>
        <time>2015-12-10T09:29:29Z</time>
      </trkpt>
      <trkpt lat="45.41793" lon="5.90045">
        <ele>1792.748850296</ele>
        <time>2015-12-10T09:29:40Z</time>
      </trkpt>
      <trkpt lat="45.4179" lon="5.90047">
        <ele>1791.802103684</ele>
        <time>2015-12-10T09:29:44Z</time>
      </trkpt>
      <trkpt lat="45.41789" lon="5.90046">
        <ele>1791.802103684</ele>
        <time>2015-12-10T09:29:54Z</time>
      </trkpt>
      <trkpt lat="45.41784" lon="5.90046">
        <ele>1791.802103684</ele>
        <time>2015-12-10T09:30:00Z</time>
      </trkpt>
      <trkpt lat="45.41777" lon="5.90053">
        <ele>1790.805361505</ele>
        <time>2015-12-10T09:30:10Z</time>
      </trkpt>
      <trkpt lat="45.41776" lon="5.90056">
        <ele>1790.805361505</ele>
        <time>2015-12-10T09:30:15Z</time>
      </trkpt>
      <trkpt lat="45.41764" lon="5.90059">
        <ele>1789.342874247</ele>
        <time>2015-12-10T09:30:25Z</time>
      </trkpt>
      <trkpt lat="45.41763" lon="5.90058">
        <ele>1789.342874247</ele>
        <time>2015-12-10T09:30:29Z</time>
      </trkpt>
      <trkpt lat="45.41758" lon="5.90058">
        <ele>1789.342874247</ele>
        <time>2015-12-10T09:30:39Z</time>
      </trkpt>
      <trkpt lat="45.41755" lon="5.90061">
        <ele>1786.742500219</ele>
        <time>2015-12-10T09:30:45Z</time>
      </trkpt>
      <trkpt lat="45.41748" lon="5.90063">
        <ele>1786.742500219</ele>
        <time>2015-12-10T09:30:55Z</time>
      </trkpt>
      <trkpt lat="45.41744" lon="5.90065">
        <ele>1783.681604816</ele>
        <time>2015-12-10T09:31:00Z</time>
      </trkpt>
      <trkpt lat="45.41736" lon="5.90074">
        <ele>1780.356646308</ele>
        <time>2015-12-10T09:31:10Z</time>
      </trkpt>
      <trkpt lat="45.41733" lon="5.90073">
        <ele>1780.356646308</ele>
        <time>2015-12-10T09:31:14Z</time>
      </trkpt>
      <trkpt lat="45.41722" lon="5.90077">
        <ele>1776.950239777</ele>
        <time>2015-12-10T09:31:25Z</time>
      </trkpt>
      <trkpt lat="45.41719" lon="5.90075">
        <ele>1776.950239777</ele>
        <time>2015-12-10T09:31:29Z</time>
      </trkpt>
      <trkpt lat="45.41713" lon="5.90075">
        <ele>1773.199282397</ele>
        <time>2015-12-10T09:31:45Z</time>
      </trkpt>
      <trkpt lat="45.41711" lon="5.90076">
        <ele>1773.199282397</ele>
        <time>2015-12-10T09:31:49Z</time>
      </trkpt>
      <trkpt lat="45.41708" lon="5.9008">
        <ele>1773.199282397</ele>
        <time>2015-12-10T09:31:58Z</time>
      </trkpt>
      <trkpt lat="45.41708" lon="5.90079">
        <ele>1773.199282397</ele>
        <time>2015-12-10T09:32:03Z</time>
      </trkpt>
      <trkpt lat="45.41706" lon="5.9008">
        <ele>1773.199282397</ele>
        <time>2015-12-10T09:32:15Z</time>
      </trkpt>
      <trkpt lat="45.41703" lon="5.90077">
        <ele>1769.725392244</ele>
        <time>2015-12-10T09:32:20Z</time>
      </trkpt>
      <trkpt lat="45.41698" lon="5.90076">
        <ele>1769.725392244</ele>
        <time>2015-12-10T09:32:29Z</time>
      </trkpt>
      <trkpt lat="45.41692" lon="5.90069">
        <ele>1767.247579184</ele>
        <time>2015-12-10T09:32:36Z</time>
      </trkpt>
      <trkpt lat="45.41689" lon="5.90067">
        <ele>1767.247579184</ele>
        <time>2015-12-10T09:32:45Z</time>
      </trkpt>
      <trkpt lat="45.41689" lon="5.90065">
        <ele>1767.247579184</ele>
        <time>2015-12-10T09:32:49Z</time>
      </trkpt>
      <trkpt lat="45.41685" lon="5.9006">
        <ele>1764.843705348</ele>
        <time>2015-12-10T09:33:05Z</time>
      </trkpt>
      <trkpt lat="45.41685" lon="5.90056">
        <ele>1764.843705348</ele>
        <time>2015-12-10T09:33:09Z</time>
      </trkpt>
      <trkpt lat="45.41686" lon="5.90058">
        <ele>1764.843705348</ele>
        <time>2015-12-10T09:33:15Z</time>
      </trkpt>
      <trkpt lat="45.41686" lon="5.90058">
        <ele>1764.843705348</ele>
        <time>2015-12-10T09:33:20Z</time>
      </trkpt>
      <trkpt lat="45.41686" lon="5.90058">
        <ele>1764.843705348</ele>
        <time>2015-12-10T09:33:24Z</time>
      </trkpt>
      <trkpt lat="45.41685" lon="5.90058">
        <ele>1764.843705348</ele>
        <time>2015-12-10T09:33:35Z</time>
      </trkpt>
      <trkpt lat="45.41685" lon="5.90058">
        <ele>1764.843705348</ele>
        <time>2015-12-10T09:33:39Z</time>
      </trkpt>
      <trkpt lat="45.41685" lon="5.90058">
        <ele>1764.843705348</ele>
        <time>2015-12-10T09:33:49Z</time>
      </trkpt>
      <trkpt lat="45.41685" lon="5.90058">
        <ele>1764.843705348</ele>
        <time>2015-12-10T09:33:54Z</time>
      </trkpt>
      <trkpt lat="45.41685" lon="5.90058">
        <ele>1764.843705348</ele>
        <time>2015-12-10T09:34:04Z</time>
      </trkpt>
      <trkpt lat="45.41685" lon="5.90058">
        <ele>1764.843705348</ele>
        <time>2015-12-10T09:34:10Z</time>
      </trkpt>
      <trkpt lat="45.41685" lon="5.90058">
        <ele>1764.843705348</ele>
        <time>2015-12-10T09:34:19Z</time>
      </trkpt>
      <trkpt lat="45.41685" lon="5.90058">
        <ele>1764.843705348</ele>
        <time>2015-12-10T09:34:24Z</time>
      </trkpt>
      <trkpt lat="45.41685" lon="5.90058">
        <ele>1764.843705348</ele>
        <time>2015-12-10T09:34:34Z</time>
      </trkpt>
      <trkpt lat="45.41687" lon="5.90061">
        <ele>1764.843705348</ele>
        <time>2015-12-10T09:34:39Z</time>
      </trkpt>
      <trkpt lat="45.41686" lon="5.9006">
        <ele>1764.843705348</ele>
        <time>2015-12-10T09:34:43Z</time>
      </trkpt>
      <trkpt lat="45.41685" lon="5.90059">
        <ele>1763.532274783</ele>
        <time>2015-12-10T09:34:48Z</time>
      </trkpt>
      <trkpt lat="45.41684" lon="5.90059">
        <ele>1763.532274783</ele>
        <time>2015-12-10T09:34:54Z</time>
      </trkpt>
      <trkpt lat="45.41687" lon="5.90074">
        <ele>1761.371326153</ele>
        <time>2015-12-10T09:35:03Z</time>
      </trkpt>
      <trkpt lat="45.41681" lon="5.90076">
        <ele>1761.371326153</ele>
        <time>2015-12-10T09:35:09Z</time>
      </trkpt>
      <trkpt lat="45.41679" lon="5.90072">
        <ele>1758.581121922</ele>
        <time>2015-12-10T09:35:20Z</time>
      </trkpt>
      <trkpt lat="45.41678" lon="5.90074">
        <ele>1758.581121922</ele>
        <time>2015-12-10T09:35:24Z</time>
      </trkpt>
      <trkpt lat="45.41674" lon="5.90086">
        <ele>1755.79945697</ele>
        <time>2015-12-10T09:35:35Z</time>
      </trkpt>
      <trkpt lat="45.41668" lon="5.90085">
        <ele>1755.79945697</ele>
        <time>2015-12-10T09:35:40Z</time>
      </trkpt>
      <trkpt lat="45.41668" lon="5.9009">
        <ele>1752.608071344</ele>
        <time>2015-12-10T09:35:50Z</time>
      </trkpt>
      <trkpt lat="45.41667" lon="5.90088">
        <ele>1752.608071344</ele>
        <time>2015-12-10T09:35:54Z</time>
      </trkpt>
      <trkpt lat="45.41664" lon="5.90093">
        <ele>1752.608071344</ele>
        <time>2015-12-10T09:36:04Z</time>
      </trkpt>
      <trkpt lat="45.41663" lon="5.90096">
        <ele>1752.608071344</ele>
        <time>2015-12-10T09:36:10Z</time>
      </trkpt>
      <trkpt lat="45.41657" lon="5.90104">
        <ele>1749.052498365</ele>
        <time>2015-12-10T09:36:20Z</time>
      </trkpt>
      <trkpt lat="45.41652" lon="5.90107">
        <ele>1749.052498365</ele>
        <time>2015-12-10T09:36:24Z</time>
      </trkpt>
      <trkpt lat="45.41646" lon="5.90117">
        <ele>1745.319629227</ele>
        <time>2015-12-10T09:36:35Z</time>
      </trkpt>
      <trkpt lat="45.41643" lon="5.90118">
        <ele>1745.319629227</ele>
        <time>2015-12-10T09:36:39Z</time>
      </trkpt>
      <trkpt lat="45.41645" lon="5.90117">
        <ele>1745.319629227</ele>
        <time>2015-12-10T09:36:54Z</time>
      </trkpt>
      <trkpt lat="45.41645" lon="5.90118">
        <ele>1745.319629227</ele>
        <time>2015-12-10T09:36:59Z</time>
      </trkpt>
      <trkpt lat="45.41643" lon="5.90118">
        <ele>1745.319629227</ele>
        <time>2015-12-10T09:37:10Z</time>
      </trkpt>
      <trkpt lat="45.41638" lon="5.90117">
        <ele>1741.150344421</ele>
        <time>2015-12-10T09:37:14Z</time>
      </trkpt>
      <trkpt lat="45.41637" lon="5.90123">
        <ele>1741.150344421</ele>
        <time>2015-12-10T09:37:24Z</time>
      </trkpt>
      <trkpt lat="45.41636" lon="5.90124">
        <ele>1741.150344421</ele>
        <time>2015-12-10T09:37:29Z</time>
      </trkpt>
      <trkpt lat="45.41634" lon="5.90129">
        <ele>1737.45821388</ele>
        <time>2015-12-10T09:37:39Z</time>
      </trkpt>
      <trkpt lat="45.4163" lon="5.90132">
        <ele>1737.45821388</ele>
        <time>2015-12-10T09:37:45Z</time>
      </trkpt>
      <trkpt lat="45.41631" lon="5.90134">
        <ele>1737.45821388</ele>
        <time>2015-12-10T09:37:55Z</time>
      </trkpt>
      <trkpt lat="45.4163" lon="5.90134">
        <ele>1737.45821388</ele>
        <time>2015-12-10T09:37:59Z</time>
      </trkpt>
      <trkpt lat="45.4163" lon="5.90134">
        <ele>1737.45821388</ele>
        <time>2015-12-10T09:38:13Z</time>
      </trkpt>
      <trkpt lat="45.41625" lon="5.90139">
        <ele>1733.790885217</ele>
        <time>2015-12-10T09:38:19Z</time>
      </trkpt>
      <trkpt lat="45.41622" lon="5.90142">
        <ele>1733.790885217</ele>
        <time>2015-12-10T09:38:30Z</time>
      </trkpt>
      <trkpt lat="45.41621" lon="5.90143">
        <ele>1733.790885217</ele>
        <time>2015-12-10T09:38:34Z</time>
      </trkpt>
      <trkpt lat="45.41615" lon="5.90154">
        <ele>1730.016905696</ele>
        <time>2015-12-10T09:38:45Z</time>
      </trkpt>
      <trkpt lat="45.41614" lon="5.90154">
        <ele>1730.016905696</ele>
        <time>2015-12-10T09:38:49Z</time>
      </trkpt>
      <trkpt lat="45.41613" lon="5.90155">
        <ele>1730.016905696</ele>
        <time>2015-12-10T09:39:00Z</time>
      </trkpt>
      <trkpt lat="45.41613" lon="5.90155">
        <ele>1730.016905696</ele>
        <time>2015-12-10T09:39:04Z</time>
      </trkpt>
      <trkpt lat="45.41613" lon="5.90155">
        <ele>1730.016905696</ele>
        <time>2015-12-10T09:39:15Z</time>
      </trkpt>
      <trkpt lat="45.41613" lon="5.90155">
        <ele>1730.016905696</ele>
        <time>2015-12-10T09:39:19Z</time>
      </trkpt>
      <trkpt lat="45.41613" lon="5.90155">
        <ele>1730.016905696</ele>
        <time>2015-12-10T09:39:30Z</time>
      </trkpt>
      <trkpt lat="45.41615" lon="5.90164">
        <ele>1726.590732813</ele>
        <time>2015-12-10T09:39:34Z</time>
      </trkpt>
      <trkpt lat="45.41618" lon="5.90181">
        <ele>1722.634967524</ele>
        <time>2015-12-10T09:39:45Z</time>
      </trkpt>
      <trkpt lat="45.41618" lon="5.90185">
        <ele>1722.634967524</ele>
        <time>2015-12-10T09:39:49Z</time>
      </trkpt>
      <trkpt lat="45.41619" lon="5.90186">
        <ele>1722.634967524</ele>
        <time>2015-12-10T09:39:59Z</time>
      </trkpt>
      <trkpt lat="45.41618" lon="5.90185">
        <ele>1722.634967524</ele>
        <time>2015-12-10T09:40:25Z</time>
      </trkpt>
      <trkpt lat="45.41619" lon="5.90186">
        <ele>1722.634967524</ele>
        <time>2015-12-10T09:40:49Z</time>
      </trkpt>
      <trkpt lat="45.41619" lon="5.90186">
        <ele>1722.634967524</ele>
        <time>2015-12-10T09:40:54Z</time>
      </trkpt>
      <trkpt lat="45.41619" lon="5.90186">
        <ele>1722.634967524</ele>
        <time>2015-12-10T09:41:04Z</time>
      </trkpt>
      <trkpt lat="45.41619" lon="5.90186">
        <ele>1722.634967524</ele>
        <time>2015-12-10T09:41:38Z</time>
      </trkpt>
      <trkpt lat="45.41619" lon="5.90186">
        <ele>1722.634967524</ele>
        <time>2015-12-10T09:41:43Z</time>
      </trkpt>
      <trkpt lat="45.41619" lon="5.90186">
        <ele>1722.634967524</ele>
        <time>2015-12-10T09:41:53Z</time>
      </trkpt>
      <trkpt lat="45.41619" lon="5.90186">
        <ele>1722.634967524</ele>
        <time>2015-12-10T09:41:58Z</time>
      </trkpt>
      <trkpt lat="45.41619" lon="5.90186">
        <ele>1722.634967524</ele>
        <time>2015-12-10T09:42:08Z</time>
      </trkpt>
      <trkpt lat="45.41619" lon="5.90186">
        <ele>1722.634967524</ele>
        <time>2015-12-10T09:42:13Z</time>
      </trkpt>
      <trkpt lat="45.41619" lon="5.90187">
        <ele>1720.066520704</ele>
        <time>2015-12-10T09:42:23Z</time>
      </trkpt>
      <trkpt lat="45.41619" lon="5.90187">
        <ele>1717.498073884</ele>
        <time>2015-12-10T09:42:28Z</time>
      </trkpt>
      <trkpt lat="45.41609" lon="5.90238">
        <ele>1714.929627064</ele>
        <time>2015-12-10T10:05:03Z</time>
      </trkpt>
      <trkpt lat="45.41609" lon="5.90238">
        <ele>1712.361180244</ele>
        <time>2015-12-10T10:05:08Z</time>
      </trkpt>
      <trkpt lat="45.41609" lon="5.90238">
        <ele>1709.792733423</ele>
        <time>2015-12-10T10:05:18Z</time>
      </trkpt>
      <trkpt lat="45.41609" lon="5.90238">
        <ele>1707.224286603</ele>
        <time>2015-12-10T10:05:23Z</time>
      </trkpt>
      <trkpt lat="45.41609" lon="5.90235">
        <ele>1704.655839783</ele>
        <time>2015-12-10T10:07:57Z</time>
      </trkpt>
      <trkpt lat="45.4161" lon="5.90236">
        <ele>1704.655839783</ele>
        <time>2015-12-10T10:07:58Z</time>
      </trkpt>
      <trkpt lat="45.4161" lon="5.90236">
        <ele>1704.655839783</ele>
        <time>2015-12-10T10:08:03Z</time>
      </trkpt>
      <trkpt lat="45.4161" lon="5.90236">
        <ele>1704.655839783</ele>
        <time>2015-12-10T10:08:08Z</time>
      </trkpt>
      <trkpt lat="45.4161" lon="5.90234">
        <ele>1704.655839783</ele>
        <time>2015-12-10T10:08:18Z</time>
      </trkpt>
      <trkpt lat="45.4161" lon="5.90234">
        <ele>1704.655839783</ele>
        <time>2015-12-10T10:08:23Z</time>
      </trkpt>
      <trkpt lat="45.41609" lon="5.90234">
        <ele>1704.655839783</ele>
        <time>2015-12-10T10:09:23Z</time>
      </trkpt>
      <trkpt lat="45.41608" lon="5.90232">
        <ele>1704.655839783</ele>
        <time>2015-12-10T10:09:33Z</time>
      </trkpt>
      <trkpt lat="45.41608" lon="5.90232">
        <ele>1704.655839783</ele>
        <time>2015-12-10T10:09:38Z</time>
      </trkpt>
      <trkpt lat="45.41608" lon="5.90232">
        <ele>1704.655839783</ele>
        <time>2015-12-10T10:09:48Z</time>
      </trkpt>
      <trkpt lat="45.41608" lon="5.90232">
        <ele>1704.655839783</ele>
        <time>2015-12-10T10:09:53Z</time>
      </trkpt>
      <trkpt lat="45.41608" lon="5.90231">
        <ele>1704.655839783</ele>
        <time>2015-12-10T10:10:08Z</time>
      </trkpt>
      <trkpt lat="45.41608" lon="5.90231">
        <ele>1704.655839783</ele>
        <time>2015-12-10T10:10:13Z</time>
      </trkpt>
      <trkpt lat="45.41608" lon="5.90231">
        <ele>1704.655839783</ele>
        <time>2015-12-10T10:10:23Z</time>
      </trkpt>
      <trkpt lat="45.41608" lon="5.90219">
        <ele>1696.36152696</ele>
        <time>2015-12-10T10:10:28Z</time>
      </trkpt>
      <trkpt lat="45.41607" lon="5.90216">
        <ele>1696.36152696</ele>
        <time>2015-12-10T10:10:38Z</time>
      </trkpt>
      <trkpt lat="45.41607" lon="5.90216">
        <ele>1696.36152696</ele>
        <time>2015-12-10T10:10:43Z</time>
      </trkpt>
      <trkpt lat="45.41607" lon="5.90215">
        <ele>1696.36152696</ele>
        <time>2015-12-10T10:10:53Z</time>
      </trkpt>
      <trkpt lat="45.41607" lon="5.90215">
        <ele>1696.36152696</ele>
        <time>2015-12-10T10:10:58Z</time>
      </trkpt>
      <trkpt lat="45.41607" lon="5.90215">
        <ele>1696.36152696</ele>
        <time>2015-12-10T10:11:03Z</time>
      </trkpt>
      <trkpt lat="45.41607" lon="5.90215">
        <ele>1696.36152696</ele>
        <time>2015-12-10T10:11:08Z</time>
      </trkpt>
      <trkpt lat="45.41607" lon="5.90215">
        <ele>1696.36152696</ele>
        <time>2015-12-10T10:14:28Z</time>
      </trkpt>
      <trkpt lat="45.41607" lon="5.90214">
        <ele>1696.36152696</ele>
        <time>2015-12-10T10:14:33Z</time>
      </trkpt>
      <trkpt lat="45.41613" lon="5.90182">
        <ele>1696.34485588</ele>
        <time>2015-12-10T10:14:43Z</time>
      </trkpt>
      <trkpt lat="45.41615" lon="5.90179">
        <ele>1696.34485588</ele>
        <time>2015-12-10T10:14:48Z</time>
      </trkpt>
      <trkpt lat="45.41619" lon="5.90176">
        <ele>1696.34485588</ele>
        <time>2015-12-10T10:14:58Z</time>
      </trkpt>
      <trkpt lat="45.41623" lon="5.90175">
        <ele>1696.937316211</ele>
        <time>2015-12-10T10:15:03Z</time>
      </trkpt>
      <trkpt lat="45.41626" lon="5.90164">
        <ele>1696.937316211</ele>
        <time>2015-12-10T10:15:13Z</time>
      </trkpt>
      <trkpt lat="45.4163" lon="5.90164">
        <ele>1698.092872754</ele>
        <time>2015-12-10T10:15:18Z</time>
      </trkpt>
      <trkpt lat="45.4164" lon="5.90141">
        <ele>1699.766741011</ele>
        <time>2015-12-10T10:15:33Z</time>
      </trkpt>
      <trkpt lat="45.41639" lon="5.9014">
        <ele>1699.766741011</ele>
        <time>2015-12-10T10:15:38Z</time>
      </trkpt>
      <trkpt lat="45.4164" lon="5.90139">
        <ele>1699.766741011</ele>
        <time>2015-12-10T10:15:48Z</time>
      </trkpt>
      <trkpt lat="45.4164" lon="5.90139">
        <ele>1699.766741011</ele>
        <time>2015-12-10T10:15:53Z</time>
      </trkpt>
      <trkpt lat="45.41648" lon="5.90126">
        <ele>1701.915473047</ele>
        <time>2015-12-10T10:16:03Z</time>
      </trkpt>
      <trkpt lat="45.41652" lon="5.90124">
        <ele>1701.915473047</ele>
        <time>2015-12-10T10:16:08Z</time>
      </trkpt>
      <trkpt lat="45.41661" lon="5.90119">
        <ele>1703.488255215</ele>
        <time>2015-12-10T10:16:18Z</time>
      </trkpt>
      <trkpt lat="45.41665" lon="5.90117">
        <ele>1703.488255215</ele>
        <time>2015-12-10T10:16:23Z</time>
      </trkpt>
      <trkpt lat="45.41666" lon="5.90116">
        <ele>1703.488255215</ele>
        <time>2015-12-10T10:16:33Z</time>
      </trkpt>
      <trkpt lat="45.41666" lon="5.90117">
        <ele>1703.488255215</ele>
        <time>2015-12-10T10:16:38Z</time>
      </trkpt>
      <trkpt lat="45.41667" lon="5.90119">
        <ele>1703.488255215</ele>
        <time>2015-12-10T10:16:48Z</time>
      </trkpt>
      <trkpt lat="45.41668" lon="5.90114">
        <ele>1705.674355212</ele>
        <time>2015-12-10T10:16:53Z</time>
      </trkpt>
      <trkpt lat="45.41674" lon="5.90102">
        <ele>1708.420725711</ele>
        <time>2015-12-10T10:17:08Z</time>
      </trkpt>
      <trkpt lat="45.41678" lon="5.90093">
        <ele>1708.420725711</ele>
        <time>2015-12-10T10:17:13Z</time>
      </trkpt>
      <trkpt lat="45.41684" lon="5.90078">
        <ele>1712.10868828</ele>
        <time>2015-12-10T10:17:23Z</time>
      </trkpt>
      <trkpt lat="45.41684" lon="5.90074">
        <ele>1712.10868828</ele>
        <time>2015-12-10T10:17:28Z</time>
      </trkpt>
      <trkpt lat="45.41684" lon="5.90067">
        <ele>1712.10868828</ele>
        <time>2015-12-10T10:17:39Z</time>
      </trkpt>
      <trkpt lat="45.41684" lon="5.90067">
        <ele>1712.10868828</ele>
        <time>2015-12-10T10:17:43Z</time>
      </trkpt>
      <trkpt lat="45.41684" lon="5.90067">
        <ele>1712.10868828</ele>
        <time>2015-12-10T10:17:53Z</time>
      </trkpt>
      <trkpt lat="45.41689" lon="5.90077">
        <ele>1717.232787409</ele>
        <time>2015-12-10T10:17:58Z</time>
      </trkpt>
      <trkpt lat="45.41692" lon="5.9008">
        <ele>1717.232787409</ele>
        <time>2015-12-10T10:18:09Z</time>
      </trkpt>
      <trkpt lat="45.41692" lon="5.9008">
        <ele>1717.232787409</ele>
        <time>2015-12-10T10:18:14Z</time>
      </trkpt>
      <trkpt lat="45.41692" lon="5.9008">
        <ele>1717.232787409</ele>
        <time>2015-12-10T10:18:24Z</time>
      </trkpt>
      <trkpt lat="45.41692" lon="5.9008">
        <ele>1717.232787409</ele>
        <time>2015-12-10T10:18:28Z</time>
      </trkpt>
      <trkpt lat="45.41692" lon="5.9008">
        <ele>1717.232787409</ele>
        <time>2015-12-10T10:18:38Z</time>
      </trkpt>
      <trkpt lat="45.41692" lon="5.9008">
        <ele>1717.232787409</ele>
        <time>2015-12-10T10:18:43Z</time>
      </trkpt>
      <trkpt lat="45.41707" lon="5.90087">
        <ele>1720.932472268</ele>
        <time>2015-12-10T10:18:58Z</time>
      </trkpt>
      <trkpt lat="45.41708" lon="5.9009">
        <ele>1720.932472268</ele>
        <time>2015-12-10T10:19:03Z</time>
      </trkpt>
      <trkpt lat="45.41711" lon="5.90093">
        <ele>1720.932472268</ele>
        <time>2015-12-10T10:19:16Z</time>
      </trkpt>
      <trkpt lat="45.41718" lon="5.90097">
        <ele>1724.019863325</ele>
        <time>2015-12-10T10:19:18Z</time>
      </trkpt>
      <trkpt lat="45.4172" lon="5.90098">
        <ele>1724.019863325</ele>
        <time>2015-12-10T10:19:30Z</time>
      </trkpt>
      <trkpt lat="45.41721" lon="5.90098">
        <ele>1724.019863325</ele>
        <time>2015-12-10T10:19:44Z</time>
      </trkpt>
      <trkpt lat="45.41721" lon="5.90098">
        <ele>1724.019863325</ele>
        <time>2015-12-10T10:19:49Z</time>
      </trkpt>
      <trkpt lat="45.41724" lon="5.90101">
        <ele>1724.019863325</ele>
        <time>2015-12-10T10:20:00Z</time>
      </trkpt>
      <trkpt lat="45.41724" lon="5.90103">
        <ele>1724.019863325</ele>
        <time>2015-12-10T10:20:04Z</time>
      </trkpt>
      <trkpt lat="45.41739" lon="5.90112">
        <ele>1725.9520613</ele>
        <time>2015-12-10T10:20:15Z</time>
      </trkpt>
      <trkpt lat="45.41743" lon="5.90107">
        <ele>1725.9520613</ele>
        <time>2015-12-10T10:20:19Z</time>
      </trkpt>
      <trkpt lat="45.41755" lon="5.90109">
        <ele>1727.814473451</ele>
        <time>2015-12-10T10:20:30Z</time>
      </trkpt>
      <trkpt lat="45.41758" lon="5.90111">
        <ele>1727.814473451</ele>
        <time>2015-12-10T10:20:35Z</time>
      </trkpt>
      <trkpt lat="45.41765" lon="5.90104">
        <ele>1729.8924082</ele>
        <time>2015-12-10T10:20:45Z</time>
      </trkpt>
      <trkpt lat="45.41769" lon="5.90104">
        <ele>1729.8924082</ele>
        <time>2015-12-10T10:20:49Z</time>
      </trkpt>
      <trkpt lat="45.41776" lon="5.90104">
        <ele>1732.017299191</ele>
        <time>2015-12-10T10:21:00Z</time>
      </trkpt>
      <trkpt lat="45.41778" lon="5.90101">
        <ele>1732.017299191</ele>
        <time>2015-12-10T10:21:03Z</time>
      </trkpt>
      <trkpt lat="45.41785" lon="5.90092">
        <ele>1734.17698822</ele>
        <time>2015-12-10T10:21:15Z</time>
      </trkpt>
      <trkpt lat="45.41788" lon="5.90089">
        <ele>1734.17698822</ele>
        <time>2015-12-10T10:21:19Z</time>
      </trkpt>
      <trkpt lat="45.418" lon="5.90082">
        <ele>1736.50429249</ele>
        <time>2015-12-10T10:21:35Z</time>
      </trkpt>
      <trkpt lat="45.41802" lon="5.90074">
        <ele>1736.50429249</ele>
        <time>2015-12-10T10:21:39Z</time>
      </trkpt>
      <trkpt lat="45.41805" lon="5.9006">
        <ele>1739.842450176</ele>
        <time>2015-12-10T10:21:49Z</time>
      </trkpt>
      <trkpt lat="45.41807" lon="5.90051">
        <ele>1739.842450176</ele>
        <time>2015-12-10T10:21:53Z</time>
      </trkpt>
      <trkpt lat="45.41807" lon="5.90035">
        <ele>1744.105369629</ele>
        <time>2015-12-10T10:22:04Z</time>
      </trkpt>
      <trkpt lat="45.41812" lon="5.90031">
        <ele>1744.105369629</ele>
        <time>2015-12-10T10:22:09Z</time>
      </trkpt>
      <trkpt lat="45.41816" lon="5.90025">
        <ele>1748.922610691</ele>
        <time>2015-12-10T10:22:18Z</time>
      </trkpt>
      <trkpt lat="45.41818" lon="5.90022">
        <ele>1748.922610691</ele>
        <time>2015-12-10T10:22:23Z</time>
      </trkpt>
      <trkpt lat="45.41818" lon="5.9002">
        <ele>1748.922610691</ele>
        <time>2015-12-10T10:22:33Z</time>
      </trkpt>
      <trkpt lat="45.41818" lon="5.90019">
        <ele>1748.922610691</ele>
        <time>2015-12-10T10:22:38Z</time>
      </trkpt>
      <trkpt lat="45.41818" lon="5.90018">
        <ele>1748.922610691</ele>
        <time>2015-12-10T10:22:53Z</time>
      </trkpt>
      <trkpt lat="45.41818" lon="5.90018">
        <ele>1748.922610691</ele>
        <time>2015-12-10T10:22:58Z</time>
      </trkpt>
      <trkpt lat="45.41818" lon="5.90018">
        <ele>1748.922610691</ele>
        <time>2015-12-10T10:23:08Z</time>
      </trkpt>
      <trkpt lat="45.41818" lon="5.90018">
        <ele>1748.922610691</ele>
        <time>2015-12-10T10:23:13Z</time>
      </trkpt>
      <trkpt lat="45.41818" lon="5.90018">
        <ele>1748.922610691</ele>
        <time>2015-12-10T10:23:23Z</time>
      </trkpt>
      <trkpt lat="45.41818" lon="5.90018">
        <ele>1748.922610691</ele>
        <time>2015-12-10T10:23:28Z</time>
      </trkpt>
      <trkpt lat="45.41818" lon="5.90018">
        <ele>1748.922610691</ele>
        <time>2015-12-10T10:23:38Z</time>
      </trkpt>
      <trkpt lat="45.41818" lon="5.90018">
        <ele>1748.922610691</ele>
        <time>2015-12-10T10:23:43Z</time>
      </trkpt>
      <trkpt lat="45.41818" lon="5.90018">
        <ele>1748.922610691</ele>
        <time>2015-12-10T10:23:53Z</time>
      </trkpt>
      <trkpt lat="45.41818" lon="5.90018">
        <ele>1748.922610691</ele>
        <time>2015-12-10T10:23:58Z</time>
      </trkpt>
      <trkpt lat="45.41818" lon="5.90018">
        <ele>1748.922610691</ele>
        <time>2015-12-10T10:24:08Z</time>
      </trkpt>
      <trkpt lat="45.41818" lon="5.90018">
        <ele>1748.922610691</ele>
        <time>2015-12-10T10:24:13Z</time>
      </trkpt>
      <trkpt lat="45.41818" lon="5.90018">
        <ele>1748.922610691</ele>
        <time>2015-12-10T10:24:23Z</time>
      </trkpt>
      <trkpt lat="45.41818" lon="5.90018">
        <ele>1748.922610691</ele>
        <time>2015-12-10T10:24:28Z</time>
      </trkpt>
      <trkpt lat="45.41818" lon="5.90018">
        <ele>1748.922610691</ele>
        <time>2015-12-10T10:24:38Z</time>
      </trkpt>
      <trkpt lat="45.41817" lon="5.90013">
        <ele>1754.526009835</ele>
        <time>2015-12-10T10:24:43Z</time>
      </trkpt>
      <trkpt lat="45.41816" lon="5.90008">
        <ele>1754.526009835</ele>
        <time>2015-12-10T10:24:59Z</time>
      </trkpt>
      <trkpt lat="45.41818" lon="5.90012">
        <ele>1754.526009835</ele>
        <time>2015-12-10T10:25:03Z</time>
      </trkpt>
      <trkpt lat="45.41818" lon="5.90012">
        <ele>1754.526009835</ele>
        <time>2015-12-10T10:25:14Z</time>
      </trkpt>
      <trkpt lat="45.41817" lon="5.90012">
        <ele>1754.526009835</ele>
        <time>2015-12-10T10:25:29Z</time>
      </trkpt>
      <trkpt lat="45.41817" lon="5.90012">
        <ele>1754.526009835</ele>
        <time>2015-12-10T10:25:33Z</time>
      </trkpt>
      <trkpt lat="45.41817" lon="5.90012">
        <ele>1754.526009835</ele>
        <time>2015-12-10T10:25:45Z</time>
      </trkpt>
      <trkpt lat="45.41817" lon="5.90012">
        <ele>1754.526009835</ele>
        <time>2015-12-10T10:25:49Z</time>
      </trkpt>
      <trkpt lat="45.41817" lon="5.90012">
        <ele>1754.526009835</ele>
        <time>2015-12-10T10:25:59Z</time>
      </trkpt>
      <trkpt lat="45.41817" lon="5.90012">
        <ele>1754.526009835</ele>
        <time>2015-12-10T10:26:05Z</time>
      </trkpt>
      <trkpt lat="45.41822" lon="5.90011">
        <ele>1759.110817507</ele>
        <time>2015-12-10T10:26:14Z</time>
      </trkpt>
      <trkpt lat="45.41826" lon="5.9001">
        <ele>1759.110817507</ele>
        <time>2015-12-10T10:26:19Z</time>
      </trkpt>
      <trkpt lat="45.4183" lon="5.90007">
        <ele>1763.746067228</ele>
        <time>2015-12-10T10:26:29Z</time>
      </trkpt>
      <trkpt lat="45.41831" lon="5.9001">
        <ele>1763.746067228</ele>
        <time>2015-12-10T10:26:35Z</time>
      </trkpt>
      <trkpt lat="45.41831" lon="5.9001">
        <ele>1763.746067228</ele>
        <time>2015-12-10T10:26:45Z</time>
      </trkpt>
      <trkpt lat="45.41831" lon="5.9001">
        <ele>1763.746067228</ele>
        <time>2015-12-10T10:26:48Z</time>
      </trkpt>
      <trkpt lat="45.41831" lon="5.9001">
        <ele>1763.746067228</ele>
        <time>2015-12-10T10:27:00Z</time>
      </trkpt>
      <trkpt lat="45.41831" lon="5.9001">
        <ele>1763.746067228</ele>
        <time>2015-12-10T10:27:04Z</time>
      </trkpt>
      <trkpt lat="45.41831" lon="5.9001">
        <ele>1763.746067228</ele>
        <time>2015-12-10T10:27:20Z</time>
      </trkpt>
      <trkpt lat="45.41831" lon="5.9001">
        <ele>1763.746067228</ele>
        <time>2015-12-10T10:27:24Z</time>
      </trkpt>
      <trkpt lat="45.41831" lon="5.9001">
        <ele>1763.746067228</ele>
        <time>2015-12-10T10:27:34Z</time>
      </trkpt>
      <trkpt lat="45.41831" lon="5.9001">
        <ele>1763.746067228</ele>
        <time>2015-12-10T10:27:40Z</time>
      </trkpt>
      <trkpt lat="45.41831" lon="5.9001">
        <ele>1763.746067228</ele>
        <time>2015-12-10T10:27:53Z</time>
      </trkpt>
      <trkpt lat="45.41831" lon="5.9001">
        <ele>1763.746067228</ele>
        <time>2015-12-10T10:28:04Z</time>
      </trkpt>
      <trkpt lat="45.41831" lon="5.9001">
        <ele>1763.746067228</ele>
        <time>2015-12-10T10:28:09Z</time>
      </trkpt>
      <trkpt lat="45.41831" lon="5.9001">
        <ele>1763.746067228</ele>
        <time>2015-12-10T10:28:13Z</time>
      </trkpt>
      <trkpt lat="45.41831" lon="5.9001">
        <ele>1763.746067228</ele>
        <time>2015-12-10T10:28:20Z</time>
      </trkpt>
      <trkpt lat="45.41831" lon="5.9001">
        <ele>1763.746067228</ele>
        <time>2015-12-10T10:28:24Z</time>
      </trkpt>
      <trkpt lat="45.41831" lon="5.9001">
        <ele>1763.746067228</ele>
        <time>2015-12-10T10:28:29Z</time>
      </trkpt>
      <trkpt lat="45.41831" lon="5.9001">
        <ele>1763.746067228</ele>
        <time>2015-12-10T10:28:39Z</time>
      </trkpt>
      <trkpt lat="45.41831" lon="5.9001">
        <ele>1763.746067228</ele>
        <time>2015-12-10T10:28:53Z</time>
      </trkpt>
      <trkpt lat="45.41831" lon="5.9001">
        <ele>1763.746067228</ele>
        <time>2015-12-10T10:29:00Z</time>
      </trkpt>
      <trkpt lat="45.41831" lon="5.9001">
        <ele>1763.746067228</ele>
        <time>2015-12-10T10:29:09Z</time>
      </trkpt>
      <trkpt lat="45.41831" lon="5.9001">
        <ele>1763.746067228</ele>
        <time>2015-12-10T10:29:13Z</time>
      </trkpt>
      <trkpt lat="45.41831" lon="5.9001">
        <ele>1763.746067228</ele>
        <time>2015-12-10T10:29:23Z</time>
      </trkpt>
      <trkpt lat="45.41831" lon="5.9001">
        <ele>1763.746067228</ele>
        <time>2015-12-10T10:29:28Z</time>
      </trkpt>
      <trkpt lat="45.41831" lon="5.90013">
        <ele>1763.746067228</ele>
        <time>2015-12-10T10:29:38Z</time>
      </trkpt>
      <trkpt lat="45.41832" lon="5.90019">
        <ele>1767.116605613</ele>
        <time>2015-12-10T10:29:43Z</time>
      </trkpt>
      <trkpt lat="45.41838" lon="5.90032">
        <ele>1770.169389322</ele>
        <time>2015-12-10T10:29:53Z</time>
      </trkpt>
      <trkpt lat="45.41842" lon="5.90032">
        <ele>1770.169389322</ele>
        <time>2015-12-10T10:29:58Z</time>
      </trkpt>
      <trkpt lat="45.4185" lon="5.90044">
        <ele>1772.774222448</ele>
        <time>2015-12-10T10:30:14Z</time>
      </trkpt>
      <trkpt lat="45.41866" lon="5.90068">
        <ele>1775.388478898</ele>
        <time>2015-12-10T10:30:28Z</time>
      </trkpt>
      <trkpt lat="45.41875" lon="5.9008">
        <ele>1777.571546903</ele>
        <time>2015-12-10T10:30:40Z</time>
      </trkpt>
      <trkpt lat="45.41875" lon="5.90082">
        <ele>1777.571546903</ele>
        <time>2015-12-10T10:30:44Z</time>
      </trkpt>
      <trkpt lat="45.41876" lon="5.90083">
        <ele>1777.571546903</ele>
        <time>2015-12-10T10:30:54Z</time>
      </trkpt>
      <trkpt lat="45.41876" lon="5.90084">
        <ele>1777.571546903</ele>
        <time>2015-12-10T10:30:59Z</time>
      </trkpt>
      <trkpt lat="45.41876" lon="5.90084">
        <ele>1777.571546903</ele>
        <time>2015-12-10T10:31:04Z</time>
      </trkpt>
      <trkpt lat="45.41879" lon="5.90087">
        <ele>1777.571546903</ele>
        <time>2015-12-10T10:31:13Z</time>
      </trkpt>
      <trkpt lat="45.41882" lon="5.90093">
        <ele>1778.340249306</ele>
        <time>2015-12-10T10:31:20Z</time>
      </trkpt>
      <trkpt lat="45.41883" lon="5.90093">
        <ele>1778.340249306</ele>
        <time>2015-12-10T10:31:28Z</time>
      </trkpt>
      <trkpt lat="45.41884" lon="5.90093">
        <ele>1778.340249306</ele>
        <time>2015-12-10T10:31:33Z</time>
      </trkpt>
      <trkpt lat="45.41889" lon="5.90106">
        <ele>1778.229005412</ele>
        <time>2015-12-10T10:31:43Z</time>
      </trkpt>
      <trkpt lat="45.41896" lon="5.90113">
        <ele>1778.229005412</ele>
        <time>2015-12-10T10:31:48Z</time>
      </trkpt>
      <trkpt lat="45.41904" lon="5.90112">
        <ele>1778.312169092</ele>
        <time>2015-12-10T10:32:04Z</time>
      </trkpt>
      <trkpt lat="45.41904" lon="5.90112">
        <ele>1778.312169092</ele>
        <time>2015-12-10T10:32:08Z</time>
      </trkpt>
      <trkpt lat="45.41915" lon="5.90125">
        <ele>1777.567330468</ele>
        <time>2015-12-10T10:32:18Z</time>
      </trkpt>
      <trkpt lat="45.4192" lon="5.90126">
        <ele>1777.567330468</ele>
        <time>2015-12-10T10:32:25Z</time>
      </trkpt>
      <trkpt lat="45.41922" lon="5.90125">
        <ele>1777.567330468</ele>
        <time>2015-12-10T10:32:34Z</time>
      </trkpt>
      <trkpt lat="45.41924" lon="5.90126">
        <ele>1777.567330468</ele>
        <time>2015-12-10T10:32:39Z</time>
      </trkpt>
      <trkpt lat="45.41936" lon="5.90131">
        <ele>1776.923189097</ele>
        <time>2015-12-10T10:32:48Z</time>
      </trkpt>
      <trkpt lat="45.4194" lon="5.90133">
        <ele>1776.923189097</ele>
        <time>2015-12-10T10:32:55Z</time>
      </trkpt>
      <trkpt lat="45.41947" lon="5.90133">
        <ele>1759.082114081</ele>
        <time>2015-12-10T10:33:04Z</time>
      </trkpt>
      <trkpt lat="45.41947" lon="5.90133">
        <ele>1759.082114081</ele>
        <time>2015-12-10T10:33:08Z</time>
      </trkpt>
      <trkpt lat="45.41947" lon="5.90133">
        <ele>1759.082114081</ele>
        <time>2015-12-10T10:33:19Z</time>
      </trkpt>
      <trkpt lat="45.41947" lon="5.90133">
        <ele>1759.082114081</ele>
        <time>2015-12-10T10:33:24Z</time>
      </trkpt>
      <trkpt lat="45.41947" lon="5.90133">
        <ele>1759.082114081</ele>
        <time>2015-12-10T10:33:34Z</time>
      </trkpt>
      <trkpt lat="45.41947" lon="5.90133">
        <ele>1759.082114081</ele>
        <time>2015-12-10T10:33:39Z</time>
      </trkpt>
      <trkpt lat="45.41947" lon="5.90133">
        <ele>1759.082114081</ele>
        <time>2015-12-10T10:33:49Z</time>
      </trkpt>
      <trkpt lat="45.41947" lon="5.90133">
        <ele>1759.082114081</ele>
        <time>2015-12-10T10:33:54Z</time>
      </trkpt>
      <trkpt lat="45.41947" lon="5.90133">
        <ele>1759.082114081</ele>
        <time>2015-12-10T10:34:08Z</time>
      </trkpt>
      <trkpt lat="45.41947" lon="5.90133">
        <ele>1759.082114081</ele>
        <time>2015-12-10T10:34:13Z</time>
      </trkpt>
      <trkpt lat="45.41947" lon="5.90133">
        <ele>1759.082114081</ele>
        <time>2015-12-10T10:34:23Z</time>
      </trkpt>
      <trkpt lat="45.41947" lon="5.90133">
        <ele>1759.082114081</ele>
        <time>2015-12-10T10:34:28Z</time>
      </trkpt>
      <trkpt lat="45.41947" lon="5.90133">
        <ele>1759.082114081</ele>
        <time>2015-12-10T10:34:38Z</time>
      </trkpt>
      <trkpt lat="45.41947" lon="5.90133">
        <ele>1759.082114081</ele>
        <time>2015-12-10T10:34:43Z</time>
      </trkpt>
      <trkpt lat="45.41947" lon="5.90132">
        <ele>1759.082114081</ele>
        <time>2015-12-10T10:34:53Z</time>
      </trkpt>
      <trkpt lat="45.41947" lon="5.90132">
        <ele>1759.082114081</ele>
        <time>2015-12-10T10:34:58Z</time>
      </trkpt>
      <trkpt lat="45.41947" lon="5.90132">
        <ele>1759.082114081</ele>
        <time>2015-12-10T10:35:08Z</time>
      </trkpt>
      <trkpt lat="45.41947" lon="5.90132">
        <ele>1759.082114081</ele>
        <time>2015-12-10T10:35:13Z</time>
      </trkpt>
      <trkpt lat="45.41949" lon="5.9013">
        <ele>1759.082114081</ele>
        <time>2015-12-10T10:35:23Z</time>
      </trkpt>
      <trkpt lat="45.4195" lon="5.90129">
        <ele>1759.082114081</ele>
        <time>2015-12-10T10:35:28Z</time>
      </trkpt>
      <trkpt lat="45.4195" lon="5.90129">
        <ele>1759.082114081</ele>
        <time>2015-12-10T10:35:38Z</time>
      </trkpt>
      <trkpt lat="45.4195" lon="5.90129">
        <ele>1759.082114081</ele>
        <time>2015-12-10T10:35:43Z</time>
      </trkpt>
      <trkpt lat="45.4195" lon="5.90129">
        <ele>1759.082114081</ele>
        <time>2015-12-10T10:35:58Z</time>
      </trkpt>
      <trkpt lat="45.4195" lon="5.90129">
        <ele>1759.082114081</ele>
        <time>2015-12-10T10:36:03Z</time>
      </trkpt>
      <trkpt lat="45.4195" lon="5.90131">
        <ele>1759.082114081</ele>
        <time>2015-12-10T10:36:13Z</time>
      </trkpt>
      <trkpt lat="45.41955" lon="5.90131">
        <ele>1760.66610693</ele>
        <time>2015-12-10T10:36:18Z</time>
      </trkpt>
      <trkpt lat="45.41954" lon="5.9013">
        <ele>1760.66610693</ele>
        <time>2015-12-10T10:36:28Z</time>
      </trkpt>
      <trkpt lat="45.41954" lon="5.9013">
        <ele>1760.66610693</ele>
        <time>2015-12-10T10:36:33Z</time>
      </trkpt>
      <trkpt lat="45.41954" lon="5.9013">
        <ele>1760.66610693</ele>
        <time>2015-12-10T10:36:43Z</time>
      </trkpt>
      <trkpt lat="45.41954" lon="5.9013">
        <ele>1760.66610693</ele>
        <time>2015-12-10T10:36:48Z</time>
      </trkpt>
      <trkpt lat="45.41954" lon="5.9013">
        <ele>1760.66610693</ele>
        <time>2015-12-10T10:36:58Z</time>
      </trkpt>
      <trkpt lat="45.41954" lon="5.9013">
        <ele>1760.66610693</ele>
        <time>2015-12-10T10:37:03Z</time>
      </trkpt>
      <trkpt lat="45.41954" lon="5.9013">
        <ele>1760.66610693</ele>
        <time>2015-12-10T10:37:13Z</time>
      </trkpt>
      <trkpt lat="45.41954" lon="5.9013">
        <ele>1760.66610693</ele>
        <time>2015-12-10T10:37:18Z</time>
      </trkpt>
      <trkpt lat="45.41954" lon="5.9013">
        <ele>1760.66610693</ele>
        <time>2015-12-10T10:37:29Z</time>
      </trkpt>
      <trkpt lat="45.41954" lon="5.9013">
        <ele>1760.66610693</ele>
        <time>2015-12-10T10:37:33Z</time>
      </trkpt>
      <trkpt lat="45.41954" lon="5.9013">
        <ele>1760.66610693</ele>
        <time>2015-12-10T10:37:43Z</time>
      </trkpt>
      <trkpt lat="45.41946" lon="5.90198">
        <ele>1750.386973155</ele>
        <time>2015-12-10T10:45:19Z</time>
      </trkpt>
      <trkpt lat="45.41949" lon="5.90167">
        <ele>1769.561388251</ele>
        <time>2015-12-10T10:45:24Z</time>
      </trkpt>
      <trkpt lat="45.41951" lon="5.90156">
        <ele>1769.561388251</ele>
        <time>2015-12-10T10:45:29Z</time>
      </trkpt>
      <trkpt lat="45.41951" lon="5.90156">
        <ele>1769.561388251</ele>
        <time>2015-12-10T10:45:34Z</time>
      </trkpt>
      <trkpt lat="45.41951" lon="5.90156">
        <ele>1769.561388251</ele>
        <time>2015-12-10T10:45:44Z</time>
      </trkpt>
      <trkpt lat="45.41951" lon="5.90156">
        <ele>1769.561388251</ele>
        <time>2015-12-10T10:45:49Z</time>
      </trkpt>
      <trkpt lat="45.41951" lon="5.90156">
        <ele>1769.561388251</ele>
        <time>2015-12-10T10:45:59Z</time>
      </trkpt>
      <trkpt lat="45.41951" lon="5.90155">
        <ele>1769.561388251</ele>
        <time>2015-12-10T10:46:04Z</time>
      </trkpt>
      <trkpt lat="45.41951" lon="5.90155">
        <ele>1769.561388251</ele>
        <time>2015-12-10T10:46:19Z</time>
      </trkpt>
      <trkpt lat="45.41951" lon="5.90155">
        <ele>1769.561388251</ele>
        <time>2015-12-10T10:46:24Z</time>
      </trkpt>
      <trkpt lat="45.41951" lon="5.90155">
        <ele>1769.561388251</ele>
        <time>2015-12-10T10:46:34Z</time>
      </trkpt>
      <trkpt lat="45.41951" lon="5.90155">
        <ele>1769.561388251</ele>
        <time>2015-12-10T10:46:39Z</time>
      </trkpt>
      <trkpt lat="45.41951" lon="5.90155">
        <ele>1769.561388251</ele>
        <time>2015-12-10T10:46:49Z</time>
      </trkpt>
      <trkpt lat="45.41951" lon="5.90155">
        <ele>1769.561388251</ele>
        <time>2015-12-10T10:46:54Z</time>
      </trkpt>
      <trkpt lat="45.41951" lon="5.90155">
        <ele>1769.561388251</ele>
        <time>2015-12-10T10:47:04Z</time>
      </trkpt>
      <trkpt lat="45.41951" lon="5.90153">
        <ele>1785.322421016</ele>
        <time>2015-12-10T10:47:09Z</time>
      </trkpt>
      <trkpt lat="45.41951" lon="5.90153">
        <ele>1785.322421016</ele>
        <time>2015-12-10T10:47:19Z</time>
      </trkpt>
      <trkpt lat="45.41951" lon="5.90153">
        <ele>1785.322421016</ele>
        <time>2015-12-10T10:47:24Z</time>
      </trkpt>
      <trkpt lat="45.41951" lon="5.90152">
        <ele>1785.322421016</ele>
        <time>2015-12-10T10:47:29Z</time>
      </trkpt>
      <trkpt lat="45.41951" lon="5.90152">
        <ele>1785.322421016</ele>
        <time>2015-12-10T10:47:44Z</time>
      </trkpt>
      <trkpt lat="45.41951" lon="5.90152">
        <ele>1785.322421016</ele>
        <time>2015-12-10T10:47:49Z</time>
      </trkpt>
      <trkpt lat="45.41951" lon="5.90152">
        <ele>1785.322421016</ele>
        <time>2015-12-10T10:47:59Z</time>
      </trkpt>
      <trkpt lat="45.41951" lon="5.90152">
        <ele>1785.322421016</ele>
        <time>2015-12-10T10:48:04Z</time>
      </trkpt>
      <trkpt lat="45.41951" lon="5.90152">
        <ele>1785.322421016</ele>
        <time>2015-12-10T10:48:14Z</time>
      </trkpt>
      <trkpt lat="45.41951" lon="5.90152">
        <ele>1785.322421016</ele>
        <time>2015-12-10T10:48:19Z</time>
      </trkpt>
      <trkpt lat="45.41951" lon="5.90152">
        <ele>1785.322421016</ele>
        <time>2015-12-10T10:48:30Z</time>
      </trkpt>
      <trkpt lat="45.41951" lon="5.90151">
        <ele>1785.322421016</ele>
        <time>2015-12-10T10:48:45Z</time>
      </trkpt>
      <trkpt lat="45.41949" lon="5.90153">
        <ele>1785.322421016</ele>
        <time>2015-12-10T10:48:59Z</time>
      </trkpt>
      <trkpt lat="45.41949" lon="5.90153">
        <ele>1785.322421016</ele>
        <time>2015-12-10T10:49:04Z</time>
      </trkpt>
      <trkpt lat="45.41949" lon="5.90153">
        <ele>1785.322421016</ele>
        <time>2015-12-10T10:49:15Z</time>
      </trkpt>
      <trkpt lat="45.41949" lon="5.90153">
        <ele>1785.322421016</ele>
        <time>2015-12-10T10:49:20Z</time>
      </trkpt>
      <trkpt lat="45.41949" lon="5.90152">
        <ele>1785.322421016</ele>
        <time>2015-12-10T10:49:30Z</time>
      </trkpt>
      <trkpt lat="45.41949" lon="5.90152">
        <ele>1785.322421016</ele>
        <time>2015-12-10T10:49:35Z</time>
      </trkpt>
      <trkpt lat="45.41949" lon="5.90152">
        <ele>1785.322421016</ele>
        <time>2015-12-10T10:49:45Z</time>
      </trkpt>
      <trkpt lat="45.41949" lon="5.90152">
        <ele>1785.322421016</ele>
        <time>2015-12-10T10:49:49Z</time>
      </trkpt>
      <trkpt lat="45.41952" lon="5.90153">
        <ele>1785.322421016</ele>
        <time>2015-12-10T10:49:54Z</time>
      </trkpt>
      <trkpt lat="45.41955" lon="5.90148">
        <ele>1798.650101561</ele>
        <time>2015-12-10T10:50:04Z</time>
      </trkpt>
      <trkpt lat="45.41955" lon="5.90145">
        <ele>1798.650101561</ele>
        <time>2015-12-10T10:50:09Z</time>
      </trkpt>
      <trkpt lat="45.41961" lon="5.9014">
        <ele>1811.860227827</ele>
        <time>2015-12-10T10:50:19Z</time>
      </trkpt>
      <trkpt lat="45.41961" lon="5.90139">
        <ele>1811.860227827</ele>
        <time>2015-12-10T10:50:24Z</time>
      </trkpt>
      <trkpt lat="45.41961" lon="5.90138">
        <ele>1811.860227827</ele>
        <time>2015-12-10T10:50:34Z</time>
      </trkpt>
      <trkpt lat="45.41961" lon="5.90138">
        <ele>1811.860227827</ele>
        <time>2015-12-10T10:50:40Z</time>
      </trkpt>
      <trkpt lat="45.41961" lon="5.90138">
        <ele>1811.860227827</ele>
        <time>2015-12-10T10:50:50Z</time>
      </trkpt>
      <trkpt lat="45.41961" lon="5.90138">
        <ele>1811.860227827</ele>
        <time>2015-12-10T10:50:54Z</time>
      </trkpt>
      <trkpt lat="45.41961" lon="5.90138">
        <ele>1811.860227827</ele>
        <time>2015-12-10T10:51:04Z</time>
      </trkpt>
      <trkpt lat="45.41961" lon="5.90138">
        <ele>1811.860227827</ele>
        <time>2015-12-10T10:51:09Z</time>
      </trkpt>
      <trkpt lat="45.41961" lon="5.90138">
        <ele>1811.860227827</ele>
        <time>2015-12-10T10:51:19Z</time>
      </trkpt>
      <trkpt lat="45.41961" lon="5.90138">
        <ele>1811.860227827</ele>
        <time>2015-12-10T10:51:24Z</time>
      </trkpt>
      <trkpt lat="45.41961" lon="5.90138">
        <ele>1811.860227827</ele>
        <time>2015-12-10T10:51:34Z</time>
      </trkpt>
      <trkpt lat="45.41961" lon="5.90138">
        <ele>1811.860227827</ele>
        <time>2015-12-10T10:51:39Z</time>
      </trkpt>
      <trkpt lat="45.41961" lon="5.90138">
        <ele>1811.860227827</ele>
        <time>2015-12-10T10:51:54Z</time>
      </trkpt>
      <trkpt lat="45.41961" lon="5.90138">
        <ele>1811.860227827</ele>
        <time>2015-12-10T10:51:59Z</time>
      </trkpt>
      <trkpt lat="45.41961" lon="5.90138">
        <ele>1811.860227827</ele>
        <time>2015-12-10T10:52:09Z</time>
      </trkpt>
      <trkpt lat="45.41961" lon="5.90138">
        <ele>1811.860227827</ele>
        <time>2015-12-10T10:52:14Z</time>
      </trkpt>
      <trkpt lat="45.41961" lon="5.90138">
        <ele>1811.860227827</ele>
        <time>2015-12-10T10:52:24Z</time>
      </trkpt>
      <trkpt lat="45.41961" lon="5.90138">
        <ele>1811.860227827</ele>
        <time>2015-12-10T10:52:29Z</time>
      </trkpt>
      <trkpt lat="45.41961" lon="5.90138">
        <ele>1811.860227827</ele>
        <time>2015-12-10T10:52:39Z</time>
      </trkpt>
      <trkpt lat="45.41961" lon="5.90138">
        <ele>1811.860227827</ele>
        <time>2015-12-10T10:52:44Z</time>
      </trkpt>
      <trkpt lat="45.41961" lon="5.90138">
        <ele>1811.860227827</ele>
        <time>2015-12-10T10:52:54Z</time>
      </trkpt>
      <trkpt lat="45.41961" lon="5.90138">
        <ele>1811.860227827</ele>
        <time>2015-12-10T10:53:09Z</time>
      </trkpt>
      <trkpt lat="45.41961" lon="5.90138">
        <ele>1811.860227827</ele>
        <time>2015-12-10T10:53:14Z</time>
      </trkpt>
      <trkpt lat="45.41961" lon="5.90138">
        <ele>1811.860227827</ele>
        <time>2015-12-10T10:53:24Z</time>
      </trkpt>
      <trkpt lat="45.41961" lon="5.90138">
        <ele>1811.860227827</ele>
        <time>2015-12-10T10:53:29Z</time>
      </trkpt>
      <trkpt lat="45.41961" lon="5.90138">
        <ele>1811.860227827</ele>
        <time>2015-12-10T10:53:39Z</time>
      </trkpt>
      <trkpt lat="45.41961" lon="5.90138">
        <ele>1811.860227827</ele>
        <time>2015-12-10T10:53:44Z</time>
      </trkpt>
      <trkpt lat="45.41961" lon="5.90138">
        <ele>1811.860227827</ele>
        <time>2015-12-10T10:53:59Z</time>
      </trkpt>
      <trkpt lat="45.41964" lon="5.90138">
        <ele>1811.860227827</ele>
        <time>2015-12-10T10:54:04Z</time>
      </trkpt>
      <trkpt lat="45.41966" lon="5.90137">
        <ele>1811.860227827</ele>
        <time>2015-12-10T10:54:14Z</time>
      </trkpt>
      <trkpt lat="45.41966" lon="5.90137">
        <ele>1811.860227827</ele>
        <time>2015-12-10T10:54:19Z</time>
      </trkpt>
      <trkpt lat="45.41969" lon="5.90133">
        <ele>1824.796848157</ele>
        <time>2015-12-10T10:54:29Z</time>
      </trkpt>
      <trkpt lat="45.41969" lon="5.90133">
        <ele>1824.796848157</ele>
        <time>2015-12-10T10:54:34Z</time>
      </trkpt>
      <trkpt lat="45.41974" lon="5.9013">
        <ele>1824.796848157</ele>
        <time>2015-12-10T10:54:44Z</time>
      </trkpt>
      <trkpt lat="45.41974" lon="5.90128">
        <ele>1824.796848157</ele>
        <time>2015-12-10T10:54:49Z</time>
      </trkpt>
      <trkpt lat="45.41976" lon="5.90127">
        <ele>1836.066362488</ele>
        <time>2015-12-10T10:54:59Z</time>
      </trkpt>
      <trkpt lat="45.41977" lon="5.90126">
        <ele>1836.066362488</ele>
        <time>2015-12-10T10:55:04Z</time>
      </trkpt>
      <trkpt lat="45.4198" lon="5.90125">
        <ele>1836.066362488</ele>
        <time>2015-12-10T10:55:14Z</time>
      </trkpt>
      <trkpt lat="45.41981" lon="5.90126">
        <ele>1836.066362488</ele>
        <time>2015-12-10T10:55:19Z</time>
      </trkpt>
      <trkpt lat="45.41981" lon="5.90124">
        <ele>1836.066362488</ele>
        <time>2015-12-10T10:55:29Z</time>
      </trkpt>
      <trkpt lat="45.41981" lon="5.90124">
        <ele>1836.066362488</ele>
        <time>2015-12-10T10:55:34Z</time>
      </trkpt>
      <trkpt lat="45.41982" lon="5.90125">
        <ele>1836.066362488</ele>
        <time>2015-12-10T10:55:44Z</time>
      </trkpt>
      <trkpt lat="45.41982" lon="5.90124">
        <ele>1836.066362488</ele>
        <time>2015-12-10T10:55:49Z</time>
      </trkpt>
      <trkpt lat="45.41982" lon="5.90124">
        <ele>1836.066362488</ele>
        <time>2015-12-10T10:55:59Z</time>
      </trkpt>
      <trkpt lat="45.41982" lon="5.90124">
        <ele>1836.066362488</ele>
        <time>2015-12-10T10:56:04Z</time>
      </trkpt>
      <trkpt lat="45.41982" lon="5.90124">
        <ele>1836.066362488</ele>
        <time>2015-12-10T10:56:14Z</time>
      </trkpt>
      <trkpt lat="45.41982" lon="5.90124">
        <ele>1836.066362488</ele>
        <time>2015-12-10T10:56:19Z</time>
      </trkpt>
      <trkpt lat="45.41982" lon="5.90124">
        <ele>1836.066362488</ele>
        <time>2015-12-10T10:56:29Z</time>
      </trkpt>
      <trkpt lat="45.41982" lon="5.90124">
        <ele>1836.066362488</ele>
        <time>2015-12-10T10:56:34Z</time>
      </trkpt>
      <trkpt lat="45.41982" lon="5.90124">
        <ele>1836.066362488</ele>
        <time>2015-12-10T10:56:49Z</time>
      </trkpt>
      <trkpt lat="45.41982" lon="5.90124">
        <ele>1836.066362488</ele>
        <time>2015-12-10T10:56:54Z</time>
      </trkpt>
      <trkpt lat="45.41982" lon="5.90124">
        <ele>1836.066362488</ele>
        <time>2015-12-10T10:57:04Z</time>
      </trkpt>
      <trkpt lat="45.41982" lon="5.90124">
        <ele>1836.066362488</ele>
        <time>2015-12-10T10:57:09Z</time>
      </trkpt>
      <trkpt lat="45.41982" lon="5.90124">
        <ele>1836.066362488</ele>
        <time>2015-12-10T10:57:19Z</time>
      </trkpt>
      <trkpt lat="45.41982" lon="5.90124">
        <ele>1836.066362488</ele>
        <time>2015-12-10T10:57:24Z</time>
      </trkpt>
      <trkpt lat="45.41982" lon="5.90124">
        <ele>1836.066362488</ele>
        <time>2015-12-10T10:57:34Z</time>
      </trkpt>
      <trkpt lat="45.41982" lon="5.90124">
        <ele>1836.066362488</ele>
        <time>2015-12-10T10:57:39Z</time>
      </trkpt>
      <trkpt lat="45.41982" lon="5.90124">
        <ele>1836.066362488</ele>
        <time>2015-12-10T10:57:49Z</time>
      </trkpt>
      <trkpt lat="45.41988" lon="5.90127">
        <ele>1845.454000785</ele>
        <time>2015-12-10T10:57:55Z</time>
      </trkpt>
      <trkpt lat="45.41996" lon="5.90135">
        <ele>1853.710092958</ele>
        <time>2015-12-10T10:58:05Z</time>
      </trkpt>
      <trkpt lat="45.41997" lon="5.90134">
        <ele>1853.710092958</ele>
        <time>2015-12-10T10:58:10Z</time>
      </trkpt>
      <trkpt lat="45.41998" lon="5.90133">
        <ele>1853.710092958</ele>
        <time>2015-12-10T10:58:24Z</time>
      </trkpt>
      <trkpt lat="45.41998" lon="5.90133">
        <ele>1853.710092958</ele>
        <time>2015-12-10T10:58:29Z</time>
      </trkpt>
      <trkpt lat="45.41998" lon="5.90133">
        <ele>1853.710092958</ele>
        <time>2015-12-10T10:58:39Z</time>
      </trkpt>
      <trkpt lat="45.41998" lon="5.90133">
        <ele>1853.710092958</ele>
        <time>2015-12-10T10:58:44Z</time>
      </trkpt>
      <trkpt lat="45.41998" lon="5.90133">
        <ele>1853.710092958</ele>
        <time>2015-12-10T10:58:54Z</time>
      </trkpt>
      <trkpt lat="45.41998" lon="5.90133">
        <ele>1853.710092958</ele>
        <time>2015-12-10T10:58:59Z</time>
      </trkpt>
      <trkpt lat="45.41998" lon="5.90133">
        <ele>1853.710092958</ele>
        <time>2015-12-10T10:59:09Z</time>
      </trkpt>
      <trkpt lat="45.41998" lon="5.90133">
        <ele>1853.710092958</ele>
        <time>2015-12-10T10:59:14Z</time>
      </trkpt>
      <trkpt lat="45.41998" lon="5.90133">
        <ele>1853.710092958</ele>
        <time>2015-12-10T10:59:24Z</time>
      </trkpt>
      <trkpt lat="45.41997" lon="5.90133">
        <ele>1853.710092958</ele>
        <time>2015-12-10T10:59:29Z</time>
      </trkpt>
      <trkpt lat="45.41997" lon="5.90133">
        <ele>1853.710092958</ele>
        <time>2015-12-10T10:59:39Z</time>
      </trkpt>
      <trkpt lat="45.41997" lon="5.90133">
        <ele>1853.710092958</ele>
        <time>2015-12-10T10:59:44Z</time>
      </trkpt>
      <trkpt lat="45.41993" lon="5.90153">
        <ele>1861.824898927</ele>
        <time>2015-12-10T10:59:54Z</time>
      </trkpt>
      <trkpt lat="45.41992" lon="5.90157">
        <ele>1861.824898927</ele>
        <time>2015-12-10T10:59:59Z</time>
      </trkpt>
      <trkpt lat="45.4198" lon="5.90159">
        <ele>1869.427692237</ele>
        <time>2015-12-10T11:00:09Z</time>
      </trkpt>
      <trkpt lat="45.41982" lon="5.90162">
        <ele>1869.427692237</ele>
        <time>2015-12-10T11:00:15Z</time>
      </trkpt>
      <trkpt lat="45.41976" lon="5.90164">
        <ele>1874.241057119</ele>
        <time>2015-12-10T11:00:29Z</time>
      </trkpt>
      <trkpt lat="45.41973" lon="5.90164">
        <ele>1874.241057119</ele>
        <time>2015-12-10T11:00:34Z</time>
      </trkpt>
      <trkpt lat="45.41975" lon="5.90165">
        <ele>1874.241057119</ele>
        <time>2015-12-10T11:00:41Z</time>
      </trkpt>
      <trkpt lat="45.41976" lon="5.90166">
        <ele>1874.241057119</ele>
        <time>2015-12-10T11:00:44Z</time>
      </trkpt>
      <trkpt lat="45.41972" lon="5.90163">
        <ele>1877.227302277</ele>
        <time>2015-12-10T11:00:49Z</time>
      </trkpt>
      <trkpt lat="45.41967" lon="5.90165">
        <ele>1877.227302277</ele>
        <time>2015-12-10T11:00:59Z</time>
      </trkpt>
      <trkpt lat="45.41967" lon="5.90165">
        <ele>1877.227302277</ele>
        <time>2015-12-10T11:01:04Z</time>
      </trkpt>
      <trkpt lat="45.41968" lon="5.90166">
        <ele>1877.227302277</ele>
        <time>2015-12-10T11:01:20Z</time>
      </trkpt>
      <trkpt lat="45.41968" lon="5.90166">
        <ele>1877.227302277</ele>
        <time>2015-12-10T11:01:24Z</time>
      </trkpt>
      <trkpt lat="45.41968" lon="5.90166">
        <ele>1877.227302277</ele>
        <time>2015-12-10T11:01:35Z</time>
      </trkpt>
      <trkpt lat="45.41968" lon="5.90166">
        <ele>1877.227302277</ele>
        <time>2015-12-10T11:01:39Z</time>
      </trkpt>
      <trkpt lat="45.41968" lon="5.90166">
        <ele>1877.227302277</ele>
        <time>2015-12-10T11:01:44Z</time>
      </trkpt>
      <trkpt lat="45.41968" lon="5.90166">
        <ele>1877.227302277</ele>
        <time>2015-12-10T11:01:56Z</time>
      </trkpt>
      <trkpt lat="45.41967" lon="5.90164">
        <ele>1877.227302277</ele>
        <time>2015-12-10T11:01:59Z</time>
      </trkpt>
      <trkpt lat="45.41954" lon="5.90181">
        <ele>1877.810857607</ele>
        <time>2015-12-10T11:02:10Z</time>
      </trkpt>
      <trkpt lat="45.41952" lon="5.90181">
        <ele>1877.810857607</ele>
        <time>2015-12-10T11:02:15Z</time>
      </trkpt>
      <trkpt lat="45.41953" lon="5.90187">
        <ele>1877.810857607</ele>
        <time>2015-12-10T11:02:24Z</time>
      </trkpt>
      <trkpt lat="45.41953" lon="5.90187">
        <ele>1877.810857607</ele>
        <time>2015-12-10T11:02:30Z</time>
      </trkpt>
      <trkpt lat="45.41953" lon="5.90187">
        <ele>1877.810857607</ele>
        <time>2015-12-10T11:02:39Z</time>
      </trkpt>
      <trkpt lat="45.41953" lon="5.90187">
        <ele>1877.810857607</ele>
        <time>2015-12-10T11:02:44Z</time>
      </trkpt>
      <trkpt lat="45.41953" lon="5.90187">
        <ele>1877.810857607</ele>
        <time>2015-12-10T11:02:54Z</time>
      </trkpt>
      <trkpt lat="45.41953" lon="5.90187">
        <ele>1877.810857607</ele>
        <time>2015-12-10T11:02:59Z</time>
      </trkpt>
      <trkpt lat="45.41953" lon="5.90187">
        <ele>1877.810857607</ele>
        <time>2015-12-10T11:03:09Z</time>
      </trkpt>
      <trkpt lat="45.41953" lon="5.90187">
        <ele>1877.810857607</ele>
        <time>2015-12-10T11:04:30Z</time>
      </trkpt>
      <trkpt lat="45.41953" lon="5.90187">
        <ele>1877.810857607</ele>
        <time>2015-12-10T11:04:50Z</time>
      </trkpt>
      <trkpt lat="45.41953" lon="5.90187">
        <ele>1877.810857607</ele>
        <time>2015-12-10T11:04:54Z</time>
      </trkpt>
      <trkpt lat="45.41953" lon="5.90187">
        <ele>1877.810857607</ele>
        <time>2015-12-10T11:05:04Z</time>
      </trkpt>
      <trkpt lat="45.41953" lon="5.90187">
        <ele>1877.810857607</ele>
        <time>2015-12-10T11:05:09Z</time>
      </trkpt>
      <trkpt lat="45.41954" lon="5.90194">
        <ele>1878.659933739</ele>
        <time>2015-12-10T11:05:19Z</time>
      </trkpt>
      <trkpt lat="45.41954" lon="5.90198">
        <ele>1878.659933739</ele>
        <time>2015-12-10T11:05:24Z</time>
      </trkpt>
      <trkpt lat="45.41956" lon="5.90198">
        <ele>1878.659933739</ele>
        <time>2015-12-10T11:05:34Z</time>
      </trkpt>
      <trkpt lat="45.41957" lon="5.90197">
        <ele>1878.659933739</ele>
        <time>2015-12-10T11:05:39Z</time>
      </trkpt>
      <trkpt lat="45.41958" lon="5.90198">
        <ele>1878.659933739</ele>
        <time>2015-12-10T11:05:49Z</time>
      </trkpt>
      <trkpt lat="45.41958" lon="5.90198">
        <ele>1878.659933739</ele>
        <time>2015-12-10T11:05:54Z</time>
      </trkpt>
      <trkpt lat="45.41958" lon="5.90198">
        <ele>1878.659933739</ele>
        <time>2015-12-10T11:06:09Z</time>
      </trkpt>
      <trkpt lat="45.41963" lon="5.90195">
        <ele>1880.02834229</ele>
        <time>2015-12-10T11:06:25Z</time>
      </trkpt>
      <trkpt lat="45.41964" lon="5.90195">
        <ele>1880.02834229</ele>
        <time>2015-12-10T11:06:29Z</time>
      </trkpt>
      <trkpt lat="45.41968" lon="5.90196">
        <ele>1880.02834229</ele>
        <time>2015-12-10T11:06:41Z</time>
      </trkpt>
      <trkpt lat="45.41968" lon="5.90194">
        <ele>1880.02834229</ele>
        <time>2015-12-10T11:06:44Z</time>
      </trkpt>
      <trkpt lat="45.41972" lon="5.90191">
        <ele>1880.648042995</ele>
        <time>2015-12-10T11:06:58Z</time>
      </trkpt>
      <trkpt lat="45.41974" lon="5.9019">
        <ele>1880.648042995</ele>
        <time>2015-12-10T11:06:59Z</time>
      </trkpt>
      <trkpt lat="45.41978" lon="5.90189">
        <ele>1880.648042995</ele>
        <time>2015-12-10T11:07:09Z</time>
      </trkpt>
      <trkpt lat="45.41979" lon="5.90188">
        <ele>1880.648042995</ele>
        <time>2015-12-10T11:07:14Z</time>
      </trkpt>
      <trkpt lat="45.41985" lon="5.90182">
        <ele>1881.808235647</ele>
        <time>2015-12-10T11:07:25Z</time>
      </trkpt>
      <trkpt lat="45.41989" lon="5.9018">
        <ele>1881.808235647</ele>
        <time>2015-12-10T11:07:29Z</time>
      </trkpt>
      <trkpt lat="45.41996" lon="5.90177">
        <ele>1883.030524136</ele>
        <time>2015-12-10T11:07:39Z</time>
      </trkpt>
      <trkpt lat="45.42" lon="5.90172">
        <ele>1883.030524136</ele>
        <time>2015-12-10T11:07:44Z</time>
      </trkpt>
      <trkpt lat="45.42009" lon="5.90171">
        <ele>1883.882148602</ele>
        <time>2015-12-10T11:08:04Z</time>
      </trkpt>
      <trkpt lat="45.42008" lon="5.9017">
        <ele>1883.882148602</ele>
        <time>2015-12-10T11:08:09Z</time>
      </trkpt>
      <trkpt lat="45.42008" lon="5.9017">
        <ele>1883.882148602</ele>
        <time>2015-12-10T11:08:20Z</time>
      </trkpt>
      <trkpt lat="45.42008" lon="5.9017">
        <ele>1883.882148602</ele>
        <time>2015-12-10T11:08:25Z</time>
      </trkpt>
      <trkpt lat="45.42008" lon="5.90168">
        <ele>1883.882148602</ele>
        <time>2015-12-10T11:08:34Z</time>
      </trkpt>
      <trkpt lat="45.42008" lon="5.90168">
        <ele>1883.882148602</ele>
        <time>2015-12-10T11:08:39Z</time>
      </trkpt>
      <trkpt lat="45.42001" lon="5.90173">
        <ele>1885.213380864</ele>
        <time>2015-12-10T11:08:49Z</time>
      </trkpt>
      <trkpt lat="45.41998" lon="5.90178">
        <ele>1885.213380864</ele>
        <time>2015-12-10T11:08:54Z</time>
      </trkpt>
      <trkpt lat="45.41995" lon="5.90183">
        <ele>1885.213380864</ele>
        <time>2015-12-10T11:09:04Z</time>
      </trkpt>
      <trkpt lat="45.41992" lon="5.9019">
        <ele>1886.08014968</ele>
        <time>2015-12-10T11:09:09Z</time>
      </trkpt>
      <trkpt lat="45.41986" lon="5.902">
        <ele>1886.852431476</ele>
        <time>2015-12-10T11:09:20Z</time>
      </trkpt>
      <trkpt lat="45.41982" lon="5.90205">
        <ele>1886.852431476</ele>
        <time>2015-12-10T11:09:25Z</time>
      </trkpt>
      <trkpt lat="45.4198" lon="5.90207">
        <ele>1886.852431476</ele>
        <time>2015-12-10T11:09:34Z</time>
      </trkpt>
      <trkpt lat="45.41976" lon="5.90211">
        <ele>1887.995186511</ele>
        <time>2015-12-10T11:09:40Z</time>
      </trkpt>
      <trkpt lat="45.41974" lon="5.90212">
        <ele>1887.995186511</ele>
        <time>2015-12-10T11:09:55Z</time>
      </trkpt>
      <trkpt lat="45.4197" lon="5.90217">
        <ele>1887.995186511</ele>
        <time>2015-12-10T11:10:05Z</time>
      </trkpt>
      <trkpt lat="45.41969" lon="5.90217">
        <ele>1887.995186511</ele>
        <time>2015-12-10T11:10:09Z</time>
      </trkpt>
      <trkpt lat="45.41968" lon="5.90216">
        <ele>1888.745218647</ele>
        <time>2015-12-10T11:10:14Z</time>
      </trkpt>
      <trkpt lat="45.41968" lon="5.90217">
        <ele>1888.745218647</ele>
        <time>2015-12-10T11:10:20Z</time>
      </trkpt>
      <trkpt lat="45.41968" lon="5.90217">
        <ele>1888.745218647</ele>
        <time>2015-12-10T11:10:25Z</time>
      </trkpt>
      <trkpt lat="45.41968" lon="5.90217">
        <ele>1888.745218647</ele>
        <time>2015-12-10T11:10:29Z</time>
      </trkpt>
      <trkpt lat="45.41969" lon="5.90222">
        <ele>1888.745218647</ele>
        <time>2015-12-10T11:10:39Z</time>
      </trkpt>
      <trkpt lat="45.41969" lon="5.90223">
        <ele>1888.745218647</ele>
        <time>2015-12-10T11:10:44Z</time>
      </trkpt>
      <trkpt lat="45.41969" lon="5.90223">
        <ele>1888.745218647</ele>
        <time>2015-12-10T11:10:54Z</time>
      </trkpt>
      <trkpt lat="45.41969" lon="5.90223">
        <ele>1888.745218647</ele>
        <time>2015-12-10T11:11:00Z</time>
      </trkpt>
      <trkpt lat="45.41969" lon="5.90223">
        <ele>1888.745218647</ele>
        <time>2015-12-10T11:11:09Z</time>
      </trkpt>
      <trkpt lat="45.41969" lon="5.90223">
        <ele>1888.745218647</ele>
        <time>2015-12-10T11:11:14Z</time>
      </trkpt>
      <trkpt lat="45.41969" lon="5.90223">
        <ele>1888.745218647</ele>
        <time>2015-12-10T11:11:24Z</time>
      </trkpt>
      <trkpt lat="45.41971" lon="5.90226">
        <ele>1888.745218647</ele>
        <time>2015-12-10T11:11:29Z</time>
      </trkpt>
      <trkpt lat="45.4197" lon="5.90226">
        <ele>1888.745218647</ele>
        <time>2015-12-10T11:11:39Z</time>
      </trkpt>
      <trkpt lat="45.4197" lon="5.90227">
        <ele>1888.745218647</ele>
        <time>2015-12-10T11:11:44Z</time>
      </trkpt>
      <trkpt lat="45.4197" lon="5.90226">
        <ele>1888.745218647</ele>
        <time>2015-12-10T11:11:54Z</time>
      </trkpt>
      <trkpt lat="45.4197" lon="5.90226">
        <ele>1888.745218647</ele>
        <time>2015-12-10T11:11:59Z</time>
      </trkpt>
      <trkpt lat="45.4197" lon="5.90226">
        <ele>1888.745218647</ele>
        <time>2015-12-10T11:12:09Z</time>
      </trkpt>
      <trkpt lat="45.4197" lon="5.90227">
        <ele>1888.745218647</ele>
        <time>2015-12-10T11:12:14Z</time>
      </trkpt>
      <trkpt lat="45.4197" lon="5.90226">
        <ele>1888.57034225</ele>
        <time>2015-12-10T11:12:24Z</time>
      </trkpt>
      <trkpt lat="45.41971" lon="5.90226">
        <ele>1888.57034225</ele>
        <time>2015-12-10T11:12:29Z</time>
      </trkpt>
      <trkpt lat="45.4197" lon="5.90225">
        <ele>1888.57034225</ele>
        <time>2015-12-10T11:12:39Z</time>
      </trkpt>
      <trkpt lat="45.4197" lon="5.90225">
        <ele>1888.57034225</ele>
        <time>2015-12-10T11:12:44Z</time>
      </trkpt>
      <trkpt lat="45.4197" lon="5.90225">
        <ele>1888.57034225</ele>
        <time>2015-12-10T11:12:59Z</time>
      </trkpt>
      <trkpt lat="45.4197" lon="5.90225">
        <ele>1888.57034225</ele>
        <time>2015-12-10T11:13:04Z</time>
      </trkpt>
      <trkpt lat="45.4197" lon="5.90225">
        <ele>1888.57034225</ele>
        <time>2015-12-10T11:13:14Z</time>
      </trkpt>
      <trkpt lat="45.4197" lon="5.90225">
        <ele>1888.57034225</ele>
        <time>2015-12-10T11:13:19Z</time>
      </trkpt>
      <trkpt lat="45.4197" lon="5.90225">
        <ele>1888.57034225</ele>
        <time>2015-12-10T11:13:29Z</time>
      </trkpt>
      <trkpt lat="45.4197" lon="5.90226">
        <ele>1888.57034225</ele>
        <time>2015-12-10T11:13:34Z</time>
      </trkpt>
      <trkpt lat="45.4197" lon="5.90225">
        <ele>1888.57034225</ele>
        <time>2015-12-10T11:13:44Z</time>
      </trkpt>
      <trkpt lat="45.4197" lon="5.90226">
        <ele>1888.57034225</ele>
        <time>2015-12-10T11:13:49Z</time>
      </trkpt>
      <trkpt lat="45.41971" lon="5.90225">
        <ele>1888.57034225</ele>
        <time>2015-12-10T11:13:59Z</time>
      </trkpt>
      <trkpt lat="45.41972" lon="5.90226">
        <ele>1888.57034225</ele>
        <time>2015-12-10T11:14:04Z</time>
      </trkpt>
      <trkpt lat="45.41971" lon="5.90227">
        <ele>1888.57034225</ele>
        <time>2015-12-10T11:14:14Z</time>
      </trkpt>
      <trkpt lat="45.41971" lon="5.90227">
        <ele>1888.57034225</ele>
        <time>2015-12-10T11:14:19Z</time>
      </trkpt>
      <trkpt lat="45.41971" lon="5.90227">
        <ele>1888.57034225</ele>
        <time>2015-12-10T11:14:29Z</time>
      </trkpt>
      <trkpt lat="45.41971" lon="5.90227">
        <ele>1888.57034225</ele>
        <time>2015-12-10T11:14:34Z</time>
      </trkpt>
      <trkpt lat="45.41972" lon="5.90227">
        <ele>1888.57034225</ele>
        <time>2015-12-10T11:14:44Z</time>
      </trkpt>
      <trkpt lat="45.41972" lon="5.90227">
        <ele>1888.57034225</ele>
        <time>2015-12-10T11:14:49Z</time>
      </trkpt>
      <trkpt lat="45.41974" lon="5.90226">
        <ele>1888.57034225</ele>
        <time>2015-12-10T11:14:59Z</time>
      </trkpt>
      <trkpt lat="45.41974" lon="5.90226">
        <ele>1888.57034225</ele>
        <time>2015-12-10T11:15:04Z</time>
      </trkpt>
      <trkpt lat="45.41974" lon="5.90226">
        <ele>1888.57034225</ele>
        <time>2015-12-10T11:15:14Z</time>
      </trkpt>
      <trkpt lat="45.41974" lon="5.90226">
        <ele>1888.57034225</ele>
        <time>2015-12-10T11:15:19Z</time>
      </trkpt>
      <trkpt lat="45.41974" lon="5.90228">
        <ele>1888.57034225</ele>
        <time>2015-12-10T11:15:34Z</time>
      </trkpt>
      <trkpt lat="45.41973" lon="5.90228">
        <ele>1888.57034225</ele>
        <time>2015-12-10T11:15:39Z</time>
      </trkpt>
      <trkpt lat="45.41974" lon="5.90228">
        <ele>1888.57034225</ele>
        <time>2015-12-10T11:15:49Z</time>
      </trkpt>
      <trkpt lat="45.41973" lon="5.90228">
        <ele>1888.57034225</ele>
        <time>2015-12-10T11:15:54Z</time>
      </trkpt>
      <trkpt lat="45.41973" lon="5.90228">
        <ele>1888.57034225</ele>
        <time>2015-12-10T11:16:04Z</time>
      </trkpt>
      <trkpt lat="45.41973" lon="5.90228">
        <ele>1888.57034225</ele>
        <time>2015-12-10T11:16:09Z</time>
      </trkpt>
      <trkpt lat="45.41973" lon="5.90228">
        <ele>1888.57034225</ele>
        <time>2015-12-10T11:16:19Z</time>
      </trkpt>
      <trkpt lat="45.41973" lon="5.90228">
        <ele>1888.57034225</ele>
        <time>2015-12-10T11:16:24Z</time>
      </trkpt>
      <trkpt lat="45.41973" lon="5.90229">
        <ele>1888.57034225</ele>
        <time>2015-12-10T11:16:34Z</time>
      </trkpt>
      <trkpt lat="45.41973" lon="5.90229">
        <ele>1888.57034225</ele>
        <time>2015-12-10T11:16:39Z</time>
      </trkpt>
      <trkpt lat="45.41973" lon="5.90228">
        <ele>1888.845920339</ele>
        <time>2015-12-10T11:16:49Z</time>
      </trkpt>
      <trkpt lat="45.41973" lon="5.90228">
        <ele>1888.845920339</ele>
        <time>2015-12-10T11:16:54Z</time>
      </trkpt>
      <trkpt lat="45.41973" lon="5.90228">
        <ele>1888.845920339</ele>
        <time>2015-12-10T11:17:04Z</time>
      </trkpt>
      <trkpt lat="45.41973" lon="5.90228">
        <ele>1888.845920339</ele>
        <time>2015-12-10T11:17:09Z</time>
      </trkpt>
      <trkpt lat="45.41972" lon="5.90228">
        <ele>1888.845920339</ele>
        <time>2015-12-10T11:17:19Z</time>
      </trkpt>
      <trkpt lat="45.41972" lon="5.90227">
        <ele>1888.845920339</ele>
        <time>2015-12-10T11:17:24Z</time>
      </trkpt>
      <trkpt lat="45.41973" lon="5.90228">
        <ele>1888.845920339</ele>
        <time>2015-12-10T11:17:34Z</time>
      </trkpt>
      <trkpt lat="45.41973" lon="5.90228">
        <ele>1888.845920339</ele>
        <time>2015-12-10T11:17:39Z</time>
      </trkpt>
      <trkpt lat="45.41973" lon="5.90228">
        <ele>1888.845920339</ele>
        <time>2015-12-10T11:17:49Z</time>
      </trkpt>
      <trkpt lat="45.41973" lon="5.90228">
        <ele>1888.845920339</ele>
        <time>2015-12-10T11:17:54Z</time>
      </trkpt>
      <trkpt lat="45.41973" lon="5.90227">
        <ele>1888.845920339</ele>
        <time>2015-12-10T11:18:09Z</time>
      </trkpt>
      <trkpt lat="45.41973" lon="5.90228">
        <ele>1888.845920339</ele>
        <time>2015-12-10T11:18:14Z</time>
      </trkpt>
      <trkpt lat="45.41973" lon="5.90228">
        <ele>1888.845920339</ele>
        <time>2015-12-10T11:18:24Z</time>
      </trkpt>
      <trkpt lat="45.41973" lon="5.90228">
        <ele>1888.845920339</ele>
        <time>2015-12-10T11:18:29Z</time>
      </trkpt>
      <trkpt lat="45.41973" lon="5.90229">
        <ele>1888.845920339</ele>
        <time>2015-12-10T11:18:39Z</time>
      </trkpt>
      <trkpt lat="45.41973" lon="5.90229">
        <ele>1888.845920339</ele>
        <time>2015-12-10T11:18:44Z</time>
      </trkpt>
      <trkpt lat="45.41973" lon="5.90228">
        <ele>1888.845920339</ele>
        <time>2015-12-10T11:18:54Z</time>
      </trkpt>
      <trkpt lat="45.41974" lon="5.90228">
        <ele>1888.845920339</ele>
        <time>2015-12-10T11:18:59Z</time>
      </trkpt>
      <trkpt lat="45.41974" lon="5.90228">
        <ele>1888.845920339</ele>
        <time>2015-12-10T11:19:09Z</time>
      </trkpt>
      <trkpt lat="45.41974" lon="5.90228">
        <ele>1888.845920339</ele>
        <time>2015-12-10T11:19:14Z</time>
      </trkpt>
      <trkpt lat="45.41974" lon="5.90228">
        <ele>1888.845920339</ele>
        <time>2015-12-10T11:19:19Z</time>
      </trkpt>
      <trkpt lat="45.41974" lon="5.90228">
        <ele>1888.845920339</ele>
        <time>2015-12-10T11:19:24Z</time>
      </trkpt>
      <trkpt lat="45.41974" lon="5.90228">
        <ele>1888.845920339</ele>
        <time>2015-12-10T11:19:29Z</time>
      </trkpt>
      <trkpt lat="45.41974" lon="5.90228">
        <ele>1888.845920339</ele>
        <time>2015-12-10T11:19:34Z</time>
      </trkpt>
      <trkpt lat="45.41974" lon="5.90228">
        <ele>1888.845920339</ele>
        <time>2015-12-10T11:19:39Z</time>
      </trkpt>
      <trkpt lat="45.41974" lon="5.90228">
        <ele>1888.845920339</ele>
        <time>2015-12-10T11:19:44Z</time>
      </trkpt>
      <trkpt lat="45.41974" lon="5.90228">
        <ele>1888.845920339</ele>
        <time>2015-12-10T11:19:49Z</time>
      </trkpt>
      <trkpt lat="45.41974" lon="5.90227">
        <ele>1888.845920339</ele>
        <time>2015-12-10T11:19:59Z</time>
      </trkpt>
      <trkpt lat="45.41973" lon="5.90224">
        <ele>1888.25562673</ele>
        <time>2015-12-10T11:20:04Z</time>
      </trkpt>
      <trkpt lat="45.41972" lon="5.90224">
        <ele>1888.25562673</ele>
        <time>2015-12-10T11:20:14Z</time>
      </trkpt>
      <trkpt lat="45.41972" lon="5.90224">
        <ele>1888.25562673</ele>
        <time>2015-12-10T11:20:19Z</time>
      </trkpt>
      <trkpt lat="45.41972" lon="5.90224">
        <ele>1888.25562673</ele>
        <time>2015-12-10T11:20:29Z</time>
      </trkpt>
      <trkpt lat="45.41972" lon="5.90224">
        <ele>1888.25562673</ele>
        <time>2015-12-10T11:20:34Z</time>
      </trkpt>
      <trkpt lat="45.41972" lon="5.90224">
        <ele>1888.25562673</ele>
        <time>2015-12-10T11:20:44Z</time>
      </trkpt>
      <trkpt lat="45.41972" lon="5.90224">
        <ele>1888.25562673</ele>
        <time>2015-12-10T11:20:49Z</time>
      </trkpt>
      <trkpt lat="45.41972" lon="5.90224">
        <ele>1888.25562673</ele>
        <time>2015-12-10T11:21:04Z</time>
      </trkpt>
      <trkpt lat="45.41972" lon="5.90224">
        <ele>1888.25562673</ele>
        <time>2015-12-10T11:21:09Z</time>
      </trkpt>
      <trkpt lat="45.41972" lon="5.90224">
        <ele>1888.25562673</ele>
        <time>2015-12-10T11:21:19Z</time>
      </trkpt>
      <trkpt lat="45.41972" lon="5.90224">
        <ele>1888.25562673</ele>
        <time>2015-12-10T11:21:24Z</time>
      </trkpt>
      <trkpt lat="45.41972" lon="5.90224">
        <ele>1888.25562673</ele>
        <time>2015-12-10T11:21:34Z</time>
      </trkpt>
      <trkpt lat="45.41972" lon="5.90224">
        <ele>1888.25562673</ele>
        <time>2015-12-10T11:21:39Z</time>
      </trkpt>
      <trkpt lat="45.41972" lon="5.90224">
        <ele>1888.25562673</ele>
        <time>2015-12-10T11:21:49Z</time>
      </trkpt>
      <trkpt lat="45.41972" lon="5.90224">
        <ele>1888.25562673</ele>
        <time>2015-12-10T11:21:54Z</time>
      </trkpt>
      <trkpt lat="45.41972" lon="5.90224">
        <ele>1888.25562673</ele>
        <time>2015-12-10T11:22:04Z</time>
      </trkpt>
      <trkpt lat="45.41972" lon="5.90224">
        <ele>1888.25562673</ele>
        <time>2015-12-10T11:22:09Z</time>
      </trkpt>
      <trkpt lat="45.41972" lon="5.90224">
        <ele>1888.25562673</ele>
        <time>2015-12-10T11:22:19Z</time>
      </trkpt>
      <trkpt lat="45.41972" lon="5.90224">
        <ele>1888.25562673</ele>
        <time>2015-12-10T11:22:24Z</time>
      </trkpt>
      <trkpt lat="45.41972" lon="5.90224">
        <ele>1888.25562673</ele>
        <time>2015-12-10T11:22:34Z</time>
      </trkpt>
      <trkpt lat="45.41972" lon="5.90224">
        <ele>1888.25562673</ele>
        <time>2015-12-10T11:22:39Z</time>
      </trkpt>
      <trkpt lat="45.41972" lon="5.90224">
        <ele>1888.25562673</ele>
        <time>2015-12-10T11:22:49Z</time>
      </trkpt>
      <trkpt lat="45.41972" lon="5.90224">
        <ele>1888.25562673</ele>
        <time>2015-12-10T11:22:54Z</time>
      </trkpt>
      <trkpt lat="45.41972" lon="5.90224">
        <ele>1888.25562673</ele>
        <time>2015-12-10T11:23:09Z</time>
      </trkpt>
      <trkpt lat="45.41973" lon="5.90224">
        <ele>1888.25562673</ele>
        <time>2015-12-10T11:23:14Z</time>
      </trkpt>
      <trkpt lat="45.41972" lon="5.90223">
        <ele>1888.25562673</ele>
        <time>2015-12-10T11:23:24Z</time>
      </trkpt>
      <trkpt lat="45.41972" lon="5.90223">
        <ele>1888.25562673</ele>
        <time>2015-12-10T11:23:29Z</time>
      </trkpt>
      <trkpt lat="45.41972" lon="5.90223">
        <ele>1888.25562673</ele>
        <time>2015-12-10T11:23:39Z</time>
      </trkpt>
      <trkpt lat="45.41972" lon="5.90223">
        <ele>1888.25562673</ele>
        <time>2015-12-10T11:23:44Z</time>
      </trkpt>
      <trkpt lat="45.41972" lon="5.90223">
        <ele>1888.25562673</ele>
        <time>2015-12-10T11:23:54Z</time>
      </trkpt>
      <trkpt lat="45.41972" lon="5.90223">
        <ele>1888.25562673</ele>
        <time>2015-12-10T11:23:59Z</time>
      </trkpt>
      <trkpt lat="45.41972" lon="5.90223">
        <ele>1888.25562673</ele>
        <time>2015-12-10T11:24:09Z</time>
      </trkpt>
      <trkpt lat="45.41972" lon="5.90223">
        <ele>1888.25562673</ele>
        <time>2015-12-10T11:24:14Z</time>
      </trkpt>
      <trkpt lat="45.41972" lon="5.90223">
        <ele>1888.25562673</ele>
        <time>2015-12-10T11:24:24Z</time>
      </trkpt>
      <trkpt lat="45.41972" lon="5.90223">
        <ele>1888.25562673</ele>
        <time>2015-12-10T11:24:29Z</time>
      </trkpt>
      <trkpt lat="45.41972" lon="5.90223">
        <ele>1888.25562673</ele>
        <time>2015-12-10T11:24:40Z</time>
      </trkpt>
      <trkpt lat="45.41972" lon="5.90223">
        <ele>1888.25562673</ele>
        <time>2015-12-10T11:24:44Z</time>
      </trkpt>
      <trkpt lat="45.41972" lon="5.90223">
        <ele>1888.25562673</ele>
        <time>2015-12-10T11:24:55Z</time>
      </trkpt>
      <trkpt lat="45.41972" lon="5.90223">
        <ele>1888.25562673</ele>
        <time>2015-12-10T11:25:00Z</time>
      </trkpt>
      <trkpt lat="45.41972" lon="5.90223">
        <ele>1888.25562673</ele>
        <time>2015-12-10T11:25:09Z</time>
      </trkpt>
      <trkpt lat="45.41972" lon="5.90223">
        <ele>1888.25562673</ele>
        <time>2015-12-10T11:25:15Z</time>
      </trkpt>
      <trkpt lat="45.41972" lon="5.90223">
        <ele>1888.25562673</ele>
        <time>2015-12-10T11:25:24Z</time>
      </trkpt>
      <trkpt lat="45.41972" lon="5.90223">
        <ele>1888.25562673</ele>
        <time>2015-12-10T11:25:29Z</time>
      </trkpt>
      <trkpt lat="45.41972" lon="5.90223">
        <ele>1888.25562673</ele>
        <time>2015-12-10T11:25:40Z</time>
      </trkpt>
      <trkpt lat="45.41972" lon="5.90223">
        <ele>1888.25562673</ele>
        <time>2015-12-10T11:25:45Z</time>
      </trkpt>
      <trkpt lat="45.41972" lon="5.90223">
        <ele>1888.25562673</ele>
        <time>2015-12-10T11:26:00Z</time>
      </trkpt>
      <trkpt lat="45.41972" lon="5.90223">
        <ele>1888.25562673</ele>
        <time>2015-12-10T11:26:05Z</time>
      </trkpt>
      <trkpt lat="45.41972" lon="5.90223">
        <ele>1888.25562673</ele>
        <time>2015-12-10T11:26:14Z</time>
      </trkpt>
      <trkpt lat="45.41973" lon="5.90223">
        <ele>1888.25562673</ele>
        <time>2015-12-10T11:26:20Z</time>
      </trkpt>
      <trkpt lat="45.41973" lon="5.90223">
        <ele>1888.25562673</ele>
        <time>2015-12-10T11:26:29Z</time>
      </trkpt>
      <trkpt lat="45.41973" lon="5.90223">
        <ele>1888.25562673</ele>
        <time>2015-12-10T11:26:34Z</time>
      </trkpt>
      <trkpt lat="45.41973" lon="5.90223">
        <ele>1888.25562673</ele>
        <time>2015-12-10T11:26:45Z</time>
      </trkpt>
      <trkpt lat="45.41973" lon="5.90223">
        <ele>1888.25562673</ele>
        <time>2015-12-10T11:26:49Z</time>
      </trkpt>
      <trkpt lat="45.41973" lon="5.90223">
        <ele>1888.25562673</ele>
        <time>2015-12-10T11:27:00Z</time>
      </trkpt>
      <trkpt lat="45.41973" lon="5.90223">
        <ele>1888.25562673</ele>
        <time>2015-12-10T11:27:04Z</time>
      </trkpt>
      <trkpt lat="45.41973" lon="5.90223">
        <ele>1888.25562673</ele>
        <time>2015-12-10T11:27:14Z</time>
      </trkpt>
      <trkpt lat="45.41973" lon="5.90223">
        <ele>1888.25562673</ele>
        <time>2015-12-10T11:27:21Z</time>
      </trkpt>
      <trkpt lat="45.41973" lon="5.90223">
        <ele>1888.25562673</ele>
        <time>2015-12-10T11:27:35Z</time>
      </trkpt>
      <trkpt lat="45.41973" lon="5.90223">
        <ele>1888.25562673</ele>
        <time>2015-12-10T11:27:45Z</time>
      </trkpt>
      <trkpt lat="45.41973" lon="5.90223">
        <ele>1888.25562673</ele>
        <time>2015-12-10T11:27:49Z</time>
      </trkpt>
      <trkpt lat="45.41973" lon="5.90223">
        <ele>1888.25562673</ele>
        <time>2015-12-10T11:27:54Z</time>
      </trkpt>
      <trkpt lat="45.41973" lon="5.90223">
        <ele>1888.25562673</ele>
        <time>2015-12-10T11:27:59Z</time>
      </trkpt>
      <trkpt lat="45.41973" lon="5.90223">
        <ele>1888.25562673</ele>
        <time>2015-12-10T11:28:04Z</time>
      </trkpt>
      <trkpt lat="45.41973" lon="5.90226">
        <ele>1888.25562673</ele>
        <time>2015-12-10T11:28:09Z</time>
      </trkpt>
      <trkpt lat="45.41971" lon="5.90226">
        <ele>1888.25562673</ele>
        <time>2015-12-10T11:28:19Z</time>
      </trkpt>
      <trkpt lat="45.41972" lon="5.90228">
        <ele>1888.25562673</ele>
        <time>2015-12-10T11:28:24Z</time>
      </trkpt>
      <trkpt lat="45.4197" lon="5.90231">
        <ele>1887.716711389</ele>
        <time>2015-12-10T11:28:34Z</time>
      </trkpt>
      <trkpt lat="45.41969" lon="5.90231">
        <ele>1887.716711389</ele>
        <time>2015-12-10T11:28:39Z</time>
      </trkpt>
      <trkpt lat="45.41966" lon="5.90231">
        <ele>1887.716711389</ele>
        <time>2015-12-10T11:28:49Z</time>
      </trkpt>
      <trkpt lat="45.41966" lon="5.90231">
        <ele>1887.716711389</ele>
        <time>2015-12-10T11:28:54Z</time>
      </trkpt>
      <trkpt lat="45.41965" lon="5.90231">
        <ele>1887.716711389</ele>
        <time>2015-12-10T11:29:04Z</time>
      </trkpt>
      <trkpt lat="45.41965" lon="5.90231">
        <ele>1887.716711389</ele>
        <time>2015-12-10T11:29:09Z</time>
      </trkpt>
      <trkpt lat="45.41963" lon="5.90231">
        <ele>1887.716711389</ele>
        <time>2015-12-10T11:29:19Z</time>
      </trkpt>
      <trkpt lat="45.41962" lon="5.9023">
        <ele>1887.716711389</ele>
        <time>2015-12-10T11:29:24Z</time>
      </trkpt>
      <trkpt lat="45.41962" lon="5.90223">
        <ele>1887.221178385</ele>
        <time>2015-12-10T11:29:39Z</time>
      </trkpt>
      <trkpt lat="45.41961" lon="5.90218">
        <ele>1887.221178385</ele>
        <time>2015-12-10T11:29:44Z</time>
      </trkpt>
      <trkpt lat="45.41959" lon="5.90212">
        <ele>1887.221178385</ele>
        <time>2015-12-10T11:29:54Z</time>
      </trkpt>
      <trkpt lat="45.41959" lon="5.90211">
        <ele>1887.221178385</ele>
        <time>2015-12-10T11:29:59Z</time>
      </trkpt>
      <trkpt lat="45.41959" lon="5.90211">
        <ele>1887.221178385</ele>
        <time>2015-12-10T11:30:09Z</time>
      </trkpt>
      <trkpt lat="45.41957" lon="5.90208">
        <ele>1886.484725685</ele>
        <time>2015-12-10T11:30:14Z</time>
      </trkpt>
      <trkpt lat="45.41957" lon="5.90209">
        <ele>1886.484725685</ele>
        <time>2015-12-10T11:30:24Z</time>
      </trkpt>
      <trkpt lat="45.41957" lon="5.90208">
        <ele>1886.484725685</ele>
        <time>2015-12-10T11:30:29Z</time>
      </trkpt>
      <trkpt lat="45.41953" lon="5.90207">
        <ele>1886.484725685</ele>
        <time>2015-12-10T11:30:39Z</time>
      </trkpt>
      <trkpt lat="45.41953" lon="5.90206">
        <ele>1886.484725685</ele>
        <time>2015-12-10T11:30:44Z</time>
      </trkpt>
      <trkpt lat="45.41953" lon="5.90205">
        <ele>1886.484725685</ele>
        <time>2015-12-10T11:30:54Z</time>
      </trkpt>
      <trkpt lat="45.41953" lon="5.90205">
        <ele>1886.484725685</ele>
        <time>2015-12-10T11:30:59Z</time>
      </trkpt>
      <trkpt lat="45.41948" lon="5.90201">
        <ele>1886.218422442</ele>
        <time>2015-12-10T11:31:09Z</time>
      </trkpt>
      <trkpt lat="45.41948" lon="5.90201">
        <ele>1886.218422442</ele>
        <time>2015-12-10T11:31:14Z</time>
      </trkpt>
      <trkpt lat="45.41942" lon="5.90198">
        <ele>1886.218422442</ele>
        <time>2015-12-10T11:31:24Z</time>
      </trkpt>
      <trkpt lat="45.41939" lon="5.90195">
        <ele>1885.8332755</ele>
        <time>2015-12-10T11:31:29Z</time>
      </trkpt>
      <trkpt lat="45.41935" lon="5.90195">
        <ele>1885.8332755</ele>
        <time>2015-12-10T11:31:39Z</time>
      </trkpt>
      <trkpt lat="45.41932" lon="5.90195">
        <ele>1885.8332755</ele>
        <time>2015-12-10T11:31:44Z</time>
      </trkpt>
      <trkpt lat="45.4193" lon="5.90193">
        <ele>1885.201137388</ele>
        <time>2015-12-10T11:31:54Z</time>
      </trkpt>
      <trkpt lat="45.4193" lon="5.90192">
        <ele>1885.201137388</ele>
        <time>2015-12-10T11:31:59Z</time>
      </trkpt>
      <trkpt lat="45.41926" lon="5.9019">
        <ele>1885.201137388</ele>
        <time>2015-12-10T11:32:14Z</time>
      </trkpt>
      <trkpt lat="45.41926" lon="5.90189">
        <ele>1885.201137388</ele>
        <time>2015-12-10T11:32:19Z</time>
      </trkpt>
      <trkpt lat="45.41921" lon="5.90185">
        <ele>1884.482951848</ele>
        <time>2015-12-10T11:32:29Z</time>
      </trkpt>
      <trkpt lat="45.41919" lon="5.90182">
        <ele>1884.482951848</ele>
        <time>2015-12-10T11:32:34Z</time>
      </trkpt>
      <trkpt lat="45.41918" lon="5.9018">
        <ele>1884.482951848</ele>
        <time>2015-12-10T11:32:44Z</time>
      </trkpt>
      <trkpt lat="45.41914" lon="5.90181">
        <ele>1884.482951848</ele>
        <time>2015-12-10T11:32:49Z</time>
      </trkpt>
      <trkpt lat="45.4191" lon="5.90179">
        <ele>1883.411679174</ele>
        <time>2015-12-10T11:32:59Z</time>
      </trkpt>
      <trkpt lat="45.41905" lon="5.90176">
        <ele>1883.411679174</ele>
        <time>2015-12-10T11:33:04Z</time>
      </trkpt>
      <trkpt lat="45.41899" lon="5.90169">
        <ele>1882.160243433</ele>
        <time>2015-12-10T11:33:14Z</time>
      </trkpt>
      <trkpt lat="45.41898" lon="5.90168">
        <ele>1882.160243433</ele>
        <time>2015-12-10T11:33:19Z</time>
      </trkpt>
      <trkpt lat="45.41897" lon="5.90167">
        <ele>1882.160243433</ele>
        <time>2015-12-10T11:33:29Z</time>
      </trkpt>
      <trkpt lat="45.41897" lon="5.90167">
        <ele>1882.160243433</ele>
        <time>2015-12-10T11:33:34Z</time>
      </trkpt>
      <trkpt lat="45.41897" lon="5.90167">
        <ele>1882.160243433</ele>
        <time>2015-12-10T11:33:44Z</time>
      </trkpt>
      <trkpt lat="45.41897" lon="5.90167">
        <ele>1882.160243433</ele>
        <time>2015-12-10T11:33:49Z</time>
      </trkpt>
      <trkpt lat="45.41897" lon="5.90167">
        <ele>1882.160243433</ele>
        <time>2015-12-10T11:33:59Z</time>
      </trkpt>
      <trkpt lat="45.41897" lon="5.90167">
        <ele>1882.160243433</ele>
        <time>2015-12-10T11:34:04Z</time>
      </trkpt>
      <trkpt lat="45.41897" lon="5.90167">
        <ele>1882.160243433</ele>
        <time>2015-12-10T11:34:19Z</time>
      </trkpt>
      <trkpt lat="45.41893" lon="5.90164">
        <ele>1882.160243433</ele>
        <time>2015-12-10T11:34:34Z</time>
      </trkpt>
      <trkpt lat="45.4189" lon="5.90159">
        <ele>1880.610899913</ele>
        <time>2015-12-10T11:34:39Z</time>
      </trkpt>
      <trkpt lat="45.41882" lon="5.90156">
        <ele>1880.610899913</ele>
        <time>2015-12-10T11:34:49Z</time>
      </trkpt>
      <trkpt lat="45.41879" lon="5.90154">
        <ele>1879.08244008</ele>
        <time>2015-12-10T11:34:54Z</time>
      </trkpt>
      <trkpt lat="45.41874" lon="5.90152">
        <ele>1879.08244008</ele>
        <time>2015-12-10T11:35:04Z</time>
      </trkpt>
      <trkpt lat="45.4187" lon="5.90148">
        <ele>1877.304166199</ele>
        <time>2015-12-10T11:35:10Z</time>
      </trkpt>
      <trkpt lat="45.41865" lon="5.90147">
        <ele>1877.304166199</ele>
        <time>2015-12-10T11:35:19Z</time>
      </trkpt>
      <trkpt lat="45.41864" lon="5.90147">
        <ele>1877.304166199</ele>
        <time>2015-12-10T11:35:25Z</time>
      </trkpt>
      <trkpt lat="45.41864" lon="5.90147">
        <ele>1877.304166199</ele>
        <time>2015-12-10T11:35:34Z</time>
      </trkpt>
      <trkpt lat="45.41863" lon="5.90145">
        <ele>1877.304166199</ele>
        <time>2015-12-10T11:35:39Z</time>
      </trkpt>
      <trkpt lat="45.41852" lon="5.9014">
        <ele>1875.599485637</ele>
        <time>2015-12-10T11:35:54Z</time>
      </trkpt>
      <trkpt lat="45.41852" lon="5.9014">
        <ele>1875.599485637</ele>
        <time>2015-12-10T11:35:59Z</time>
      </trkpt>
      <trkpt lat="45.41848" lon="5.9013">
        <ele>1875.599485637</ele>
        <time>2015-12-10T11:36:09Z</time>
      </trkpt>
      <trkpt lat="45.41846" lon="5.90124">
        <ele>1874.567247672</ele>
        <time>2015-12-10T11:36:14Z</time>
      </trkpt>
      <trkpt lat="45.41845" lon="5.90121">
        <ele>1874.567247672</ele>
        <time>2015-12-10T11:36:25Z</time>
      </trkpt>
      <trkpt lat="45.41844" lon="5.90121">
        <ele>1874.567247672</ele>
        <time>2015-12-10T11:36:29Z</time>
      </trkpt>
      <trkpt lat="45.41843" lon="5.90116">
        <ele>1874.567247672</ele>
        <time>2015-12-10T11:36:40Z</time>
      </trkpt>
      <trkpt lat="45.41844" lon="5.90115">
        <ele>1874.567247672</ele>
        <time>2015-12-10T11:36:44Z</time>
      </trkpt>
      <trkpt lat="45.41843" lon="5.90114">
        <ele>1874.567247672</ele>
        <time>2015-12-10T11:36:54Z</time>
      </trkpt>
      <trkpt lat="45.41843" lon="5.90114">
        <ele>1874.567247672</ele>
        <time>2015-12-10T11:36:59Z</time>
      </trkpt>
      <trkpt lat="45.41843" lon="5.90114">
        <ele>1874.567247672</ele>
        <time>2015-12-10T11:37:09Z</time>
      </trkpt>
      <trkpt lat="45.41843" lon="5.90114">
        <ele>1874.567247672</ele>
        <time>2015-12-10T11:37:14Z</time>
      </trkpt>
      <trkpt lat="45.41843" lon="5.90114">
        <ele>1874.567247672</ele>
        <time>2015-12-10T11:37:25Z</time>
      </trkpt>
      <trkpt lat="45.41843" lon="5.90114">
        <ele>1874.567247672</ele>
        <time>2015-12-10T11:37:29Z</time>
      </trkpt>
      <trkpt lat="45.41843" lon="5.90114">
        <ele>1874.567247672</ele>
        <time>2015-12-10T11:37:39Z</time>
      </trkpt>
      <trkpt lat="45.41843" lon="5.90114">
        <ele>1874.567247672</ele>
        <time>2015-12-10T11:37:45Z</time>
      </trkpt>
      <trkpt lat="45.41843" lon="5.90114">
        <ele>1874.567247672</ele>
        <time>2015-12-10T11:37:54Z</time>
      </trkpt>
      <trkpt lat="45.41843" lon="5.90114">
        <ele>1874.567247672</ele>
        <time>2015-12-10T11:38:00Z</time>
      </trkpt>
      <trkpt lat="45.41837" lon="5.901">
        <ele>1873.599409825</ele>
        <time>2015-12-10T11:38:14Z</time>
      </trkpt>
      <trkpt lat="45.41829" lon="5.90094">
        <ele>1873.151461997</ele>
        <time>2015-12-10T11:38:29Z</time>
      </trkpt>
      <trkpt lat="45.41828" lon="5.90095">
        <ele>1873.151461997</ele>
        <time>2015-12-10T11:38:34Z</time>
      </trkpt>
      <trkpt lat="45.41828" lon="5.90094">
        <ele>1873.151461997</ele>
        <time>2015-12-10T11:38:44Z</time>
      </trkpt>
      <trkpt lat="45.41829" lon="5.90095">
        <ele>1873.151461997</ele>
        <time>2015-12-10T11:38:49Z</time>
      </trkpt>
      <trkpt lat="45.41828" lon="5.90095">
        <ele>1873.151461997</ele>
        <time>2015-12-10T11:38:59Z</time>
      </trkpt>
      <trkpt lat="45.41828" lon="5.90095">
        <ele>1873.151461997</ele>
        <time>2015-12-10T11:39:04Z</time>
      </trkpt>
      <trkpt lat="45.41828" lon="5.90095">
        <ele>1873.151461997</ele>
        <time>2015-12-10T11:39:14Z</time>
      </trkpt>
      <trkpt lat="45.41828" lon="5.90095">
        <ele>1873.151461997</ele>
        <time>2015-12-10T11:39:19Z</time>
      </trkpt>
      <trkpt lat="45.41825" lon="5.90094">
        <ele>1873.151461997</ele>
        <time>2015-12-10T11:39:30Z</time>
      </trkpt>
      <trkpt lat="45.41825" lon="5.90095">
        <ele>1873.151461997</ele>
        <time>2015-12-10T11:39:34Z</time>
      </trkpt>
      <trkpt lat="45.41825" lon="5.90095">
        <ele>1873.151461997</ele>
        <time>2015-12-10T11:39:44Z</time>
      </trkpt>
      <trkpt lat="45.41825" lon="5.90096">
        <ele>1873.151461997</ele>
        <time>2015-12-10T11:39:49Z</time>
      </trkpt>
      <trkpt lat="45.41825" lon="5.90096">
        <ele>1873.151461997</ele>
        <time>2015-12-10T11:39:59Z</time>
      </trkpt>
      <trkpt lat="45.41825" lon="5.90096">
        <ele>1873.151461997</ele>
        <time>2015-12-10T11:40:04Z</time>
      </trkpt>
      <trkpt lat="45.41825" lon="5.90096">
        <ele>1873.151461997</ele>
        <time>2015-12-10T11:40:19Z</time>
      </trkpt>
      <trkpt lat="45.41825" lon="5.90096">
        <ele>1873.151461997</ele>
        <time>2015-12-10T11:40:34Z</time>
      </trkpt>
      <trkpt lat="45.41825" lon="5.90096">
        <ele>1873.151461997</ele>
        <time>2015-12-10T11:40:39Z</time>
      </trkpt>
      <trkpt lat="45.41825" lon="5.90096">
        <ele>1873.151461997</ele>
        <time>2015-12-10T11:40:49Z</time>
      </trkpt>
      <trkpt lat="45.41825" lon="5.90096">
        <ele>1873.151461997</ele>
        <time>2015-12-10T11:40:54Z</time>
      </trkpt>
      <trkpt lat="45.41825" lon="5.90096">
        <ele>1873.151461997</ele>
        <time>2015-12-10T11:41:04Z</time>
      </trkpt>
      <trkpt lat="45.41825" lon="5.90096">
        <ele>1873.151461997</ele>
        <time>2015-12-10T11:41:09Z</time>
      </trkpt>
      <trkpt lat="45.41825" lon="5.90096">
        <ele>1873.151461997</ele>
        <time>2015-12-10T11:41:19Z</time>
      </trkpt>
      <trkpt lat="45.41825" lon="5.90096">
        <ele>1873.151461997</ele>
        <time>2015-12-10T11:41:24Z</time>
      </trkpt>
      <trkpt lat="45.41825" lon="5.90096">
        <ele>1873.151461997</ele>
        <time>2015-12-10T11:41:34Z</time>
      </trkpt>
      <trkpt lat="45.41825" lon="5.90096">
        <ele>1873.151461997</ele>
        <time>2015-12-10T11:41:39Z</time>
      </trkpt>
      <trkpt lat="45.41825" lon="5.90096">
        <ele>1873.151461997</ele>
        <time>2015-12-10T11:41:50Z</time>
      </trkpt>
      <trkpt lat="45.41825" lon="5.90096">
        <ele>1873.151461997</ele>
        <time>2015-12-10T11:41:55Z</time>
      </trkpt>
      <trkpt lat="45.41825" lon="5.90096">
        <ele>1873.151461997</ele>
        <time>2015-12-10T11:42:05Z</time>
      </trkpt>
      <trkpt lat="45.41825" lon="5.90096">
        <ele>1873.151461997</ele>
        <time>2015-12-10T11:42:09Z</time>
      </trkpt>
      <trkpt lat="45.41825" lon="5.90096">
        <ele>1873.151461997</ele>
        <time>2015-12-10T11:42:15Z</time>
      </trkpt>
      <trkpt lat="45.41825" lon="5.90096">
        <ele>1873.151461997</ele>
        <time>2015-12-10T11:42:24Z</time>
      </trkpt>
      <trkpt lat="45.41825" lon="5.90096">
        <ele>1873.151461997</ele>
        <time>2015-12-10T11:42:30Z</time>
      </trkpt>
      <trkpt lat="45.41823" lon="5.90095">
        <ele>1873.151461997</ele>
        <time>2015-12-10T11:42:40Z</time>
      </trkpt>
      <trkpt lat="45.41817" lon="5.90098">
        <ele>1872.760594405</ele>
        <time>2015-12-10T11:42:45Z</time>
      </trkpt>
      <trkpt lat="45.41814" lon="5.90097">
        <ele>1872.760594405</ele>
        <time>2015-12-10T11:42:55Z</time>
      </trkpt>
      <trkpt lat="45.4181" lon="5.90099">
        <ele>1872.760594405</ele>
        <time>2015-12-10T11:42:59Z</time>
      </trkpt>
      <trkpt lat="45.41803" lon="5.90109">
        <ele>1872.733968696</ele>
        <time>2015-12-10T11:43:09Z</time>
      </trkpt>
      <trkpt lat="45.41799" lon="5.90109">
        <ele>1872.733968696</ele>
        <time>2015-12-10T11:43:15Z</time>
      </trkpt>
      <trkpt lat="45.4179" lon="5.90111">
        <ele>1872.459898899</ele>
        <time>2015-12-10T11:43:25Z</time>
      </trkpt>
      <trkpt lat="45.41789" lon="5.90116">
        <ele>1872.459898899</ele>
        <time>2015-12-10T11:43:30Z</time>
      </trkpt>
      <trkpt lat="45.41787" lon="5.90117">
        <ele>1872.459898899</ele>
        <time>2015-12-10T11:43:45Z</time>
      </trkpt>
      <trkpt lat="45.41787" lon="5.90116">
        <ele>1872.459898899</ele>
        <time>2015-12-10T11:43:49Z</time>
      </trkpt>
      <trkpt lat="45.41785" lon="5.90131">
        <ele>1870.615078454</ele>
        <time>2015-12-10T11:43:59Z</time>
      </trkpt>
      <trkpt lat="45.41786" lon="5.9013">
        <ele>1870.615078454</ele>
        <time>2015-12-10T11:44:04Z</time>
      </trkpt>
      <trkpt lat="45.41786" lon="5.90129">
        <ele>1870.615078454</ele>
        <time>2015-12-10T11:44:14Z</time>
      </trkpt>
      <trkpt lat="45.41786" lon="5.90129">
        <ele>1870.615078454</ele>
        <time>2015-12-10T11:44:19Z</time>
      </trkpt>
      <trkpt lat="45.41785" lon="5.90129">
        <ele>1870.615078454</ele>
        <time>2015-12-10T11:44:29Z</time>
      </trkpt>
      <trkpt lat="45.41785" lon="5.90129">
        <ele>1870.615078454</ele>
        <time>2015-12-10T11:44:34Z</time>
      </trkpt>
      <trkpt lat="45.41784" lon="5.90139">
        <ele>1868.678981907</ele>
        <time>2015-12-10T11:44:44Z</time>
      </trkpt>
      <trkpt lat="45.41783" lon="5.90144">
        <ele>1868.678981907</ele>
        <time>2015-12-10T11:44:49Z</time>
      </trkpt>
      <trkpt lat="45.41782" lon="5.90145">
        <ele>1868.678981907</ele>
        <time>2015-12-10T11:44:59Z</time>
      </trkpt>
      <trkpt lat="45.41781" lon="5.90147">
        <ele>1868.678981907</ele>
        <time>2015-12-10T11:45:04Z</time>
      </trkpt>
      <trkpt lat="45.41774" lon="5.90158">
        <ele>1866.523798035</ele>
        <time>2015-12-10T11:45:14Z</time>
      </trkpt>
      <trkpt lat="45.4177" lon="5.90157">
        <ele>1866.523798035</ele>
        <time>2015-12-10T11:45:19Z</time>
      </trkpt>
      <trkpt lat="45.4177" lon="5.90157">
        <ele>1866.523798035</ele>
        <time>2015-12-10T11:45:29Z</time>
      </trkpt>
      <trkpt lat="45.4177" lon="5.90157">
        <ele>1866.523798035</ele>
        <time>2015-12-10T11:45:34Z</time>
      </trkpt>
      <trkpt lat="45.4177" lon="5.90157">
        <ele>1866.523798035</ele>
        <time>2015-12-10T11:45:44Z</time>
      </trkpt>
      <trkpt lat="45.4177" lon="5.90157">
        <ele>1866.523798035</ele>
        <time>2015-12-10T11:45:49Z</time>
      </trkpt>
      <trkpt lat="45.4177" lon="5.90156">
        <ele>1866.523798035</ele>
        <time>2015-12-10T11:46:04Z</time>
      </trkpt>
      <trkpt lat="45.4177" lon="5.90156">
        <ele>1866.523798035</ele>
        <time>2015-12-10T11:46:09Z</time>
      </trkpt>
      <trkpt lat="45.4177" lon="5.90156">
        <ele>1866.523798035</ele>
        <time>2015-12-10T11:46:15Z</time>
      </trkpt>
      <trkpt lat="45.4177" lon="5.90156">
        <ele>1866.523798035</ele>
        <time>2015-12-10T11:46:20Z</time>
      </trkpt>
      <trkpt lat="45.4177" lon="5.90156">
        <ele>1866.523798035</ele>
        <time>2015-12-10T11:46:24Z</time>
      </trkpt>
      <trkpt lat="45.41768" lon="5.90158">
        <ele>1866.523798035</ele>
        <time>2015-12-10T11:46:40Z</time>
      </trkpt>
      <trkpt lat="45.41761" lon="5.90158">
        <ele>1863.879980853</ele>
        <time>2015-12-10T11:46:49Z</time>
      </trkpt>
      <trkpt lat="45.41757" lon="5.90157">
        <ele>1863.879980853</ele>
        <time>2015-12-10T11:46:55Z</time>
      </trkpt>
      <trkpt lat="45.41756" lon="5.90155">
        <ele>1863.879980853</ele>
        <time>2015-12-10T11:47:05Z</time>
      </trkpt>
      <trkpt lat="45.41756" lon="5.90155">
        <ele>1863.879980853</ele>
        <time>2015-12-10T11:47:09Z</time>
      </trkpt>
      <trkpt lat="45.41756" lon="5.90155">
        <ele>1863.879980853</ele>
        <time>2015-12-10T11:47:20Z</time>
      </trkpt>
      <trkpt lat="45.41756" lon="5.90155">
        <ele>1863.879980853</ele>
        <time>2015-12-10T11:47:25Z</time>
      </trkpt>
      <trkpt lat="45.41756" lon="5.90155">
        <ele>1863.879980853</ele>
        <time>2015-12-10T11:47:34Z</time>
      </trkpt>
      <trkpt lat="45.41756" lon="5.90155">
        <ele>1863.879980853</ele>
        <time>2015-12-10T11:47:40Z</time>
      </trkpt>
      <trkpt lat="45.41756" lon="5.90155">
        <ele>1863.879980853</ele>
        <time>2015-12-10T11:47:54Z</time>
      </trkpt>
      <trkpt lat="45.41756" lon="5.90155">
        <ele>1863.879980853</ele>
        <time>2015-12-10T11:47:59Z</time>
      </trkpt>
      <trkpt lat="45.41756" lon="5.90154">
        <ele>1863.879980853</ele>
        <time>2015-12-10T11:48:09Z</time>
      </trkpt>
      <trkpt lat="45.41757" lon="5.90153">
        <ele>1863.879980853</ele>
        <time>2015-12-10T11:48:14Z</time>
      </trkpt>
      <trkpt lat="45.41757" lon="5.90153">
        <ele>1863.879980853</ele>
        <time>2015-12-10T11:48:24Z</time>
      </trkpt>
      <trkpt lat="45.41757" lon="5.90153">
        <ele>1863.879980853</ele>
        <time>2015-12-10T11:48:29Z</time>
      </trkpt>
      <trkpt lat="45.41757" lon="5.90153">
        <ele>1863.879980853</ele>
        <time>2015-12-10T11:48:40Z</time>
      </trkpt>
      <trkpt lat="45.41757" lon="5.90153">
        <ele>1863.879980853</ele>
        <time>2015-12-10T11:48:44Z</time>
      </trkpt>
      <trkpt lat="45.41757" lon="5.90153">
        <ele>1863.879980853</ele>
        <time>2015-12-10T11:48:54Z</time>
      </trkpt>
      <trkpt lat="45.41757" lon="5.90153">
        <ele>1863.879980853</ele>
        <time>2015-12-10T11:48:59Z</time>
      </trkpt>
      <trkpt lat="45.41757" lon="5.90153">
        <ele>1863.879980853</ele>
        <time>2015-12-10T11:49:09Z</time>
      </trkpt>
      <trkpt lat="45.41757" lon="5.90153">
        <ele>1863.879980853</ele>
        <time>2015-12-10T11:49:14Z</time>
      </trkpt>
      <trkpt lat="45.41757" lon="5.90153">
        <ele>1863.879980853</ele>
        <time>2015-12-10T11:49:24Z</time>
      </trkpt>
      <trkpt lat="45.41757" lon="5.90153">
        <ele>1863.879980853</ele>
        <time>2015-12-10T11:49:29Z</time>
      </trkpt>
      <trkpt lat="45.41757" lon="5.90153">
        <ele>1863.879980853</ele>
        <time>2015-12-10T11:49:39Z</time>
      </trkpt>
      <trkpt lat="45.41757" lon="5.90153">
        <ele>1863.879980853</ele>
        <time>2015-12-10T11:49:45Z</time>
      </trkpt>
      <trkpt lat="45.41757" lon="5.90153">
        <ele>1863.879980853</ele>
        <time>2015-12-10T11:49:59Z</time>
      </trkpt>
      <trkpt lat="45.4175" lon="5.90157">
        <ele>1862.008925793</ele>
        <time>2015-12-10T11:50:14Z</time>
      </trkpt>
      <trkpt lat="45.41748" lon="5.90157">
        <ele>1862.008925793</ele>
        <time>2015-12-10T11:50:19Z</time>
      </trkpt>
      <trkpt lat="45.41739" lon="5.90158">
        <ele>1859.808044362</ele>
        <time>2015-12-10T11:50:25Z</time>
      </trkpt>
      <trkpt lat="45.41734" lon="5.90159">
        <ele>1859.808044362</ele>
        <time>2015-12-10T11:50:30Z</time>
      </trkpt>
      <trkpt lat="45.41734" lon="5.9016">
        <ele>1859.808044362</ele>
        <time>2015-12-10T11:50:34Z</time>
      </trkpt>
      <trkpt lat="45.41734" lon="5.90161">
        <ele>1859.808044362</ele>
        <time>2015-12-10T11:50:46Z</time>
      </trkpt>
      <trkpt lat="45.41734" lon="5.90161">
        <ele>1859.808044362</ele>
        <time>2015-12-10T11:50:49Z</time>
      </trkpt>
      <trkpt lat="45.41734" lon="5.90161">
        <ele>1859.808044362</ele>
        <time>2015-12-10T11:50:59Z</time>
      </trkpt>
      <trkpt lat="45.41734" lon="5.90161">
        <ele>1859.808044362</ele>
        <time>2015-12-10T11:51:05Z</time>
      </trkpt>
      <trkpt lat="45.41733" lon="5.90161">
        <ele>1859.808044362</ele>
        <time>2015-12-10T11:51:14Z</time>
      </trkpt>
      <trkpt lat="45.41732" lon="5.9016">
        <ele>1859.808044362</ele>
        <time>2015-12-10T11:51:19Z</time>
      </trkpt>
      <trkpt lat="45.4173" lon="5.90165">
        <ele>1858.674107833</ele>
        <time>2015-12-10T11:51:29Z</time>
      </trkpt>
      <trkpt lat="45.4173" lon="5.90164">
        <ele>1858.674107833</ele>
        <time>2015-12-10T11:51:34Z</time>
      </trkpt>
      <trkpt lat="45.41725" lon="5.90165">
        <ele>1858.674107833</ele>
        <time>2015-12-10T11:51:49Z</time>
      </trkpt>
      <trkpt lat="45.41722" lon="5.90165">
        <ele>1857.175104281</ele>
        <time>2015-12-10T11:51:54Z</time>
      </trkpt>
      <trkpt lat="45.41717" lon="5.90166">
        <ele>1857.175104281</ele>
        <time>2015-12-10T11:52:04Z</time>
      </trkpt>
      <trkpt lat="45.41716" lon="5.90166">
        <ele>1857.175104281</ele>
        <time>2015-12-10T11:52:09Z</time>
      </trkpt>
      <trkpt lat="45.41711" lon="5.90166">
        <ele>1855.800768261</ele>
        <time>2015-12-10T11:52:19Z</time>
      </trkpt>
      <trkpt lat="45.4171" lon="5.90166">
        <ele>1855.800768261</ele>
        <time>2015-12-10T11:52:25Z</time>
      </trkpt>
      <trkpt lat="45.4171" lon="5.90166">
        <ele>1855.800768261</ele>
        <time>2015-12-10T11:52:34Z</time>
      </trkpt>
      <trkpt lat="45.4171" lon="5.90165">
        <ele>1855.800768261</ele>
        <time>2015-12-10T11:52:39Z</time>
      </trkpt>
      <trkpt lat="45.4171" lon="5.90166">
        <ele>1855.800768261</ele>
        <time>2015-12-10T11:52:50Z</time>
      </trkpt>
      <trkpt lat="45.4171" lon="5.90166">
        <ele>1855.800768261</ele>
        <time>2015-12-10T11:52:54Z</time>
      </trkpt>
      <trkpt lat="45.41705" lon="5.90168">
        <ele>1855.800768261</ele>
        <time>2015-12-10T11:53:05Z</time>
      </trkpt>
      <trkpt lat="45.41704" lon="5.90171">
        <ele>1854.39892702</ele>
        <time>2015-12-10T11:53:10Z</time>
      </trkpt>
      <trkpt lat="45.417" lon="5.90174">
        <ele>1854.39892702</ele>
        <time>2015-12-10T11:53:19Z</time>
      </trkpt>
      <trkpt lat="45.417" lon="5.90173">
        <ele>1854.39892702</ele>
        <time>2015-12-10T11:53:24Z</time>
      </trkpt>
      <trkpt lat="45.41698" lon="5.90176">
        <ele>1854.39892702</ele>
        <time>2015-12-10T11:53:34Z</time>
      </trkpt>
      <trkpt lat="45.41698" lon="5.90177">
        <ele>1854.39892702</ele>
        <time>2015-12-10T11:53:39Z</time>
      </trkpt>
      <trkpt lat="45.41698" lon="5.90177">
        <ele>1854.39892702</ele>
        <time>2015-12-10T11:53:54Z</time>
      </trkpt>
      <trkpt lat="45.41696" lon="5.90177">
        <ele>1852.829531708</ele>
        <time>2015-12-10T11:53:59Z</time>
      </trkpt>
      <trkpt lat="45.41691" lon="5.90174">
        <ele>1852.829531708</ele>
        <time>2015-12-10T11:54:09Z</time>
      </trkpt>
      <trkpt lat="45.4169" lon="5.90173">
        <ele>1852.829531708</ele>
        <time>2015-12-10T11:54:14Z</time>
      </trkpt>
      <trkpt lat="45.4169" lon="5.90174">
        <ele>1852.829531708</ele>
        <time>2015-12-10T11:54:24Z</time>
      </trkpt>
      <trkpt lat="45.4169" lon="5.90174">
        <ele>1852.829531708</ele>
        <time>2015-12-10T11:54:29Z</time>
      </trkpt>
      <trkpt lat="45.41687" lon="5.90177">
        <ele>1851.413301015</ele>
        <time>2015-12-10T11:54:39Z</time>
      </trkpt>
      <trkpt lat="45.41683" lon="5.90181">
        <ele>1851.413301015</ele>
        <time>2015-12-10T11:54:44Z</time>
      </trkpt>
      <trkpt lat="45.41673" lon="5.9018">
        <ele>1850.293902792</ele>
        <time>2015-12-10T11:54:54Z</time>
      </trkpt>
      <trkpt lat="45.41672" lon="5.9018">
        <ele>1850.293902792</ele>
        <time>2015-12-10T11:54:59Z</time>
      </trkpt>
      <trkpt lat="45.41672" lon="5.90183">
        <ele>1850.293902792</ele>
        <time>2015-12-10T11:55:09Z</time>
      </trkpt>
      <trkpt lat="45.41669" lon="5.90188">
        <ele>1850.293902792</ele>
        <time>2015-12-10T11:55:14Z</time>
      </trkpt>
      <trkpt lat="45.41665" lon="5.90194">
        <ele>1848.410100673</ele>
        <time>2015-12-10T11:55:24Z</time>
      </trkpt>
      <trkpt lat="45.41663" lon="5.90199">
        <ele>1848.410100673</ele>
        <time>2015-12-10T11:55:29Z</time>
      </trkpt>
      <trkpt lat="45.41655" lon="5.90203">
        <ele>1846.723425735</ele>
        <time>2015-12-10T11:55:39Z</time>
      </trkpt>
      <trkpt lat="45.41655" lon="5.90204">
        <ele>1846.723425735</ele>
        <time>2015-12-10T11:55:44Z</time>
      </trkpt>
      <trkpt lat="45.41648" lon="5.90205">
        <ele>1846.723425735</ele>
        <time>2015-12-10T11:55:54Z</time>
      </trkpt>
      <trkpt lat="45.41644" lon="5.90207">
        <ele>1845.224368256</ele>
        <time>2015-12-10T11:55:59Z</time>
      </trkpt>
      <trkpt lat="45.41633" lon="5.90207">
        <ele>1843.607753519</ele>
        <time>2015-12-10T11:56:14Z</time>
      </trkpt>
      <trkpt lat="45.41631" lon="5.90207">
        <ele>1843.607753519</ele>
        <time>2015-12-10T11:56:19Z</time>
      </trkpt>
      <trkpt lat="45.41631" lon="5.90207">
        <ele>1843.607753519</ele>
        <time>2015-12-10T11:56:29Z</time>
      </trkpt>
      <trkpt lat="45.41631" lon="5.90207">
        <ele>1843.607753519</ele>
        <time>2015-12-10T11:56:34Z</time>
      </trkpt>
      <trkpt lat="45.41629" lon="5.90206">
        <ele>1843.607753519</ele>
        <time>2015-12-10T11:56:44Z</time>
      </trkpt>
      <trkpt lat="45.41629" lon="5.90205">
        <ele>1843.607753519</ele>
        <time>2015-12-10T11:56:49Z</time>
      </trkpt>
      <trkpt lat="45.41629" lon="5.90205">
        <ele>1843.607753519</ele>
        <time>2015-12-10T11:56:54Z</time>
      </trkpt>
      <trkpt lat="45.41629" lon="5.90205">
        <ele>1843.607753519</ele>
        <time>2015-12-10T11:56:59Z</time>
      </trkpt>
      <trkpt lat="45.41629" lon="5.90205">
        <ele>1843.607753519</ele>
        <time>2015-12-10T11:57:14Z</time>
      </trkpt>
      <trkpt lat="45.41629" lon="5.90205">
        <ele>1843.607753519</ele>
        <time>2015-12-10T11:57:19Z</time>
      </trkpt>
      <trkpt lat="45.41628" lon="5.90205">
        <ele>1843.607753519</ele>
        <time>2015-12-10T11:57:29Z</time>
      </trkpt>
      <trkpt lat="45.41628" lon="5.90205">
        <ele>1843.607753519</ele>
        <time>2015-12-10T11:57:34Z</time>
      </trkpt>
      <trkpt lat="45.41628" lon="5.90205">
        <ele>1843.607753519</ele>
        <time>2015-12-10T11:57:44Z</time>
      </trkpt>
      <trkpt lat="45.41628" lon="5.90205">
        <ele>1843.607753519</ele>
        <time>2015-12-10T11:57:49Z</time>
      </trkpt>
      <trkpt lat="45.41628" lon="5.90205">
        <ele>1843.607753519</ele>
        <time>2015-12-10T11:57:59Z</time>
      </trkpt>
      <trkpt lat="45.41628" lon="5.90205">
        <ele>1843.607753519</ele>
        <time>2015-12-10T11:58:04Z</time>
      </trkpt>
      <trkpt lat="45.41628" lon="5.90205">
        <ele>1843.607753519</ele>
        <time>2015-12-10T11:58:09Z</time>
      </trkpt>
      <trkpt lat="45.41629" lon="5.90205">
        <ele>1843.607753519</ele>
        <time>2015-12-10T11:58:14Z</time>
      </trkpt>
      <trkpt lat="45.41628" lon="5.90205">
        <ele>1843.607753519</ele>
        <time>2015-12-10T11:58:24Z</time>
      </trkpt>
      <trkpt lat="45.41628" lon="5.90205">
        <ele>1843.607753519</ele>
        <time>2015-12-10T11:58:29Z</time>
      </trkpt>
      <trkpt lat="45.41628" lon="5.90205">
        <ele>1843.607753519</ele>
        <time>2015-12-10T11:58:39Z</time>
      </trkpt>
      <trkpt lat="45.41628" lon="5.90205">
        <ele>1843.607753519</ele>
        <time>2015-12-10T11:58:44Z</time>
      </trkpt>
      <trkpt lat="45.41628" lon="5.90207">
        <ele>1842.478845788</ele>
        <time>2015-12-10T11:58:59Z</time>
      </trkpt>
      <trkpt lat="45.41627" lon="5.90212">
        <ele>1842.478845788</ele>
        <time>2015-12-10T11:59:04Z</time>
      </trkpt>
      <trkpt lat="45.41621" lon="5.90214">
        <ele>1840.919690511</ele>
        <time>2015-12-10T11:59:14Z</time>
      </trkpt>
      <trkpt lat="45.41618" lon="5.90219">
        <ele>1840.919690511</ele>
        <time>2015-12-10T11:59:19Z</time>
      </trkpt>
      <trkpt lat="45.41614" lon="5.9023">
        <ele>1839.410516514</ele>
        <time>2015-12-10T11:59:29Z</time>
      </trkpt>
      <trkpt lat="45.41612" lon="5.90229">
        <ele>1839.410516514</ele>
        <time>2015-12-10T11:59:34Z</time>
      </trkpt>
      <trkpt lat="45.41606" lon="5.90233">
        <ele>1839.410516514</ele>
        <time>2015-12-10T11:59:44Z</time>
      </trkpt>
      <trkpt lat="45.41601" lon="5.90232">
        <ele>1837.952093514</ele>
        <time>2015-12-10T11:59:49Z</time>
      </trkpt>
      <trkpt lat="45.41595" lon="5.90231">
        <ele>1837.952093514</ele>
        <time>2015-12-10T11:59:59Z</time>
      </trkpt>
      <trkpt lat="45.41589" lon="5.90232">
        <ele>1836.544785034</ele>
        <time>2015-12-10T12:00:04Z</time>
      </trkpt>
      <trkpt lat="45.41583" lon="5.90232">
        <ele>1836.544785034</ele>
        <time>2015-12-10T12:00:14Z</time>
      </trkpt>
      <trkpt lat="45.41582" lon="5.90231">
        <ele>1836.544785034</ele>
        <time>2015-12-10T12:00:19Z</time>
      </trkpt>
      <trkpt lat="45.41573" lon="5.90233">
        <ele>1835.18858659</ele>
        <time>2015-12-10T12:00:29Z</time>
      </trkpt>
      <trkpt lat="45.41571" lon="5.90236">
        <ele>1835.18858659</ele>
        <time>2015-12-10T12:00:34Z</time>
      </trkpt>
      <trkpt lat="45.41562" lon="5.90235">
        <ele>1834.320116425</ele>
        <time>2015-12-10T12:00:49Z</time>
      </trkpt>
      <trkpt lat="45.41558" lon="5.9024">
        <ele>1834.320116425</ele>
        <time>2015-12-10T12:00:54Z</time>
      </trkpt>
      <trkpt lat="45.41556" lon="5.90242">
        <ele>1834.320116425</ele>
        <time>2015-12-10T12:01:04Z</time>
      </trkpt>
      <trkpt lat="45.41556" lon="5.90242">
        <ele>1834.320116425</ele>
        <time>2015-12-10T12:01:09Z</time>
      </trkpt>
      <trkpt lat="45.41552" lon="5.90244">
        <ele>1832.740022179</ele>
        <time>2015-12-10T12:01:19Z</time>
      </trkpt>
      <trkpt lat="45.41549" lon="5.90244">
        <ele>1832.740022179</ele>
        <time>2015-12-10T12:01:24Z</time>
      </trkpt>
      <trkpt lat="45.41548" lon="5.90244">
        <ele>1832.740022179</ele>
        <time>2015-12-10T12:01:34Z</time>
      </trkpt>
      <trkpt lat="45.41548" lon="5.90244">
        <ele>1832.740022179</ele>
        <time>2015-12-10T12:01:39Z</time>
      </trkpt>
      <trkpt lat="45.41546" lon="5.90244">
        <ele>1832.740022179</ele>
        <time>2015-12-10T12:01:49Z</time>
      </trkpt>
      <trkpt lat="45.41545" lon="5.90241">
        <ele>1832.740022179</ele>
        <time>2015-12-10T12:01:54Z</time>
      </trkpt>
      <trkpt lat="45.41543" lon="5.90242">
        <ele>1830.79792001</ele>
        <time>2015-12-10T12:02:04Z</time>
      </trkpt>
      <trkpt lat="45.41542" lon="5.90242">
        <ele>1830.79792001</ele>
        <time>2015-12-10T12:02:09Z</time>
      </trkpt>
      <trkpt lat="45.41541" lon="5.90242">
        <ele>1830.79792001</ele>
        <time>2015-12-10T12:02:24Z</time>
      </trkpt>
      <trkpt lat="45.41541" lon="5.90242">
        <ele>1830.79792001</ele>
        <time>2015-12-10T12:02:29Z</time>
      </trkpt>
      <trkpt lat="45.41541" lon="5.90242">
        <ele>1830.79792001</ele>
        <time>2015-12-10T12:02:39Z</time>
      </trkpt>
      <trkpt lat="45.41541" lon="5.90242">
        <ele>1830.79792001</ele>
        <time>2015-12-10T12:02:44Z</time>
      </trkpt>
      <trkpt lat="45.41541" lon="5.90237">
        <ele>1830.79792001</ele>
        <time>2015-12-10T12:02:54Z</time>
      </trkpt>
      <trkpt lat="45.4154" lon="5.90233">
        <ele>1830.79792001</ele>
        <time>2015-12-10T12:02:59Z</time>
      </trkpt>
      <trkpt lat="45.4154" lon="5.90232">
        <ele>1829.251449371</ele>
        <time>2015-12-10T12:03:09Z</time>
      </trkpt>
      <trkpt lat="45.41538" lon="5.90231">
        <ele>1829.251449371</ele>
        <time>2015-12-10T12:03:14Z</time>
      </trkpt>
      <trkpt lat="45.41533" lon="5.90226">
        <ele>1829.251449371</ele>
        <time>2015-12-10T12:03:24Z</time>
      </trkpt>
      <trkpt lat="45.41533" lon="5.90225">
        <ele>1829.251449371</ele>
        <time>2015-12-10T12:03:29Z</time>
      </trkpt>
      <trkpt lat="45.41531" lon="5.90219">
        <ele>1827.928554265</ele>
        <time>2015-12-10T12:03:39Z</time>
      </trkpt>
      <trkpt lat="45.41525" lon="5.90214">
        <ele>1827.928554265</ele>
        <time>2015-12-10T12:03:44Z</time>
      </trkpt>
      <trkpt lat="45.41525" lon="5.90213">
        <ele>1827.928554265</ele>
        <time>2015-12-10T12:03:54Z</time>
      </trkpt>
      <trkpt lat="45.41526" lon="5.90213">
        <ele>1827.928554265</ele>
        <time>2015-12-10T12:03:59Z</time>
      </trkpt>
      <trkpt lat="45.41526" lon="5.90213">
        <ele>1827.928554265</ele>
        <time>2015-12-10T12:04:14Z</time>
      </trkpt>
      <trkpt lat="45.41526" lon="5.90213">
        <ele>1827.928554265</ele>
        <time>2015-12-10T12:04:19Z</time>
      </trkpt>
      <trkpt lat="45.41526" lon="5.90213">
        <ele>1827.928554265</ele>
        <time>2015-12-10T12:04:30Z</time>
      </trkpt>
      <trkpt lat="45.41526" lon="5.90212">
        <ele>1827.928554265</ele>
        <time>2015-12-10T12:04:35Z</time>
      </trkpt>
      <trkpt lat="45.41526" lon="5.90212">
        <ele>1827.928554265</ele>
        <time>2015-12-10T12:04:46Z</time>
      </trkpt>
      <trkpt lat="45.41525" lon="5.90211">
        <ele>1827.972481822</ele>
        <time>2015-12-10T12:04:49Z</time>
      </trkpt>
      <trkpt lat="45.4152" lon="5.90214">
        <ele>1827.972481822</ele>
        <time>2015-12-10T12:04:59Z</time>
      </trkpt>
      <trkpt lat="45.41519" lon="5.90215">
        <ele>1827.972481822</ele>
        <time>2015-12-10T12:05:04Z</time>
      </trkpt>
      <trkpt lat="45.41517" lon="5.90213">
        <ele>1827.972481822</ele>
        <time>2015-12-10T12:05:15Z</time>
      </trkpt>
      <trkpt lat="45.41515" lon="5.90212">
        <ele>1828.4103802</ele>
        <time>2015-12-10T12:05:19Z</time>
      </trkpt>
      <trkpt lat="45.41511" lon="5.90213">
        <ele>1828.4103802</ele>
        <time>2015-12-10T12:05:29Z</time>
      </trkpt>
      <trkpt lat="45.41511" lon="5.90213">
        <ele>1828.4103802</ele>
        <time>2015-12-10T12:05:34Z</time>
      </trkpt>
      <trkpt lat="45.41505" lon="5.90208">
        <ele>1829.209968699</ele>
        <time>2015-12-10T12:05:49Z</time>
      </trkpt>
      <trkpt lat="45.41499" lon="5.90207">
        <ele>1829.209968699</ele>
        <time>2015-12-10T12:06:04Z</time>
      </trkpt>
      <trkpt lat="45.41498" lon="5.90207">
        <ele>1829.209968699</ele>
        <time>2015-12-10T12:06:10Z</time>
      </trkpt>
      <trkpt lat="45.41498" lon="5.90206">
        <ele>1829.209968699</ele>
        <time>2015-12-10T12:06:20Z</time>
      </trkpt>
      <trkpt lat="45.41498" lon="5.90206">
        <ele>1829.209968699</ele>
        <time>2015-12-10T12:06:24Z</time>
      </trkpt>
      <trkpt lat="45.41493" lon="5.90208">
        <ele>1829.907077744</ele>
        <time>2015-12-10T12:06:35Z</time>
      </trkpt>
      <trkpt lat="45.41489" lon="5.90205">
        <ele>1829.907077744</ele>
        <time>2015-12-10T12:06:40Z</time>
      </trkpt>
      <trkpt lat="45.41485" lon="5.90202">
        <ele>1830.650129093</ele>
        <time>2015-12-10T12:06:49Z</time>
      </trkpt>
      <trkpt lat="45.41481" lon="5.90201">
        <ele>1830.650129093</ele>
        <time>2015-12-10T12:06:55Z</time>
      </trkpt>
      <trkpt lat="45.4148" lon="5.90205">
        <ele>1830.650129093</ele>
        <time>2015-12-10T12:07:04Z</time>
      </trkpt>
      <trkpt lat="45.41478" lon="5.90205">
        <ele>1830.650129093</ele>
        <time>2015-12-10T12:07:11Z</time>
      </trkpt>
      <trkpt lat="45.41475" lon="5.90205">
        <ele>1831.287439545</ele>
        <time>2015-12-10T12:07:19Z</time>
      </trkpt>
      <trkpt lat="45.41473" lon="5.90203">
        <ele>1831.287439545</ele>
        <time>2015-12-10T12:07:24Z</time>
      </trkpt>
      <trkpt lat="45.4147" lon="5.90204">
        <ele>1831.287439545</ele>
        <time>2015-12-10T12:07:34Z</time>
      </trkpt>
      <trkpt lat="45.41467" lon="5.90203">
        <ele>1831.287439545</ele>
        <time>2015-12-10T12:07:39Z</time>
      </trkpt>
      <trkpt lat="45.41459" lon="5.90211">
        <ele>1831.245993767</ele>
        <time>2015-12-10T12:07:54Z</time>
      </trkpt>
      <trkpt lat="45.41451" lon="5.90218">
        <ele>1831.245993767</ele>
        <time>2015-12-10T12:08:09Z</time>
      </trkpt>
      <trkpt lat="45.41449" lon="5.90218">
        <ele>1831.295096332</ele>
        <time>2015-12-10T12:08:14Z</time>
      </trkpt>
      <trkpt lat="45.41447" lon="5.9022">
        <ele>1831.295096332</ele>
        <time>2015-12-10T12:08:24Z</time>
      </trkpt>
      <trkpt lat="45.41447" lon="5.9022">
        <ele>1831.295096332</ele>
        <time>2015-12-10T12:08:29Z</time>
      </trkpt>
      <trkpt lat="45.41447" lon="5.9022">
        <ele>1831.295096332</ele>
        <time>2015-12-10T12:08:41Z</time>
      </trkpt>
      <trkpt lat="45.41447" lon="5.9022">
        <ele>1831.295096332</ele>
        <time>2015-12-10T12:08:44Z</time>
      </trkpt>
      <trkpt lat="45.41447" lon="5.9022">
        <ele>1831.295096332</ele>
        <time>2015-12-10T12:08:55Z</time>
      </trkpt>
      <trkpt lat="45.41447" lon="5.9022">
        <ele>1831.295096332</ele>
        <time>2015-12-10T12:09:00Z</time>
      </trkpt>
      <trkpt lat="45.4144" lon="5.90221">
        <ele>1831.281282977</ele>
        <time>2015-12-10T12:09:15Z</time>
      </trkpt>
      <trkpt lat="45.41435" lon="5.90222">
        <ele>1831.281282977</ele>
        <time>2015-12-10T12:09:30Z</time>
      </trkpt>
      <trkpt lat="45.41431" lon="5.90221">
        <ele>1830.629964048</ele>
        <time>2015-12-10T12:09:34Z</time>
      </trkpt>
      <trkpt lat="45.41431" lon="5.90221">
        <ele>1830.629964048</ele>
        <time>2015-12-10T12:09:44Z</time>
      </trkpt>
      <trkpt lat="45.4143" lon="5.90221">
        <ele>1830.629964048</ele>
        <time>2015-12-10T12:09:50Z</time>
      </trkpt>
      <trkpt lat="45.41427" lon="5.90221">
        <ele>1830.629964048</ele>
        <time>2015-12-10T12:10:00Z</time>
      </trkpt>
      <trkpt lat="45.41426" lon="5.90221">
        <ele>1830.629964048</ele>
        <time>2015-12-10T12:10:04Z</time>
      </trkpt>
      <trkpt lat="45.41416" lon="5.90215">
        <ele>1829.531489529</ele>
        <time>2015-12-10T12:10:15Z</time>
      </trkpt>
      <trkpt lat="45.41414" lon="5.90212">
        <ele>1829.531489529</ele>
        <time>2015-12-10T12:10:19Z</time>
      </trkpt>
      <trkpt lat="45.41411" lon="5.90205">
        <ele>1828.163293812</ele>
        <time>2015-12-10T12:10:35Z</time>
      </trkpt>
      <trkpt lat="45.41409" lon="5.902">
        <ele>1828.163293812</ele>
        <time>2015-12-10T12:10:39Z</time>
      </trkpt>
      <trkpt lat="45.41406" lon="5.90192">
        <ele>1826.546251968</ele>
        <time>2015-12-10T12:10:49Z</time>
      </trkpt>
      <trkpt lat="45.41402" lon="5.90188">
        <ele>1826.546251968</ele>
        <time>2015-12-10T12:10:55Z</time>
      </trkpt>
      <trkpt lat="45.41401" lon="5.90186">
        <ele>1826.546251968</ele>
        <time>2015-12-10T12:11:04Z</time>
      </trkpt>
      <trkpt lat="45.41401" lon="5.90185">
        <ele>1826.546251968</ele>
        <time>2015-12-10T12:11:09Z</time>
      </trkpt>
      <trkpt lat="45.41401" lon="5.90185">
        <ele>1826.546251968</ele>
        <time>2015-12-10T12:11:20Z</time>
      </trkpt>
      <trkpt lat="45.41401" lon="5.90185">
        <ele>1826.546251968</ele>
        <time>2015-12-10T12:11:24Z</time>
      </trkpt>
      <trkpt lat="45.41401" lon="5.90185">
        <ele>1826.546251968</ele>
        <time>2015-12-10T12:11:36Z</time>
      </trkpt>
      <trkpt lat="45.41401" lon="5.90185">
        <ele>1826.546251968</ele>
        <time>2015-12-10T12:11:40Z</time>
      </trkpt>
      <trkpt lat="45.41401" lon="5.90185">
        <ele>1826.546251968</ele>
        <time>2015-12-10T12:11:55Z</time>
      </trkpt>
      <trkpt lat="45.41401" lon="5.90185">
        <ele>1826.546251968</ele>
        <time>2015-12-10T12:11:59Z</time>
      </trkpt>
      <trkpt lat="45.41401" lon="5.90185">
        <ele>1826.546251968</ele>
        <time>2015-12-10T12:12:09Z</time>
      </trkpt>
      <trkpt lat="45.41401" lon="5.90185">
        <ele>1826.546251968</ele>
        <time>2015-12-10T12:12:25Z</time>
      </trkpt>
      <trkpt lat="45.41401" lon="5.90185">
        <ele>1826.546251968</ele>
        <time>2015-12-10T12:12:29Z</time>
      </trkpt>
      <trkpt lat="45.41401" lon="5.90185">
        <ele>1826.546251968</ele>
        <time>2015-12-10T12:12:39Z</time>
      </trkpt>
      <trkpt lat="45.41401" lon="5.90185">
        <ele>1826.546251968</ele>
        <time>2015-12-10T12:12:44Z</time>
      </trkpt>
      <trkpt lat="45.41401" lon="5.90185">
        <ele>1826.546251968</ele>
        <time>2015-12-10T12:12:54Z</time>
      </trkpt>
      <trkpt lat="45.41401" lon="5.90185">
        <ele>1826.546251968</ele>
        <time>2015-12-10T12:13:00Z</time>
      </trkpt>
      <trkpt lat="45.41401" lon="5.90185">
        <ele>1826.546251968</ele>
        <time>2015-12-10T12:13:09Z</time>
      </trkpt>
      <trkpt lat="45.41401" lon="5.90185">
        <ele>1826.546251968</ele>
        <time>2015-12-10T12:13:14Z</time>
      </trkpt>
      <trkpt lat="45.41401" lon="5.90185">
        <ele>1826.546251968</ele>
        <time>2015-12-10T12:13:24Z</time>
      </trkpt>
      <trkpt lat="45.41399" lon="5.90184">
        <ele>1825.277062848</ele>
        <time>2015-12-10T12:13:29Z</time>
      </trkpt>
      <trkpt lat="45.41393" lon="5.9018">
        <ele>1825.277062848</ele>
        <time>2015-12-10T12:13:39Z</time>
      </trkpt>
      <trkpt lat="45.41393" lon="5.90181">
        <ele>1825.277062848</ele>
        <time>2015-12-10T12:13:44Z</time>
      </trkpt>
      <trkpt lat="45.4139" lon="5.90181">
        <ele>1824.475065993</ele>
        <time>2015-12-10T12:13:59Z</time>
      </trkpt>
      <trkpt lat="45.41388" lon="5.90182">
        <ele>1824.475065993</ele>
        <time>2015-12-10T12:14:04Z</time>
      </trkpt>
      <trkpt lat="45.41382" lon="5.90188">
        <ele>1823.528544153</ele>
        <time>2015-12-10T12:14:14Z</time>
      </trkpt>
      <trkpt lat="45.41379" lon="5.9019">
        <ele>1823.528544153</ele>
        <time>2015-12-10T12:14:19Z</time>
      </trkpt>
      <trkpt lat="45.41371" lon="5.90197">
        <ele>1822.447812268</ele>
        <time>2015-12-10T12:14:29Z</time>
      </trkpt>
      <trkpt lat="45.41368" lon="5.90202">
        <ele>1822.447812268</ele>
        <time>2015-12-10T12:14:34Z</time>
      </trkpt>
      <trkpt lat="45.41365" lon="5.9021">
        <ele>1821.242770512</ele>
        <time>2015-12-10T12:14:44Z</time>
      </trkpt>
      <trkpt lat="45.41362" lon="5.90216">
        <ele>1821.242770512</ele>
        <time>2015-12-10T12:14:49Z</time>
      </trkpt>
      <trkpt lat="45.41351" lon="5.90216">
        <ele>1819.490255635</ele>
        <time>2015-12-10T12:14:59Z</time>
      </trkpt>
      <trkpt lat="45.4135" lon="5.90217">
        <ele>1819.490255635</ele>
        <time>2015-12-10T12:15:04Z</time>
      </trkpt>
      <trkpt lat="45.4135" lon="5.90219">
        <ele>1819.490255635</ele>
        <time>2015-12-10T12:15:14Z</time>
      </trkpt>
      <trkpt lat="45.41345" lon="5.90223">
        <ele>1819.490255635</ele>
        <time>2015-12-10T12:15:19Z</time>
      </trkpt>
      <trkpt lat="45.41337" lon="5.90227">
        <ele>1817.088103229</ele>
        <time>2015-12-10T12:15:29Z</time>
      </trkpt>
      <trkpt lat="45.41334" lon="5.9023">
        <ele>1817.088103229</ele>
        <time>2015-12-10T12:15:34Z</time>
      </trkpt>
      <trkpt lat="45.41324" lon="5.90232">
        <ele>1815.097312069</ele>
        <time>2015-12-10T12:15:44Z</time>
      </trkpt>
      <trkpt lat="45.4132" lon="5.90233">
        <ele>1815.097312069</ele>
        <time>2015-12-10T12:15:50Z</time>
      </trkpt>
      <trkpt lat="45.4132" lon="5.90232">
        <ele>1815.097312069</ele>
        <time>2015-12-10T12:16:00Z</time>
      </trkpt>
      <trkpt lat="45.41319" lon="5.90232">
        <ele>1815.097312069</ele>
        <time>2015-12-10T12:16:04Z</time>
      </trkpt>
      <trkpt lat="45.41319" lon="5.90233">
        <ele>1815.097312069</ele>
        <time>2015-12-10T12:16:15Z</time>
      </trkpt>
      <trkpt lat="45.41319" lon="5.90233">
        <ele>1815.097312069</ele>
        <time>2015-12-10T12:16:19Z</time>
      </trkpt>
      <trkpt lat="45.41319" lon="5.90233">
        <ele>1815.097312069</ele>
        <time>2015-12-10T12:16:34Z</time>
      </trkpt>
      <trkpt lat="45.41319" lon="5.90233">
        <ele>1815.097312069</ele>
        <time>2015-12-10T12:16:49Z</time>
      </trkpt>
      <trkpt lat="45.41319" lon="5.90235">
        <ele>1815.097312069</ele>
        <time>2015-12-10T12:17:00Z</time>
      </trkpt>
      <trkpt lat="45.41321" lon="5.90238">
        <ele>1813.634404805</ele>
        <time>2015-12-10T12:17:04Z</time>
      </trkpt>
      <trkpt lat="45.41318" lon="5.90242">
        <ele>1813.634404805</ele>
        <time>2015-12-10T12:17:09Z</time>
      </trkpt>
      <trkpt lat="45.4131" lon="5.90251">
        <ele>1812.084599031</ele>
        <time>2015-12-10T12:17:20Z</time>
      </trkpt>
      <trkpt lat="45.41309" lon="5.90254">
        <ele>1812.084599031</ele>
        <time>2015-12-10T12:17:24Z</time>
      </trkpt>
      <trkpt lat="45.41309" lon="5.90256">
        <ele>1812.084599031</ele>
        <time>2015-12-10T12:17:36Z</time>
      </trkpt>
      <trkpt lat="45.41309" lon="5.90256">
        <ele>1812.084599031</ele>
        <time>2015-12-10T12:17:39Z</time>
      </trkpt>
      <trkpt lat="45.41305" lon="5.90258">
        <ele>1812.084599031</ele>
        <time>2015-12-10T12:17:51Z</time>
      </trkpt>
      <trkpt lat="45.41302" lon="5.9026">
        <ele>1809.301485347</ele>
        <time>2015-12-10T12:17:54Z</time>
      </trkpt>
      <trkpt lat="45.41301" lon="5.9026">
        <ele>1809.301485347</ele>
        <time>2015-12-10T12:17:59Z</time>
      </trkpt>
      <trkpt lat="45.41297" lon="5.90261">
        <ele>1809.301485347</ele>
        <time>2015-12-10T12:18:11Z</time>
      </trkpt>
      <trkpt lat="45.41296" lon="5.90262">
        <ele>1809.301485347</ele>
        <time>2015-12-10T12:18:14Z</time>
      </trkpt>
      <trkpt lat="45.41289" lon="5.90261">
        <ele>1806.822735205</ele>
        <time>2015-12-10T12:18:24Z</time>
      </trkpt>
      <trkpt lat="45.41287" lon="5.90262">
        <ele>1806.822735205</ele>
        <time>2015-12-10T12:18:29Z</time>
      </trkpt>
      <trkpt lat="45.41277" lon="5.90269">
        <ele>1804.052668731</ele>
        <time>2015-12-10T12:18:40Z</time>
      </trkpt>
      <trkpt lat="45.41276" lon="5.9027">
        <ele>1804.052668731</ele>
        <time>2015-12-10T12:18:44Z</time>
      </trkpt>
      <trkpt lat="45.41274" lon="5.90271">
        <ele>1804.052668731</ele>
        <time>2015-12-10T12:18:49Z</time>
      </trkpt>
      <trkpt lat="45.41274" lon="5.90272">
        <ele>1804.052668731</ele>
        <time>2015-12-10T12:19:00Z</time>
      </trkpt>
      <trkpt lat="45.41274" lon="5.90272">
        <ele>1804.052668731</ele>
        <time>2015-12-10T12:19:04Z</time>
      </trkpt>
      <trkpt lat="45.41273" lon="5.90274">
        <ele>1804.052668731</ele>
        <time>2015-12-10T12:19:15Z</time>
      </trkpt>
      <trkpt lat="45.41272" lon="5.90272">
        <ele>1804.052668731</ele>
        <time>2015-12-10T12:19:19Z</time>
      </trkpt>
      <trkpt lat="45.41265" lon="5.90279">
        <ele>1801.449862592</ele>
        <time>2015-12-10T12:19:29Z</time>
      </trkpt>
      <trkpt lat="45.41262" lon="5.9028">
        <ele>1801.449862592</ele>
        <time>2015-12-10T12:19:34Z</time>
      </trkpt>
      <trkpt lat="45.41255" lon="5.90286">
        <ele>1798.140462688</ele>
        <time>2015-12-10T12:19:44Z</time>
      </trkpt>
      <trkpt lat="45.41252" lon="5.90287">
        <ele>1798.140462688</ele>
        <time>2015-12-10T12:19:49Z</time>
      </trkpt>
      <trkpt lat="45.41251" lon="5.90288">
        <ele>1798.140462688</ele>
        <time>2015-12-10T12:19:59Z</time>
      </trkpt>
      <trkpt lat="45.4125" lon="5.90288">
        <ele>1798.140462688</ele>
        <time>2015-12-10T12:20:04Z</time>
      </trkpt>
      <trkpt lat="45.41248" lon="5.90288">
        <ele>1798.140462688</ele>
        <time>2015-12-10T12:20:15Z</time>
      </trkpt>
      <trkpt lat="45.41246" lon="5.90287">
        <ele>1794.3264856</ele>
        <time>2015-12-10T12:20:19Z</time>
      </trkpt>
      <trkpt lat="45.41237" lon="5.90286">
        <ele>1794.3264856</ele>
        <time>2015-12-10T12:20:30Z</time>
      </trkpt>
      <trkpt lat="45.41237" lon="5.90285">
        <ele>1790.340640609</ele>
        <time>2015-12-10T12:20:34Z</time>
      </trkpt>
      <trkpt lat="45.41224" lon="5.90294">
        <ele>1787.35685743</ele>
        <time>2015-12-10T12:20:51Z</time>
      </trkpt>
      <trkpt lat="45.41224" lon="5.90294">
        <ele>1787.35685743</ele>
        <time>2015-12-10T12:20:54Z</time>
      </trkpt>
      <trkpt lat="45.41219" lon="5.90298">
        <ele>1787.35685743</ele>
        <time>2015-12-10T12:21:04Z</time>
      </trkpt>
      <trkpt lat="45.41218" lon="5.90298">
        <ele>1787.35685743</ele>
        <time>2015-12-10T12:21:10Z</time>
      </trkpt>
      <trkpt lat="45.41216" lon="5.90292">
        <ele>1784.152181878</ele>
        <time>2015-12-10T12:21:20Z</time>
      </trkpt>
      <trkpt lat="45.41212" lon="5.90293">
        <ele>1784.152181878</ele>
        <time>2015-12-10T12:21:24Z</time>
      </trkpt>
      <trkpt lat="45.41205" lon="5.90286">
        <ele>1780.603714959</ele>
        <time>2015-12-10T12:21:35Z</time>
      </trkpt>
      <trkpt lat="45.41204" lon="5.90285">
        <ele>1780.603714959</ele>
        <time>2015-12-10T12:21:40Z</time>
      </trkpt>
      <trkpt lat="45.41203" lon="5.90284">
        <ele>1780.603714959</ele>
        <time>2015-12-10T12:21:50Z</time>
      </trkpt>
      <trkpt lat="45.41203" lon="5.90283">
        <ele>1780.603714959</ele>
        <time>2015-12-10T12:21:54Z</time>
      </trkpt>
      <trkpt lat="45.41195" lon="5.90272">
        <ele>1777.17525967</ele>
        <time>2015-12-10T12:22:04Z</time>
      </trkpt>
      <trkpt lat="45.41194" lon="5.90271">
        <ele>1777.17525967</ele>
        <time>2015-12-10T12:22:09Z</time>
      </trkpt>
      <trkpt lat="45.41187" lon="5.90263">
        <ele>1774.584364738</ele>
        <time>2015-12-10T12:22:20Z</time>
      </trkpt>
      <trkpt lat="45.41186" lon="5.9026">
        <ele>1774.584364738</ele>
        <time>2015-12-10T12:22:24Z</time>
      </trkpt>
      <trkpt lat="45.41184" lon="5.90253">
        <ele>1774.584364738</ele>
        <time>2015-12-10T12:22:36Z</time>
      </trkpt>
      <trkpt lat="45.41184" lon="5.90252">
        <ele>1774.584364738</ele>
        <time>2015-12-10T12:22:39Z</time>
      </trkpt>
      <trkpt lat="45.41184" lon="5.90252">
        <ele>1774.584364738</ele>
        <time>2015-12-10T12:22:44Z</time>
      </trkpt>
      <trkpt lat="45.41184" lon="5.90254">
        <ele>1774.584364738</ele>
        <time>2015-12-10T12:22:54Z</time>
      </trkpt>
      <trkpt lat="45.41184" lon="5.90256">
        <ele>1773.060658789</ele>
        <time>2015-12-10T12:22:59Z</time>
      </trkpt>
      <trkpt lat="45.41182" lon="5.90254">
        <ele>1773.060658789</ele>
        <time>2015-12-10T12:23:09Z</time>
      </trkpt>
      <trkpt lat="45.41179" lon="5.90254">
        <ele>1773.060658789</ele>
        <time>2015-12-10T12:23:14Z</time>
      </trkpt>
      <trkpt lat="45.41169" lon="5.90256">
        <ele>1771.371919675</ele>
        <time>2015-12-10T12:23:24Z</time>
      </trkpt>
      <trkpt lat="45.41168" lon="5.90256">
        <ele>1771.371919675</ele>
        <time>2015-12-10T12:23:29Z</time>
      </trkpt>
      <trkpt lat="45.41158" lon="5.90255">
        <ele>1769.530427253</ele>
        <time>2015-12-10T12:23:39Z</time>
      </trkpt>
      <trkpt lat="45.41153" lon="5.90254">
        <ele>1769.530427253</ele>
        <time>2015-12-10T12:23:44Z</time>
      </trkpt>
      <trkpt lat="45.41146" lon="5.9026">
        <ele>1767.692031253</ele>
        <time>2015-12-10T12:23:54Z</time>
      </trkpt>
      <trkpt lat="45.41145" lon="5.90261">
        <ele>1767.692031253</ele>
        <time>2015-12-10T12:23:59Z</time>
      </trkpt>
      <trkpt lat="45.41139" lon="5.90265">
        <ele>1767.692031253</ele>
        <time>2015-12-10T12:24:09Z</time>
      </trkpt>
      <trkpt lat="45.41137" lon="5.90268">
        <ele>1765.568502387</ele>
        <time>2015-12-10T12:24:14Z</time>
      </trkpt>
      <trkpt lat="45.41129" lon="5.9027">
        <ele>1765.568502387</ele>
        <time>2015-12-10T12:24:24Z</time>
      </trkpt>
      <trkpt lat="45.41126" lon="5.90272">
        <ele>1763.902605476</ele>
        <time>2015-12-10T12:24:29Z</time>
      </trkpt>
      <trkpt lat="45.4112" lon="5.90273">
        <ele>1763.902605476</ele>
        <time>2015-12-10T12:24:40Z</time>
      </trkpt>
      <trkpt lat="45.4112" lon="5.90272">
        <ele>1763.902605476</ele>
        <time>2015-12-10T12:24:45Z</time>
      </trkpt>
      <trkpt lat="45.4112" lon="5.90273">
        <ele>1763.902605476</ele>
        <time>2015-12-10T12:24:49Z</time>
      </trkpt>
      <trkpt lat="45.41121" lon="5.90274">
        <ele>1763.902605476</ele>
        <time>2015-12-10T12:24:54Z</time>
      </trkpt>
      <trkpt lat="45.41122" lon="5.90274">
        <ele>1762.516152902</ele>
        <time>2015-12-10T12:24:59Z</time>
      </trkpt>
      <trkpt lat="45.41122" lon="5.90274">
        <ele>1762.516152902</ele>
        <time>2015-12-10T12:25:04Z</time>
      </trkpt>
      <trkpt lat="45.41121" lon="5.90274">
        <ele>1762.516152902</ele>
        <time>2015-12-10T12:25:09Z</time>
      </trkpt>
      <trkpt lat="45.41121" lon="5.90274">
        <ele>1762.516152902</ele>
        <time>2015-12-10T12:25:14Z</time>
      </trkpt>
      <trkpt lat="45.4112" lon="5.90274">
        <ele>1762.516152902</ele>
        <time>2015-12-10T12:25:24Z</time>
      </trkpt>
      <trkpt lat="45.4112" lon="5.90276">
        <ele>1762.516152902</ele>
        <time>2015-12-10T12:25:29Z</time>
      </trkpt>
      <trkpt lat="45.41121" lon="5.90277">
        <ele>1762.516152902</ele>
        <time>2015-12-10T12:25:39Z</time>
      </trkpt>
      <trkpt lat="45.41121" lon="5.90277">
        <ele>1762.516152902</ele>
        <time>2015-12-10T12:25:44Z</time>
      </trkpt>
      <trkpt lat="45.41121" lon="5.90277">
        <ele>1762.516152902</ele>
        <time>2015-12-10T12:25:54Z</time>
      </trkpt>
      <trkpt lat="45.4112" lon="5.9028">
        <ele>1762.516152902</ele>
        <time>2015-12-10T12:25:59Z</time>
      </trkpt>
      <trkpt lat="45.41119" lon="5.9028">
        <ele>1762.516152902</ele>
        <time>2015-12-10T12:26:09Z</time>
      </trkpt>
      <trkpt lat="45.41119" lon="5.9028">
        <ele>1762.516152902</ele>
        <time>2015-12-10T12:26:14Z</time>
      </trkpt>
      <trkpt lat="45.41119" lon="5.9028">
        <ele>1762.516152902</ele>
        <time>2015-12-10T12:26:24Z</time>
      </trkpt>
      <trkpt lat="45.41119" lon="5.9028">
        <ele>1762.516152902</ele>
        <time>2015-12-10T12:26:29Z</time>
      </trkpt>
      <trkpt lat="45.41119" lon="5.9028">
        <ele>1762.516152902</ele>
        <time>2015-12-10T12:26:44Z</time>
      </trkpt>
      <trkpt lat="45.41119" lon="5.9028">
        <ele>1762.516152902</ele>
        <time>2015-12-10T12:26:49Z</time>
      </trkpt>
      <trkpt lat="45.41119" lon="5.9028">
        <ele>1762.516152902</ele>
        <time>2015-12-10T12:26:59Z</time>
      </trkpt>
      <trkpt lat="45.41118" lon="5.9028">
        <ele>1762.516152902</ele>
        <time>2015-12-10T12:27:04Z</time>
      </trkpt>
      <trkpt lat="45.41118" lon="5.9028">
        <ele>1762.516152902</ele>
        <time>2015-12-10T12:27:14Z</time>
      </trkpt>
      <trkpt lat="45.41118" lon="5.9028">
        <ele>1762.516152902</ele>
        <time>2015-12-10T12:27:19Z</time>
      </trkpt>
      <trkpt lat="45.41118" lon="5.9028">
        <ele>1762.516152902</ele>
        <time>2015-12-10T12:27:29Z</time>
      </trkpt>
      <trkpt lat="45.41118" lon="5.9028">
        <ele>1762.516152902</ele>
        <time>2015-12-10T12:27:34Z</time>
      </trkpt>
      <trkpt lat="45.41118" lon="5.9028">
        <ele>1762.516152902</ele>
        <time>2015-12-10T12:27:44Z</time>
      </trkpt>
      <trkpt lat="45.41118" lon="5.9028">
        <ele>1762.516152902</ele>
        <time>2015-12-10T12:27:49Z</time>
      </trkpt>
      <trkpt lat="45.41118" lon="5.9028">
        <ele>1762.516152902</ele>
        <time>2015-12-10T12:27:59Z</time>
      </trkpt>
      <trkpt lat="45.41118" lon="5.9028">
        <ele>1762.516152902</ele>
        <time>2015-12-10T12:28:04Z</time>
      </trkpt>
      <trkpt lat="45.41118" lon="5.9028">
        <ele>1762.516152902</ele>
        <time>2015-12-10T12:28:14Z</time>
      </trkpt>
      <trkpt lat="45.41118" lon="5.9028">
        <ele>1762.516152902</ele>
        <time>2015-12-10T12:28:19Z</time>
      </trkpt>
      <trkpt lat="45.41118" lon="5.9028">
        <ele>1762.516152902</ele>
        <time>2015-12-10T12:28:29Z</time>
      </trkpt>
      <trkpt lat="45.41118" lon="5.9028">
        <ele>1762.516152902</ele>
        <time>2015-12-10T12:28:34Z</time>
      </trkpt>
      <trkpt lat="45.41118" lon="5.9028">
        <ele>1762.516152902</ele>
        <time>2015-12-10T12:28:49Z</time>
      </trkpt>
      <trkpt lat="45.41118" lon="5.9028">
        <ele>1762.516152902</ele>
        <time>2015-12-10T12:28:54Z</time>
      </trkpt>
      <trkpt lat="45.41118" lon="5.9028">
        <ele>1762.516152902</ele>
        <time>2015-12-10T12:29:04Z</time>
      </trkpt>
      <trkpt lat="45.41118" lon="5.9028">
        <ele>1762.516152902</ele>
        <time>2015-12-10T12:29:09Z</time>
      </trkpt>
      <trkpt lat="45.41118" lon="5.9028">
        <ele>1762.516152902</ele>
        <time>2015-12-10T12:29:19Z</time>
      </trkpt>
      <trkpt lat="45.41118" lon="5.9028">
        <ele>1762.516152902</ele>
        <time>2015-12-10T12:29:24Z</time>
      </trkpt>
      <trkpt lat="45.41118" lon="5.9028">
        <ele>1762.516152902</ele>
        <time>2015-12-10T12:29:34Z</time>
      </trkpt>
      <trkpt lat="45.41118" lon="5.9028">
        <ele>1762.516152902</ele>
        <time>2015-12-10T12:29:39Z</time>
      </trkpt>
      <trkpt lat="45.41118" lon="5.9028">
        <ele>1762.516152902</ele>
        <time>2015-12-10T12:29:49Z</time>
      </trkpt>
      <trkpt lat="45.41118" lon="5.9028">
        <ele>1762.516152902</ele>
        <time>2015-12-10T12:29:54Z</time>
      </trkpt>
      <trkpt lat="45.41118" lon="5.9028">
        <ele>1762.516152902</ele>
        <time>2015-12-10T12:30:04Z</time>
      </trkpt>
      <trkpt lat="45.41118" lon="5.9028">
        <ele>1762.516152902</ele>
        <time>2015-12-10T12:30:09Z</time>
      </trkpt>
      <trkpt lat="45.41118" lon="5.90279">
        <ele>1762.516152902</ele>
        <time>2015-12-10T12:30:24Z</time>
      </trkpt>
      <trkpt lat="45.41118" lon="5.90279">
        <ele>1762.516152902</ele>
        <time>2015-12-10T12:30:29Z</time>
      </trkpt>
      <trkpt lat="45.41118" lon="5.90279">
        <ele>1762.516152902</ele>
        <time>2015-12-10T12:30:39Z</time>
      </trkpt>
      <trkpt lat="45.41118" lon="5.90279">
        <ele>1762.516152902</ele>
        <time>2015-12-10T12:30:44Z</time>
      </trkpt>
      <trkpt lat="45.41118" lon="5.90279">
        <ele>1762.516152902</ele>
        <time>2015-12-10T12:30:54Z</time>
      </trkpt>
      <trkpt lat="45.41118" lon="5.90279">
        <ele>1762.516152902</ele>
        <time>2015-12-10T12:30:59Z</time>
      </trkpt>
      <trkpt lat="45.41118" lon="5.90279">
        <ele>1762.516152902</ele>
        <time>2015-12-10T12:31:09Z</time>
      </trkpt>
      <trkpt lat="45.41117" lon="5.90279">
        <ele>1762.516152902</ele>
        <time>2015-12-10T12:31:14Z</time>
      </trkpt>
      <trkpt lat="45.41118" lon="5.90274">
        <ele>1762.108063394</ele>
        <time>2015-12-10T12:31:24Z</time>
      </trkpt>
      <trkpt lat="45.41118" lon="5.90274">
        <ele>1762.108063394</ele>
        <time>2015-12-10T12:31:29Z</time>
      </trkpt>
      <trkpt lat="45.41118" lon="5.90274">
        <ele>1762.108063394</ele>
        <time>2015-12-10T12:31:39Z</time>
      </trkpt>
      <trkpt lat="45.41118" lon="5.90274">
        <ele>1762.108063394</ele>
        <time>2015-12-10T12:31:44Z</time>
      </trkpt>
      <trkpt lat="45.41115" lon="5.90281">
        <ele>1762.108063394</ele>
        <time>2015-12-10T12:31:54Z</time>
      </trkpt>
      <trkpt lat="45.41116" lon="5.90286">
        <ele>1761.305079348</ele>
        <time>2015-12-10T12:31:59Z</time>
      </trkpt>
      <trkpt lat="45.41111" lon="5.90291">
        <ele>1761.305079348</ele>
        <time>2015-12-10T12:32:10Z</time>
      </trkpt>
      <trkpt lat="45.41113" lon="5.90292">
        <ele>1761.305079348</ele>
        <time>2015-12-10T12:32:14Z</time>
      </trkpt>
      <trkpt lat="45.4111" lon="5.90294">
        <ele>1759.989107121</ele>
        <time>2015-12-10T12:32:25Z</time>
      </trkpt>
      <trkpt lat="45.41114" lon="5.90297">
        <ele>1759.989107121</ele>
        <time>2015-12-10T12:32:29Z</time>
      </trkpt>
      <trkpt lat="45.41116" lon="5.90304">
        <ele>1758.052120155</ele>
        <time>2015-12-10T12:32:40Z</time>
      </trkpt>
      <trkpt lat="45.41118" lon="5.90305">
        <ele>1758.052120155</ele>
        <time>2015-12-10T12:32:46Z</time>
      </trkpt>
      <trkpt lat="45.41116" lon="5.90309">
        <ele>1758.052120155</ele>
        <time>2015-12-10T12:32:59Z</time>
      </trkpt>
      <trkpt lat="45.41114" lon="5.90311">
        <ele>1758.052120155</ele>
        <time>2015-12-10T12:33:05Z</time>
      </trkpt>
      <trkpt lat="45.41114" lon="5.90313">
        <ele>1758.052120155</ele>
        <time>2015-12-10T12:33:15Z</time>
      </trkpt>
      <trkpt lat="45.41114" lon="5.90313">
        <ele>1758.052120155</ele>
        <time>2015-12-10T12:33:20Z</time>
      </trkpt>
      <trkpt lat="45.41114" lon="5.90313">
        <ele>1758.052120155</ele>
        <time>2015-12-10T12:33:35Z</time>
      </trkpt>
      <trkpt lat="45.41114" lon="5.90313">
        <ele>1758.052120155</ele>
        <time>2015-12-10T12:33:45Z</time>
      </trkpt>
      <trkpt lat="45.41114" lon="5.90313">
        <ele>1758.052120155</ele>
        <time>2015-12-10T12:33:50Z</time>
      </trkpt>
      <trkpt lat="45.41117" lon="5.90314">
        <ele>1755.539852712</ele>
        <time>2015-12-10T12:34:05Z</time>
      </trkpt>
      <trkpt lat="45.41116" lon="5.90315">
        <ele>1755.539852712</ele>
        <time>2015-12-10T12:34:10Z</time>
      </trkpt>
      <trkpt lat="45.41115" lon="5.90323">
        <ele>1755.539852712</ele>
        <time>2015-12-10T12:34:20Z</time>
      </trkpt>
      <trkpt lat="45.41117" lon="5.90327">
        <ele>1752.928609405</ele>
        <time>2015-12-10T12:34:25Z</time>
      </trkpt>
      <trkpt lat="45.41118" lon="5.9033">
        <ele>1752.928609405</ele>
        <time>2015-12-10T12:34:35Z</time>
      </trkpt>
      <trkpt lat="45.41119" lon="5.90339">
        <ele>1752.928609405</ele>
        <time>2015-12-10T12:34:40Z</time>
      </trkpt>
      <trkpt lat="45.41118" lon="5.90349">
        <ele>1750.948147314</ele>
        <time>2015-12-10T12:34:50Z</time>
      </trkpt>
      <trkpt lat="45.41117" lon="5.90352">
        <ele>1750.948147314</ele>
        <time>2015-12-10T12:34:55Z</time>
      </trkpt>
      <trkpt lat="45.41118" lon="5.9037">
        <ele>1748.25510822</ele>
        <time>2015-12-10T12:35:11Z</time>
      </trkpt>
      <trkpt lat="45.41118" lon="5.90375">
        <ele>1748.25510822</ele>
        <time>2015-12-10T12:35:14Z</time>
      </trkpt>
      <trkpt lat="45.41119" lon="5.90385">
        <ele>1746.777411909</ele>
        <time>2015-12-10T12:35:25Z</time>
      </trkpt>
      <trkpt lat="45.4112" lon="5.90389">
        <ele>1746.777411909</ele>
        <time>2015-12-10T12:35:30Z</time>
      </trkpt>
      <trkpt lat="45.41121" lon="5.90393">
        <ele>1746.777411909</ele>
        <time>2015-12-10T12:35:40Z</time>
      </trkpt>
      <trkpt lat="45.41122" lon="5.90396">
        <ele>1746.777411909</ele>
        <time>2015-12-10T12:35:45Z</time>
      </trkpt>
      <trkpt lat="45.41123" lon="5.9041">
        <ele>1744.118484508</ele>
        <time>2015-12-10T12:35:55Z</time>
      </trkpt>
      <trkpt lat="45.41125" lon="5.90409">
        <ele>1744.118484508</ele>
        <time>2015-12-10T12:36:00Z</time>
      </trkpt>
      <trkpt lat="45.41125" lon="5.90415">
        <ele>1744.118484508</ele>
        <time>2015-12-10T12:36:10Z</time>
      </trkpt>
      <trkpt lat="45.41126" lon="5.90424">
        <ele>1741.519899506</ele>
        <time>2015-12-10T12:36:14Z</time>
      </trkpt>
      <trkpt lat="45.41126" lon="5.90431">
        <ele>1741.519899506</ele>
        <time>2015-12-10T12:36:24Z</time>
      </trkpt>
      <trkpt lat="45.41127" lon="5.90434">
        <ele>1741.519899506</ele>
        <time>2015-12-10T12:36:30Z</time>
      </trkpt>
      <trkpt lat="45.41124" lon="5.90438">
        <ele>1738.402418771</ele>
        <time>2015-12-10T12:36:40Z</time>
      </trkpt>
      <trkpt lat="45.41122" lon="5.90441">
        <ele>1738.402418771</ele>
        <time>2015-12-10T12:36:45Z</time>
      </trkpt>
      <trkpt lat="45.41121" lon="5.90442">
        <ele>1738.402418771</ele>
        <time>2015-12-10T12:36:55Z</time>
      </trkpt>
      <trkpt lat="45.41121" lon="5.90442">
        <ele>1738.402418771</ele>
        <time>2015-12-10T12:36:59Z</time>
      </trkpt>
      <trkpt lat="45.41121" lon="5.90443">
        <ele>1738.402418771</ele>
        <time>2015-12-10T12:37:15Z</time>
      </trkpt>
      <trkpt lat="45.41121" lon="5.90443">
        <ele>1738.402418771</ele>
        <time>2015-12-10T12:37:20Z</time>
      </trkpt>
      <trkpt lat="45.4111" lon="5.90448">
        <ele>1734.230775975</ele>
        <time>2015-12-10T12:37:30Z</time>
      </trkpt>
      <trkpt lat="45.41106" lon="5.90451">
        <ele>1734.230775975</ele>
        <time>2015-12-10T12:37:35Z</time>
      </trkpt>
      <trkpt lat="45.41105" lon="5.90451">
        <ele>1734.230775975</ele>
        <time>2015-12-10T12:37:45Z</time>
      </trkpt>
      <trkpt lat="45.41099" lon="5.90451">
        <ele>1730.097173622</ele>
        <time>2015-12-10T12:37:50Z</time>
      </trkpt>
      <trkpt lat="45.41091" lon="5.9045">
        <ele>1730.097173622</ele>
        <time>2015-12-10T12:38:00Z</time>
      </trkpt>
      <trkpt lat="45.41089" lon="5.9045">
        <ele>1726.292842327</ele>
        <time>2015-12-10T12:38:05Z</time>
      </trkpt>
      <trkpt lat="45.41083" lon="5.90452">
        <ele>1726.292842327</ele>
        <time>2015-12-10T12:38:20Z</time>
      </trkpt>
      <trkpt lat="45.41073" lon="5.90456">
        <ele>1723.518964594</ele>
        <time>2015-12-10T12:38:34Z</time>
      </trkpt>
      <trkpt lat="45.41061" lon="5.90455">
        <ele>1720.981124335</ele>
        <time>2015-12-10T12:38:50Z</time>
      </trkpt>
      <trkpt lat="45.41054" lon="5.90457">
        <ele>1720.981124335</ele>
        <time>2015-12-10T12:38:55Z</time>
      </trkpt>
      <trkpt lat="45.41046" lon="5.90453">
        <ele>1718.951312381</ele>
        <time>2015-12-10T12:39:05Z</time>
      </trkpt>
      <trkpt lat="45.41044" lon="5.90454">
        <ele>1718.951312381</ele>
        <time>2015-12-10T12:39:10Z</time>
      </trkpt>
      <trkpt lat="45.41035" lon="5.90452">
        <ele>1717.535927687</ele>
        <time>2015-12-10T12:39:20Z</time>
      </trkpt>
      <trkpt lat="45.41035" lon="5.90452">
        <ele>1717.535927687</ele>
        <time>2015-12-10T12:39:25Z</time>
      </trkpt>
      <trkpt lat="45.41027" lon="5.90456">
        <ele>1715.822969341</ele>
        <time>2015-12-10T12:39:35Z</time>
      </trkpt>
      <trkpt lat="45.4102" lon="5.90456">
        <ele>1715.822969341</ele>
        <time>2015-12-10T12:39:40Z</time>
      </trkpt>
      <trkpt lat="45.41016" lon="5.90458">
        <ele>1713.976995326</ele>
        <time>2015-12-10T12:39:50Z</time>
      </trkpt>
      <trkpt lat="45.41015" lon="5.90458">
        <ele>1713.976995326</ele>
        <time>2015-12-10T12:39:55Z</time>
      </trkpt>
      <trkpt lat="45.41012" lon="5.9046">
        <ele>1713.976995326</ele>
        <time>2015-12-10T12:40:05Z</time>
      </trkpt>
      <trkpt lat="45.41005" lon="5.90462">
        <ele>1712.583139063</ele>
        <time>2015-12-10T12:40:10Z</time>
      </trkpt>
      <trkpt lat="45.41003" lon="5.90462">
        <ele>1712.583139063</ele>
        <time>2015-12-10T12:40:19Z</time>
      </trkpt>
      <trkpt lat="45.41" lon="5.90463">
        <ele>1712.583139063</ele>
        <time>2015-12-10T12:40:24Z</time>
      </trkpt>
      <trkpt lat="45.40999" lon="5.90467">
        <ele>1712.583139063</ele>
        <time>2015-12-10T12:40:39Z</time>
      </trkpt>
      <trkpt lat="45.40997" lon="5.90467">
        <ele>1711.173445011</ele>
        <time>2015-12-10T12:40:44Z</time>
      </trkpt>
      <trkpt lat="45.40997" lon="5.90467">
        <ele>1711.173445011</ele>
        <time>2015-12-10T12:40:49Z</time>
      </trkpt>
      <trkpt lat="45.40997" lon="5.90467">
        <ele>1711.173445011</ele>
        <time>2015-12-10T12:40:54Z</time>
      </trkpt>
      <trkpt lat="45.40991" lon="5.9047">
        <ele>1711.173445011</ele>
        <time>2015-12-10T12:41:04Z</time>
      </trkpt>
      <trkpt lat="45.40984" lon="5.90472">
        <ele>1710.034914369</ele>
        <time>2015-12-10T12:41:09Z</time>
      </trkpt>
      <trkpt lat="45.40975" lon="5.90488">
        <ele>1709.00034021</ele>
        <time>2015-12-10T12:41:19Z</time>
      </trkpt>
      <trkpt lat="45.40971" lon="5.90497">
        <ele>1709.00034021</ele>
        <time>2015-12-10T12:41:24Z</time>
      </trkpt>
      <trkpt lat="45.40965" lon="5.90496">
        <ele>1707.770379941</ele>
        <time>2015-12-10T12:41:35Z</time>
      </trkpt>
      <trkpt lat="45.40961" lon="5.90498">
        <ele>1707.770379941</ele>
        <time>2015-12-10T12:41:40Z</time>
      </trkpt>
      <trkpt lat="45.4096" lon="5.905">
        <ele>1707.770379941</ele>
        <time>2015-12-10T12:41:54Z</time>
      </trkpt>
      <trkpt lat="45.4096" lon="5.905">
        <ele>1707.770379941</ele>
        <time>2015-12-10T12:42:00Z</time>
      </trkpt>
      <trkpt lat="45.4096" lon="5.905">
        <ele>1707.770379941</ele>
        <time>2015-12-10T12:42:09Z</time>
      </trkpt>
      <trkpt lat="45.4096" lon="5.905">
        <ele>1707.770379941</ele>
        <time>2015-12-10T12:42:15Z</time>
      </trkpt>
      <trkpt lat="45.4096" lon="5.905">
        <ele>1707.770379941</ele>
        <time>2015-12-10T12:42:29Z</time>
      </trkpt>
      <trkpt lat="45.4096" lon="5.905">
        <ele>1707.770379941</ele>
        <time>2015-12-10T12:42:40Z</time>
      </trkpt>
      <trkpt lat="45.4096" lon="5.905">
        <ele>1707.770379941</ele>
        <time>2015-12-10T12:42:44Z</time>
      </trkpt>
      <trkpt lat="45.40959" lon="5.90499">
        <ele>1707.770379941</ele>
        <time>2015-12-10T12:42:49Z</time>
      </trkpt>
      <trkpt lat="45.40959" lon="5.90499">
        <ele>1707.770379941</ele>
        <time>2015-12-10T12:42:55Z</time>
      </trkpt>
      <trkpt lat="45.40959" lon="5.905">
        <ele>1707.770379941</ele>
        <time>2015-12-10T12:42:59Z</time>
      </trkpt>
      <trkpt lat="45.40959" lon="5.905">
        <ele>1707.770379941</ele>
        <time>2015-12-10T12:43:04Z</time>
      </trkpt>
      <trkpt lat="45.40959" lon="5.905">
        <ele>1707.770379941</ele>
        <time>2015-12-10T12:43:15Z</time>
      </trkpt>
      <trkpt lat="45.40959" lon="5.905">
        <ele>1707.770379941</ele>
        <time>2015-12-10T12:43:19Z</time>
      </trkpt>
      <trkpt lat="45.40959" lon="5.905">
        <ele>1707.770379941</ele>
        <time>2015-12-10T12:43:29Z</time>
      </trkpt>
      <trkpt lat="45.4096" lon="5.90504">
        <ele>1705.63588091</ele>
        <time>2015-12-10T12:43:35Z</time>
      </trkpt>
      <trkpt lat="45.4096" lon="5.90506">
        <ele>1705.63588091</ele>
        <time>2015-12-10T12:43:44Z</time>
      </trkpt>
      <trkpt lat="45.40959" lon="5.90506">
        <ele>1705.63588091</ele>
        <time>2015-12-10T12:43:49Z</time>
      </trkpt>
      <trkpt lat="45.40957" lon="5.90511">
        <ele>1705.63588091</ele>
        <time>2015-12-10T12:44:00Z</time>
      </trkpt>
      <trkpt lat="45.4095" lon="5.90516">
        <ele>1703.383473515</ele>
        <time>2015-12-10T12:44:05Z</time>
      </trkpt>
      <trkpt lat="45.40944" lon="5.90527">
        <ele>1701.886457513</ele>
        <time>2015-12-10T12:44:14Z</time>
      </trkpt>
      <trkpt lat="45.40942" lon="5.90534">
        <ele>1701.886457513</ele>
        <time>2015-12-10T12:44:20Z</time>
      </trkpt>
      <trkpt lat="45.40941" lon="5.90535">
        <ele>1701.886457513</ele>
        <time>2015-12-10T12:44:29Z</time>
      </trkpt>
      <trkpt lat="45.40941" lon="5.90535">
        <ele>1701.886457513</ele>
        <time>2015-12-10T12:44:35Z</time>
      </trkpt>
      <trkpt lat="45.40941" lon="5.90535">
        <ele>1701.886457513</ele>
        <time>2015-12-10T12:44:45Z</time>
      </trkpt>
      <trkpt lat="45.40941" lon="5.90535">
        <ele>1701.886457513</ele>
        <time>2015-12-10T12:44:49Z</time>
      </trkpt>
      <trkpt lat="45.40941" lon="5.90535">
        <ele>1701.886457513</ele>
        <time>2015-12-10T12:45:00Z</time>
      </trkpt>
      <trkpt lat="45.40941" lon="5.90535">
        <ele>1701.886457513</ele>
        <time>2015-12-10T12:45:04Z</time>
      </trkpt>
      <trkpt lat="45.40941" lon="5.90535">
        <ele>1701.886457513</ele>
        <time>2015-12-10T12:45:09Z</time>
      </trkpt>
      <trkpt lat="45.40941" lon="5.90535">
        <ele>1701.886457513</ele>
        <time>2015-12-10T12:45:14Z</time>
      </trkpt>
      <trkpt lat="45.40941" lon="5.90536">
        <ele>1701.886457513</ele>
        <time>2015-12-10T12:45:19Z</time>
      </trkpt>
      <trkpt lat="45.40941" lon="5.90536">
        <ele>1701.886457513</ele>
        <time>2015-12-10T12:45:25Z</time>
      </trkpt>
      <trkpt lat="45.40939" lon="5.9054">
        <ele>1700.22249371</ele>
        <time>2015-12-10T12:45:35Z</time>
      </trkpt>
      <trkpt lat="45.40937" lon="5.90546">
        <ele>1700.22249371</ele>
        <time>2015-12-10T12:45:40Z</time>
      </trkpt>
      <trkpt lat="45.40936" lon="5.90546">
        <ele>1700.22249371</ele>
        <time>2015-12-10T12:45:49Z</time>
      </trkpt>
      <trkpt lat="45.40937" lon="5.90552">
        <ele>1699.699206001</ele>
        <time>2015-12-10T12:45:54Z</time>
      </trkpt>
      <trkpt lat="45.40941" lon="5.90569">
        <ele>1698.786799285</ele>
        <time>2015-12-10T12:46:05Z</time>
      </trkpt>
      <trkpt lat="45.40944" lon="5.9058">
        <ele>1698.786799285</ele>
        <time>2015-12-10T12:46:09Z</time>
      </trkpt>
      <trkpt lat="45.40941" lon="5.90589">
        <ele>1697.510129981</ele>
        <time>2015-12-10T12:46:20Z</time>
      </trkpt>
      <trkpt lat="45.40941" lon="5.90596">
        <ele>1697.510129981</ele>
        <time>2015-12-10T12:46:25Z</time>
      </trkpt>
      <trkpt lat="45.4094" lon="5.90602">
        <ele>1696.181517559</ele>
        <time>2015-12-10T12:46:29Z</time>
      </trkpt>
      <trkpt lat="45.40941" lon="5.90612">
        <ele>1696.181517559</ele>
        <time>2015-12-10T12:46:40Z</time>
      </trkpt>
      <trkpt lat="45.4094" lon="5.90616">
        <ele>1695.234642649</ele>
        <time>2015-12-10T12:46:45Z</time>
      </trkpt>
      <trkpt lat="45.40941" lon="5.90617">
        <ele>1695.234642649</ele>
        <time>2015-12-10T12:46:54Z</time>
      </trkpt>
      <trkpt lat="45.40941" lon="5.90617">
        <ele>1695.234642649</ele>
        <time>2015-12-10T12:47:00Z</time>
      </trkpt>
      <trkpt lat="45.40941" lon="5.90617">
        <ele>1695.234642649</ele>
        <time>2015-12-10T12:47:14Z</time>
      </trkpt>
      <trkpt lat="45.40941" lon="5.90617">
        <ele>1695.234642649</ele>
        <time>2015-12-10T12:47:29Z</time>
      </trkpt>
      <trkpt lat="45.40941" lon="5.90617">
        <ele>1695.234642649</ele>
        <time>2015-12-10T12:47:45Z</time>
      </trkpt>
      <trkpt lat="45.40941" lon="5.90617">
        <ele>1695.234642649</ele>
        <time>2015-12-10T12:47:49Z</time>
      </trkpt>
      <trkpt lat="45.40942" lon="5.90616">
        <ele>1695.234642649</ele>
        <time>2015-12-10T12:47:54Z</time>
      </trkpt>
      <trkpt lat="45.40943" lon="5.90616">
        <ele>1695.234642649</ele>
        <time>2015-12-10T12:47:59Z</time>
      </trkpt>
      <trkpt lat="45.40944" lon="5.90615">
        <ele>1695.234642649</ele>
        <time>2015-12-10T12:48:04Z</time>
      </trkpt>
      <trkpt lat="45.40944" lon="5.90615">
        <ele>1695.234642649</ele>
        <time>2015-12-10T12:48:09Z</time>
      </trkpt>
      <trkpt lat="45.40943" lon="5.90616">
        <ele>1695.234642649</ele>
        <time>2015-12-10T12:48:14Z</time>
      </trkpt>
      <trkpt lat="45.40937" lon="5.90615">
        <ele>1694.493849339</ele>
        <time>2015-12-10T12:48:20Z</time>
      </trkpt>
      <trkpt lat="45.40933" lon="5.9061">
        <ele>1694.493849339</ele>
        <time>2015-12-10T12:48:25Z</time>
      </trkpt>
      <trkpt lat="45.40932" lon="5.9061">
        <ele>1694.493849339</ele>
        <time>2015-12-10T12:48:29Z</time>
      </trkpt>
      <trkpt lat="45.40922" lon="5.90605">
        <ele>1693.939979975</ele>
        <time>2015-12-10T12:48:40Z</time>
      </trkpt>
      <trkpt lat="45.40917" lon="5.90602">
        <ele>1693.939979975</ele>
        <time>2015-12-10T12:48:45Z</time>
      </trkpt>
      <trkpt lat="45.40913" lon="5.90596">
        <ele>1693.554825219</ele>
        <time>2015-12-10T12:48:54Z</time>
      </trkpt>
      <trkpt lat="45.4091" lon="5.90601">
        <ele>1693.554825219</ele>
        <time>2015-12-10T12:48:59Z</time>
      </trkpt>
      <trkpt lat="45.40902" lon="5.90613">
        <ele>1693.032886207</ele>
        <time>2015-12-10T12:49:09Z</time>
      </trkpt>
      <trkpt lat="45.40901" lon="5.90623">
        <ele>1693.032886207</ele>
        <time>2015-12-10T12:49:15Z</time>
      </trkpt>
      <trkpt lat="45.40897" lon="5.90628">
        <ele>1691.082776273</ele>
        <time>2015-12-10T12:49:25Z</time>
      </trkpt>
      <trkpt lat="45.40892" lon="5.90634">
        <ele>1691.082776273</ele>
        <time>2015-12-10T12:49:29Z</time>
      </trkpt>
      <trkpt lat="45.40891" lon="5.90633">
        <ele>1691.082776273</ele>
        <time>2015-12-10T12:49:40Z</time>
      </trkpt>
      <trkpt lat="45.40889" lon="5.90632">
        <ele>1689.538447377</ele>
        <time>2015-12-10T12:49:44Z</time>
      </trkpt>
      <trkpt lat="45.40889" lon="5.90631">
        <ele>1689.538447377</ele>
        <time>2015-12-10T12:49:49Z</time>
      </trkpt>
      <trkpt lat="45.40884" lon="5.90633">
        <ele>1689.538447377</ele>
        <time>2015-12-10T12:49:59Z</time>
      </trkpt>
      <trkpt lat="45.4088" lon="5.90631">
        <ele>1687.936369579</ele>
        <time>2015-12-10T12:50:04Z</time>
      </trkpt>
      <trkpt lat="45.40864" lon="5.90638">
        <ele>1686.856100378</ele>
        <time>2015-12-10T12:50:19Z</time>
      </trkpt>
      <trkpt lat="45.40861" lon="5.9064">
        <ele>1686.856100378</ele>
        <time>2015-12-10T12:50:24Z</time>
      </trkpt>
      <trkpt lat="45.40853" lon="5.90644">
        <ele>1686.400900524</ele>
        <time>2015-12-10T12:50:34Z</time>
      </trkpt>
      <trkpt lat="45.40852" lon="5.90645">
        <ele>1686.400900524</ele>
        <time>2015-12-10T12:50:39Z</time>
      </trkpt>
      <trkpt lat="45.40848" lon="5.90647">
        <ele>1686.400900524</ele>
        <time>2015-12-10T12:50:49Z</time>
      </trkpt>
      <trkpt lat="45.40843" lon="5.90648">
        <ele>1685.800100143</ele>
        <time>2015-12-10T12:50:54Z</time>
      </trkpt>
      <trkpt lat="45.40835" lon="5.90653">
        <ele>1685.493039662</ele>
        <time>2015-12-10T12:51:05Z</time>
      </trkpt>
      <trkpt lat="45.40831" lon="5.90655">
        <ele>1685.493039662</ele>
        <time>2015-12-10T12:51:09Z</time>
      </trkpt>
      <trkpt lat="45.40823" lon="5.90659">
        <ele>1685.165491257</ele>
        <time>2015-12-10T12:51:19Z</time>
      </trkpt>
      <trkpt lat="45.40822" lon="5.90659">
        <ele>1685.165491257</ele>
        <time>2015-12-10T12:51:24Z</time>
      </trkpt>
      <trkpt lat="45.40816" lon="5.90662">
        <ele>1685.165491257</ele>
        <time>2015-12-10T12:51:34Z</time>
      </trkpt>
      <trkpt lat="45.40811" lon="5.90665">
        <ele>1685.679363681</ele>
        <time>2015-12-10T12:51:40Z</time>
      </trkpt>
      <trkpt lat="45.40806" lon="5.90674">
        <ele>1685.679363681</ele>
        <time>2015-12-10T12:51:49Z</time>
      </trkpt>
      <trkpt lat="45.40803" lon="5.90678">
        <ele>1685.957539092</ele>
        <time>2015-12-10T12:51:54Z</time>
      </trkpt>
      <trkpt lat="45.40799" lon="5.90679">
        <ele>1685.957539092</ele>
        <time>2015-12-10T12:52:05Z</time>
      </trkpt>
      <trkpt lat="45.408" lon="5.90681">
        <ele>1685.957539092</ele>
        <time>2015-12-10T12:52:09Z</time>
      </trkpt>
      <trkpt lat="45.40799" lon="5.90688">
        <ele>1686.011584995</ele>
        <time>2015-12-10T12:52:14Z</time>
      </trkpt>
      <trkpt lat="45.40795" lon="5.90692">
        <ele>1686.011584995</ele>
        <time>2015-12-10T12:52:20Z</time>
      </trkpt>
      <trkpt lat="45.40793" lon="5.90692">
        <ele>1686.011584995</ele>
        <time>2015-12-10T12:52:25Z</time>
      </trkpt>
      <trkpt lat="45.40793" lon="5.90692">
        <ele>1686.011584995</ele>
        <time>2015-12-10T12:52:29Z</time>
      </trkpt>
      <trkpt lat="45.40797" lon="5.90703">
        <ele>1685.997080842</ele>
        <time>2015-12-10T12:52:40Z</time>
      </trkpt>
      <trkpt lat="45.40797" lon="5.90709">
        <ele>1685.997080842</ele>
        <time>2015-12-10T12:52:45Z</time>
      </trkpt>
      <trkpt lat="45.40792" lon="5.90713">
        <ele>1685.626162061</ele>
        <time>2015-12-10T12:52:54Z</time>
      </trkpt>
      <trkpt lat="45.4079" lon="5.90713">
        <ele>1685.626162061</ele>
        <time>2015-12-10T12:53:00Z</time>
      </trkpt>
      <trkpt lat="45.40789" lon="5.90712">
        <ele>1685.626162061</ele>
        <time>2015-12-10T12:53:10Z</time>
      </trkpt>
      <trkpt lat="45.40789" lon="5.90712">
        <ele>1685.626162061</ele>
        <time>2015-12-10T12:53:14Z</time>
      </trkpt>
      <trkpt lat="45.4079" lon="5.90709">
        <ele>1685.626162061</ele>
        <time>2015-12-10T12:53:24Z</time>
      </trkpt>
      <trkpt lat="45.4079" lon="5.90708">
        <ele>1685.626162061</ele>
        <time>2015-12-10T12:53:29Z</time>
      </trkpt>
      <trkpt lat="45.4079" lon="5.90707">
        <ele>1685.626162061</ele>
        <time>2015-12-10T12:53:39Z</time>
      </trkpt>
      <trkpt lat="45.4079" lon="5.90707">
        <ele>1685.626162061</ele>
        <time>2015-12-10T12:53:45Z</time>
      </trkpt>
      <trkpt lat="45.4079" lon="5.90708">
        <ele>1685.626162061</ele>
        <time>2015-12-10T12:53:54Z</time>
      </trkpt>
      <trkpt lat="45.40787" lon="5.90708">
        <ele>1685.209688044</ele>
        <time>2015-12-10T12:54:00Z</time>
      </trkpt>
      <trkpt lat="45.40787" lon="5.90714">
        <ele>1685.209688044</ele>
        <time>2015-12-10T12:54:10Z</time>
      </trkpt>
      <trkpt lat="45.40786" lon="5.90718">
        <ele>1685.209688044</ele>
        <time>2015-12-10T12:54:14Z</time>
      </trkpt>
      <trkpt lat="45.40782" lon="5.90724">
        <ele>1684.747720085</ele>
        <time>2015-12-10T12:54:25Z</time>
      </trkpt>
      <trkpt lat="45.40782" lon="5.90724">
        <ele>1684.747720085</ele>
        <time>2015-12-10T12:54:29Z</time>
      </trkpt>
      <trkpt lat="45.40781" lon="5.90725">
        <ele>1684.747720085</ele>
        <time>2015-12-10T12:54:34Z</time>
      </trkpt>
      <trkpt lat="45.40781" lon="5.90727">
        <ele>1684.747720085</ele>
        <time>2015-12-10T12:54:45Z</time>
      </trkpt>
      <trkpt lat="45.40781" lon="5.90727">
        <ele>1684.747720085</ele>
        <time>2015-12-10T12:54:49Z</time>
      </trkpt>
      <trkpt lat="45.40784" lon="5.9073">
        <ele>1684.747720085</ele>
        <time>2015-12-10T12:54:59Z</time>
      </trkpt>
      <trkpt lat="45.40783" lon="5.90734">
        <ele>1684.240575915</ele>
        <time>2015-12-10T12:55:05Z</time>
      </trkpt>
      <trkpt lat="45.40783" lon="5.90734">
        <ele>1684.240575915</ele>
        <time>2015-12-10T12:55:14Z</time>
      </trkpt>
      <trkpt lat="45.40783" lon="5.90735">
        <ele>1684.240575915</ele>
        <time>2015-12-10T12:55:19Z</time>
      </trkpt>
      <trkpt lat="45.40785" lon="5.90741">
        <ele>1684.240575915</ele>
        <time>2015-12-10T12:55:30Z</time>
      </trkpt>
      <trkpt lat="45.40785" lon="5.90746">
        <ele>1683.400585842</ele>
        <time>2015-12-10T12:55:34Z</time>
      </trkpt>
      <trkpt lat="45.40788" lon="5.90748">
        <ele>1683.400585842</ele>
        <time>2015-12-10T12:55:45Z</time>
      </trkpt>
      <trkpt lat="45.40788" lon="5.90751">
        <ele>1683.400585842</ele>
        <time>2015-12-10T12:55:50Z</time>
      </trkpt>
      <trkpt lat="45.4079" lon="5.90756">
        <ele>1682.394609052</ele>
        <time>2015-12-10T12:55:59Z</time>
      </trkpt>
      <trkpt lat="45.40792" lon="5.90765">
        <ele>1682.394609052</ele>
        <time>2015-12-10T12:56:05Z</time>
      </trkpt>
      <trkpt lat="45.40792" lon="5.90776">
        <ele>1681.377837802</ele>
        <time>2015-12-10T12:56:14Z</time>
      </trkpt>
      <trkpt lat="45.40792" lon="5.90777">
        <ele>1681.377837802</ele>
        <time>2015-12-10T12:56:19Z</time>
      </trkpt>
      <trkpt lat="45.40793" lon="5.90789">
        <ele>1680.782437194</ele>
        <time>2015-12-10T12:56:29Z</time>
      </trkpt>
      <trkpt lat="45.40791" lon="5.90796">
        <ele>1680.782437194</ele>
        <time>2015-12-10T12:56:34Z</time>
      </trkpt>
      <trkpt lat="45.40789" lon="5.90805">
        <ele>1679.710757574</ele>
        <time>2015-12-10T12:56:44Z</time>
      </trkpt>
      <trkpt lat="45.40789" lon="5.90811">
        <ele>1679.710757574</ele>
        <time>2015-12-10T12:56:50Z</time>
      </trkpt>
      <trkpt lat="45.40792" lon="5.90815">
        <ele>1679.710757574</ele>
        <time>2015-12-10T12:57:04Z</time>
      </trkpt>
      <trkpt lat="45.40797" lon="5.90825">
        <ele>1678.341313909</ele>
        <time>2015-12-10T12:57:19Z</time>
      </trkpt>
      <trkpt lat="45.40802" lon="5.90831">
        <ele>1678.341313909</ele>
        <time>2015-12-10T12:57:25Z</time>
      </trkpt>
      <trkpt lat="45.40802" lon="5.90844">
        <ele>1676.696333666</ele>
        <time>2015-12-10T12:57:34Z</time>
      </trkpt>
      <trkpt lat="45.40803" lon="5.90848">
        <ele>1676.696333666</ele>
        <time>2015-12-10T12:57:39Z</time>
      </trkpt>
      <trkpt lat="45.4081" lon="5.90856">
        <ele>1674.797277999</ele>
        <time>2015-12-10T12:57:50Z</time>
      </trkpt>
      <trkpt lat="45.40812" lon="5.9086">
        <ele>1674.797277999</ele>
        <time>2015-12-10T12:57:54Z</time>
      </trkpt>
      <trkpt lat="45.40816" lon="5.90864">
        <ele>1672.66482717</ele>
        <time>2015-12-10T12:58:05Z</time>
      </trkpt>
      <trkpt lat="45.40821" lon="5.90868">
        <ele>1672.66482717</ele>
        <time>2015-12-10T12:58:10Z</time>
      </trkpt>
      <trkpt lat="45.40826" lon="5.90878">
        <ele>1670.895313461</ele>
        <time>2015-12-10T12:58:24Z</time>
      </trkpt>
      <trkpt lat="45.40832" lon="5.9089">
        <ele>1669.607972131</ele>
        <time>2015-12-10T12:58:39Z</time>
      </trkpt>
      <trkpt lat="45.40838" lon="5.90902">
        <ele>1668.04731052</ele>
        <time>2015-12-10T12:58:54Z</time>
      </trkpt>
      <trkpt lat="45.40839" lon="5.90907">
        <ele>1668.04731052</ele>
        <time>2015-12-10T12:58:59Z</time>
      </trkpt>
      <trkpt lat="45.40844" lon="5.90915">
        <ele>1666.378810551</ele>
        <time>2015-12-10T12:59:10Z</time>
      </trkpt>
      <trkpt lat="45.40849" lon="5.90921">
        <ele>1666.378810551</ele>
        <time>2015-12-10T12:59:14Z</time>
      </trkpt>
      <trkpt lat="45.40853" lon="5.90926">
        <ele>1664.467912858</ele>
        <time>2015-12-10T12:59:25Z</time>
      </trkpt>
      <trkpt lat="45.40854" lon="5.90927">
        <ele>1664.467912858</ele>
        <time>2015-12-10T12:59:30Z</time>
      </trkpt>
      <trkpt lat="45.40854" lon="5.90929">
        <ele>1664.467912858</ele>
        <time>2015-12-10T12:59:39Z</time>
      </trkpt>
      <trkpt lat="45.40854" lon="5.9093">
        <ele>1664.467912858</ele>
        <time>2015-12-10T12:59:44Z</time>
      </trkpt>
      <trkpt lat="45.40855" lon="5.9093">
        <ele>1664.467912858</ele>
        <time>2015-12-10T12:59:55Z</time>
      </trkpt>
      <trkpt lat="45.40855" lon="5.90931">
        <ele>1664.467912858</ele>
        <time>2015-12-10T12:59:59Z</time>
      </trkpt>
      <trkpt lat="45.40855" lon="5.90931">
        <ele>1664.467912858</ele>
        <time>2015-12-10T13:00:09Z</time>
      </trkpt>
      <trkpt lat="45.40855" lon="5.90931">
        <ele>1664.467912858</ele>
        <time>2015-12-10T13:00:15Z</time>
      </trkpt>
      <trkpt lat="45.40855" lon="5.90931">
        <ele>1664.467912858</ele>
        <time>2015-12-10T13:00:19Z</time>
      </trkpt>
      <trkpt lat="45.40855" lon="5.90931">
        <ele>1664.467912858</ele>
        <time>2015-12-10T13:00:30Z</time>
      </trkpt>
      <trkpt lat="45.40855" lon="5.90931">
        <ele>1664.467912858</ele>
        <time>2015-12-10T13:00:44Z</time>
      </trkpt>
      <trkpt lat="45.40861" lon="5.90927">
        <ele>1663.055318289</ele>
        <time>2015-12-10T13:00:50Z</time>
      </trkpt>
      <trkpt lat="45.40865" lon="5.9093">
        <ele>1663.055318289</ele>
        <time>2015-12-10T13:00:59Z</time>
      </trkpt>
      <trkpt lat="45.40864" lon="5.90932">
        <ele>1663.055318289</ele>
        <time>2015-12-10T13:01:05Z</time>
      </trkpt>
      <trkpt lat="45.40864" lon="5.90933">
        <ele>1663.055318289</ele>
        <time>2015-12-10T13:01:15Z</time>
      </trkpt>
      <trkpt lat="45.40864" lon="5.90933">
        <ele>1663.055318289</ele>
        <time>2015-12-10T13:01:19Z</time>
      </trkpt>
      <trkpt lat="45.40869" lon="5.90929">
        <ele>1662.105384374</ele>
        <time>2015-12-10T13:01:30Z</time>
      </trkpt>
      <trkpt lat="45.40869" lon="5.9093">
        <ele>1662.105384374</ele>
        <time>2015-12-10T13:01:34Z</time>
      </trkpt>
      <trkpt lat="45.4087" lon="5.9093">
        <ele>1662.105384374</ele>
        <time>2015-12-10T13:01:50Z</time>
      </trkpt>
      <trkpt lat="45.4087" lon="5.9093">
        <ele>1662.105384374</ele>
        <time>2015-12-10T13:01:55Z</time>
      </trkpt>
      <trkpt lat="45.4087" lon="5.9093">
        <ele>1662.105384374</ele>
        <time>2015-12-10T13:02:05Z</time>
      </trkpt>
      <trkpt lat="45.4087" lon="5.9093">
        <ele>1662.105384374</ele>
        <time>2015-12-10T13:02:10Z</time>
      </trkpt>
      <trkpt lat="45.4087" lon="5.9093">
        <ele>1662.105384374</ele>
        <time>2015-12-10T13:02:14Z</time>
      </trkpt>
      <trkpt lat="45.4087" lon="5.9093">
        <ele>1662.105384374</ele>
        <time>2015-12-10T13:02:25Z</time>
      </trkpt>
      <trkpt lat="45.4087" lon="5.9093">
        <ele>1662.105384374</ele>
        <time>2015-12-10T13:02:30Z</time>
      </trkpt>
      <trkpt lat="45.40868" lon="5.90934">
        <ele>1662.105384374</ele>
        <time>2015-12-10T13:02:39Z</time>
      </trkpt>
      <trkpt lat="45.40866" lon="5.90939">
        <ele>1662.105384374</ele>
        <time>2015-12-10T13:02:44Z</time>
      </trkpt>
      <trkpt lat="45.40873" lon="5.90949">
        <ele>1660.719138386</ele>
        <time>2015-12-10T13:02:54Z</time>
      </trkpt>
      <trkpt lat="45.40874" lon="5.90951">
        <ele>1660.719138386</ele>
        <time>2015-12-10T13:02:59Z</time>
      </trkpt>
      <trkpt lat="45.40875" lon="5.9095">
        <ele>1660.719138386</ele>
        <time>2015-12-10T13:03:10Z</time>
      </trkpt>
      <trkpt lat="45.40875" lon="5.90952">
        <ele>1660.719138386</ele>
        <time>2015-12-10T13:03:15Z</time>
      </trkpt>
      <trkpt lat="45.40875" lon="5.90953">
        <ele>1660.719138386</ele>
        <time>2015-12-10T13:03:24Z</time>
      </trkpt>
      <trkpt lat="45.40876" lon="5.90953">
        <ele>1660.719138386</ele>
        <time>2015-12-10T13:03:30Z</time>
      </trkpt>
      <trkpt lat="45.40879" lon="5.90964">
        <ele>1659.217772415</ele>
        <time>2015-12-10T13:03:39Z</time>
      </trkpt>
      <trkpt lat="45.40881" lon="5.90967">
        <ele>1659.217772415</ele>
        <time>2015-12-10T13:03:44Z</time>
      </trkpt>
      <trkpt lat="45.40882" lon="5.90968">
        <ele>1659.217772415</ele>
        <time>2015-12-10T13:03:55Z</time>
      </trkpt>
      <trkpt lat="45.40883" lon="5.90971">
        <ele>1659.217772415</ele>
        <time>2015-12-10T13:03:59Z</time>
      </trkpt>
      <trkpt lat="45.4089" lon="5.90989">
        <ele>1658.187439814</ele>
        <time>2015-12-10T13:04:12Z</time>
      </trkpt>
      <trkpt lat="45.4089" lon="5.9099">
        <ele>1658.187439814</ele>
        <time>2015-12-10T13:04:15Z</time>
      </trkpt>
      <trkpt lat="45.4089" lon="5.9099">
        <ele>1658.187439814</ele>
        <time>2015-12-10T13:04:19Z</time>
      </trkpt>
      <trkpt lat="45.40893" lon="5.90994">
        <ele>1658.187439814</ele>
        <time>2015-12-10T13:04:30Z</time>
      </trkpt>
      <trkpt lat="45.40894" lon="5.90997">
        <ele>1658.187439814</ele>
        <time>2015-12-10T13:04:34Z</time>
      </trkpt>
      <trkpt lat="45.40897" lon="5.91">
        <ele>1657.305254952</ele>
        <time>2015-12-10T13:04:44Z</time>
      </trkpt>
      <trkpt lat="45.40898" lon="5.91">
        <ele>1657.305254952</ele>
        <time>2015-12-10T13:04:49Z</time>
      </trkpt>
      <trkpt lat="45.40899" lon="5.91">
        <ele>1657.305254952</ele>
        <time>2015-12-10T13:04:54Z</time>
      </trkpt>
      <trkpt lat="45.40899" lon="5.91">
        <ele>1657.305254952</ele>
        <time>2015-12-10T13:04:59Z</time>
      </trkpt>
      <trkpt lat="45.40899" lon="5.91">
        <ele>1657.305254952</ele>
        <time>2015-12-10T13:05:04Z</time>
      </trkpt>
      <trkpt lat="45.40899" lon="5.91">
        <ele>1657.305254952</ele>
        <time>2015-12-10T13:05:10Z</time>
      </trkpt>
      <trkpt lat="45.40899" lon="5.91">
        <ele>1657.305254952</ele>
        <time>2015-12-10T13:05:19Z</time>
      </trkpt>
      <trkpt lat="45.40899" lon="5.91">
        <ele>1657.305254952</ele>
        <time>2015-12-10T13:05:24Z</time>
      </trkpt>
      <trkpt lat="45.40899" lon="5.91">
        <ele>1657.305254952</ele>
        <time>2015-12-10T13:05:34Z</time>
      </trkpt>
      <trkpt lat="45.40899" lon="5.91">
        <ele>1657.305254952</ele>
        <time>2015-12-10T13:05:39Z</time>
      </trkpt>
      <trkpt lat="45.40899" lon="5.91">
        <ele>1657.305254952</ele>
        <time>2015-12-10T13:05:49Z</time>
      </trkpt>
      <trkpt lat="45.40899" lon="5.91">
        <ele>1657.305254952</ele>
        <time>2015-12-10T13:05:55Z</time>
      </trkpt>
      <trkpt lat="45.40908" lon="5.91008">
        <ele>1656.559865387</ele>
        <time>2015-12-10T13:06:10Z</time>
      </trkpt>
      <trkpt lat="45.40912" lon="5.91009">
        <ele>1656.559865387</ele>
        <time>2015-12-10T13:06:20Z</time>
      </trkpt>
      <trkpt lat="45.40913" lon="5.91011">
        <ele>1656.559865387</ele>
        <time>2015-12-10T13:06:24Z</time>
      </trkpt>
      <trkpt lat="45.4092" lon="5.91024">
        <ele>1654.931595914</ele>
        <time>2015-12-10T13:06:35Z</time>
      </trkpt>
      <trkpt lat="45.40924" lon="5.91029">
        <ele>1654.931595914</ele>
        <time>2015-12-10T13:06:40Z</time>
      </trkpt>
      <trkpt lat="45.40928" lon="5.91033">
        <ele>1653.639827034</ele>
        <time>2015-12-10T13:06:44Z</time>
      </trkpt>
      <trkpt lat="45.40933" lon="5.91043">
        <ele>1653.639827034</ele>
        <time>2015-12-10T13:06:55Z</time>
      </trkpt>
      <trkpt lat="45.40936" lon="5.91045">
        <ele>1653.092868869</ele>
        <time>2015-12-10T13:07:00Z</time>
      </trkpt>
      <trkpt lat="45.40943" lon="5.91051">
        <ele>1653.092868869</ele>
        <time>2015-12-10T13:07:10Z</time>
      </trkpt>
      <trkpt lat="45.40945" lon="5.91055">
        <ele>1652.802285601</ele>
        <time>2015-12-10T13:07:15Z</time>
      </trkpt>
      <trkpt lat="45.40943" lon="5.91058">
        <ele>1652.802285601</ele>
        <time>2015-12-10T13:07:24Z</time>
      </trkpt>
      <trkpt lat="45.40943" lon="5.91057">
        <ele>1652.802285601</ele>
        <time>2015-12-10T13:07:30Z</time>
      </trkpt>
      <trkpt lat="45.4094" lon="5.91059">
        <ele>1652.802285601</ele>
        <time>2015-12-10T13:07:40Z</time>
      </trkpt>
      <trkpt lat="45.40941" lon="5.9106">
        <ele>1652.802285601</ele>
        <time>2015-12-10T13:07:44Z</time>
      </trkpt>
      <trkpt lat="45.40942" lon="5.91068">
        <ele>1652.026586049</ele>
        <time>2015-12-10T13:07:55Z</time>
      </trkpt>
      <trkpt lat="45.40941" lon="5.91068">
        <ele>1652.026586049</ele>
        <time>2015-12-10T13:08:00Z</time>
      </trkpt>
      <trkpt lat="45.40941" lon="5.91068">
        <ele>1652.026586049</ele>
        <time>2015-12-10T13:08:16Z</time>
      </trkpt>
      <trkpt lat="45.40941" lon="5.91068">
        <ele>1652.026586049</ele>
        <time>2015-12-10T13:08:19Z</time>
      </trkpt>
      <trkpt lat="45.40941" lon="5.91069">
        <ele>1652.026586049</ele>
        <time>2015-12-10T13:08:30Z</time>
      </trkpt>
      <trkpt lat="45.40941" lon="5.91069">
        <ele>1652.026586049</ele>
        <time>2015-12-10T13:08:35Z</time>
      </trkpt>
      <trkpt lat="45.40941" lon="5.91069">
        <ele>1652.026586049</ele>
        <time>2015-12-10T13:08:44Z</time>
      </trkpt>
      <trkpt lat="45.40941" lon="5.91069">
        <ele>1652.026586049</ele>
        <time>2015-12-10T13:08:49Z</time>
      </trkpt>
      <trkpt lat="45.40941" lon="5.91069">
        <ele>1652.026586049</ele>
        <time>2015-12-10T13:09:00Z</time>
      </trkpt>
      <trkpt lat="45.40941" lon="5.91069">
        <ele>1652.026586049</ele>
        <time>2015-12-10T13:09:04Z</time>
      </trkpt>
      <trkpt lat="45.40954" lon="5.91067">
        <ele>1651.377119624</ele>
        <time>2015-12-10T13:09:15Z</time>
      </trkpt>
      <trkpt lat="45.40956" lon="5.91067">
        <ele>1651.377119624</ele>
        <time>2015-12-10T13:09:20Z</time>
      </trkpt>
      <trkpt lat="45.40958" lon="5.91068">
        <ele>1651.377119624</ele>
        <time>2015-12-10T13:09:31Z</time>
      </trkpt>
      <trkpt lat="45.40958" lon="5.91068">
        <ele>1651.377119624</ele>
        <time>2015-12-10T13:09:34Z</time>
      </trkpt>
      <trkpt lat="45.40964" lon="5.91076">
        <ele>1651.419985419</ele>
        <time>2015-12-10T13:09:44Z</time>
      </trkpt>
      <trkpt lat="45.40964" lon="5.9108">
        <ele>1651.419985419</ele>
        <time>2015-12-10T13:09:50Z</time>
      </trkpt>
      <trkpt lat="45.40967" lon="5.91083">
        <ele>1651.419985419</ele>
        <time>2015-12-10T13:10:00Z</time>
      </trkpt>
      <trkpt lat="45.40967" lon="5.91089">
        <ele>1651.092548506</ele>
        <time>2015-12-10T13:10:04Z</time>
      </trkpt>
      <trkpt lat="45.4097" lon="5.911">
        <ele>1651.092548506</ele>
        <time>2015-12-10T13:10:14Z</time>
      </trkpt>
      <trkpt lat="45.40973" lon="5.91104">
        <ele>1650.131849883</ele>
        <time>2015-12-10T13:10:20Z</time>
      </trkpt>
      <trkpt lat="45.40973" lon="5.91108">
        <ele>1650.131849883</ele>
        <time>2015-12-10T13:10:35Z</time>
      </trkpt>
      <trkpt lat="45.40973" lon="5.91108">
        <ele>1650.131849883</ele>
        <time>2015-12-10T13:10:39Z</time>
      </trkpt>
      <trkpt lat="45.40973" lon="5.91108">
        <ele>1650.131849883</ele>
        <time>2015-12-10T13:10:50Z</time>
      </trkpt>
      <trkpt lat="45.40973" lon="5.91108">
        <ele>1650.131849883</ele>
        <time>2015-12-10T13:10:55Z</time>
      </trkpt>
      <trkpt lat="45.40973" lon="5.91108">
        <ele>1650.131849883</ele>
        <time>2015-12-10T13:11:04Z</time>
      </trkpt>
      <trkpt lat="45.40973" lon="5.91108">
        <ele>1650.131849883</ele>
        <time>2015-12-10T13:11:09Z</time>
      </trkpt>
      <trkpt lat="45.40973" lon="5.91108">
        <ele>1650.131849883</ele>
        <time>2015-12-10T13:11:20Z</time>
      </trkpt>
      <trkpt lat="45.40973" lon="5.91108">
        <ele>1650.131849883</ele>
        <time>2015-12-10T13:11:24Z</time>
      </trkpt>
      <trkpt lat="45.40973" lon="5.91108">
        <ele>1650.131849883</ele>
        <time>2015-12-10T13:11:35Z</time>
      </trkpt>
      <trkpt lat="45.40973" lon="5.91108">
        <ele>1650.131849883</ele>
        <time>2015-12-10T13:11:40Z</time>
      </trkpt>
      <trkpt lat="45.40973" lon="5.91109">
        <ele>1650.131849883</ele>
        <time>2015-12-10T13:11:49Z</time>
      </trkpt>
      <trkpt lat="45.40974" lon="5.9111">
        <ele>1650.131849883</ele>
        <time>2015-12-10T13:11:54Z</time>
      </trkpt>
      <trkpt lat="45.40974" lon="5.9111">
        <ele>1650.131849883</ele>
        <time>2015-12-10T13:12:04Z</time>
      </trkpt>
      <trkpt lat="45.40974" lon="5.9111">
        <ele>1650.131849883</ele>
        <time>2015-12-10T13:12:09Z</time>
      </trkpt>
      <trkpt lat="45.40976" lon="5.9111">
        <ele>1650.131849883</ele>
        <time>2015-12-10T13:12:20Z</time>
      </trkpt>
      <trkpt lat="45.40977" lon="5.9111">
        <ele>1650.131849883</ele>
        <time>2015-12-10T13:12:24Z</time>
      </trkpt>
      <trkpt lat="45.40979" lon="5.91112">
        <ele>1649.593048608</ele>
        <time>2015-12-10T13:12:35Z</time>
      </trkpt>
      <trkpt lat="45.40979" lon="5.91112">
        <ele>1649.593048608</ele>
        <time>2015-12-10T13:12:39Z</time>
      </trkpt>
      <trkpt lat="45.40977" lon="5.91119">
        <ele>1649.593048608</ele>
        <time>2015-12-10T13:12:56Z</time>
      </trkpt>
      <trkpt lat="45.40979" lon="5.9112">
        <ele>1649.593048608</ele>
        <time>2015-12-10T13:13:00Z</time>
      </trkpt>
      <trkpt lat="45.40978" lon="5.91125">
        <ele>1649.011522533</ele>
        <time>2015-12-10T13:13:09Z</time>
      </trkpt>
      <trkpt lat="45.40978" lon="5.91126">
        <ele>1649.011522533</ele>
        <time>2015-12-10T13:13:15Z</time>
      </trkpt>
      <trkpt lat="45.40978" lon="5.91127">
        <ele>1649.011522533</ele>
        <time>2015-12-10T13:13:24Z</time>
      </trkpt>
      <trkpt lat="45.40978" lon="5.91131">
        <ele>1649.011522533</ele>
        <time>2015-12-10T13:13:29Z</time>
      </trkpt>
      <trkpt lat="45.40979" lon="5.91135">
        <ele>1649.011522533</ele>
        <time>2015-12-10T13:13:40Z</time>
      </trkpt>
      <trkpt lat="45.40979" lon="5.91138">
        <ele>1648.677484193</ele>
        <time>2015-12-10T13:13:45Z</time>
      </trkpt>
      <trkpt lat="45.4098" lon="5.9114">
        <ele>1648.677484193</ele>
        <time>2015-12-10T13:13:54Z</time>
      </trkpt>
      <trkpt lat="45.4098" lon="5.91144">
        <ele>1648.677484193</ele>
        <time>2015-12-10T13:14:00Z</time>
      </trkpt>
      <trkpt lat="45.4098" lon="5.91144">
        <ele>1648.677484193</ele>
        <time>2015-12-10T13:14:09Z</time>
      </trkpt>
      <trkpt lat="45.40985" lon="5.9115">
        <ele>1648.282717482</ele>
        <time>2015-12-10T13:14:15Z</time>
      </trkpt>
      <trkpt lat="45.40988" lon="5.91161">
        <ele>1648.282717482</ele>
        <time>2015-12-10T13:14:25Z</time>
      </trkpt>
      <trkpt lat="45.40989" lon="5.91162">
        <ele>1648.550629346</ele>
        <time>2015-12-10T13:14:29Z</time>
      </trkpt>
      <trkpt lat="45.40989" lon="5.91165">
        <ele>1648.550629346</ele>
        <time>2015-12-10T13:14:40Z</time>
      </trkpt>
      <trkpt lat="45.40988" lon="5.91166">
        <ele>1648.550629346</ele>
        <time>2015-12-10T13:14:45Z</time>
      </trkpt>
      <trkpt lat="45.40989" lon="5.91166">
        <ele>1648.550629346</ele>
        <time>2015-12-10T13:15:00Z</time>
      </trkpt>
      <trkpt lat="45.40992" lon="5.91163">
        <ele>1648.550629346</ele>
        <time>2015-12-10T13:15:15Z</time>
      </trkpt>
      <trkpt lat="45.41007" lon="5.91152">
        <ele>1648.564439989</ele>
        <time>2015-12-10T13:15:29Z</time>
      </trkpt>
      <trkpt lat="45.41008" lon="5.91151">
        <ele>1648.564439989</ele>
        <time>2015-12-10T13:15:41Z</time>
      </trkpt>
      <trkpt lat="45.41009" lon="5.9115">
        <ele>1648.564439989</ele>
        <time>2015-12-10T13:15:45Z</time>
      </trkpt>
      <trkpt lat="45.4101" lon="5.91146">
        <ele>1648.564439989</ele>
        <time>2015-12-10T13:15:49Z</time>
      </trkpt>
      <trkpt lat="45.41018" lon="5.91132">
        <ele>1648.196025326</ele>
        <time>2015-12-10T13:16:00Z</time>
      </trkpt>
      <trkpt lat="45.41018" lon="5.91124">
        <ele>1648.196025326</ele>
        <time>2015-12-10T13:16:05Z</time>
      </trkpt>
      <trkpt lat="45.41018" lon="5.9112">
        <ele>1648.196025326</ele>
        <time>2015-12-10T13:16:14Z</time>
      </trkpt>
      <trkpt lat="45.41019" lon="5.9112">
        <ele>1648.336569145</ele>
        <time>2015-12-10T13:16:20Z</time>
      </trkpt>
      <trkpt lat="45.41024" lon="5.91122">
        <ele>1648.336569145</ele>
        <time>2015-12-10T13:16:29Z</time>
      </trkpt>
      <trkpt lat="45.41025" lon="5.91125">
        <ele>1648.336569145</ele>
        <time>2015-12-10T13:16:34Z</time>
      </trkpt>
      <trkpt lat="45.41024" lon="5.91133">
        <ele>1648.22518777</ele>
        <time>2015-12-10T13:16:45Z</time>
      </trkpt>
      <trkpt lat="45.41022" lon="5.91137">
        <ele>1648.22518777</ele>
        <time>2015-12-10T13:16:49Z</time>
      </trkpt>
      <trkpt lat="45.41024" lon="5.91149">
        <ele>1648.022317883</ele>
        <time>2015-12-10T13:17:01Z</time>
      </trkpt>
      <trkpt lat="45.41025" lon="5.91152">
        <ele>1648.022317883</ele>
        <time>2015-12-10T13:17:05Z</time>
      </trkpt>
      <trkpt lat="45.41025" lon="5.91156">
        <ele>1648.022317883</ele>
        <time>2015-12-10T13:17:09Z</time>
      </trkpt>
      <trkpt lat="45.41027" lon="5.91171">
        <ele>1648.021033586</ele>
        <time>2015-12-10T13:17:20Z</time>
      </trkpt>
      <trkpt lat="45.41028" lon="5.91171">
        <ele>1648.021033586</ele>
        <time>2015-12-10T13:17:25Z</time>
      </trkpt>
      <trkpt lat="45.41028" lon="5.91173">
        <ele>1648.021033586</ele>
        <time>2015-12-10T13:17:34Z</time>
      </trkpt>
      <trkpt lat="45.41027" lon="5.91177">
        <ele>1648.021033586</ele>
        <time>2015-12-10T13:17:40Z</time>
      </trkpt>
      <trkpt lat="45.41023" lon="5.91187">
        <ele>1648.204150271</ele>
        <time>2015-12-10T13:17:50Z</time>
      </trkpt>
      <trkpt lat="45.41022" lon="5.91191">
        <ele>1648.204150271</ele>
        <time>2015-12-10T13:17:54Z</time>
      </trkpt>
      <trkpt lat="45.41026" lon="5.91198">
        <ele>1648.699401115</ele>
        <time>2015-12-10T13:18:05Z</time>
      </trkpt>
      <trkpt lat="45.41026" lon="5.91208">
        <ele>1648.699401115</ele>
        <time>2015-12-10T13:18:09Z</time>
      </trkpt>
      <trkpt lat="45.41025" lon="5.91213">
        <ele>1649.047880988</ele>
        <time>2015-12-10T13:18:21Z</time>
      </trkpt>
      <trkpt lat="45.41025" lon="5.91218">
        <ele>1649.047880988</ele>
        <time>2015-12-10T13:18:24Z</time>
      </trkpt>
      <trkpt lat="45.41026" lon="5.91224">
        <ele>1649.047880988</ele>
        <time>2015-12-10T13:18:34Z</time>
      </trkpt>
      <trkpt lat="45.41029" lon="5.91229">
        <ele>1649.54543308</ele>
        <time>2015-12-10T13:18:40Z</time>
      </trkpt>
      <trkpt lat="45.41026" lon="5.91243">
        <ele>1650.754048048</ele>
        <time>2015-12-10T13:18:50Z</time>
      </trkpt>
      <trkpt lat="45.41026" lon="5.91245">
        <ele>1650.754048048</ele>
        <time>2015-12-10T13:18:54Z</time>
      </trkpt>
      <trkpt lat="45.41027" lon="5.9125">
        <ele>1650.754048048</ele>
        <time>2015-12-10T13:19:05Z</time>
      </trkpt>
      <trkpt lat="45.41027" lon="5.91252">
        <ele>1650.754048048</ele>
        <time>2015-12-10T13:19:09Z</time>
      </trkpt>
      <trkpt lat="45.41026" lon="5.91254">
        <ele>1650.754048048</ele>
        <time>2015-12-10T13:19:20Z</time>
      </trkpt>
      <trkpt lat="45.41028" lon="5.91264">
        <ele>1651.607297295</ele>
        <time>2015-12-10T13:19:25Z</time>
      </trkpt>
      <trkpt lat="45.41024" lon="5.91273">
        <ele>1651.607297295</ele>
        <time>2015-12-10T13:19:34Z</time>
      </trkpt>
      <trkpt lat="45.41023" lon="5.91276">
        <ele>1652.271065771</ele>
        <time>2015-12-10T13:19:40Z</time>
      </trkpt>
      <trkpt lat="45.41017" lon="5.91285">
        <ele>1652.271065771</ele>
        <time>2015-12-10T13:19:50Z</time>
      </trkpt>
      <trkpt lat="45.41017" lon="5.91285">
        <ele>1652.899678153</ele>
        <time>2015-12-10T13:19:54Z</time>
      </trkpt>
      <trkpt lat="45.41016" lon="5.91286">
        <ele>1652.899678153</ele>
        <time>2015-12-10T13:20:05Z</time>
      </trkpt>
      <trkpt lat="45.41016" lon="5.91286">
        <ele>1652.899678153</ele>
        <time>2015-12-10T13:20:09Z</time>
      </trkpt>
      <trkpt lat="45.41016" lon="5.91286">
        <ele>1652.899678153</ele>
        <time>2015-12-10T13:20:14Z</time>
      </trkpt>
      <trkpt lat="45.41016" lon="5.91286">
        <ele>1652.899678153</ele>
        <time>2015-12-10T13:20:25Z</time>
      </trkpt>
      <trkpt lat="45.41016" lon="5.91286">
        <ele>1652.899678153</ele>
        <time>2015-12-10T13:20:30Z</time>
      </trkpt>
      <trkpt lat="45.41018" lon="5.91286">
        <ele>1652.899678153</ele>
        <time>2015-12-10T13:20:39Z</time>
      </trkpt>
      <trkpt lat="45.41018" lon="5.91286">
        <ele>1652.899678153</ele>
        <time>2015-12-10T13:20:45Z</time>
      </trkpt>
      <trkpt lat="45.41018" lon="5.91286">
        <ele>1652.899678153</ele>
        <time>2015-12-10T13:20:54Z</time>
      </trkpt>
      <trkpt lat="45.41018" lon="5.91286">
        <ele>1652.899678153</ele>
        <time>2015-12-10T13:20:59Z</time>
      </trkpt>
      <trkpt lat="45.41018" lon="5.91286">
        <ele>1652.899678153</ele>
        <time>2015-12-10T13:21:09Z</time>
      </trkpt>
      <trkpt lat="45.41019" lon="5.91286">
        <ele>1652.899678153</ele>
        <time>2015-12-10T13:21:14Z</time>
      </trkpt>
      <trkpt lat="45.41026" lon="5.91281">
        <ele>1654.068654643</ele>
        <time>2015-12-10T13:21:25Z</time>
      </trkpt>
      <trkpt lat="45.41027" lon="5.91276">
        <ele>1654.068654643</ele>
        <time>2015-12-10T13:21:30Z</time>
      </trkpt>
      <trkpt lat="45.41028" lon="5.91273">
        <ele>1654.068654643</ele>
        <time>2015-12-10T13:21:39Z</time>
      </trkpt>
      <trkpt lat="45.4103" lon="5.91269">
        <ele>1654.86871488</ele>
        <time>2015-12-10T13:21:45Z</time>
      </trkpt>
      <trkpt lat="45.41032" lon="5.91248">
        <ele>1655.61140628</ele>
        <time>2015-12-10T13:22:00Z</time>
      </trkpt>
      <trkpt lat="45.41032" lon="5.9124">
        <ele>1655.61140628</ele>
        <time>2015-12-10T13:22:04Z</time>
      </trkpt>
      <trkpt lat="45.41029" lon="5.91233">
        <ele>1655.865106216</ele>
        <time>2015-12-10T13:22:14Z</time>
      </trkpt>
      <trkpt lat="45.41029" lon="5.91232">
        <ele>1655.865106216</ele>
        <time>2015-12-10T13:22:19Z</time>
      </trkpt>
      <trkpt lat="45.41033" lon="5.91217">
        <ele>1655.951938393</ele>
        <time>2015-12-10T13:22:30Z</time>
      </trkpt>
      <trkpt lat="45.41036" lon="5.9121">
        <ele>1655.951938393</ele>
        <time>2015-12-10T13:22:34Z</time>
      </trkpt>
      <trkpt lat="45.41035" lon="5.91201">
        <ele>1656.026831189</ele>
        <time>2015-12-10T13:22:45Z</time>
      </trkpt>
      <trkpt lat="45.41034" lon="5.91198">
        <ele>1656.026831189</ele>
        <time>2015-12-10T13:22:50Z</time>
      </trkpt>
      <trkpt lat="45.41033" lon="5.91194">
        <ele>1656.026831189</ele>
        <time>2015-12-10T13:22:59Z</time>
      </trkpt>
      <trkpt lat="45.4103" lon="5.91187">
        <ele>1656.08936218</ele>
        <time>2015-12-10T13:23:04Z</time>
      </trkpt>
      <trkpt lat="45.4103" lon="5.91186">
        <ele>1656.08936218</ele>
        <time>2015-12-10T13:23:09Z</time>
      </trkpt>
      <trkpt lat="45.41031" lon="5.91185">
        <ele>1656.08936218</ele>
        <time>2015-12-10T13:23:14Z</time>
      </trkpt>
      <trkpt lat="45.4103" lon="5.91185">
        <ele>1656.08936218</ele>
        <time>2015-12-10T13:23:19Z</time>
      </trkpt>
      <trkpt lat="45.4103" lon="5.91184">
        <ele>1656.08936218</ele>
        <time>2015-12-10T13:23:24Z</time>
      </trkpt>
      <trkpt lat="45.4103" lon="5.91183">
        <ele>1656.08936218</ele>
        <time>2015-12-10T13:23:29Z</time>
      </trkpt>
      <trkpt lat="45.4103" lon="5.91183">
        <ele>1656.08936218</ele>
        <time>2015-12-10T13:23:34Z</time>
      </trkpt>
      <trkpt lat="45.41026" lon="5.91172">
        <ele>1655.56283272</ele>
        <time>2015-12-10T13:23:45Z</time>
      </trkpt>
      <trkpt lat="45.41023" lon="5.91173">
        <ele>1655.56283272</ele>
        <time>2015-12-10T13:23:50Z</time>
      </trkpt>
      <trkpt lat="45.41017" lon="5.91169">
        <ele>1654.779323818</ele>
        <time>2015-12-10T13:24:00Z</time>
      </trkpt>
      <trkpt lat="45.41013" lon="5.91172">
        <ele>1654.779323818</ele>
        <time>2015-12-10T13:24:04Z</time>
      </trkpt>
      <trkpt lat="45.41008" lon="5.91176">
        <ele>1653.903219887</ele>
        <time>2015-12-10T13:24:14Z</time>
      </trkpt>
      <trkpt lat="45.41008" lon="5.91176">
        <ele>1653.903219887</ele>
        <time>2015-12-10T13:24:19Z</time>
      </trkpt>
      <trkpt lat="45.41004" lon="5.9118">
        <ele>1653.903219887</ele>
        <time>2015-12-10T13:24:29Z</time>
      </trkpt>
      <trkpt lat="45.41001" lon="5.91184">
        <ele>1652.510722517</ele>
        <time>2015-12-10T13:24:34Z</time>
      </trkpt>
      <trkpt lat="45.40996" lon="5.91187">
        <ele>1652.510722517</ele>
        <time>2015-12-10T13:24:45Z</time>
      </trkpt>
      <trkpt lat="45.40992" lon="5.91191">
        <ele>1650.354789335</ele>
        <time>2015-12-10T13:24:50Z</time>
      </trkpt>
      <trkpt lat="45.40989" lon="5.91197">
        <ele>1650.354789335</ele>
        <time>2015-12-10T13:25:05Z</time>
      </trkpt>
      <trkpt lat="45.40988" lon="5.91198">
        <ele>1650.354789335</ele>
        <time>2015-12-10T13:25:09Z</time>
      </trkpt>
      <trkpt lat="45.40983" lon="5.91209">
        <ele>1647.785160207</ele>
        <time>2015-12-10T13:25:19Z</time>
      </trkpt>
      <trkpt lat="45.40983" lon="5.91208">
        <ele>1647.785160207</ele>
        <time>2015-12-10T13:25:25Z</time>
      </trkpt>
      <trkpt lat="45.40979" lon="5.91208">
        <ele>1647.785160207</ele>
        <time>2015-12-10T13:25:34Z</time>
      </trkpt>
      <trkpt lat="45.40981" lon="5.91213">
        <ele>1647.785160207</ele>
        <time>2015-12-10T13:25:39Z</time>
      </trkpt>
      <trkpt lat="45.4098" lon="5.91217">
        <ele>1644.26240535</ele>
        <time>2015-12-10T13:25:50Z</time>
      </trkpt>
      <trkpt lat="45.40979" lon="5.91219">
        <ele>1644.26240535</ele>
        <time>2015-12-10T13:25:54Z</time>
      </trkpt>
      <trkpt lat="45.40977" lon="5.9122">
        <ele>1644.26240535</ele>
        <time>2015-12-10T13:26:05Z</time>
      </trkpt>
      <trkpt lat="45.40977" lon="5.91219">
        <ele>1644.26240535</ele>
        <time>2015-12-10T13:26:10Z</time>
      </trkpt>
      <trkpt lat="45.40971" lon="5.9122">
        <ele>1640.730512418</ele>
        <time>2015-12-10T13:26:19Z</time>
      </trkpt>
      <trkpt lat="45.40968" lon="5.91223">
        <ele>1640.730512418</ele>
        <time>2015-12-10T13:26:25Z</time>
      </trkpt>
      <trkpt lat="45.40966" lon="5.91231">
        <ele>1636.911240966</ele>
        <time>2015-12-10T13:26:34Z</time>
      </trkpt>
      <trkpt lat="45.40964" lon="5.91234">
        <ele>1636.911240966</ele>
        <time>2015-12-10T13:26:39Z</time>
      </trkpt>
      <trkpt lat="45.40972" lon="5.91243">
        <ele>1632.259326472</ele>
        <time>2015-12-10T13:26:50Z</time>
      </trkpt>
      <trkpt lat="45.40972" lon="5.91242">
        <ele>1632.259326472</ele>
        <time>2015-12-10T13:26:54Z</time>
      </trkpt>
      <trkpt lat="45.40969" lon="5.91244">
        <ele>1632.259326472</ele>
        <time>2015-12-10T13:27:05Z</time>
      </trkpt>
      <trkpt lat="45.40968" lon="5.91243">
        <ele>1632.259326472</ele>
        <time>2015-12-10T13:27:09Z</time>
      </trkpt>
      <trkpt lat="45.40964" lon="5.91238">
        <ele>1626.560039799</ele>
        <time>2015-12-10T13:27:25Z</time>
      </trkpt>
      <trkpt lat="45.40959" lon="5.91234">
        <ele>1626.560039799</ele>
        <time>2015-12-10T13:27:39Z</time>
      </trkpt>
      <trkpt lat="45.40953" lon="5.91231">
        <ele>1620.914255481</ele>
        <time>2015-12-10T13:27:45Z</time>
      </trkpt>
      <trkpt lat="45.40947" lon="5.91225">
        <ele>1620.914255481</ele>
        <time>2015-12-10T13:27:55Z</time>
      </trkpt>
      <trkpt lat="45.40946" lon="5.91223">
        <ele>1615.188797203</ele>
        <time>2015-12-10T13:27:59Z</time>
      </trkpt>
      <trkpt lat="45.40945" lon="5.91223">
        <ele>1615.188797203</ele>
        <time>2015-12-10T13:28:10Z</time>
      </trkpt>
      <trkpt lat="45.40944" lon="5.91222">
        <ele>1615.188797203</ele>
        <time>2015-12-10T13:28:15Z</time>
      </trkpt>
      <trkpt lat="45.40944" lon="5.91222">
        <ele>1615.188797203</ele>
        <time>2015-12-10T13:28:25Z</time>
      </trkpt>
      <trkpt lat="45.40942" lon="5.9122">
        <ele>1615.188797203</ele>
        <time>2015-12-10T13:28:30Z</time>
      </trkpt>
      <trkpt lat="45.40938" lon="5.91219">
        <ele>1609.260319874</ele>
        <time>2015-12-10T13:28:39Z</time>
      </trkpt>
      <trkpt lat="45.40934" lon="5.91212">
        <ele>1609.260319874</ele>
        <time>2015-12-10T13:28:44Z</time>
      </trkpt>
      <trkpt lat="45.40916" lon="5.91201">
        <ele>1603.447234968</ele>
        <time>2015-12-10T13:28:55Z</time>
      </trkpt>
      <trkpt lat="45.40918" lon="5.91195">
        <ele>1603.447234968</ele>
        <time>2015-12-10T13:28:59Z</time>
      </trkpt>
      <trkpt lat="45.40914" lon="5.91193">
        <ele>1598.188115462</ele>
        <time>2015-12-10T13:29:15Z</time>
      </trkpt>
      <trkpt lat="45.4091" lon="5.91191">
        <ele>1598.188115462</ele>
        <time>2015-12-10T13:29:19Z</time>
      </trkpt>
      <trkpt lat="45.40904" lon="5.91187">
        <ele>1593.166946944</ele>
        <time>2015-12-10T13:29:30Z</time>
      </trkpt>
      <trkpt lat="45.40903" lon="5.91187">
        <ele>1593.166946944</ele>
        <time>2015-12-10T13:29:35Z</time>
      </trkpt>
      <trkpt lat="45.40903" lon="5.91187">
        <ele>1593.166946944</ele>
        <time>2015-12-10T13:29:45Z</time>
      </trkpt>
      <trkpt lat="45.40903" lon="5.91187">
        <ele>1593.166946944</ele>
        <time>2015-12-10T13:29:50Z</time>
      </trkpt>
      <trkpt lat="45.40902" lon="5.91187">
        <ele>1593.166946944</ele>
        <time>2015-12-10T13:29:59Z</time>
      </trkpt>
      <trkpt lat="45.40902" lon="5.91187">
        <ele>1593.166946944</ele>
        <time>2015-12-10T13:30:04Z</time>
      </trkpt>
      <trkpt lat="45.40902" lon="5.91188">
        <ele>1593.166946944</ele>
        <time>2015-12-10T13:30:15Z</time>
      </trkpt>
      <trkpt lat="45.40902" lon="5.91188">
        <ele>1593.166946944</ele>
        <time>2015-12-10T13:30:19Z</time>
      </trkpt>
      <trkpt lat="45.40902" lon="5.91188">
        <ele>1593.166946944</ele>
        <time>2015-12-10T13:30:30Z</time>
      </trkpt>
      <trkpt lat="45.40902" lon="5.91188">
        <ele>1593.166946944</ele>
        <time>2015-12-10T13:30:35Z</time>
      </trkpt>
      <trkpt lat="45.40902" lon="5.91188">
        <ele>1593.166946944</ele>
        <time>2015-12-10T13:30:49Z</time>
      </trkpt>
      <trkpt lat="45.40902" lon="5.91188">
        <ele>1593.166946944</ele>
        <time>2015-12-10T13:30:54Z</time>
      </trkpt>
      <trkpt lat="45.40903" lon="5.91188">
        <ele>1593.166946944</ele>
        <time>2015-12-10T13:31:04Z</time>
      </trkpt>
      <trkpt lat="45.40903" lon="5.91188">
        <ele>1593.166946944</ele>
        <time>2015-12-10T13:31:15Z</time>
      </trkpt>
      <trkpt lat="45.40903" lon="5.91188">
        <ele>1593.166946944</ele>
        <time>2015-12-10T13:31:19Z</time>
      </trkpt>
      <trkpt lat="45.40903" lon="5.91188">
        <ele>1593.166946944</ele>
        <time>2015-12-10T13:31:24Z</time>
      </trkpt>
      <trkpt lat="45.40903" lon="5.91188">
        <ele>1593.166946944</ele>
        <time>2015-12-10T13:31:35Z</time>
      </trkpt>
      <trkpt lat="45.40903" lon="5.91188">
        <ele>1593.166946944</ele>
        <time>2015-12-10T13:31:39Z</time>
      </trkpt>
      <trkpt lat="45.409" lon="5.91184">
        <ele>1593.166946944</ele>
        <time>2015-12-10T13:31:50Z</time>
      </trkpt>
      <trkpt lat="45.409" lon="5.91186">
        <ele>1593.166946944</ele>
        <time>2015-12-10T13:31:55Z</time>
      </trkpt>
      <trkpt lat="45.40897" lon="5.9118">
        <ele>1588.522315194</ele>
        <time>2015-12-10T13:32:04Z</time>
      </trkpt>
      <trkpt lat="45.40892" lon="5.91172">
        <ele>1588.522315194</ele>
        <time>2015-12-10T13:32:10Z</time>
      </trkpt>
      <trkpt lat="45.40889" lon="5.91166">
        <ele>1583.948940651</ele>
        <time>2015-12-10T13:32:19Z</time>
      </trkpt>
      <trkpt lat="45.40889" lon="5.91165">
        <ele>1583.948940651</ele>
        <time>2015-12-10T13:32:24Z</time>
      </trkpt>
      <trkpt lat="45.40885" lon="5.9116">
        <ele>1583.948940651</ele>
        <time>2015-12-10T13:32:35Z</time>
      </trkpt>
      <trkpt lat="45.40887" lon="5.91164">
        <ele>1583.948940651</ele>
        <time>2015-12-10T13:32:39Z</time>
      </trkpt>
      <trkpt lat="45.40888" lon="5.91166">
        <ele>1579.019351664</ele>
        <time>2015-12-10T13:32:49Z</time>
      </trkpt>
      <trkpt lat="45.40883" lon="5.91169">
        <ele>1579.019351664</ele>
        <time>2015-12-10T13:32:54Z</time>
      </trkpt>
      <trkpt lat="45.4088" lon="5.91165">
        <ele>1579.019351664</ele>
        <time>2015-12-10T13:33:04Z</time>
      </trkpt>
      <trkpt lat="45.40877" lon="5.91166">
        <ele>1573.194049265</ele>
        <time>2015-12-10T13:33:10Z</time>
      </trkpt>
      <trkpt lat="45.40874" lon="5.91169">
        <ele>1573.194049265</ele>
        <time>2015-12-10T13:33:14Z</time>
      </trkpt>
      <trkpt lat="45.40874" lon="5.91168">
        <ele>1573.194049265</ele>
        <time>2015-12-10T13:33:19Z</time>
      </trkpt>
      <trkpt lat="45.40871" lon="5.91169">
        <ele>1573.194049265</ele>
        <time>2015-12-10T13:33:24Z</time>
      </trkpt>
      <trkpt lat="45.40871" lon="5.91166">
        <ele>1567.848797186</ele>
        <time>2015-12-10T13:33:30Z</time>
      </trkpt>
      <trkpt lat="45.40873" lon="5.91168">
        <ele>1567.848797186</ele>
        <time>2015-12-10T13:33:35Z</time>
      </trkpt>
      <trkpt lat="45.40869" lon="5.9117">
        <ele>1567.848797186</ele>
        <time>2015-12-10T13:33:39Z</time>
      </trkpt>
      <trkpt lat="45.40866" lon="5.91167">
        <ele>1561.806722732</ele>
        <time>2015-12-10T13:33:44Z</time>
      </trkpt>
      <trkpt lat="45.40865" lon="5.91165">
        <ele>1561.806722732</ele>
        <time>2015-12-10T13:33:50Z</time>
      </trkpt>
      <trkpt lat="45.40863" lon="5.91165">
        <ele>1561.806722732</ele>
        <time>2015-12-10T13:33:55Z</time>
      </trkpt>
      <trkpt lat="45.40855" lon="5.91165">
        <ele>1555.420123397</ele>
        <time>2015-12-10T13:33:59Z</time>
      </trkpt>
      <trkpt lat="45.40854" lon="5.91163">
        <ele>1555.420123397</ele>
        <time>2015-12-10T13:34:04Z</time>
      </trkpt>
      <trkpt lat="45.40848" lon="5.91157">
        <ele>1555.420123397</ele>
        <time>2015-12-10T13:34:10Z</time>
      </trkpt>
      <trkpt lat="45.40844" lon="5.91156">
        <ele>1549.592468794</ele>
        <time>2015-12-10T13:34:14Z</time>
      </trkpt>
      <trkpt lat="45.40841" lon="5.91164">
        <ele>1549.592468794</ele>
        <time>2015-12-10T13:34:19Z</time>
      </trkpt>
      <trkpt lat="45.40834" lon="5.91169">
        <ele>1544.29425702</ele>
        <time>2015-12-10T13:34:24Z</time>
      </trkpt>
      <trkpt lat="45.4083" lon="5.91173">
        <ele>1544.29425702</ele>
        <time>2015-12-10T13:34:30Z</time>
      </trkpt>
      <trkpt lat="45.40834" lon="5.9118">
        <ele>1539.928628407</ele>
        <time>2015-12-10T13:34:35Z</time>
      </trkpt>
      <trkpt lat="45.40835" lon="5.91187">
        <ele>1539.928628407</ele>
        <time>2015-12-10T13:34:39Z</time>
      </trkpt>
      <trkpt lat="45.40834" lon="5.91197">
        <ele>1535.569118399</ele>
        <time>2015-12-10T13:34:44Z</time>
      </trkpt>
      <trkpt lat="45.4084" lon="5.91199">
        <ele>1535.569118399</ele>
        <time>2015-12-10T13:34:51Z</time>
      </trkpt>
      <trkpt lat="45.40841" lon="5.91204">
        <ele>1531.077489041</ele>
        <time>2015-12-10T13:34:54Z</time>
      </trkpt>
      <trkpt lat="45.40841" lon="5.91211">
        <ele>1531.077489041</ele>
        <time>2015-12-10T13:34:59Z</time>
      </trkpt>
      <trkpt lat="45.40844" lon="5.9122">
        <ele>1526.613888011</ele>
        <time>2015-12-10T13:35:04Z</time>
      </trkpt>
      <trkpt lat="45.40844" lon="5.91222">
        <ele>1526.613888011</ele>
        <time>2015-12-10T13:35:10Z</time>
      </trkpt>
      <trkpt lat="45.40845" lon="5.91222">
        <ele>1526.613888011</ele>
        <time>2015-12-10T13:35:15Z</time>
      </trkpt>
      <trkpt lat="45.40843" lon="5.91224">
        <ele>1526.613888011</ele>
        <time>2015-12-10T13:35:19Z</time>
      </trkpt>
      <trkpt lat="45.4084" lon="5.91232">
        <ele>1522.758601335</ele>
        <time>2015-12-10T13:35:24Z</time>
      </trkpt>
      <trkpt lat="45.40842" lon="5.91238">
        <ele>1522.758601335</ele>
        <time>2015-12-10T13:35:31Z</time>
      </trkpt>
      <trkpt lat="45.40842" lon="5.91245">
        <ele>1519.47079617</ele>
        <time>2015-12-10T13:35:34Z</time>
      </trkpt>
      <trkpt lat="45.40842" lon="5.91254">
        <ele>1519.47079617</ele>
        <time>2015-12-10T13:35:39Z</time>
      </trkpt>
      <trkpt lat="45.40844" lon="5.91257">
        <ele>1516.710721921</ele>
        <time>2015-12-10T13:35:44Z</time>
      </trkpt>
      <trkpt lat="45.40846" lon="5.91261">
        <ele>1516.710721921</ele>
        <time>2015-12-10T13:35:49Z</time>
      </trkpt>
      <trkpt lat="45.40842" lon="5.91269">
        <ele>1514.295649529</ele>
        <time>2015-12-10T13:35:54Z</time>
      </trkpt>
      <trkpt lat="45.40842" lon="5.91272">
        <ele>1514.295649529</ele>
        <time>2015-12-10T13:35:59Z</time>
      </trkpt>
      <trkpt lat="45.4084" lon="5.91278">
        <ele>1514.295649529</ele>
        <time>2015-12-10T13:36:04Z</time>
      </trkpt>
      <trkpt lat="45.40841" lon="5.91287">
        <ele>1512.487354396</ele>
        <time>2015-12-10T13:36:10Z</time>
      </trkpt>
      <trkpt lat="45.40838" lon="5.91295">
        <ele>1512.487354396</ele>
        <time>2015-12-10T13:36:14Z</time>
      </trkpt>
      <trkpt lat="45.40836" lon="5.91303">
        <ele>1510.51764206</ele>
        <time>2015-12-10T13:36:19Z</time>
      </trkpt>
      <trkpt lat="45.40836" lon="5.9131">
        <ele>1510.51764206</ele>
        <time>2015-12-10T13:36:24Z</time>
      </trkpt>
      <trkpt lat="45.40837" lon="5.9131">
        <ele>1510.51764206</ele>
        <time>2015-12-10T13:36:30Z</time>
      </trkpt>
      <trkpt lat="45.40837" lon="5.91315">
        <ele>1507.67496691</ele>
        <time>2015-12-10T13:36:35Z</time>
      </trkpt>
      <trkpt lat="45.40835" lon="5.91318">
        <ele>1507.67496691</ele>
        <time>2015-12-10T13:36:39Z</time>
      </trkpt>
      <trkpt lat="45.40829" lon="5.91312">
        <ele>1504.887513395</ele>
        <time>2015-12-10T13:36:44Z</time>
      </trkpt>
      <trkpt lat="45.40825" lon="5.91309">
        <ele>1504.887513395</ele>
        <time>2015-12-10T13:36:50Z</time>
      </trkpt>
      <trkpt lat="45.40822" lon="5.91305">
        <ele>1504.887513395</ele>
        <time>2015-12-10T13:36:54Z</time>
      </trkpt>
      <trkpt lat="45.40819" lon="5.91301">
        <ele>1502.726715785</ele>
        <time>2015-12-10T13:36:59Z</time>
      </trkpt>
      <trkpt lat="45.4082" lon="5.91294">
        <ele>1502.726715785</ele>
        <time>2015-12-10T13:37:04Z</time>
      </trkpt>
      <trkpt lat="45.40816" lon="5.91291">
        <ele>1501.575994949</ele>
        <time>2015-12-10T13:37:09Z</time>
      </trkpt>
      <trkpt lat="45.40812" lon="5.91288">
        <ele>1501.575994949</ele>
        <time>2015-12-10T13:37:15Z</time>
      </trkpt>
      <trkpt lat="45.40813" lon="5.91289">
        <ele>1501.575994949</ele>
        <time>2015-12-10T13:37:19Z</time>
      </trkpt>
      <trkpt lat="45.40813" lon="5.91289">
        <ele>1501.575994949</ele>
        <time>2015-12-10T13:37:24Z</time>
      </trkpt>
      <trkpt lat="45.40813" lon="5.91289">
        <ele>1501.575994949</ele>
        <time>2015-12-10T13:37:29Z</time>
      </trkpt>
      <trkpt lat="45.40803" lon="5.91286">
        <ele>1500.490627264</ele>
        <time>2015-12-10T13:37:35Z</time>
      </trkpt>
      <trkpt lat="45.40798" lon="5.91285">
        <ele>1500.490627264</ele>
        <time>2015-12-10T13:37:39Z</time>
      </trkpt>
      <trkpt lat="45.40794" lon="5.91285">
        <ele>1499.459651867</ele>
        <time>2015-12-10T13:37:44Z</time>
      </trkpt>
      <trkpt lat="45.40788" lon="5.91289">
        <ele>1499.459651867</ele>
        <time>2015-12-10T13:37:51Z</time>
      </trkpt>
      <trkpt lat="45.40786" lon="5.91284">
        <ele>1498.472667159</ele>
        <time>2015-12-10T13:37:54Z</time>
      </trkpt>
      <trkpt lat="45.40781" lon="5.91285">
        <ele>1498.472667159</ele>
        <time>2015-12-10T13:38:00Z</time>
      </trkpt>
      <trkpt lat="45.40778" lon="5.91283">
        <ele>1498.472667159</ele>
        <time>2015-12-10T13:38:04Z</time>
      </trkpt>
      <trkpt lat="45.40776" lon="5.91287">
        <ele>1497.808068169</ele>
        <time>2015-12-10T13:38:10Z</time>
      </trkpt>
      <trkpt lat="45.40774" lon="5.91293">
        <ele>1497.808068169</ele>
        <time>2015-12-10T13:38:14Z</time>
      </trkpt>
      <trkpt lat="45.40771" lon="5.91288">
        <ele>1496.714075288</ele>
        <time>2015-12-10T13:38:19Z</time>
      </trkpt>
      <trkpt lat="45.40764" lon="5.9129">
        <ele>1496.714075288</ele>
        <time>2015-12-10T13:38:24Z</time>
      </trkpt>
      <trkpt lat="45.40754" lon="5.91286">
        <ele>1495.504098898</ele>
        <time>2015-12-10T13:38:30Z</time>
      </trkpt>
      <trkpt lat="45.40753" lon="5.91284">
        <ele>1495.504098898</ele>
        <time>2015-12-10T13:38:35Z</time>
      </trkpt>
      <trkpt lat="45.40753" lon="5.91282">
        <ele>1495.504098898</ele>
        <time>2015-12-10T13:38:39Z</time>
      </trkpt>
      <trkpt lat="45.4075" lon="5.91278">
        <ele>1495.504098898</ele>
        <time>2015-12-10T13:38:44Z</time>
      </trkpt>
      <trkpt lat="45.40749" lon="5.91266">
        <ele>1493.460075405</ele>
        <time>2015-12-10T13:38:50Z</time>
      </trkpt>
      <trkpt lat="45.40743" lon="5.91262">
        <ele>1493.460075405</ele>
        <time>2015-12-10T13:38:55Z</time>
      </trkpt>
      <trkpt lat="45.40738" lon="5.91261">
        <ele>1491.648382164</ele>
        <time>2015-12-10T13:39:00Z</time>
      </trkpt>
      <trkpt lat="45.40737" lon="5.91265">
        <ele>1491.648382164</ele>
        <time>2015-12-10T13:39:04Z</time>
      </trkpt>
      <trkpt lat="45.40737" lon="5.91259">
        <ele>1491.648382164</ele>
        <time>2015-12-10T13:39:09Z</time>
      </trkpt>
      <trkpt lat="45.40734" lon="5.91253">
        <ele>1489.759440716</ele>
        <time>2015-12-10T13:39:15Z</time>
      </trkpt>
      <trkpt lat="45.40734" lon="5.91253">
        <ele>1489.759440716</ele>
        <time>2015-12-10T13:39:19Z</time>
      </trkpt>
      <trkpt lat="45.40733" lon="5.91252">
        <ele>1489.759440716</ele>
        <time>2015-12-10T13:39:24Z</time>
      </trkpt>
      <trkpt lat="45.40733" lon="5.91252">
        <ele>1489.759440716</ele>
        <time>2015-12-10T13:39:29Z</time>
      </trkpt>
      <trkpt lat="45.40733" lon="5.91251">
        <ele>1489.759440716</ele>
        <time>2015-12-10T13:39:34Z</time>
      </trkpt>
      <trkpt lat="45.40729" lon="5.91248">
        <ele>1489.759440716</ele>
        <time>2015-12-10T13:39:40Z</time>
      </trkpt>
      <trkpt lat="45.40727" lon="5.91246">
        <ele>1489.759440716</ele>
        <time>2015-12-10T13:39:44Z</time>
      </trkpt>
      <trkpt lat="45.40722" lon="5.91246">
        <ele>1487.650784098</ele>
        <time>2015-12-10T13:39:49Z</time>
      </trkpt>
      <trkpt lat="45.4072" lon="5.91244">
        <ele>1487.650784098</ele>
        <time>2015-12-10T13:39:55Z</time>
      </trkpt>
      <trkpt lat="45.40718" lon="5.91239">
        <ele>1487.650784098</ele>
        <time>2015-12-10T13:39:59Z</time>
      </trkpt>
      <trkpt lat="45.40713" lon="5.91234">
        <ele>1486.19985698</ele>
        <time>2015-12-10T13:40:04Z</time>
      </trkpt>
      <trkpt lat="45.40711" lon="5.91232">
        <ele>1486.19985698</ele>
        <time>2015-12-10T13:40:09Z</time>
      </trkpt>
      <trkpt lat="45.40707" lon="5.91229">
        <ele>1486.19985698</ele>
        <time>2015-12-10T13:40:14Z</time>
      </trkpt>
      <trkpt lat="45.40703" lon="5.91223">
        <ele>1483.479748642</ele>
        <time>2015-12-10T13:40:19Z</time>
      </trkpt>
      <trkpt lat="45.40699" lon="5.91214">
        <ele>1483.479748642</ele>
        <time>2015-12-10T13:40:24Z</time>
      </trkpt>
      <trkpt lat="45.40695" lon="5.91205">
        <ele>1481.455613839</ele>
        <time>2015-12-10T13:40:29Z</time>
      </trkpt>
      <trkpt lat="45.40688" lon="5.91196">
        <ele>1479.784699063</ele>
        <time>2015-12-10T13:40:35Z</time>
      </trkpt>
      <trkpt lat="45.40684" lon="5.9119">
        <ele>1479.784699063</ele>
        <time>2015-12-10T13:40:39Z</time>
      </trkpt>
      <trkpt lat="45.40682" lon="5.91187">
        <ele>1479.784699063</ele>
        <time>2015-12-10T13:40:44Z</time>
      </trkpt>
      <trkpt lat="45.40679" lon="5.91179">
        <ele>1477.716180351</ele>
        <time>2015-12-10T13:40:49Z</time>
      </trkpt>
      <trkpt lat="45.40675" lon="5.91172">
        <ele>1477.716180351</ele>
        <time>2015-12-10T13:40:56Z</time>
      </trkpt>
      <trkpt lat="45.40673" lon="5.91169">
        <ele>1475.420250251</ele>
        <time>2015-12-10T13:40:59Z</time>
      </trkpt>
      <trkpt lat="45.40671" lon="5.91165">
        <ele>1475.420250251</ele>
        <time>2015-12-10T13:41:04Z</time>
      </trkpt>
      <trkpt lat="45.40668" lon="5.91155">
        <ele>1473.343542356</ele>
        <time>2015-12-10T13:41:10Z</time>
      </trkpt>
      <trkpt lat="45.40668" lon="5.91148">
        <ele>1473.343542356</ele>
        <time>2015-12-10T13:41:15Z</time>
      </trkpt>
      <trkpt lat="45.40668" lon="5.91143">
        <ele>1473.343542356</ele>
        <time>2015-12-10T13:41:19Z</time>
      </trkpt>
      <trkpt lat="45.40668" lon="5.9114">
        <ele>1472.187575695</ele>
        <time>2015-12-10T13:41:24Z</time>
      </trkpt>
      <trkpt lat="45.40667" lon="5.91138">
        <ele>1472.187575695</ele>
        <time>2015-12-10T13:41:29Z</time>
      </trkpt>
      <trkpt lat="45.40665" lon="5.91124">
        <ele>1471.302845282</ele>
        <time>2015-12-10T13:41:35Z</time>
      </trkpt>
      <trkpt lat="45.40663" lon="5.91117">
        <ele>1471.302845282</ele>
        <time>2015-12-10T13:41:40Z</time>
      </trkpt>
      <trkpt lat="45.40658" lon="5.9111">
        <ele>1470.375119157</ele>
        <time>2015-12-10T13:41:44Z</time>
      </trkpt>
      <trkpt lat="45.40657" lon="5.91099">
        <ele>1470.375119157</ele>
        <time>2015-12-10T13:41:49Z</time>
      </trkpt>
      <trkpt lat="45.40655" lon="5.9109">
        <ele>1469.545810827</ele>
        <time>2015-12-10T13:41:55Z</time>
      </trkpt>
      <trkpt lat="45.40651" lon="5.91085">
        <ele>1469.545810827</ele>
        <time>2015-12-10T13:41:59Z</time>
      </trkpt>
      <trkpt lat="45.40648" lon="5.91084">
        <ele>1469.545810827</ele>
        <time>2015-12-10T13:42:04Z</time>
      </trkpt>
      <trkpt lat="45.40646" lon="5.91083">
        <ele>1468.225230482</ele>
        <time>2015-12-10T13:42:10Z</time>
      </trkpt>
      <trkpt lat="45.40643" lon="5.91081">
        <ele>1468.225230482</ele>
        <time>2015-12-10T13:42:14Z</time>
      </trkpt>
      <trkpt lat="45.40643" lon="5.91081">
        <ele>1468.225230482</ele>
        <time>2015-12-10T13:42:20Z</time>
      </trkpt>
      <trkpt lat="45.4064" lon="5.91081">
        <ele>1468.225230482</ele>
        <time>2015-12-10T13:42:24Z</time>
      </trkpt>
      <trkpt lat="45.40634" lon="5.91079">
        <ele>1466.589064303</ele>
        <time>2015-12-10T13:42:29Z</time>
      </trkpt>
      <trkpt lat="45.4063" lon="5.91075">
        <ele>1466.589064303</ele>
        <time>2015-12-10T13:42:35Z</time>
      </trkpt>
      <trkpt lat="45.40627" lon="5.91073">
        <ele>1466.589064303</ele>
        <time>2015-12-10T13:42:39Z</time>
      </trkpt>
      <trkpt lat="45.40624" lon="5.9107">
        <ele>1465.089329042</ele>
        <time>2015-12-10T13:42:44Z</time>
      </trkpt>
      <trkpt lat="45.40623" lon="5.91067">
        <ele>1465.089329042</ele>
        <time>2015-12-10T13:42:50Z</time>
      </trkpt>
      <trkpt lat="45.40619" lon="5.91061">
        <ele>1465.089329042</ele>
        <time>2015-12-10T13:42:55Z</time>
      </trkpt>
      <trkpt lat="45.40616" lon="5.91059">
        <ele>1463.27991795</ele>
        <time>2015-12-10T13:42:59Z</time>
      </trkpt>
      <trkpt lat="45.40614" lon="5.91057">
        <ele>1463.27991795</ele>
        <time>2015-12-10T13:43:04Z</time>
      </trkpt>
      <trkpt lat="45.40613" lon="5.91058">
        <ele>1463.27991795</ele>
        <time>2015-12-10T13:43:09Z</time>
      </trkpt>
      <trkpt lat="45.40611" lon="5.91054">
        <ele>1463.27991795</ele>
        <time>2015-12-10T13:43:15Z</time>
      </trkpt>
      <trkpt lat="45.40607" lon="5.91048">
        <ele>1461.324939645</ele>
        <time>2015-12-10T13:43:25Z</time>
      </trkpt>
      <trkpt lat="45.40603" lon="5.91039">
        <ele>1461.324939645</ele>
        <time>2015-12-10T13:43:29Z</time>
      </trkpt>
      <trkpt lat="45.40589" lon="5.91024">
        <ele>1459.521097163</ele>
        <time>2015-12-10T13:43:40Z</time>
      </trkpt>
      <trkpt lat="45.40583" lon="5.91016">
        <ele>1459.521097163</ele>
        <time>2015-12-10T13:43:45Z</time>
      </trkpt>
      <trkpt lat="45.40578" lon="5.91007">
        <ele>1457.85478019</ele>
        <time>2015-12-10T13:43:49Z</time>
      </trkpt>
      <trkpt lat="45.40566" lon="5.90994">
        <ele>1456.313119129</ele>
        <time>2015-12-10T13:43:59Z</time>
      </trkpt>
      <trkpt lat="45.40563" lon="5.90988">
        <ele>1456.313119129</ele>
        <time>2015-12-10T13:44:05Z</time>
      </trkpt>
      <trkpt lat="45.40555" lon="5.90976">
        <ele>1454.595742581</ele>
        <time>2015-12-10T13:44:14Z</time>
      </trkpt>
      <trkpt lat="45.40551" lon="5.9097">
        <ele>1454.595742581</ele>
        <time>2015-12-10T13:44:20Z</time>
      </trkpt>
      <trkpt lat="45.40542" lon="5.9096">
        <ele>1452.713182453</ele>
        <time>2015-12-10T13:44:29Z</time>
      </trkpt>
      <trkpt lat="45.40536" lon="5.90953">
        <ele>1452.713182453</ele>
        <time>2015-12-10T13:44:34Z</time>
      </trkpt>
      <trkpt lat="45.40524" lon="5.90942">
        <ele>1451.252226437</ele>
        <time>2015-12-10T13:44:49Z</time>
      </trkpt>
      <trkpt lat="45.40521" lon="5.90938">
        <ele>1451.252226437</ele>
        <time>2015-12-10T13:44:54Z</time>
      </trkpt>
      <trkpt lat="45.40514" lon="5.90926">
        <ele>1450.034938664</ele>
        <time>2015-12-10T13:45:05Z</time>
      </trkpt>
      <trkpt lat="45.40513" lon="5.90921">
        <ele>1450.034938664</ele>
        <time>2015-12-10T13:45:09Z</time>
      </trkpt>
      <trkpt lat="45.40507" lon="5.90909">
        <ele>1448.607667185</ele>
        <time>2015-12-10T13:45:20Z</time>
      </trkpt>
      <trkpt lat="45.40505" lon="5.90907">
        <ele>1448.607667185</ele>
        <time>2015-12-10T13:45:24Z</time>
      </trkpt>
      <trkpt lat="45.40505" lon="5.90907">
        <ele>1448.607667185</ele>
        <time>2015-12-10T13:45:29Z</time>
      </trkpt>
      <trkpt lat="45.40503" lon="5.90899">
        <ele>1448.607667185</ele>
        <time>2015-12-10T13:45:34Z</time>
      </trkpt>
      <trkpt lat="45.40498" lon="5.90886">
        <ele>1447.27134812</ele>
        <time>2015-12-10T13:45:44Z</time>
      </trkpt>
      <trkpt lat="45.40497" lon="5.90879">
        <ele>1447.27134812</ele>
        <time>2015-12-10T13:45:49Z</time>
      </trkpt>
      <trkpt lat="45.40491" lon="5.90863">
        <ele>1445.872340252</ele>
        <time>2015-12-10T13:46:00Z</time>
      </trkpt>
      <trkpt lat="45.40488" lon="5.90858">
        <ele>1445.872340252</ele>
        <time>2015-12-10T13:46:05Z</time>
      </trkpt>
      <trkpt lat="45.4048" lon="5.90847">
        <ele>1444.700915835</ele>
        <time>2015-12-10T13:46:15Z</time>
      </trkpt>
      <trkpt lat="45.40475" lon="5.90844">
        <ele>1444.700915835</ele>
        <time>2015-12-10T13:46:19Z</time>
      </trkpt>
      <trkpt lat="45.40469" lon="5.90827">
        <ele>1443.160835074</ele>
        <time>2015-12-10T13:46:30Z</time>
      </trkpt>
      <trkpt lat="45.40468" lon="5.90823">
        <ele>1443.160835074</ele>
        <time>2015-12-10T13:46:36Z</time>
      </trkpt>
      <trkpt lat="45.40463" lon="5.90803">
        <ele>1441.709585334</ele>
        <time>2015-12-10T13:46:45Z</time>
      </trkpt>
      <trkpt lat="45.40461" lon="5.90797">
        <ele>1441.709585334</ele>
        <time>2015-12-10T13:46:50Z</time>
      </trkpt>
      <trkpt lat="45.40454" lon="5.90785">
        <ele>1440.338578282</ele>
        <time>2015-12-10T13:47:00Z</time>
      </trkpt>
      <trkpt lat="45.40451" lon="5.90781">
        <ele>1440.338578282</ele>
        <time>2015-12-10T13:47:05Z</time>
      </trkpt>
      <trkpt lat="45.40444" lon="5.90764">
        <ele>1438.319186186</ele>
        <time>2015-12-10T13:47:15Z</time>
      </trkpt>
      <trkpt lat="45.40442" lon="5.90757">
        <ele>1438.319186186</ele>
        <time>2015-12-10T13:47:20Z</time>
      </trkpt>
      <trkpt lat="45.40439" lon="5.90753">
        <ele>1435.842897408</ele>
        <time>2015-12-10T13:47:29Z</time>
      </trkpt>
      <trkpt lat="45.40438" lon="5.90753">
        <ele>1435.842897408</ele>
        <time>2015-12-10T13:47:34Z</time>
      </trkpt>
      <trkpt lat="45.40438" lon="5.90743">
        <ele>1435.842897408</ele>
        <time>2015-12-10T13:47:49Z</time>
      </trkpt>
      <trkpt lat="45.40435" lon="5.90734">
        <ele>1434.097293833</ele>
        <time>2015-12-10T13:47:54Z</time>
      </trkpt>
      <trkpt lat="45.40428" lon="5.90723">
        <ele>1432.307317106</ele>
        <time>2015-12-10T13:48:05Z</time>
      </trkpt>
      <trkpt lat="45.40428" lon="5.90723">
        <ele>1432.307317106</ele>
        <time>2015-12-10T13:48:09Z</time>
      </trkpt>
      <trkpt lat="45.40427" lon="5.90721">
        <ele>1432.307317106</ele>
        <time>2015-12-10T13:48:20Z</time>
      </trkpt>
      <trkpt lat="45.40427" lon="5.90721">
        <ele>1432.307317106</ele>
        <time>2015-12-10T13:48:25Z</time>
      </trkpt>
      <trkpt lat="45.40422" lon="5.90711">
        <ele>1430.619723024</ele>
        <time>2015-12-10T13:48:35Z</time>
      </trkpt>
      <trkpt lat="45.40422" lon="5.9071">
        <ele>1430.619723024</ele>
        <time>2015-12-10T13:48:40Z</time>
      </trkpt>
      <trkpt lat="45.40419" lon="5.90699">
        <ele>1428.737947752</ele>
        <time>2015-12-10T13:48:50Z</time>
      </trkpt>
      <trkpt lat="45.40416" lon="5.90697">
        <ele>1428.737947752</ele>
        <time>2015-12-10T13:48:54Z</time>
      </trkpt>
      <trkpt lat="45.40416" lon="5.90697">
        <ele>1428.737947752</ele>
        <time>2015-12-10T13:49:10Z</time>
      </trkpt>
      <trkpt lat="45.40416" lon="5.90697">
        <ele>1428.737947752</ele>
        <time>2015-12-10T13:49:15Z</time>
      </trkpt>
      <trkpt lat="45.40417" lon="5.90696">
        <ele>1428.737947752</ele>
        <time>2015-12-10T13:49:25Z</time>
      </trkpt>
      <trkpt lat="45.40417" lon="5.90696">
        <ele>1428.737947752</ele>
        <time>2015-12-10T13:49:29Z</time>
      </trkpt>
      <trkpt lat="45.40417" lon="5.90696">
        <ele>1428.737947752</ele>
        <time>2015-12-10T13:49:40Z</time>
      </trkpt>
      <trkpt lat="45.40417" lon="5.90696">
        <ele>1428.737947752</ele>
        <time>2015-12-10T13:49:45Z</time>
      </trkpt>
      <trkpt lat="45.40417" lon="5.90696">
        <ele>1428.737947752</ele>
        <time>2015-12-10T13:49:55Z</time>
      </trkpt>
      <trkpt lat="45.40417" lon="5.90696">
        <ele>1428.737947752</ele>
        <time>2015-12-10T13:49:59Z</time>
      </trkpt>
      <trkpt lat="45.40417" lon="5.90696">
        <ele>1428.737947752</ele>
        <time>2015-12-10T13:50:10Z</time>
      </trkpt>
      <trkpt lat="45.40417" lon="5.90696">
        <ele>1428.737947752</ele>
        <time>2015-12-10T13:50:15Z</time>
      </trkpt>
      <trkpt lat="45.40417" lon="5.90696">
        <ele>1428.737947752</ele>
        <time>2015-12-10T13:50:25Z</time>
      </trkpt>
      <trkpt lat="45.40417" lon="5.90696">
        <ele>1428.737947752</ele>
        <time>2015-12-10T13:50:30Z</time>
      </trkpt>
      <trkpt lat="45.40417" lon="5.90697">
        <ele>1428.737947752</ele>
        <time>2015-12-10T13:50:40Z</time>
      </trkpt>
      <trkpt lat="45.40417" lon="5.90697">
        <ele>1428.737947752</ele>
        <time>2015-12-10T13:50:45Z</time>
      </trkpt>
      <trkpt lat="45.40417" lon="5.90697">
        <ele>1428.737947752</ele>
        <time>2015-12-10T13:51:01Z</time>
      </trkpt>
      <trkpt lat="45.40417" lon="5.90697">
        <ele>1428.737947752</ele>
        <time>2015-12-10T13:51:05Z</time>
      </trkpt>
      <trkpt lat="45.40417" lon="5.90697">
        <ele>1428.737947752</ele>
        <time>2015-12-10T13:51:14Z</time>
      </trkpt>
      <trkpt lat="45.40417" lon="5.90697">
        <ele>1428.737947752</ele>
        <time>2015-12-10T13:51:19Z</time>
      </trkpt>
      <trkpt lat="45.40417" lon="5.90697">
        <ele>1428.737947752</ele>
        <time>2015-12-10T13:51:29Z</time>
      </trkpt>
      <trkpt lat="45.40417" lon="5.90697">
        <ele>1428.737947752</ele>
        <time>2015-12-10T13:51:34Z</time>
      </trkpt>
      <trkpt lat="45.40417" lon="5.90697">
        <ele>1428.737947752</ele>
        <time>2015-12-10T13:51:44Z</time>
      </trkpt>
      <trkpt lat="45.40417" lon="5.90697">
        <ele>1428.737947752</ele>
        <time>2015-12-10T13:51:49Z</time>
      </trkpt>
      <trkpt lat="45.40417" lon="5.90697">
        <ele>1428.737947752</ele>
        <time>2015-12-10T13:52:00Z</time>
      </trkpt>
      <trkpt lat="45.40417" lon="5.90697">
        <ele>1428.737947752</ele>
        <time>2015-12-10T13:52:05Z</time>
      </trkpt>
      <trkpt lat="45.40417" lon="5.90697">
        <ele>1428.737947752</ele>
        <time>2015-12-10T13:52:15Z</time>
      </trkpt>
      <trkpt lat="45.40417" lon="5.90697">
        <ele>1428.737947752</ele>
        <time>2015-12-10T13:52:19Z</time>
      </trkpt>
      <trkpt lat="45.40417" lon="5.90697">
        <ele>1428.737947752</ele>
        <time>2015-12-10T13:52:29Z</time>
      </trkpt>
      <trkpt lat="45.40417" lon="5.90697">
        <ele>1428.737947752</ele>
        <time>2015-12-10T13:52:35Z</time>
      </trkpt>
      <trkpt lat="45.40417" lon="5.90697">
        <ele>1428.737947752</ele>
        <time>2015-12-10T13:52:45Z</time>
      </trkpt>
      <trkpt lat="45.40417" lon="5.90697">
        <ele>1428.737947752</ele>
        <time>2015-12-10T13:52:49Z</time>
      </trkpt>
      <trkpt lat="45.40417" lon="5.90697">
        <ele>1428.737947752</ele>
        <time>2015-12-10T13:53:05Z</time>
      </trkpt>
      <trkpt lat="45.40417" lon="5.90697">
        <ele>1428.737947752</ele>
        <time>2015-12-10T13:53:10Z</time>
      </trkpt>
      <trkpt lat="45.40417" lon="5.90697">
        <ele>1428.737947752</ele>
        <time>2015-12-10T13:53:20Z</time>
      </trkpt>
      <trkpt lat="45.40417" lon="5.90697">
        <ele>1428.737947752</ele>
        <time>2015-12-10T13:53:25Z</time>
      </trkpt>
      <trkpt lat="45.40417" lon="5.90697">
        <ele>1428.737947752</ele>
        <time>2015-12-10T13:53:35Z</time>
      </trkpt>
      <trkpt lat="45.40417" lon="5.90697">
        <ele>1428.737947752</ele>
        <time>2015-12-10T13:53:40Z</time>
      </trkpt>
      <trkpt lat="45.40417" lon="5.90697">
        <ele>1428.737947752</ele>
        <time>2015-12-10T13:53:49Z</time>
      </trkpt>
      <trkpt lat="45.40415" lon="5.90692">
        <ele>1428.737947752</ele>
        <time>2015-12-10T13:53:55Z</time>
      </trkpt>
      <trkpt lat="45.40414" lon="5.90667">
        <ele>1425.379053915</ele>
        <time>2015-12-10T13:54:05Z</time>
      </trkpt>
      <trkpt lat="45.40412" lon="5.9066">
        <ele>1425.379053915</ele>
        <time>2015-12-10T13:54:10Z</time>
      </trkpt>
      <trkpt lat="45.40411" lon="5.90652">
        <ele>1422.529003636</ele>
        <time>2015-12-10T13:54:20Z</time>
      </trkpt>
      <trkpt lat="45.40408" lon="5.90646">
        <ele>1422.529003636</ele>
        <time>2015-12-10T13:54:25Z</time>
      </trkpt>
      <trkpt lat="45.40408" lon="5.90631">
        <ele>1419.14427557</ele>
        <time>2015-12-10T13:54:34Z</time>
      </trkpt>
      <trkpt lat="45.40406" lon="5.90626">
        <ele>1419.14427557</ele>
        <time>2015-12-10T13:54:39Z</time>
      </trkpt>
      <trkpt lat="45.40401" lon="5.90621">
        <ele>1414.83598924</ele>
        <time>2015-12-10T13:54:50Z</time>
      </trkpt>
      <trkpt lat="45.40398" lon="5.90617">
        <ele>1414.83598924</ele>
        <time>2015-12-10T13:54:55Z</time>
      </trkpt>
      <trkpt lat="45.40397" lon="5.90613">
        <ele>1414.83598924</ele>
        <time>2015-12-10T13:55:05Z</time>
      </trkpt>
      <trkpt lat="45.40393" lon="5.90608">
        <ele>1410.543444875</ele>
        <time>2015-12-10T13:55:09Z</time>
      </trkpt>
      <trkpt lat="45.40387" lon="5.90595">
        <ele>1405.695789505</ele>
        <time>2015-12-10T13:55:20Z</time>
      </trkpt>
      <trkpt lat="45.40384" lon="5.90591">
        <ele>1405.695789505</ele>
        <time>2015-12-10T13:55:25Z</time>
      </trkpt>
      <trkpt lat="45.4038" lon="5.9058">
        <ele>1399.909753375</ele>
        <time>2015-12-10T13:55:40Z</time>
      </trkpt>
      <trkpt lat="45.40377" lon="5.90577">
        <ele>1399.909753375</ele>
        <time>2015-12-10T13:55:45Z</time>
      </trkpt>
      <trkpt lat="45.40369" lon="5.90572">
        <ele>1394.850367187</ele>
        <time>2015-12-10T13:55:55Z</time>
      </trkpt>
      <trkpt lat="45.40367" lon="5.90571">
        <ele>1394.850367187</ele>
        <time>2015-12-10T13:56:00Z</time>
      </trkpt>
      <trkpt lat="45.40365" lon="5.9057">
        <ele>1394.850367187</ele>
        <time>2015-12-10T13:56:09Z</time>
      </trkpt>
      <trkpt lat="45.40365" lon="5.9057">
        <ele>1394.850367187</ele>
        <time>2015-12-10T13:56:15Z</time>
      </trkpt>
      <trkpt lat="45.40365" lon="5.9057">
        <ele>1394.850367187</ele>
        <time>2015-12-10T13:56:25Z</time>
      </trkpt>
      <trkpt lat="45.40365" lon="5.9057">
        <ele>1394.850367187</ele>
        <time>2015-12-10T13:56:30Z</time>
      </trkpt>
      <trkpt lat="45.40365" lon="5.90562">
        <ele>1390.473022785</ele>
        <time>2015-12-10T13:56:39Z</time>
      </trkpt>
      <trkpt lat="45.40366" lon="5.90556">
        <ele>1390.473022785</ele>
        <time>2015-12-10T13:56:45Z</time>
      </trkpt>
      <trkpt lat="45.40359" lon="5.90545">
        <ele>1385.581499345</ele>
        <time>2015-12-10T13:56:55Z</time>
      </trkpt>
      <trkpt lat="45.40356" lon="5.90535">
        <ele>1385.581499345</ele>
        <time>2015-12-10T13:57:00Z</time>
      </trkpt>
      <trkpt lat="45.40352" lon="5.90531">
        <ele>1380.942232135</ele>
        <time>2015-12-10T13:57:10Z</time>
      </trkpt>
      <trkpt lat="45.40352" lon="5.90529">
        <ele>1380.942232135</ele>
        <time>2015-12-10T13:57:14Z</time>
      </trkpt>
      <trkpt lat="45.40352" lon="5.90529">
        <ele>1380.942232135</ele>
        <time>2015-12-10T13:57:24Z</time>
      </trkpt>
      <trkpt lat="45.40352" lon="5.90529">
        <ele>1380.942232135</ele>
        <time>2015-12-10T13:57:30Z</time>
      </trkpt>
      <trkpt lat="45.40341" lon="5.90516">
        <ele>1376.543971355</ele>
        <time>2015-12-10T13:57:40Z</time>
      </trkpt>
      <trkpt lat="45.40336" lon="5.90513">
        <ele>1376.543971355</ele>
        <time>2015-12-10T13:57:45Z</time>
      </trkpt>
      <trkpt lat="45.40334" lon="5.90516">
        <ele>1376.543971355</ele>
        <time>2015-12-10T13:57:49Z</time>
      </trkpt>
      <trkpt lat="45.40332" lon="5.90518">
        <ele>1371.510817397</ele>
        <time>2015-12-10T13:57:59Z</time>
      </trkpt>
      <trkpt lat="45.40332" lon="5.90518">
        <ele>1371.510817397</ele>
        <time>2015-12-10T13:58:05Z</time>
      </trkpt>
      <trkpt lat="45.40332" lon="5.90518">
        <ele>1371.510817397</ele>
        <time>2015-12-10T13:58:15Z</time>
      </trkpt>
      <trkpt lat="45.40332" lon="5.90518">
        <ele>1371.510817397</ele>
        <time>2015-12-10T13:58:19Z</time>
      </trkpt>
      <trkpt lat="45.40338" lon="5.90517">
        <ele>1371.510817397</ele>
        <time>2015-12-10T13:58:30Z</time>
      </trkpt>
      <trkpt lat="45.4034" lon="5.90518">
        <ele>1371.510817397</ele>
        <time>2015-12-10T13:58:34Z</time>
      </trkpt>
      <trkpt lat="45.40359" lon="5.90508">
        <ele>1366.473960795</ele>
        <time>2015-12-10T13:58:45Z</time>
      </trkpt>
      <trkpt lat="45.40361" lon="5.905">
        <ele>1366.473960795</ele>
        <time>2015-12-10T13:58:49Z</time>
      </trkpt>
      <trkpt lat="45.4036" lon="5.90489">
        <ele>1360.576965123</ele>
        <time>2015-12-10T13:59:00Z</time>
      </trkpt>
      <trkpt lat="45.40359" lon="5.9048">
        <ele>1360.576965123</ele>
        <time>2015-12-10T13:59:05Z</time>
      </trkpt>
      <trkpt lat="45.4036" lon="5.90484">
        <ele>1355.910773145</ele>
        <time>2015-12-10T13:59:15Z</time>
      </trkpt>
      <trkpt lat="45.4036" lon="5.90484">
        <ele>1355.910773145</ele>
        <time>2015-12-10T13:59:20Z</time>
      </trkpt>
      <trkpt lat="45.40362" lon="5.90479">
        <ele>1355.910773145</ele>
        <time>2015-12-10T13:59:30Z</time>
      </trkpt>
      <trkpt lat="45.40361" lon="5.9048">
        <ele>1355.910773145</ele>
        <time>2015-12-10T13:59:34Z</time>
      </trkpt>
      <trkpt lat="45.40354" lon="5.90473">
        <ele>1349.365199734</ele>
        <time>2015-12-10T13:59:45Z</time>
      </trkpt>
      <trkpt lat="45.40357" lon="5.9047">
        <ele>1349.365199734</ele>
        <time>2015-12-10T13:59:50Z</time>
      </trkpt>
      <trkpt lat="45.4036" lon="5.90472">
        <ele>1349.365199734</ele>
        <time>2015-12-10T13:59:54Z</time>
      </trkpt>
      <trkpt lat="45.40365" lon="5.9047">
        <ele>1343.107496302</ele>
        <time>2015-12-10T14:00:05Z</time>
      </trkpt>
      <trkpt lat="45.40372" lon="5.90473">
        <ele>1343.107496302</ele>
        <time>2015-12-10T14:00:10Z</time>
      </trkpt>
      <trkpt lat="45.40367" lon="5.90461">
        <ele>1337.271243841</ele>
        <time>2015-12-10T14:00:20Z</time>
      </trkpt>
      <trkpt lat="45.40368" lon="5.90452">
        <ele>1337.271243841</ele>
        <time>2015-12-10T14:00:25Z</time>
      </trkpt>
      <trkpt lat="45.40366" lon="5.90442">
        <ele>1331.978803505</ele>
        <time>2015-12-10T14:00:35Z</time>
      </trkpt>
      <trkpt lat="45.40369" lon="5.90444">
        <ele>1331.978803505</ele>
        <time>2015-12-10T14:00:39Z</time>
      </trkpt>
      <trkpt lat="45.4037" lon="5.90447">
        <ele>1331.978803505</ele>
        <time>2015-12-10T14:00:50Z</time>
      </trkpt>
      <trkpt lat="45.4037" lon="5.90448">
        <ele>1331.978803505</ele>
        <time>2015-12-10T14:00:55Z</time>
      </trkpt>
      <trkpt lat="45.4037" lon="5.90447">
        <ele>1331.978803505</ele>
        <time>2015-12-10T14:01:05Z</time>
      </trkpt>
      <trkpt lat="45.4037" lon="5.90447">
        <ele>1331.978803505</ele>
        <time>2015-12-10T14:01:09Z</time>
      </trkpt>
      <trkpt lat="45.40372" lon="5.90436">
        <ele>1325.324227999</ele>
        <time>2015-12-10T14:01:20Z</time>
      </trkpt>
      <trkpt lat="45.40369" lon="5.9043">
        <ele>1325.324227999</ele>
        <time>2015-12-10T14:01:25Z</time>
      </trkpt>
      <trkpt lat="45.40362" lon="5.90417">
        <ele>1319.147932015</ele>
        <time>2015-12-10T14:01:34Z</time>
      </trkpt>
      <trkpt lat="45.40353" lon="5.90412">
        <ele>1313.856536532</ele>
        <time>2015-12-10T14:01:40Z</time>
      </trkpt>
      <trkpt lat="45.4035" lon="5.90403">
        <ele>1313.856536532</ele>
        <time>2015-12-10T14:01:50Z</time>
      </trkpt>
      <trkpt lat="45.40353" lon="5.90399">
        <ele>1308.527047661</ele>
        <time>2015-12-10T14:01:54Z</time>
      </trkpt>
      <trkpt lat="45.40346" lon="5.90384">
        <ele>1303.31289353</ele>
        <time>2015-12-10T14:02:10Z</time>
      </trkpt>
      <trkpt lat="45.40344" lon="5.90382">
        <ele>1303.31289353</ele>
        <time>2015-12-10T14:02:14Z</time>
      </trkpt>
      <trkpt lat="45.40347" lon="5.90364">
        <ele>1298.932088306</ele>
        <time>2015-12-10T14:02:25Z</time>
      </trkpt>
      <trkpt lat="45.40352" lon="5.90358">
        <ele>1298.932088306</ele>
        <time>2015-12-10T14:02:30Z</time>
      </trkpt>
      <trkpt lat="45.4036" lon="5.90359">
        <ele>1293.453300657</ele>
        <time>2015-12-10T14:02:40Z</time>
      </trkpt>
      <trkpt lat="45.40359" lon="5.9036">
        <ele>1293.453300657</ele>
        <time>2015-12-10T14:02:44Z</time>
      </trkpt>
      <trkpt lat="45.40356" lon="5.90362">
        <ele>1293.453300657</ele>
        <time>2015-12-10T14:02:55Z</time>
      </trkpt>
      <trkpt lat="45.40356" lon="5.90362">
        <ele>1293.453300657</ele>
        <time>2015-12-10T14:03:00Z</time>
      </trkpt>
      <trkpt lat="45.40356" lon="5.90362">
        <ele>1293.453300657</ele>
        <time>2015-12-10T14:03:10Z</time>
      </trkpt>
      <trkpt lat="45.40356" lon="5.90362">
        <ele>1293.453300657</ele>
        <time>2015-12-10T14:03:14Z</time>
      </trkpt>
      <trkpt lat="45.40356" lon="5.90362">
        <ele>1293.453300657</ele>
        <time>2015-12-10T14:03:25Z</time>
      </trkpt>
      <trkpt lat="45.40356" lon="5.90362">
        <ele>1293.453300657</ele>
        <time>2015-12-10T14:03:30Z</time>
      </trkpt>
      <trkpt lat="45.40356" lon="5.90362">
        <ele>1293.453300657</ele>
        <time>2015-12-10T14:03:39Z</time>
      </trkpt>
      <trkpt lat="45.40356" lon="5.90362">
        <ele>1293.453300657</ele>
        <time>2015-12-10T14:03:45Z</time>
      </trkpt>
      <trkpt lat="45.40356" lon="5.90362">
        <ele>1293.453300657</ele>
        <time>2015-12-10T14:03:55Z</time>
      </trkpt>
      <trkpt lat="45.40356" lon="5.90362">
        <ele>1293.453300657</ele>
        <time>2015-12-10T14:04:00Z</time>
      </trkpt>
      <trkpt lat="45.40356" lon="5.90362">
        <ele>1293.453300657</ele>
        <time>2015-12-10T14:04:14Z</time>
      </trkpt>
      <trkpt lat="45.40356" lon="5.90362">
        <ele>1293.453300657</ele>
        <time>2015-12-10T14:04:19Z</time>
      </trkpt>
      <trkpt lat="45.40356" lon="5.90362">
        <ele>1293.453300657</ele>
        <time>2015-12-10T14:04:29Z</time>
      </trkpt>
      <trkpt lat="45.40356" lon="5.90362">
        <ele>1293.453300657</ele>
        <time>2015-12-10T14:04:34Z</time>
      </trkpt>
      <trkpt lat="45.40356" lon="5.90362">
        <ele>1293.453300657</ele>
        <time>2015-12-10T14:04:45Z</time>
      </trkpt>
      <trkpt lat="45.40356" lon="5.90362">
        <ele>1293.453300657</ele>
        <time>2015-12-10T14:04:49Z</time>
      </trkpt>
      <trkpt lat="45.40356" lon="5.90362">
        <ele>1293.453300657</ele>
        <time>2015-12-10T14:05:00Z</time>
      </trkpt>
      <trkpt lat="45.40356" lon="5.90362">
        <ele>1293.453300657</ele>
        <time>2015-12-10T14:05:05Z</time>
      </trkpt>
      <trkpt lat="45.40356" lon="5.90362">
        <ele>1293.453300657</ele>
        <time>2015-12-10T14:05:15Z</time>
      </trkpt>
      <trkpt lat="45.40356" lon="5.90362">
        <ele>1293.453300657</ele>
        <time>2015-12-10T14:05:20Z</time>
      </trkpt>
      <trkpt lat="45.40356" lon="5.90362">
        <ele>1293.453300657</ele>
        <time>2015-12-10T14:05:30Z</time>
      </trkpt>
      <trkpt lat="45.40356" lon="5.90362">
        <ele>1293.453300657</ele>
        <time>2015-12-10T14:05:35Z</time>
      </trkpt>
      <trkpt lat="45.40356" lon="5.90362">
        <ele>1293.453300657</ele>
        <time>2015-12-10T14:05:45Z</time>
      </trkpt>
      <trkpt lat="45.40356" lon="5.90362">
        <ele>1293.453300657</ele>
        <time>2015-12-10T14:05:49Z</time>
      </trkpt>
      <trkpt lat="45.40356" lon="5.90362">
        <ele>1293.453300657</ele>
        <time>2015-12-10T14:05:59Z</time>
      </trkpt>
      <trkpt lat="45.40356" lon="5.90362">
        <ele>1293.453300657</ele>
        <time>2015-12-10T14:06:04Z</time>
      </trkpt>
      <trkpt lat="45.40356" lon="5.90362">
        <ele>1293.453300657</ele>
        <time>2015-12-10T14:06:15Z</time>
      </trkpt>
      <trkpt lat="45.40356" lon="5.90362">
        <ele>1293.453300657</ele>
        <time>2015-12-10T14:06:19Z</time>
      </trkpt>
      <trkpt lat="45.40356" lon="5.90362">
        <ele>1293.453300657</ele>
        <time>2015-12-10T14:06:30Z</time>
      </trkpt>
      <trkpt lat="45.40356" lon="5.90362">
        <ele>1293.453300657</ele>
        <time>2015-12-10T14:06:35Z</time>
      </trkpt>
      <trkpt lat="45.40356" lon="5.90362">
        <ele>1293.453300657</ele>
        <time>2015-12-10T14:06:49Z</time>
      </trkpt>
      <trkpt lat="45.40356" lon="5.90362">
        <ele>1293.453300657</ele>
        <time>2015-12-10T14:06:54Z</time>
      </trkpt>
      <trkpt lat="45.40356" lon="5.90362">
        <ele>1293.453300657</ele>
        <time>2015-12-10T14:07:05Z</time>
      </trkpt>
      <trkpt lat="45.40356" lon="5.90362">
        <ele>1293.453300657</ele>
        <time>2015-12-10T14:07:09Z</time>
      </trkpt>
      <trkpt lat="45.40356" lon="5.90362">
        <ele>1293.453300657</ele>
        <time>2015-12-10T14:07:20Z</time>
      </trkpt>
      <trkpt lat="45.40356" lon="5.90362">
        <ele>1293.453300657</ele>
        <time>2015-12-10T14:07:24Z</time>
      </trkpt>
      <trkpt lat="45.40356" lon="5.90362">
        <ele>1293.453300657</ele>
        <time>2015-12-10T14:07:34Z</time>
      </trkpt>
      <trkpt lat="45.40354" lon="5.90359">
        <ele>1293.453300657</ele>
        <time>2015-12-10T14:07:39Z</time>
      </trkpt>
      <trkpt lat="45.40345" lon="5.90322">
        <ele>1287.251561864</ele>
        <time>2015-12-10T14:07:50Z</time>
      </trkpt>
      <trkpt lat="45.40346" lon="5.90309">
        <ele>1287.251561864</ele>
        <time>2015-12-10T14:07:55Z</time>
      </trkpt>
      <trkpt lat="45.40352" lon="5.90302">
        <ele>1281.396680136</ele>
        <time>2015-12-10T14:08:05Z</time>
      </trkpt>
      <trkpt lat="45.40353" lon="5.90294">
        <ele>1281.396680136</ele>
        <time>2015-12-10T14:08:09Z</time>
      </trkpt>
      <trkpt lat="45.40352" lon="5.90276">
        <ele>1275.293423116</ele>
        <time>2015-12-10T14:08:20Z</time>
      </trkpt>
      <trkpt lat="45.40348" lon="5.90274">
        <ele>1275.293423116</ele>
        <time>2015-12-10T14:08:25Z</time>
      </trkpt>
      <trkpt lat="45.40344" lon="5.90277">
        <ele>1275.293423116</ele>
        <time>2015-12-10T14:08:35Z</time>
      </trkpt>
      <trkpt lat="45.40342" lon="5.90277">
        <ele>1268.678943283</ele>
        <time>2015-12-10T14:08:40Z</time>
      </trkpt>
      <trkpt lat="45.40342" lon="5.90278">
        <ele>1268.678943283</ele>
        <time>2015-12-10T14:08:45Z</time>
      </trkpt>
      <trkpt lat="45.40338" lon="5.9028">
        <ele>1268.678943283</ele>
        <time>2015-12-10T14:08:55Z</time>
      </trkpt>
      <trkpt lat="45.40338" lon="5.9028">
        <ele>1268.678943283</ele>
        <time>2015-12-10T14:09:00Z</time>
      </trkpt>
      <trkpt lat="45.40336" lon="5.90275">
        <ele>1268.678943283</ele>
        <time>2015-12-10T14:09:10Z</time>
      </trkpt>
      <trkpt lat="45.40335" lon="5.90264">
        <ele>1261.743206135</ele>
        <time>2015-12-10T14:09:15Z</time>
      </trkpt>
      <trkpt lat="45.40329" lon="5.90236">
        <ele>1254.518744759</ele>
        <time>2015-12-10T14:09:25Z</time>
      </trkpt>
      <trkpt lat="45.4033" lon="5.90229">
        <ele>1254.518744759</ele>
        <time>2015-12-10T14:09:30Z</time>
      </trkpt>
      <trkpt lat="45.40323" lon="5.90221">
        <ele>1247.03623843</ele>
        <time>2015-12-10T14:09:40Z</time>
      </trkpt>
      <trkpt lat="45.40321" lon="5.90216">
        <ele>1247.03623843</ele>
        <time>2015-12-10T14:09:45Z</time>
      </trkpt>
      <trkpt lat="45.4032" lon="5.90216">
        <ele>1247.03623843</ele>
        <time>2015-12-10T14:09:55Z</time>
      </trkpt>
      <trkpt lat="45.40319" lon="5.90216">
        <ele>1247.03623843</ele>
        <time>2015-12-10T14:10:00Z</time>
      </trkpt>
      <trkpt lat="45.40319" lon="5.90216">
        <ele>1247.03623843</ele>
        <time>2015-12-10T14:10:10Z</time>
      </trkpt>
      <trkpt lat="45.40319" lon="5.90216">
        <ele>1247.03623843</ele>
        <time>2015-12-10T14:10:14Z</time>
      </trkpt>
      <trkpt lat="45.40319" lon="5.90216">
        <ele>1247.03623843</ele>
        <time>2015-12-10T14:10:25Z</time>
      </trkpt>
      <trkpt lat="45.40319" lon="5.90216">
        <ele>1247.03623843</ele>
        <time>2015-12-10T14:10:30Z</time>
      </trkpt>
      <trkpt lat="45.40319" lon="5.90216">
        <ele>1247.03623843</ele>
        <time>2015-12-10T14:10:40Z</time>
      </trkpt>
      <trkpt lat="45.40319" lon="5.90216">
        <ele>1247.03623843</ele>
        <time>2015-12-10T14:10:44Z</time>
      </trkpt>
      <trkpt lat="45.40317" lon="5.90209">
        <ele>1239.468666586</ele>
        <time>2015-12-10T14:10:55Z</time>
      </trkpt>
      <trkpt lat="45.40317" lon="5.90203">
        <ele>1239.468666586</ele>
        <time>2015-12-10T14:10:59Z</time>
      </trkpt>
      <trkpt lat="45.4032" lon="5.9017">
        <ele>1231.54391744</ele>
        <time>2015-12-10T14:11:10Z</time>
      </trkpt>
      <trkpt lat="45.40323" lon="5.90161">
        <ele>1231.54391744</ele>
        <time>2015-12-10T14:11:14Z</time>
      </trkpt>
      <trkpt lat="45.40335" lon="5.90145">
        <ele>1224.307574424</ele>
        <time>2015-12-10T14:11:30Z</time>
      </trkpt>
      <trkpt lat="45.4034" lon="5.90129">
        <ele>1216.99684534</ele>
        <time>2015-12-10T14:11:45Z</time>
      </trkpt>
      <trkpt lat="45.40341" lon="5.90121">
        <ele>1216.99684534</ele>
        <time>2015-12-10T14:11:49Z</time>
      </trkpt>
      <trkpt lat="45.40335" lon="5.9011">
        <ele>1210.201875616</ele>
        <time>2015-12-10T14:12:00Z</time>
      </trkpt>
      <trkpt lat="45.40335" lon="5.90109">
        <ele>1210.201875616</ele>
        <time>2015-12-10T14:12:05Z</time>
      </trkpt>
      <trkpt lat="45.40335" lon="5.90091">
        <ele>1204.035373164</ele>
        <time>2015-12-10T14:12:15Z</time>
      </trkpt>
      <trkpt lat="45.40337" lon="5.90086">
        <ele>1204.035373164</ele>
        <time>2015-12-10T14:12:20Z</time>
      </trkpt>
      <trkpt lat="45.40337" lon="5.90068">
        <ele>1198.023257559</ele>
        <time>2015-12-10T14:12:30Z</time>
      </trkpt>
      <trkpt lat="45.40338" lon="5.90061">
        <ele>1198.023257559</ele>
        <time>2015-12-10T14:12:35Z</time>
      </trkpt>
      <trkpt lat="45.40342" lon="5.90058">
        <ele>1191.869657943</ele>
        <time>2015-12-10T14:12:45Z</time>
      </trkpt>
      <trkpt lat="45.40342" lon="5.90047">
        <ele>1191.869657943</ele>
        <time>2015-12-10T14:12:50Z</time>
      </trkpt>
      <trkpt lat="45.40345" lon="5.90036">
        <ele>1185.876995094</ele>
        <time>2015-12-10T14:12:59Z</time>
      </trkpt>
      <trkpt lat="45.40345" lon="5.90024">
        <ele>1185.876995094</ele>
        <time>2015-12-10T14:13:05Z</time>
      </trkpt>
      <trkpt lat="45.40349" lon="5.90005">
        <ele>1180.324749924</ele>
        <time>2015-12-10T14:13:20Z</time>
      </trkpt>
      <trkpt lat="45.4035" lon="5.90006">
        <ele>1180.324749924</ele>
        <time>2015-12-10T14:13:24Z</time>
      </trkpt>
      <trkpt lat="45.40351" lon="5.9001">
        <ele>1180.324749924</ele>
        <time>2015-12-10T14:13:29Z</time>
      </trkpt>
      <trkpt lat="45.40351" lon="5.90012">
        <ele>1180.324749924</ele>
        <time>2015-12-10T14:13:34Z</time>
      </trkpt>
      <trkpt lat="45.40351" lon="5.90012">
        <ele>1180.324749924</ele>
        <time>2015-12-10T14:13:39Z</time>
      </trkpt>
      <trkpt lat="45.40351" lon="5.90012">
        <ele>1180.324749924</ele>
        <time>2015-12-10T14:13:44Z</time>
      </trkpt>
      <trkpt lat="45.40351" lon="5.90012">
        <ele>1180.324749924</ele>
        <time>2015-12-10T14:13:49Z</time>
      </trkpt>
      <trkpt lat="45.40351" lon="5.90012">
        <ele>1180.324749924</ele>
        <time>2015-12-10T14:13:54Z</time>
      </trkpt>
      <trkpt lat="45.40353" lon="5.90009">
        <ele>1180.324749924</ele>
        <time>2015-12-10T14:14:04Z</time>
      </trkpt>
      <trkpt lat="45.40348" lon="5.89993">
        <ele>1176.190935387</ele>
        <time>2015-12-10T14:14:09Z</time>
      </trkpt>
      <trkpt lat="45.40348" lon="5.89974">
        <ele>1170.34238516</ele>
        <time>2015-12-10T14:14:19Z</time>
      </trkpt>
      <trkpt lat="45.40355" lon="5.89973">
        <ele>1170.34238516</ele>
        <time>2015-12-10T14:14:24Z</time>
      </trkpt>
      <trkpt lat="45.40362" lon="5.89963">
        <ele>1164.34812237</ele>
        <time>2015-12-10T14:14:34Z</time>
      </trkpt>
      <trkpt lat="45.40363" lon="5.89954">
        <ele>1164.34812237</ele>
        <time>2015-12-10T14:14:39Z</time>
      </trkpt>
      <trkpt lat="45.40363" lon="5.8993">
        <ele>1159.229774643</ele>
        <time>2015-12-10T14:14:50Z</time>
      </trkpt>
      <trkpt lat="45.40365" lon="5.89921">
        <ele>1159.229774643</ele>
        <time>2015-12-10T14:14:54Z</time>
      </trkpt>
      <trkpt lat="45.40373" lon="5.89898">
        <ele>1155.066602782</ele>
        <time>2015-12-10T14:15:06Z</time>
      </trkpt>
      <trkpt lat="45.40375" lon="5.89892">
        <ele>1155.066602782</ele>
        <time>2015-12-10T14:15:10Z</time>
      </trkpt>
      <trkpt lat="45.4038" lon="5.8988">
        <ele>1151.496855224</ele>
        <time>2015-12-10T14:15:19Z</time>
      </trkpt>
      <trkpt lat="45.40385" lon="5.89869">
        <ele>1147.607088748</ele>
        <time>2015-12-10T14:15:25Z</time>
      </trkpt>
      <trkpt lat="45.40391" lon="5.89858">
        <ele>1144.569283706</ele>
        <time>2015-12-10T14:15:34Z</time>
      </trkpt>
      <trkpt lat="45.40391" lon="5.89844">
        <ele>1142.313944271</ele>
        <time>2015-12-10T14:15:39Z</time>
      </trkpt>
      <trkpt lat="45.40395" lon="5.89837">
        <ele>1142.313944271</ele>
        <time>2015-12-10T14:15:50Z</time>
      </trkpt>
      <trkpt lat="45.40394" lon="5.89836">
        <ele>1142.313944271</ele>
        <time>2015-12-10T14:15:54Z</time>
      </trkpt>
      <trkpt lat="45.40402" lon="5.89818">
        <ele>1138.180405393</ele>
        <time>2015-12-10T14:16:05Z</time>
      </trkpt>
      <trkpt lat="45.40401" lon="5.89806">
        <ele>1138.180405393</ele>
        <time>2015-12-10T14:16:10Z</time>
      </trkpt>
      <trkpt lat="45.40402" lon="5.89792">
        <ele>1133.455557017</ele>
        <time>2015-12-10T14:16:19Z</time>
      </trkpt>
      <trkpt lat="45.40406" lon="5.8979">
        <ele>1133.455557017</ele>
        <time>2015-12-10T14:16:24Z</time>
      </trkpt>
      <trkpt lat="45.40418" lon="5.89759">
        <ele>1128.61282217</ele>
        <time>2015-12-10T14:16:39Z</time>
      </trkpt>
      <trkpt lat="45.40427" lon="5.89727">
        <ele>1124.811713148</ele>
        <time>2015-12-10T14:16:54Z</time>
      </trkpt>
      <trkpt lat="45.40429" lon="5.89721">
        <ele>1124.811713148</ele>
        <time>2015-12-10T14:16:59Z</time>
      </trkpt>
      <trkpt lat="45.40434" lon="5.89702">
        <ele>1121.826636201</ele>
        <time>2015-12-10T14:17:10Z</time>
      </trkpt>
      <trkpt lat="45.40436" lon="5.89693">
        <ele>1121.826636201</ele>
        <time>2015-12-10T14:17:15Z</time>
      </trkpt>
      <trkpt lat="45.40437" lon="5.89688">
        <ele>1119.446289712</ele>
        <time>2015-12-10T14:17:25Z</time>
      </trkpt>
      <trkpt lat="45.40437" lon="5.89687">
        <ele>1119.446289712</ele>
        <time>2015-12-10T14:17:29Z</time>
      </trkpt>
      <trkpt lat="45.40436" lon="5.89686">
        <ele>1119.446289712</ele>
        <time>2015-12-10T14:17:34Z</time>
      </trkpt>
      <trkpt lat="45.40438" lon="5.8967">
        <ele>1117.761449535</ele>
        <time>2015-12-10T14:17:39Z</time>
      </trkpt>
      <trkpt lat="45.40439" lon="5.89663">
        <ele>1117.761449535</ele>
        <time>2015-12-10T14:17:46Z</time>
      </trkpt>
      <trkpt lat="45.40443" lon="5.89648">
        <ele>1116.566103824</ele>
        <time>2015-12-10T14:17:49Z</time>
      </trkpt>
      <trkpt lat="45.40442" lon="5.89638">
        <ele>1116.566103824</ele>
        <time>2015-12-10T14:17:54Z</time>
      </trkpt>
      <trkpt lat="45.40443" lon="5.89628">
        <ele>1115.523971176</ele>
        <time>2015-12-10T14:17:59Z</time>
      </trkpt>
      <trkpt lat="45.40446" lon="5.89622">
        <ele>1115.523971176</ele>
        <time>2015-12-10T14:18:04Z</time>
      </trkpt>
      <trkpt lat="45.40447" lon="5.89609">
        <ele>1115.331932652</ele>
        <time>2015-12-10T14:18:10Z</time>
      </trkpt>
      <trkpt lat="45.40454" lon="5.89604">
        <ele>1115.331932652</ele>
        <time>2015-12-10T14:18:15Z</time>
      </trkpt>
      <trkpt lat="45.40456" lon="5.89603">
        <ele>1114.904099288</ele>
        <time>2015-12-10T14:18:19Z</time>
      </trkpt>
      <trkpt lat="45.40458" lon="5.89597">
        <ele>1114.904099288</ele>
        <time>2015-12-10T14:18:25Z</time>
      </trkpt>
      <trkpt lat="45.40466" lon="5.89593">
        <ele>1114.53218399</ele>
        <time>2015-12-10T14:18:29Z</time>
      </trkpt>
      <trkpt lat="45.40474" lon="5.89585">
        <ele>1114.198291219</ele>
        <time>2015-12-10T14:18:35Z</time>
      </trkpt>
      <trkpt lat="45.40482" lon="5.89583">
        <ele>1114.198291219</ele>
        <time>2015-12-10T14:18:39Z</time>
      </trkpt>
      <trkpt lat="45.4049" lon="5.8958">
        <ele>1114.750628456</ele>
        <time>2015-12-10T14:18:45Z</time>
      </trkpt>
      <trkpt lat="45.40492" lon="5.89576">
        <ele>1114.750628456</ele>
        <time>2015-12-10T14:18:50Z</time>
      </trkpt>
      <trkpt lat="45.40497" lon="5.89575">
        <ele>1114.750628456</ele>
        <time>2015-12-10T14:18:55Z</time>
      </trkpt>
      <trkpt lat="45.40502" lon="5.8957">
        <ele>1115.675862953</ele>
        <time>2015-12-10T14:18:59Z</time>
      </trkpt>
      <trkpt lat="45.40508" lon="5.89566">
        <ele>1115.675862953</ele>
        <time>2015-12-10T14:19:05Z</time>
      </trkpt>
      <trkpt lat="45.40516" lon="5.89554">
        <ele>1116.929941073</ele>
        <time>2015-12-10T14:19:09Z</time>
      </trkpt>
      <trkpt lat="45.40518" lon="5.89545">
        <ele>1116.929941073</ele>
        <time>2015-12-10T14:19:14Z</time>
      </trkpt>
      <trkpt lat="45.40522" lon="5.89535">
        <ele>1119.191990418</ele>
        <time>2015-12-10T14:19:19Z</time>
      </trkpt>
      <trkpt lat="45.40526" lon="5.89526">
        <ele>1119.191990418</ele>
        <time>2015-12-10T14:19:24Z</time>
      </trkpt>
      <trkpt lat="45.4053" lon="5.89516">
        <ele>1121.359430205</ele>
        <time>2015-12-10T14:19:30Z</time>
      </trkpt>
      <trkpt lat="45.40535" lon="5.89508">
        <ele>1121.359430205</ele>
        <time>2015-12-10T14:19:35Z</time>
      </trkpt>
      <trkpt lat="45.4054" lon="5.89514">
        <ele>1122.987754932</ele>
        <time>2015-12-10T14:19:39Z</time>
      </trkpt>
      <trkpt lat="45.40543" lon="5.89515">
        <ele>1122.987754932</ele>
        <time>2015-12-10T14:19:44Z</time>
      </trkpt>
      <trkpt lat="45.40552" lon="5.89516">
        <ele>1141.392724429</ele>
        <time>2015-12-10T14:19:49Z</time>
      </trkpt>
      <trkpt lat="45.40557" lon="5.89513">
        <ele>1141.392724429</ele>
        <time>2015-12-10T14:19:54Z</time>
      </trkpt>
      <trkpt lat="45.40562" lon="5.89511">
        <ele>1142.70903569</ele>
        <time>2015-12-10T14:19:59Z</time>
      </trkpt>
      <trkpt lat="45.40567" lon="5.89512">
        <ele>1142.70903569</ele>
        <time>2015-12-10T14:20:04Z</time>
      </trkpt>
      <trkpt lat="45.40585" lon="5.89506">
        <ele>1159.160619224</ele>
        <time>2015-12-10T14:20:19Z</time>
      </trkpt>
      <trkpt lat="45.40589" lon="5.89507">
        <ele>1159.160619224</ele>
        <time>2015-12-10T14:20:24Z</time>
      </trkpt>
      <trkpt lat="45.40597" lon="5.8952">
        <ele>1156.288812716</ele>
        <time>2015-12-10T14:20:35Z</time>
      </trkpt>
      <trkpt lat="45.40602" lon="5.89518">
        <ele>1156.288812716</ele>
        <time>2015-12-10T14:20:39Z</time>
      </trkpt>
      <trkpt lat="45.40614" lon="5.89521">
        <ele>1153.524687907</ele>
        <time>2015-12-10T14:20:50Z</time>
      </trkpt>
      <trkpt lat="45.40617" lon="5.89523">
        <ele>1153.524687907</ele>
        <time>2015-12-10T14:20:54Z</time>
      </trkpt>
      <trkpt lat="45.40627" lon="5.8953">
        <ele>1151.002475906</ele>
        <time>2015-12-10T14:21:04Z</time>
      </trkpt>
      <trkpt lat="45.40632" lon="5.89529">
        <ele>1151.002475906</ele>
        <time>2015-12-10T14:21:10Z</time>
      </trkpt>
      <trkpt lat="45.40639" lon="5.89532">
        <ele>1149.134717015</ele>
        <time>2015-12-10T14:21:19Z</time>
      </trkpt>
      <trkpt lat="45.4064" lon="5.89533">
        <ele>1149.134717015</ele>
        <time>2015-12-10T14:21:24Z</time>
      </trkpt>
      <trkpt lat="45.40661" lon="5.89539">
        <ele>1146.717172328</ele>
        <time>2015-12-10T14:21:35Z</time>
      </trkpt>
      <trkpt lat="45.40666" lon="5.89547">
        <ele>1146.717172328</ele>
        <time>2015-12-10T14:21:40Z</time>
      </trkpt>
      <trkpt lat="45.40676" lon="5.89548">
        <ele>1145.374267607</ele>
        <time>2015-12-10T14:21:44Z</time>
      </trkpt>
      <trkpt lat="45.40697" lon="5.89548">
        <ele>1143.294040064</ele>
        <time>2015-12-10T14:21:55Z</time>
      </trkpt>
      <trkpt lat="45.40704" lon="5.89549">
        <ele>1143.294040064</ele>
        <time>2015-12-10T14:22:00Z</time>
      </trkpt>
      <trkpt lat="45.40711" lon="5.8955">
        <ele>1140.817735974</ele>
        <time>2015-12-10T14:22:09Z</time>
      </trkpt>
      <trkpt lat="45.40719" lon="5.89555">
        <ele>1140.817735974</ele>
        <time>2015-12-10T14:22:15Z</time>
      </trkpt>
      <trkpt lat="45.40737" lon="5.89554">
        <ele>1137.686644514</ele>
        <time>2015-12-10T14:22:24Z</time>
      </trkpt>
      <trkpt lat="45.40754" lon="5.8955">
        <ele>1134.816195648</ele>
        <time>2015-12-10T14:22:29Z</time>
      </trkpt>
      <trkpt lat="45.4077" lon="5.89536">
        <ele>1132.045437288</ele>
        <time>2015-12-10T14:22:40Z</time>
      </trkpt>
      <trkpt lat="45.40777" lon="5.89533">
        <ele>1132.045437288</ele>
        <time>2015-12-10T14:22:44Z</time>
      </trkpt>
      <trkpt lat="45.40783" lon="5.89533">
        <ele>1129.369411512</ele>
        <time>2015-12-10T14:22:54Z</time>
      </trkpt>
      <trkpt lat="45.40792" lon="5.89536">
        <ele>1126.927676214</ele>
        <time>2015-12-10T14:22:59Z</time>
      </trkpt>
      <trkpt lat="45.40817" lon="5.89518">
        <ele>1124.993268084</ele>
        <time>2015-12-10T14:23:15Z</time>
      </trkpt>
      <trkpt lat="45.40821" lon="5.89514">
        <ele>1124.993268084</ele>
        <time>2015-12-10T14:23:20Z</time>
      </trkpt>
      <trkpt lat="45.40838" lon="5.89495">
        <ele>1122.953326452</ele>
        <time>2015-12-10T14:23:30Z</time>
      </trkpt>
      <trkpt lat="45.40843" lon="5.8949">
        <ele>1122.953326452</ele>
        <time>2015-12-10T14:23:35Z</time>
      </trkpt>
      <trkpt lat="45.40854" lon="5.89479">
        <ele>1121.105200391</ele>
        <time>2015-12-10T14:23:44Z</time>
      </trkpt>
      <trkpt lat="45.40859" lon="5.89464">
        <ele>1119.291729499</ele>
        <time>2015-12-10T14:23:49Z</time>
      </trkpt>
      <trkpt lat="45.40862" lon="5.89456">
        <ele>1119.291729499</ele>
        <time>2015-12-10T14:23:59Z</time>
      </trkpt>
      <trkpt lat="45.40861" lon="5.89442">
        <ele>1117.079164052</ele>
        <time>2015-12-10T14:24:04Z</time>
      </trkpt>
      <trkpt lat="45.40861" lon="5.89423">
        <ele>1114.355124516</ele>
        <time>2015-12-10T14:24:15Z</time>
      </trkpt>
      <trkpt lat="45.40861" lon="5.89409">
        <ele>1112.025845463</ele>
        <time>2015-12-10T14:24:20Z</time>
      </trkpt>
      <trkpt lat="45.40862" lon="5.89405">
        <ele>1112.025845463</ele>
        <time>2015-12-10T14:24:24Z</time>
      </trkpt>
      <trkpt lat="45.40859" lon="5.8939">
        <ele>1109.488896595</ele>
        <time>2015-12-10T14:24:35Z</time>
      </trkpt>
      <trkpt lat="45.40864" lon="5.89376">
        <ele>1107.051457245</ele>
        <time>2015-12-10T14:24:39Z</time>
      </trkpt>
      <trkpt lat="45.40865" lon="5.89353">
        <ele>1105.286172947</ele>
        <time>2015-12-10T14:24:49Z</time>
      </trkpt>
      <trkpt lat="45.40865" lon="5.89349">
        <ele>1105.286172947</ele>
        <time>2015-12-10T14:24:55Z</time>
      </trkpt>
      <trkpt lat="45.40865" lon="5.8934">
        <ele>1103.713032514</ele>
        <time>2015-12-10T14:25:04Z</time>
      </trkpt>
      <trkpt lat="45.40867" lon="5.89328">
        <ele>1103.713032514</ele>
        <time>2015-12-10T14:25:09Z</time>
      </trkpt>
      <trkpt lat="45.40873" lon="5.89309">
        <ele>1102.03091877</ele>
        <time>2015-12-10T14:25:20Z</time>
      </trkpt>
      <trkpt lat="45.40876" lon="5.89302">
        <ele>1102.03091877</ele>
        <time>2015-12-10T14:25:24Z</time>
      </trkpt>
      <trkpt lat="45.40889" lon="5.8929">
        <ele>1101.114081126</ele>
        <time>2015-12-10T14:25:35Z</time>
      </trkpt>
      <trkpt lat="45.40896" lon="5.89288">
        <ele>1101.114081126</ele>
        <time>2015-12-10T14:25:39Z</time>
      </trkpt>
      <trkpt lat="45.40909" lon="5.89275">
        <ele>1098.744108702</ele>
        <time>2015-12-10T14:25:49Z</time>
      </trkpt>
      <trkpt lat="45.4092" lon="5.89269">
        <ele>1096.760666731</ele>
        <time>2015-12-10T14:25:55Z</time>
      </trkpt>
      <trkpt lat="45.40925" lon="5.89266">
        <ele>1096.760666731</ele>
        <time>2015-12-10T14:26:04Z</time>
      </trkpt>
      <trkpt lat="45.40925" lon="5.89263">
        <ele>1096.760666731</ele>
        <time>2015-12-10T14:26:09Z</time>
      </trkpt>
      <trkpt lat="45.40936" lon="5.89256">
        <ele>1094.993777089</ele>
        <time>2015-12-10T14:26:20Z</time>
      </trkpt>
      <trkpt lat="45.40943" lon="5.89248">
        <ele>1094.150027771</ele>
        <time>2015-12-10T14:26:24Z</time>
      </trkpt>
      <trkpt lat="45.40955" lon="5.89231">
        <ele>1094.160971512</ele>
        <time>2015-12-10T14:26:35Z</time>
      </trkpt>
      <trkpt lat="45.40961" lon="5.89223">
        <ele>1094.160971512</ele>
        <time>2015-12-10T14:26:40Z</time>
      </trkpt>
      <trkpt lat="45.40963" lon="5.89219">
        <ele>1094.67258577</ele>
        <time>2015-12-10T14:26:44Z</time>
      </trkpt>
      <trkpt lat="45.40981" lon="5.89205">
        <ele>1095.643694793</ele>
        <time>2015-12-10T14:26:55Z</time>
      </trkpt>
      <trkpt lat="45.40983" lon="5.89197">
        <ele>1095.643694793</ele>
        <time>2015-12-10T14:26:59Z</time>
      </trkpt>
      <trkpt lat="45.40993" lon="5.89185">
        <ele>1096.746669308</ele>
        <time>2015-12-10T14:27:09Z</time>
      </trkpt>
      <trkpt lat="45.41" lon="5.89176">
        <ele>1097.821734543</ele>
        <time>2015-12-10T14:27:15Z</time>
      </trkpt>
      <trkpt lat="45.41008" lon="5.89168">
        <ele>1098.865101336</ele>
        <time>2015-12-10T14:27:24Z</time>
      </trkpt>
      <trkpt lat="45.41012" lon="5.89167">
        <ele>1098.865101336</ele>
        <time>2015-12-10T14:27:29Z</time>
      </trkpt>
      <trkpt lat="45.41022" lon="5.89155">
        <ele>1099.008751399</ele>
        <time>2015-12-10T14:27:40Z</time>
      </trkpt>
      <trkpt lat="45.41027" lon="5.89149">
        <ele>1099.008751399</ele>
        <time>2015-12-10T14:27:44Z</time>
      </trkpt>
      <trkpt lat="45.41047" lon="5.8913">
        <ele>1099.180368352</ele>
        <time>2015-12-10T14:27:55Z</time>
      </trkpt>
      <trkpt lat="45.41047" lon="5.89123">
        <ele>1099.180368352</ele>
        <time>2015-12-10T14:28:00Z</time>
      </trkpt>
      <trkpt lat="45.41045" lon="5.89099">
        <ele>1099.807163749</ele>
        <time>2015-12-10T14:28:09Z</time>
      </trkpt>
      <trkpt lat="45.41041" lon="5.89089">
        <ele>1099.807163749</ele>
        <time>2015-12-10T14:28:15Z</time>
      </trkpt>
      <trkpt lat="45.41038" lon="5.89073">
        <ele>1100.707337502</ele>
        <time>2015-12-10T14:28:24Z</time>
      </trkpt>
      <trkpt lat="45.4104" lon="5.89064">
        <ele>1100.707337502</ele>
        <time>2015-12-10T14:28:29Z</time>
      </trkpt>
      <trkpt lat="45.41037" lon="5.89048">
        <ele>1102.144109692</ele>
        <time>2015-12-10T14:28:40Z</time>
      </trkpt>
      <trkpt lat="45.41038" lon="5.8904">
        <ele>1102.144109692</ele>
        <time>2015-12-10T14:28:44Z</time>
      </trkpt>
      <trkpt lat="45.4104" lon="5.89019">
        <ele>1102.630629582</ele>
        <time>2015-12-10T14:28:55Z</time>
      </trkpt>
      <trkpt lat="45.4104" lon="5.8901">
        <ele>1102.630629582</ele>
        <time>2015-12-10T14:29:00Z</time>
      </trkpt>
      <trkpt lat="45.41041" lon="5.89005">
        <ele>1103.386047366</ele>
        <time>2015-12-10T14:29:04Z</time>
      </trkpt>
      <trkpt lat="45.41044" lon="5.88994">
        <ele>1103.386047366</ele>
        <time>2015-12-10T14:29:15Z</time>
      </trkpt>
      <trkpt lat="45.41049" lon="5.88971">
        <ele>1104.386428501</ele>
        <time>2015-12-10T14:29:30Z</time>
      </trkpt>
      <trkpt lat="45.41051" lon="5.88958">
        <ele>1105.320808881</ele>
        <time>2015-12-10T14:29:35Z</time>
      </trkpt>
      <trkpt lat="45.41055" lon="5.88944">
        <ele>1105.757266203</ele>
        <time>2015-12-10T14:29:44Z</time>
      </trkpt>
      <trkpt lat="45.41058" lon="5.8894">
        <ele>1105.757266203</ele>
        <time>2015-12-10T14:29:49Z</time>
      </trkpt>
      <trkpt lat="45.41069" lon="5.88923">
        <ele>1105.729463293</ele>
        <time>2015-12-10T14:30:00Z</time>
      </trkpt>
      <trkpt lat="45.41071" lon="5.8892">
        <ele>1105.729463293</ele>
        <time>2015-12-10T14:30:04Z</time>
      </trkpt>
      <trkpt lat="45.4108" lon="5.88899">
        <ele>1105.846463018</ele>
        <time>2015-12-10T14:30:15Z</time>
      </trkpt>
      <trkpt lat="45.41085" lon="5.88895">
        <ele>1105.846463018</ele>
        <time>2015-12-10T14:30:20Z</time>
      </trkpt>
      <trkpt lat="45.41091" lon="5.88881">
        <ele>1105.807636781</ele>
        <time>2015-12-10T14:30:29Z</time>
      </trkpt>
      <trkpt lat="45.41098" lon="5.88874">
        <ele>1105.807636781</ele>
        <time>2015-12-10T14:30:35Z</time>
      </trkpt>
      <trkpt lat="45.41106" lon="5.88865">
        <ele>1104.47032664</ele>
        <time>2015-12-10T14:30:44Z</time>
      </trkpt>
      <trkpt lat="45.4111" lon="5.88861">
        <ele>1104.47032664</ele>
        <time>2015-12-10T14:30:49Z</time>
      </trkpt>
      <trkpt lat="45.41126" lon="5.88851">
        <ele>1102.364785401</ele>
        <time>2015-12-10T14:31:00Z</time>
      </trkpt>
      <trkpt lat="45.41133" lon="5.88847">
        <ele>1102.364785401</ele>
        <time>2015-12-10T14:31:05Z</time>
      </trkpt>
      <trkpt lat="45.41137" lon="5.88833">
        <ele>1099.840449756</ele>
        <time>2015-12-10T14:31:15Z</time>
      </trkpt>
      <trkpt lat="45.41146" lon="5.88821">
        <ele>1097.510558063</ele>
        <time>2015-12-10T14:31:20Z</time>
      </trkpt>
      <trkpt lat="45.41156" lon="5.88801">
        <ele>1094.5016953</ele>
        <time>2015-12-10T14:31:34Z</time>
      </trkpt>
      <trkpt lat="45.41168" lon="5.88782">
        <ele>1091.159429473</ele>
        <time>2015-12-10T14:31:49Z</time>
      </trkpt>
      <trkpt lat="45.41172" lon="5.88783">
        <ele>1091.159429473</ele>
        <time>2015-12-10T14:31:54Z</time>
      </trkpt>
      <trkpt lat="45.41176" lon="5.88766">
        <ele>1086.65199194</ele>
        <time>2015-12-10T14:32:05Z</time>
      </trkpt>
      <trkpt lat="45.41177" lon="5.88759">
        <ele>1086.65199194</ele>
        <time>2015-12-10T14:32:09Z</time>
      </trkpt>
      <trkpt lat="45.41183" lon="5.88742">
        <ele>1082.085404434</ele>
        <time>2015-12-10T14:32:20Z</time>
      </trkpt>
      <trkpt lat="45.41187" lon="5.88734">
        <ele>1082.085404434</ele>
        <time>2015-12-10T14:32:25Z</time>
      </trkpt>
      <trkpt lat="45.41197" lon="5.88725">
        <ele>1076.75521771</ele>
        <time>2015-12-10T14:32:34Z</time>
      </trkpt>
      <trkpt lat="45.41204" lon="5.88721">
        <ele>1076.75521771</ele>
        <time>2015-12-10T14:32:40Z</time>
      </trkpt>
      <trkpt lat="45.41217" lon="5.88708">
        <ele>1071.30778621</ele>
        <time>2015-12-10T14:32:49Z</time>
      </trkpt>
      <trkpt lat="45.41228" lon="5.88704">
        <ele>1066.053970236</ele>
        <time>2015-12-10T14:32:55Z</time>
      </trkpt>
      <trkpt lat="45.41234" lon="5.88686">
        <ele>1060.560543907</ele>
        <time>2015-12-10T14:33:05Z</time>
      </trkpt>
      <trkpt lat="45.41239" lon="5.88683">
        <ele>1060.560543907</ele>
        <time>2015-12-10T14:33:09Z</time>
      </trkpt>
      <trkpt lat="45.41253" lon="5.88669">
        <ele>1055.579486666</ele>
        <time>2015-12-10T14:33:20Z</time>
      </trkpt>
      <trkpt lat="45.41259" lon="5.88662">
        <ele>1055.579486666</ele>
        <time>2015-12-10T14:33:25Z</time>
      </trkpt>
      <trkpt lat="45.41262" lon="5.88656">
        <ele>1050.941227604</ele>
        <time>2015-12-10T14:33:29Z</time>
      </trkpt>
      <trkpt lat="45.41264" lon="5.88649">
        <ele>1050.941227604</ele>
        <time>2015-12-10T14:33:35Z</time>
      </trkpt>
      <trkpt lat="45.41264" lon="5.88649">
        <ele>1050.941227604</ele>
        <time>2015-12-10T14:33:40Z</time>
      </trkpt>
      <trkpt lat="45.41265" lon="5.88648">
        <ele>1050.941227604</ele>
        <time>2015-12-10T14:33:55Z</time>
      </trkpt>
      <trkpt lat="45.41265" lon="5.88648">
        <ele>1050.941227604</ele>
        <time>2015-12-10T14:34:00Z</time>
      </trkpt>
      <trkpt lat="45.41265" lon="5.88648">
        <ele>1050.941227604</ele>
        <time>2015-12-10T14:34:09Z</time>
      </trkpt>
      <trkpt lat="45.41265" lon="5.88648">
        <ele>1050.941227604</ele>
        <time>2015-12-10T14:34:14Z</time>
      </trkpt>
      <trkpt lat="45.41265" lon="5.88649">
        <ele>1050.941227604</ele>
        <time>2015-12-10T14:34:25Z</time>
      </trkpt>
      <trkpt lat="45.41266" lon="5.8865">
        <ele>1050.941227604</ele>
        <time>2015-12-10T14:34:29Z</time>
      </trkpt>
    </trkseg>
  </trk>
</gpx>